# Wetter Temperatur Luftdruck Luftfeuchtigkeit Sichtweite Windgeschwindigkeit Windrichtung Zeit
1 Clouds 1 1023 32 0 3.23 42 21:19 02.04.2020
2 Clouds 1 1023 32 0 3.23 42 20:58 02.04.2020
3 Clouds 1 1023 32 0 3.23 42 20:58 02.04.2020
4 Clouds 1 1023 32 0 3.23 42 20:40 02.04.2020
5 Clouds 1 1023 32 0 3.23 42 20:21 02.04.2020
6 Clouds 1 1023 32 0 3.23 42 19:44 02.04.2020
7 Clouds 1 1023 32 0 3.23 42 19:21 02.04.2020
8 Clouds 1 1023 32 0 3.23 42 18:58 02.04.2020
9 Clouds 1 1023 32 0 3.23 42 18:39 02.04.2020
10 Snow 2 1020 32 0 2.39 34 18:20 02.04.2020
11 Snow 2 1020 32 0 2.39 34 17:56 02.04.2020
12 Snow 2 1020 32 0 2.39 34 17:38 02.04.2020
13 Snow 2 1020 32 0 2.39 34 17:19 02.04.2020
14 Snow 2 1020 32 0 2.39 34 16:55 02.04.2020
15 Snow 2 1020 32 0 2.39 34 16:37 02.04.2020
16 Snow 2 1020 32 0 2.39 34 16:19 02.04.2020
17 Snow 2 1020 32 0 2.39 34 15:44 02.04.2020
18 Snow 2 1020 32 0 2.39 34 15:21 02.04.2020
19 Clouds 8 1015 25 0 1.46 230 14:59 02.04.2020
20 Clouds 8 1015 25 0 1.46 230 14:40 02.04.2020
21 Clouds 8 1015 25 0 1.46 230 14:20 02.04.2020
22 Clouds 8 1015 25 0 1.08 232 13:57 02.04.2020
23 Clouds 8 1015 25 0 1.08 232 13:38 02.04.2020
24 Clouds 8 1015 25 0 1.08 232 13:38 02.04.2020
25 Clouds 8 1015 25 0 1.08 232 13:20 02.04.2020
26 Clouds 8 1015 25 0 1.08 232 12:55 02.04.2020
27 Clouds 8 1015 25 0 1.08 232 12:37 02.04.2020
28 Clouds 11 1015 21 0 3.37 223 12:19 02.04.2020
29 Clouds 11 1015 21 0 3.37 223 11:56 02.04.2020
30 Clouds 11 1015 21 0 3.37 223 11:37 02.04.2020
31 Clouds 11 1015 21 0 3.37 223 11:37 02.04.2020
32 Clouds 11 1015 21 0 3.37 223 11:18 02.04.2020
33 Clouds 11 1015 21 0 3.37 223 10:54 02.04.2020
34 Clouds 11 1015 21 0 3.37 223 10:36 02.04.2020
35 Clouds 11 1015 21 0 3.37 223 10:18 02.04.2020
36 Clouds 11 1015 21 0 3.37 223 09:43 02.04.2020
37 Clouds 11 1015 21 0 3.37 223 09:24 02.04.2020
38 Clouds 11 1018 21 0 2.72 223 08:58 02.04.2020
39 Clouds 11 1018 21 0 2.72 223 08:40 02.04.2020
40 Clouds 11 1018 21 0 2.72 223 08:20 02.04.2020
41 Clouds 11 1018 21 0 2.72 223 07:43 02.04.2020
42 Clouds 11 1018 21 0 2.72 223 07:20 02.04.2020
43 Clouds 11 1018 21 0 2.72 223 06:57 02.04.2020
44 Clouds 11 1018 21 0 2.72 223 06:21 02.04.2020
45 Clouds 8 1021 24 0 0.72 136 05:42 02.04.2020
46 Clouds 8 1021 24 0 0.72 136 03:24 02.04.2020
47 Clouds 2 1022 32 0 2.34 50 01:34 02.04.2020
48 Clouds 2 1022 32 0 2.34 50 00:46 02.04.2020
49 Clouds 2 1022 32 0 2.34 50 00:26 02.04.2020
50 Clouds 2 1022 33 0 2.68 47 23:41 01.04.2020
51 Clouds 2 1022 33 0 2.68 47 23:20 01.04.2020
52 Clouds 2 1022 33 0 2.68 47 22:59 01.04.2020
53 Clouds 2 1022 33 0 2.68 47 22:39 01.04.2020
54 Clouds 2 1022 33 0 2.68 47 22:21 01.04.2020
55 Clouds 2 1022 33 0 2.68 47 21:55 01.04.2020
56 Clouds 2 1022 33 0 2.68 47 21:36 01.04.2020
57 Rain 3 1022 31 0 2.51 43 21:18 01.04.2020
58 Rain 3 1022 31 0 2.51 43 20:54 01.04.2020
59 Rain 3 1022 31 0 2.51 43 20:36 01.04.2020
60 Rain 3 1022 31 0 2.51 43 20:18 01.04.2020
61 Rain 3 1022 31 0 2.51 43 19:41 01.04.2020
62 Rain 3 1022 31 0 2.51 43 19:21 01.04.2020
63 Rain 3 1022 31 0 2.51 43 18:46 01.04.2020
64 Rain 3 1022 31 0 2.51 43 18:27 01.04.2020
65 Rain 4 1020 31 0 1.36 43 17:59 01.04.2020
66 Rain 4 1020 31 0 1.36 43 17:59 01.04.2020
67 Rain 4 1020 31 0 1.36 43 17:39 01.04.2020
68 Rain 4 1020 31 0 1.36 43 17:21 01.04.2020
69 Rain 4 1020 31 0 1.36 43 16:59 01.04.2020
70 Rain 4 1020 31 0 1.36 43 16:41 01.04.2020
71 Rain 4 1020 31 0 1.36 43 16:22 01.04.2020
72 Rain 4 1020 31 0 1.36 43 15:58 01.04.2020
73 Rain 4 1020 31 0 1.36 43 15:40 01.04.2020
74 Rain 4 1020 31 0 1.36 43 15:21 01.04.2020
75 Rain 10 1015 27 0 2.01 247 14:57 01.04.2020
76 Rain 10 1015 27 0 2.01 247 14:57 01.04.2020
77 Rain 10 1015 27 0 2.01 247 14:38 01.04.2020
78 Rain 10 1015 27 0 2.01 247 14:19 01.04.2020
79 Rain 10 1016 26 0 2.24 244 13:58 01.04.2020
80 Rain 10 1016 26 0 2.24 244 13:37 01.04.2020
81 Rain 10 1016 26 0 2.24 244 13:19 01.04.2020
82 Rain 10 1016 26 0 2.24 244 12:55 01.04.2020
83 Rain 10 1016 26 0 2.24 244 12:36 01.04.2020
84 Rain 13 1017 21 0 3.05 228 12:18 01.04.2020
85 Rain 13 1017 21 0 3.05 228 11:42 01.04.2020
86 Rain 13 1017 21 0 3.05 228 11:23 01.04.2020
87 Rain 13 1017 21 0 3.05 228 10:58 01.04.2020
88 Rain 13 1017 21 0 3.05 228 10:38 01.04.2020
89 Rain 13 1017 21 0 3.05 228 10:19 01.04.2020
90 Rain 13 1017 21 0 3.05 228 09:57 01.04.2020
91 Rain 13 1017 21 0 3.05 228 09:57 01.04.2020
92 Rain 13 1017 21 0 3.05 228 09:38 01.04.2020
93 Clouds 13 1019 19 0 2.74 210 09:18 01.04.2020
94 Clouds 12 1019 21 0 2.42 211 08:41 01.04.2020
95 Clouds 12 1019 21 0 2.42 211 08:18 01.04.2020
96 Clouds 12 1019 21 0 2.42 211 07:46 01.04.2020
97 Clouds 12 1019 21 0 2.42 211 07:21 01.04.2020
98 Clouds 12 1019 21 0 2.42 211 06:52 01.04.2020
99 Clouds 12 1019 21 0 2.42 211 06:27 01.04.2020
100 Clouds 9 1020 24 0 1.01 92 05:58 01.04.2020
101 Clouds 9 1020 24 0 1.01 92 04:33 01.04.2020
102 Clouds 9 1020 24 0 1.01 92 03:32 01.04.2020
103 Rain 5 1019 30 0 1.08 60 02:57 01.04.2020
104 Rain 6 1018 29 0 0.73 76 01:59 01.04.2020
105 Rain 6 1018 29 0 0.73 76 01:40 01.04.2020
106 Rain 6 1018 29 0 0.73 76 01:19 01.04.2020
107 Rain 6 1018 29 0 0.73 76 00:46 01.04.2020
108 Rain 6 1018 29 0 0.73 76 00:21 01.04.2020
109 Rain 8 1017 30 0 1.62 246 23:48 31.03.2020
110 Rain 8 1017 30 0 1.62 246 23:27 31.03.2020
111 Rain 8 1017 30 0 1.62 246 22:59 31.03.2020
112 Rain 8 1017 30 0 1.62 246 22:37 31.03.2020
113 Rain 8 1017 30 0 1.62 246 22:19 31.03.2020
114 Rain 8 1017 30 0 1.62 246 21:57 31.03.2020
115 Rain 8 1017 30 0 1.62 246 21:39 31.03.2020
116 Rain 9 1018 30 0 1.02 227 21:20 31.03.2020
117 Rain 9 1018 30 0 1.53 237 20:55 31.03.2020
118 Rain 9 1018 30 0 1.53 237 20:37 31.03.2020
119 Rain 9 1018 30 0 1.53 237 20:18 31.03.2020
120 Rain 9 1018 30 0 1.53 237 19:42 31.03.2020
121 Rain 9 1018 30 0 1.53 237 19:24 31.03.2020
122 Rain 9 1018 30 0 1.53 237 18:59 31.03.2020
123 Rain 9 1018 30 0 1.53 237 18:41 31.03.2020
124 Rain 10 1018 29 0 0.78 177 18:19 31.03.2020
125 Rain 10 1018 29 0 0.78 177 17:55 31.03.2020
126 Rain 10 1018 29 0 0.78 177 17:37 31.03.2020
127 Rain 10 1018 29 0 0.78 177 17:37 31.03.2020
128 Rain 10 1018 29 0 0.78 177 17:19 31.03.2020
129 Rain 10 1018 29 0 0.78 177 16:41 31.03.2020
130 Rain 10 1018 29 0 0.78 177 16:20 31.03.2020
131 Rain 10 1018 29 0 0.78 177 15:58 31.03.2020
132 Rain 10 1018 29 0 0.78 177 15:40 31.03.2020
133 Rain 10 1018 29 0 0.78 177 15:22 31.03.2020
134 Rain 11 1016 29 0 0.86 249 14:58 31.03.2020
135 Rain 11 1016 29 0 0.86 249 14:40 31.03.2020
136 Rain 11 1016 30 0 0.98 208 14:21 31.03.2020
137 Rain 11 1016 30 0 0.98 208 13:44 31.03.2020
138 Rain 11 1016 30 0 0.98 208 13:20 31.03.2020
139 Rain 11 1016 30 0 0.98 208 12:59 31.03.2020
140 Rain 11 1016 30 0 0.98 208 12:40 31.03.2020
141 Rain 12 1017 26 0 0.96 226 12:19 31.03.2020
142 Rain 12 1017 26 0 0.96 226 12:19 31.03.2020
143 Rain 12 1017 26 0 0.96 226 11:55 31.03.2020
144 Rain 12 1017 26 0 0.96 226 11:36 31.03.2020
145 Rain 12 1017 26 0 0.96 226 11:18 31.03.2020
146 Rain 12 1017 26 0 0.96 226 10:54 31.03.2020
147 Rain 12 1017 26 0 0.96 226 10:36 31.03.2020
148 Rain 12 1017 26 0 0.96 226 10:18 31.03.2020
149 Rain 12 1017 26 0 0.96 226 09:42 31.03.2020
150 Rain 13 1016 24 0 2.1 210 09:24 31.03.2020
151 Clouds 14 1019 21 0 2.43 209 08:57 31.03.2020
152 Clouds 14 1019 21 0 2.43 209 08:39 31.03.2020
153 Clouds 14 1019 21 0 2.43 209 08:19 31.03.2020
154 Clouds 14 1019 21 0 2.43 209 07:56 31.03.2020
155 Clouds 14 1019 21 0 2.43 209 07:38 31.03.2020
156 Clouds 14 1019 21 0 2.43 209 07:19 31.03.2020
157 Clouds 14 1019 21 0 2.43 209 06:47 31.03.2020
158 Clouds 14 1019 21 0 2.43 209 06:23 31.03.2020
159 Clouds 12 1022 20 0 1.06 91 05:39 31.03.2020
160 Clouds 12 1022 20 0 1.06 91 03:43 31.03.2020
161 Clouds 7 1022 25 0 3.12 48 02:19 31.03.2020
162 Clouds 7 1022 25 0 3.17 46 01:45 31.03.2020
163 Clouds 7 1022 25 0 3.17 46 00:51 31.03.2020
164 Clouds 7 1022 25 0 3.17 46 00:25 31.03.2020
165 Clouds 7 1023 26 0 2.33 46 23:58 30.03.2020
166 Clouds 7 1023 26 0 2.33 46 23:38 30.03.2020
167 Clouds 7 1023 26 0 2.33 46 23:18 30.03.2020
168 Clouds 7 1023 26 0 2.33 46 22:55 30.03.2020
169 Clouds 7 1023 26 0 2.33 46 22:36 30.03.2020
170 Clouds 7 1023 26 0 2.33 46 22:18 30.03.2020
171 Clouds 7 1023 26 0 2.33 46 21:55 30.03.2020
172 Clouds 7 1023 26 0 2.33 46 21:36 30.03.2020
173 Clouds 6 1023 26 0 2.35 45 21:18 30.03.2020
174 Clouds 6 1023 26 0 2.35 45 20:42 30.03.2020
175 Clouds 6 1023 26 0 2.35 45 20:24 30.03.2020
176 Clouds 6 1023 26 0 2.35 45 20:24 30.03.2020
177 Clouds 6 1023 26 0 2.35 45 20:24 30.03.2020
178 Clouds 6 1023 26 0 2.35 45 19:59 30.03.2020
179 Clouds 6 1023 26 0 2.35 45 19:40 30.03.2020
180 Clouds 6 1023 26 0 2.35 45 19:21 30.03.2020
181 Clouds 6 1023 26 0 2.35 45 18:56 30.03.2020
182 Clouds 6 1023 26 0 2.35 45 18:38 30.03.2020
183 Clouds 6 1023 26 0 2.35 45 18:38 30.03.2020
184 Clouds 8 1022 24 0 2.25 46 18:19 30.03.2020
185 Clouds 8 1022 24 0 2.25 46 17:56 30.03.2020
186 Clouds 8 1022 24 0 2.25 46 17:56 30.03.2020
187 Clouds 8 1022 24 0 2.25 46 17:37 30.03.2020
188 Clouds 8 1022 24 0 2.25 46 17:37 30.03.2020
189 Clouds 8 1022 24 0 2.25 46 17:18 30.03.2020
190 Clouds 8 1022 24 0 2.25 46 16:55 30.03.2020
191 Clouds 8 1022 24 0 2.25 46 16:36 30.03.2020
192 Clouds 8 1022 24 0 2.25 46 16:18 30.03.2020
193 Clouds 8 1022 24 0 2.25 46 15:42 30.03.2020
194 Clouds 8 1022 24 0 2.25 46 15:22 30.03.2020
195 Clouds 12 1018 23 0 0.31 156 14:59 30.03.2020
196 Clouds 12 1018 23 0 0.31 156 14:39 30.03.2020
197 Clouds 12 1018 23 0 0.31 156 14:19 30.03.2020
198 Clouds 12 1018 23 0 0.31 156 14:19 30.03.2020
199 Clouds 12 1018 22 0 0.07 57 13:59 30.03.2020
200 Clouds 12 1018 22 0 0.07 57 13:40 30.03.2020
201 Clouds 12 1018 22 0 0.07 57 13:20 30.03.2020
202 Clouds 12 1018 22 0 0.07 57 12:54 30.03.2020
203 Clouds 12 1018 22 0 0.07 57 12:36 30.03.2020
204 Clouds 14 1018 17 0 2.57 213 12:18 30.03.2020
205 Clouds 14 1018 17 0 2.57 213 12:18 30.03.2020
206 Clouds 14 1018 17 0 2.57 213 11:43 30.03.2020
207 Clouds 14 1018 17 0 2.57 213 11:24 30.03.2020
208 Clouds 14 1018 17 0 2.57 213 10:59 30.03.2020
209 Clouds 14 1018 17 0 2.57 213 10:39 30.03.2020
210 Clouds 14 1018 17 0 2.57 213 10:21 30.03.2020
211 Clouds 14 1018 17 0 2.57 213 09:54 30.03.2020
212 Clouds 14 1018 17 0 2.57 213 09:36 30.03.2020
213 Clouds 15 1021 16 0 2.1 207 09:18 30.03.2020
214 Clouds 15 1021 15 0 2.04 209 08:40 30.03.2020
215 Clouds 15 1021 15 0 2.04 209 08:21 30.03.2020
216 Clouds 15 1021 15 0 2.04 209 07:48 30.03.2020
217 Clouds 15 1021 15 0 2.04 209 07:25 30.03.2020
218 Clouds 15 1021 15 0 2.04 209 06:47 30.03.2020
219 Clouds 15 1021 15 0 2.04 209 06:29 30.03.2020
220 Clouds 11 1024 18 0 1.13 63 05:46 30.03.2020
221 Clouds 11 1024 18 0 1.13 63 05:18 30.03.2020
222 Clouds 11 1024 18 0 1.13 63 04:21 30.03.2020
223 Clouds 3 1025 24 0 2.85 44 03:19 30.03.2020
224 Clouds 3 1025 24 0 2.87 42 01:59 30.03.2020
225 Clouds 3 1025 24 0 2.87 42 01:26 30.03.2020
226 Clouds 3 1025 24 0 2.87 42 00:33 30.03.2020
227 Clear 2 1026 27 0 3.24 48 23:59 29.03.2020
228 Clear 2 1026 27 0 3.24 48 23:41 29.03.2020
229 Clear 2 1026 27 0 3.24 48 23:22 29.03.2020
230 Clear 2 1026 27 0 3.24 48 22:57 29.03.2020
231 Clear 2 1026 27 0 3.24 48 22:37 29.03.2020
232 Clear 2 1026 27 0 3.24 48 22:19 29.03.2020
233 Clear 2 1026 27 0 3.24 48 21:55 29.03.2020
234 Clear 2 1026 27 0 3.24 48 21:36 29.03.2020
235 Clear 3 1025 29 0 2.94 43 21:18 29.03.2020
236 Clear 3 1025 29 0 3.24 44 20:54 29.03.2020
237 Clear 3 1025 29 0 3.24 44 20:36 29.03.2020
238 Clear 3 1025 29 0 3.24 44 20:18 29.03.2020
239 Clear 3 1025 29 0 3.24 44 19:42 29.03.2020
240 Clear 3 1025 29 0 3.24 44 19:24 29.03.2020
241 Clear 3 1025 29 0 3.24 44 18:57 29.03.2020
242 Clear 3 1025 29 0 3.24 44 18:39 29.03.2020
243 Clear 3 1025 29 0 3.24 44 18:20 29.03.2020
244 -273 0 0 0 0 0 18:20 29.03.2020
245 Clear 3 1023 31 0 2.6 46 17:57 29.03.2020
246 Clear 3 1023 31 0 2.6 46 17:39 29.03.2020
247 Clear 3 1023 31 0 2.6 46 17:20 29.03.2020
248 Clear 3 1023 31 0 2.6 46 16:58 29.03.2020
249 Clear 3 1023 31 0 2.6 46 16:39 29.03.2020
250 Clear 3 1023 31 0 2.6 46 16:20 29.03.2020
251 Clear 3 1023 31 0 2.6 46 15:56 29.03.2020
252 Clear 3 1023 31 0 2.6 46 15:37 29.03.2020
253 Rain 9 1016 24 0 1.43 230 15:19 29.03.2020
254 Rain 9 1016 24 0 1.43 230 14:55 29.03.2020
255 Rain 9 1016 24 0 1.43 230 14:36 29.03.2020
256 Rain 10 1016 23 0 1.3 238 14:18 29.03.2020
257 Rain 10 1016 23 0 1.3 238 13:41 29.03.2020
258 Rain 10 1016 23 0 1.3 238 13:22 29.03.2020
259 Rain 10 1016 23 0 1.3 238 12:58 29.03.2020
260 Rain 10 1016 23 0 1.3 238 12:39 29.03.2020
261 Rain 12 1017 20 0 2.89 233 12:19 29.03.2020
262 Rain 12 1017 20 0 2.89 233 11:58 29.03.2020
263 Rain 12 1017 20 0 2.89 233 11:37 29.03.2020
264 Rain 12 1017 20 0 2.89 233 11:19 29.03.2020
265 Rain 12 1017 20 0 2.89 233 10:39 29.03.2020
266 Rain 12 1017 20 0 2.89 233 10:20 29.03.2020
267 Rain 12 1017 20 0 2.89 233 09:56 29.03.2020
268 Rain 12 1017 20 0 2.89 233 09:38 29.03.2020
269 Rain 11 1020 19 0 2.4 219 09:18 29.03.2020
270 Rain 11 1020 19 0 2.4 219 08:43 29.03.2020
271 Rain 11 1020 19 0 2.4 219 08:25 29.03.2020
272 Rain 11 1020 19 0 2.4 219 07:47 29.03.2020
273 Rain 11 1020 19 0 2.4 219 07:47 29.03.2020
274 Rain 11 1020 19 0 2.4 219 07:23 29.03.2020
275 Rain 11 1020 19 0 2.4 219 06:40 29.03.2020
276 Clouds 8 1023 24 0 1.18 60 04:56 29.03.2020
277 Clouds 8 1023 24 0 1.18 60 03:41 29.03.2020
278 Clouds 2 1024 31 0 2.41 41 03:20 29.03.2020
279 Clouds 2 1024 31 0 2.41 41 01:43 29.03.2020
280 Clouds 3 1024 30 0 2.35 40 01:22 29.03.2020
281 Clouds 3 1024 30 0 2.35 40 00:45 29.03.2020
282 Clouds 3 1024 30 0 2.35 40 00:27 29.03.2020
283 Clouds 3 1024 30 0 2.35 40 23:41 28.03.2020
284 Clouds 3 1024 30 0 2.35 40 23:22 28.03.2020
285 Clouds 2 1024 31 0 2.19 45 22:54 28.03.2020
286 Clouds 2 1024 31 0 2.19 45 22:36 28.03.2020
287 Clouds 2 1024 31 0 2.19 45 22:18 28.03.2020
288 Clouds 2 1024 31 0 2.19 45 21:40 28.03.2020
289 Clouds 2 1024 31 0 2.19 45 21:40 28.03.2020
290 Clouds 2 1024 31 0 2.19 45 21:21 28.03.2020
291 Clouds 2 1024 31 0 2.19 45 20:58 28.03.2020
292 Clouds 2 1024 31 0 2.19 45 20:38 28.03.2020
293 Clouds 3 1024 31 0 2.22 46 20:20 28.03.2020
294 Clouds 3 1024 31 0 2.22 46 19:56 28.03.2020
295 Clouds 3 1024 31 0 2.22 46 19:36 28.03.2020
296 Clouds 3 1024 31 0 2.22 46 19:18 28.03.2020
297 Clouds 3 1024 31 0 2.22 46 18:47 28.03.2020
298 Clouds 3 1024 31 0 2.22 46 18:22 28.03.2020
299 Clouds 3 1024 31 0 2.22 46 17:58 28.03.2020
300 Clouds 3 1024 31 0 2.22 46 17:38 28.03.2020
301 Clouds 3 1022 32 0 2.55 46 17:18 28.03.2020
302 Clouds 3 1022 32 0 2.55 46 16:42 28.03.2020
303 Clouds 3 1022 32 0 2.55 46 16:20 28.03.2020
304 Clouds 3 1022 32 0 2.55 46 15:55 28.03.2020
305 Clouds 3 1022 32 0 2.55 46 15:37 28.03.2020
306 Clouds 3 1022 32 0 2.55 46 15:37 28.03.2020
307 Clouds 3 1022 32 0 2.55 46 15:18 28.03.2020
308 Clouds 3 1022 32 0 2.55 46 14:42 28.03.2020
309 Clouds 3 1022 32 0 2.55 46 14:22 28.03.2020
310 Rain 9 1017 27 0 1.22 230 13:55 28.03.2020
311 Rain 9 1017 27 0 1.22 230 13:36 28.03.2020
312 Rain 9 1017 27 0 1.22 230 13:18 28.03.2020
313 Rain 9 1017 26 0 1.55 230 12:37 28.03.2020
314 Rain 9 1017 26 0 1.55 230 12:19 28.03.2020
315 Rain 9 1017 26 0 1.55 230 11:42 28.03.2020
316 Rain 9 1017 26 0 1.55 230 11:21 28.03.2020
317 Rain 11 1018 24 0 2.96 229 10:44 28.03.2020
318 Rain 11 1018 24 0 2.96 229 10:25 28.03.2020
319 Rain 11 1018 24 0 2.96 229 09:59 28.03.2020
320 Rain 11 1018 24 0 2.96 229 09:40 28.03.2020
321 Rain 11 1018 24 0 2.96 229 09:21 28.03.2020
322 Rain 11 1018 24 0 2.96 229 08:43 28.03.2020
323 Rain 11 1018 24 0 2.96 229 08:24 28.03.2020
324 Rain 11 1021 26 0 2.58 230 07:53 28.03.2020
325 Rain 11 1021 26 0 2.58 230 07:35 28.03.2020
326 Rain 11 1021 26 0 2.58 230 06:52 28.03.2020
327 Rain 11 1021 26 0 2.58 230 06:26 28.03.2020
328 Rain 11 1021 26 0 2.58 230 05:30 28.03.2020
329 Rain 11 1021 26 0 2.58 230 05:30 28.03.2020
330 Clouds 8 1023 26 0 1.28 101 04:58 28.03.2020
331 Clouds 8 1023 26 0 1.28 101 04:39 28.03.2020
332 Clouds 8 1023 26 0 1.28 101 02:52 28.03.2020
333 Clouds 5 1020 29 0 1.18 103 01:48 28.03.2020
334 Clouds 5 1020 29 0 1.18 103 01:23 28.03.2020
335 Clouds 5 1020 29 0 1.18 103 00:51 28.03.2020
336 Clouds 5 1020 29 0 1.18 103 00:25 28.03.2020
337 Clouds 5 1020 29 0 1.18 103 23:44 27.03.2020
338 Clouds 5 1020 29 0 1.18 103 23:26 27.03.2020
339 Clouds 6 1018 29 0 0.86 125 22:57 27.03.2020
340 Clouds 6 1018 29 0 0.86 125 22:39 27.03.2020
341 Clouds 6 1018 29 0 0.86 125 22:39 27.03.2020
342 Clouds 6 1018 29 0 0.86 125 22:20 27.03.2020
343 Clouds 6 1018 29 0 0.86 125 21:58 27.03.2020
344 Clouds 6 1018 29 0 0.86 125 21:40 27.03.2020
345 Clouds 6 1018 29 0 0.86 125 21:22 27.03.2020
346 Clouds 6 1018 29 0 0.86 125 21:22 27.03.2020
347 Clouds 6 1018 29 0 0.86 125 20:57 27.03.2020
348 Clouds 6 1018 29 0 0.86 125 20:38 27.03.2020
349 Clouds 8 1017 30 0 3.12 206 20:19 27.03.2020
350 Clouds 8 1017 30 0 3.12 206 20:19 27.03.2020
351 Clouds 8 1017 30 0 3.12 206 20:19 27.03.2020
352 Clouds 8 1017 30 0 1.78 191 19:55 27.03.2020
353 Clouds 8 1017 30 0 1.78 191 19:55 27.03.2020
354 Clouds 8 1017 30 0 1.78 191 19:36 27.03.2020
355 Clouds 8 1017 30 0 1.78 191 19:18 27.03.2020
356 Clouds 8 1017 30 0 1.78 191 18:42 27.03.2020
357 Clouds 8 1017 30 0 1.78 191 18:22 27.03.2020
358 Clouds 8 1017 30 0 1.78 191 17:54 27.03.2020
359 Clouds 8 1017 30 0 1.78 191 17:36 27.03.2020
360 Rain 9 1015 30 0 2.41 231 17:18 27.03.2020
361 Rain 9 1015 30 0 2.41 231 16:42 27.03.2020
362 Rain 9 1015 30 0 2.41 231 16:23 27.03.2020
363 Rain 9 1015 30 0 2.41 231 15:44 27.03.2020
364 Rain 9 1015 30 0 2.41 231 15:26 27.03.2020
365 Rain 9 1015 30 0 2.41 231 14:56 27.03.2020
366 Rain 9 1015 30 0 2.41 231 14:36 27.03.2020
367 Rain 11 1012 31 0 3.77 224 14:18 27.03.2020
368 Rain 11 1012 31 0 3.77 224 13:42 27.03.2020
369 Rain 11 1012 31 0 3.77 224 13:22 27.03.2020
370 Rain 11 1012 31 0 3.57 227 12:59 27.03.2020
371 Rain 11 1012 31 0 3.57 227 12:39 27.03.2020
372 Rain 11 1012 31 0 3.57 227 12:19 27.03.2020
373 Rain 11 1012 31 0 3.57 227 11:42 27.03.2020
374 Rain 11 1012 31 0 3.57 227 11:24 27.03.2020
375 Rain 12 1015 31 0 2.96 207 10:56 27.03.2020
376 Rain 12 1015 31 0 2.96 207 10:38 27.03.2020
377 Rain 12 1015 31 0 2.96 207 10:20 27.03.2020
378 Rain 12 1015 31 0 2.96 207 09:58 27.03.2020
379 Rain 12 1015 31 0 2.96 207 09:38 27.03.2020
380 Rain 12 1015 31 0 2.96 207 09:20 27.03.2020
381 Rain 12 1015 31 0 2.96 207 08:57 27.03.2020
382 Rain 12 1015 31 0 2.96 207 08:39 27.03.2020
383 Rain 12 1015 31 0 2.96 207 08:20 27.03.2020
384 Rain 12 1019 30 0 2.21 182 07:52 27.03.2020
385 Rain 12 1019 30 0 2.21 182 07:26 27.03.2020
386 Rain 12 1019 30 0 2.21 182 06:57 27.03.2020
387 Rain 12 1019 30 0 2.21 182 06:37 27.03.2020
388 Rain 12 1019 30 0 2.21 182 05:37 27.03.2020
389 Rain 9 1021 29 0 1.41 92 02:50 27.03.2020
390 Rain 8 1020 26 0 1.73 75 01:50 27.03.2020
391 Rain 8 1020 26 0 1.93 78 00:55 27.03.2020
392 Rain 8 1020 26 0 1.93 78 00:32 27.03.2020
393 Rain 8 1020 26 0 1.93 78 23:45 26.03.2020
394 Rain 8 1020 26 0 1.93 78 23:25 26.03.2020
395 Clouds 9 1021 24 0 1.25 66 22:59 26.03.2020
396 Clouds 9 1021 24 0 1.25 66 22:39 26.03.2020
397 Clouds 9 1021 24 0 1.25 66 22:20 26.03.2020
398 Clouds 9 1021 24 0 1.25 66 21:59 26.03.2020
399 Clouds 9 1021 24 0 1.25 66 21:39 26.03.2020
400 Clouds 9 1021 24 0 1.25 66 21:21 26.03.2020
401 Clouds 9 1021 24 0 1.25 66 20:58 26.03.2020
402 Clouds 9 1021 24 0 1.25 66 20:39 26.03.2020
403 Clouds 9 1021 24 0 1.25 66 20:20 26.03.2020
404 Clouds 10 1022 23 0 1.48 74 19:57 26.03.2020
405 Clouds 10 1022 23 0 1.48 74 19:57 26.03.2020
406 Clouds 10 1022 23 0 1.48 74 19:39 26.03.2020
407 Clouds 10 1022 23 0 1.48 74 19:20 26.03.2020
408 Clouds 10 1022 23 0 1.48 74 19:20 26.03.2020
409 -273 0 0 0 0 0 19:20 26.03.2020
410 Clouds 10 1022 23 0 1.48 74 18:58 26.03.2020
411 Clouds 10 1022 23 0 1.48 74 18:58 26.03.2020
412 Clouds 10 1022 23 0 1.48 74 18:39 26.03.2020
413 Clouds 10 1022 23 0 1.48 74 18:21 26.03.2020
414 Clouds 10 1022 23 0 1.48 74 17:43 26.03.2020
415 Clouds 10 1021 22 0 2 53 17:19 26.03.2020
416 Clouds 10 1021 22 0 2 53 16:47 26.03.2020
417 Clouds 10 1021 22 0 2 53 16:28 26.03.2020
418 Clouds 10 1021 22 0 2 53 15:59 26.03.2020
419 Clouds 10 1021 22 0 2 53 15:41 26.03.2020
420 Clouds 10 1021 22 0 2 53 15:22 26.03.2020
421 Clouds 10 1021 22 0 2 53 14:58 26.03.2020
422 Clouds 10 1021 22 0 2 53 14:39 26.03.2020
423 Clouds 12 1018 23 0 1.12 199 14:19 26.03.2020
424 Clouds 12 1018 23 0 1.12 199 13:44 26.03.2020
425 Clouds 12 1018 22 0 1.48 217 13:24 26.03.2020
426 Clouds 12 1018 22 0 1.48 217 12:58 26.03.2020
427 Clouds 12 1018 22 0 1.48 217 12:38 26.03.2020
428 Clouds 12 1018 22 0 1.48 217 12:20 26.03.2020
429 Clouds 12 1018 22 0 1.48 217 11:46 26.03.2020
430 Clouds 12 1018 22 0 1.48 217 11:22 26.03.2020
431 Clouds 12 1018 22 0 1.48 217 11:22 26.03.2020
432 Clouds 15 1018 16 0 2.3 218 10:56 26.03.2020
433 Clouds 15 1018 16 0 2.3 218 10:38 26.03.2020
434 Clouds 15 1018 16 0 2.3 218 10:19 26.03.2020
435 Clouds 15 1018 16 0 2.3 218 09:44 26.03.2020
436 Clouds 15 1018 16 0 2.3 218 09:20 26.03.2020
437 Clouds 15 1018 16 0 2.3 218 08:56 26.03.2020
438 Clouds 15 1018 16 0 2.3 218 08:37 26.03.2020
439 Clouds 14 1021 15 0 1.71 207 08:19 26.03.2020
440 Clouds 15 1020 15 0 1.82 205 07:44 26.03.2020
441 Clouds 15 1020 15 0 1.82 205 07:22 26.03.2020
442 Clouds 15 1020 15 0 1.82 205 06:56 26.03.2020
443 Clouds 15 1020 15 0 1.82 205 05:59 26.03.2020
444 Clouds 10 1024 20 0 1.63 54 04:49 26.03.2020
445 Clouds 10 1024 20 0 1.63 54 03:44 26.03.2020
446 Clouds 10 1024 20 0 1.63 54 02:55 26.03.2020
447 Clouds 4 1023 26 0 2.74 44 01:50 26.03.2020
448 Clouds 4 1023 25 0 2.84 44 00:55 26.03.2020
449 Clouds 4 1023 25 0 2.84 44 00:22 26.03.2020
450 Clouds 4 1023 25 0 2.84 44 23:41 25.03.2020
451 Clouds 4 1023 25 0 2.84 44 23:21 25.03.2020
452 Clouds 4 1023 27 0 1.93 45 22:42 25.03.2020
453 Clouds 4 1023 27 0 1.93 45 22:21 25.03.2020
454 Clouds 4 1023 27 0 1.93 45 21:56 25.03.2020
455 Clouds 4 1023 27 0 1.93 45 21:38 25.03.2020
456 Clouds 4 1023 27 0 1.93 45 21:20 25.03.2020
457 Clouds 4 1023 27 0 1.93 45 20:56 25.03.2020
458 Clouds 4 1023 27 0 1.93 45 20:37 25.03.2020
459 Clouds 4 1023 27 0 3.7 44 20:18 25.03.2020
460 Clouds 4 1023 27 0 3.7 44 19:43 25.03.2020
461 Clouds 4 1023 27 0 3.47 46 19:23 25.03.2020
462 Clouds 4 1023 27 0 3.7 44 18:58 25.03.2020
463 Clouds 4 1023 27 0 3.47 46 18:40 25.03.2020
464 Clouds 4 1023 27 0 3.7 44 18:21 25.03.2020
465 Clouds 4 1023 27 0 3.7 44 17:55 25.03.2020
466 Clouds 4 1023 27 0 3.7 44 17:55 25.03.2020
467 -273 0 0 0 0 0 17:37 25.03.2020
468 Rain 5 1021 28 0 2.95 49 17:19 25.03.2020
469 Rain 5 1021 28 0 2.84 51 16:43 25.03.2020
470 Rain 5 1021 28 0 2.95 49 16:24 25.03.2020
471 Rain 5 1021 28 0 2.95 49 15:59 25.03.2020
472 Rain 5 1021 28 0 2.95 49 15:40 25.03.2020
473 Rain 5 1021 28 0 2.95 49 15:20 25.03.2020
474 Rain 5 1021 28 0 2.84 51 14:42 25.03.2020
475 Rain 5 1021 28 0 2.95 49 14:22 25.03.2020
476 Rain 11 1017 24 0 1.11 191 13:59 25.03.2020
477 Rain 12 1016 25 0 1.2 211 13:41 25.03.2020
478 Rain 11 1017 24 0 1.11 191 13:22 25.03.2020
479 Rain 11 1017 24 0 1.11 191 12:38 25.03.2020
480 Rain 12 1016 25 0 1.2 211 12:19 25.03.2020
481 Rain 12 1016 25 0 1.2 211 11:55 25.03.2020
482 Rain 12 1016 25 0 1.2 211 11:36 25.03.2020
483 Rain 14 1016 21 0 3.08 224 11:18 25.03.2020
484 Rain 14 1016 21 0 3.08 224 10:56 25.03.2020
485 Rain 14 1016 21 0 3.08 224 10:37 25.03.2020
486 Rain 14 1016 21 0 3.08 224 10:18 25.03.2020
487 Rain 14 1016 21 0 3.08 224 09:42 25.03.2020
488 Rain 14 1016 21 0 3.08 224 09:23 25.03.2020
489 Rain 14 1016 21 0 3.08 224 08:56 25.03.2020
490 Rain 14 1016 21 0 3.08 224 08:38 25.03.2020
491 Rain 14 1019 21 0 2.36 217 08:19 25.03.2020
492 Rain 13 1019 22 0 2.25 214 07:41 25.03.2020
493 Rain 13 1019 22 0 2.25 214 07:20 25.03.2020
494 Rain 13 1019 22 0 2.25 214 06:48 25.03.2020
495 Rain 13 1019 22 0 2.25 214 06:28 25.03.2020
496 Rain 13 1019 22 0 2.25 214 05:56 25.03.2020
497 Rain 13 1019 22 0 2.25 214 05:30 25.03.2020
498 Clouds 11 1021 23 0 0.85 101 04:39 25.03.2020
499 Clouds 11 1021 23 0 0.85 101 03:36 25.03.2020
500 Clouds 11 1021 23 0 0.85 101 02:40 25.03.2020
501 Rain 8 1020 26 0 1.21 47 01:23 25.03.2020
502 Rain 7 1020 26 0 1.63 46 00:49 25.03.2020
503 Rain 7 1020 26 0 1.63 46 00:24 25.03.2020
504 Rain 7 1020 26 0 1.63 46 23:45 24.03.2020
505 Rain 7 1020 26 0 1.63 46 23:26 24.03.2020
506 Rain 6 1019 29 0 1.63 36 22:57 24.03.2020
507 Rain 6 1019 29 0 1.63 36 22:38 24.03.2020
508 Rain 6 1019 29 0 1.63 36 22:19 24.03.2020
509 Rain 6 1019 29 0 1.63 36 21:56 24.03.2020
510 Rain 6 1019 29 0 1.63 36 21:37 24.03.2020
511 Rain 6 1019 29 0 1.63 36 21:18 24.03.2020
512 Rain 6 1019 29 0 1.63 36 20:56 24.03.2020
513 Rain 6 1019 29 0 1.63 36 20:38 24.03.2020
514 Rain 8 1019 26 0 0.71 28 20:20 24.03.2020
515 Rain 7 1020 26 0 1.38 45 19:44 24.03.2020
516 Rain 7 1020 26 0 1.38 45 19:19 24.03.2020
517 Rain 7 1020 26 0 1.38 45 18:56 24.03.2020
518 Rain 7 1020 26 0 1.38 45 18:56 24.03.2020
519 Rain 7 1020 26 0 1.38 45 18:37 24.03.2020
520 Rain 7 1020 26 0 1.38 45 18:19 24.03.2020
521 Rain 7 1020 26 0 1.38 45 17:43 24.03.2020
522 Rain 7 1020 26 0 1.38 45 17:24 24.03.2020
523 Rain 6 1018 78 0 2.38 23 16:59 24.03.2020
524 Rain 6 1018 78 0 2.38 23 16:41 24.03.2020
525 Rain 6 1018 78 0 2.38 23 16:23 24.03.2020
526 Rain 6 1018 78 0 2.38 23 16:23 24.03.2020
527 Rain 6 1018 78 0 2.38 23 16:23 24.03.2020
528 Rain 6 1018 78 0 2.38 23 15:59 24.03.2020
529 Rain 6 1018 78 0 2.38 23 15:39 24.03.2020
530 Rain 6 1018 78 0 2.38 23 15:21 24.03.2020
531 Rain 6 1018 78 0 2.38 23 14:43 24.03.2020
532 Rain 6 1018 78 0 2.38 23 14:43 24.03.2020
533 Clouds 9 1019 27 0 0.71 72 14:22 24.03.2020
534 Rain 11 1016 28 0 0.94 205 13:55 24.03.2020
535 Rain 11 1016 28 0 0.94 205 13:36 24.03.2020
536 Rain 12 1015 29 0 1.57 207 13:18 24.03.2020
537 Rain 12 1015 29 0 1.57 207 12:41 24.03.2020
538 Rain 12 1015 29 0 1.57 207 12:23 24.03.2020
539 Rain 12 1015 29 0 1.57 207 11:41 24.03.2020
540 Rain 8 1015 80 0 1.61 71 11:21 24.03.2020
541 Rain 6 1016 93 0 1.64 111 10:59 24.03.2020
542 Rain 6 1016 93 0 1.64 111 10:40 24.03.2020
543 Rain 6 1016 93 0 1.64 111 10:40 24.03.2020
544 Rain 6 1016 93 0 1.64 111 10:18 24.03.2020
545 Rain 6 1016 93 0 1.64 111 09:44 24.03.2020
546 Rain 6 1016 93 0 1.64 111 09:25 24.03.2020
547 Rain 6 1016 93 0 1.64 111 08:57 24.03.2020
548 Rain 6 1016 93 0 1.64 111 08:37 24.03.2020
549 Rain 7 1019 71 0 2.91 57 08:18 24.03.2020
550 Rain 7 1019 71 0 2.91 57 07:44 24.03.2020
551 Rain 7 1019 71 0 2.91 57 07:22 24.03.2020
552 Rain 7 1019 71 0 2.91 57 06:38 24.03.2020
553 Rain 7 1019 71 0 2.91 57 05:42 24.03.2020
554 Clouds 9 1020 52 0 1.91 225 04:51 24.03.2020
555 Clouds 9 1020 52 0 1.91 225 03:22 24.03.2020
556 Clouds 9 1020 52 0 1.91 225 02:41 24.03.2020
557 Clouds 7 1019 48 0 3.01 6 00:54 24.03.2020
558 Clouds 7 1019 48 0 3.01 6 00:27 24.03.2020
559 Clouds 7 1019 48 0 3.01 6 23:58 23.03.2020
560 Clouds 7 1019 48 0 3.01 6 23:38 23.03.2020
561 Clouds 7 1020 55 0 2.62 5 23:19 23.03.2020
562 Clouds 7 1020 55 0 2.62 5 22:44 23.03.2020
563 Clouds 7 1020 55 0 2.62 5 22:23 23.03.2020
564 Clouds 7 1020 55 0 2.62 5 21:55 23.03.2020
565 Clouds 7 1020 55 0 2.62 5 21:37 23.03.2020
566 Clouds 7 1020 55 0 2.62 5 21:18 23.03.2020
567 Clouds 7 1020 55 0 2.62 5 20:55 23.03.2020
568 Clouds 7 1020 55 0 2.62 5 20:36 23.03.2020
569 Clouds 7 1020 50 0 2.85 10 20:18 23.03.2020
570 Clouds 7 1020 50 0 2.85 10 20:18 23.03.2020
571 Clouds 7 1020 50 0 2.85 10 19:41 23.03.2020
572 Clouds 7 1020 50 0 2.85 10 19:22 23.03.2020
573 Clouds 7 1020 50 0 2.85 10 18:56 23.03.2020
574 Clouds 7 1020 50 0 2.85 10 18:38 23.03.2020
575 Clouds 7 1020 50 0 2.85 10 18:19 23.03.2020
576 Clouds 7 1020 50 0 2.85 10 17:41 23.03.2020
577 Clouds 7 1020 50 0 2.85 10 17:20 23.03.2020
578 Clouds 7 1020 55 0 2.84 12 16:56 23.03.2020
579 Clouds 7 1020 55 0 2.84 12 16:37 23.03.2020
580 Clouds 7 1020 55 0 2.84 12 16:18 23.03.2020
581 Clouds 7 1020 55 0 2.84 12 15:41 23.03.2020
582 Clouds 7 1020 55 0 2.84 12 15:19 23.03.2020
583 Clouds 7 1020 55 0 2.84 12 14:38 23.03.2020
584 Clouds 11 1017 52 0 1.63 214 14:20 23.03.2020
585 Clouds 11 1017 52 0 1.63 214 13:57 23.03.2020
586 Clouds 11 1017 52 0 1.63 214 13:39 23.03.2020
587 Clouds 11 1016 50 0 1.52 216 13:20 23.03.2020
588 Clouds 11 1016 50 0 1.52 216 12:44 23.03.2020
589 Clouds 11 1016 50 0 1.52 216 12:25 23.03.2020
590 Clouds 11 1016 50 0 1.52 216 11:59 23.03.2020
591 Clouds 11 1016 50 0 1.52 216 11:39 23.03.2020
592 Clouds 14 1016 35 0 3.27 215 11:19 23.03.2020
593 Clouds 14 1016 35 0 3.27 215 10:57 23.03.2020
594 Clouds 14 1016 35 0 3.27 215 10:38 23.03.2020
595 Clouds 14 1016 35 0 3.27 215 10:20 23.03.2020
596 Clouds 14 1016 35 0 3.27 215 09:44 23.03.2020
597 Clouds 14 1016 35 0 3.27 215 09:21 23.03.2020
598 Clouds 14 1016 35 0 3.27 215 08:57 23.03.2020
599 Clouds 14 1016 35 0 3.27 215 08:36 23.03.2020
600 Clouds 13 1019 31 0 2.79 212 08:18 23.03.2020
601 Clouds 13 1019 31 0 2.79 212 07:42 23.03.2020
602 Clouds 13 1019 31 0 2.79 212 07:23 23.03.2020
603 Clouds 13 1019 31 0 2.79 212 06:49 23.03.2020
604 Clouds 13 1019 31 0 2.79 212 05:54 23.03.2020
605 Clouds 13 1019 31 0 2.79 212 05:29 23.03.2020
606 Clouds 9 1022 44 0 1.52 21 03:28 23.03.2020
607 Clouds 4 1022 57 0 3 4 01:51 23.03.2020
608 Clouds 4 1022 57 0 3 4 01:32 23.03.2020
609 Clouds 4 1022 59 0 2.99 2 00:36 23.03.2020
610 Clouds 4 1022 59 0 2.99 2 23:47 22.03.2020
611 Clouds 4 1022 59 0 2.99 2 23:26 22.03.2020
612 Clouds 4 1022 75 0 2.44 357 22:45 22.03.2020
613 Clouds 4 1022 75 0 2.44 357 22:24 22.03.2020
614 Clouds 4 1022 75 0 2.44 357 21:56 22.03.2020
615 Clouds 4 1022 75 0 2.44 357 21:37 22.03.2020
616 Clouds 4 1022 75 0 2.44 357 21:19 22.03.2020
617 Clouds 4 1022 75 0 2.44 357 20:46 22.03.2020
618 Clouds 4 1022 75 0 2.44 357 20:25 22.03.2020
619 Clouds 4 1022 71 0 2.03 346 19:58 22.03.2020
620 Clouds 4 1022 71 0 2.03 346 19:40 22.03.2020
621 Clouds 4 1022 71 0 2.03 346 19:21 22.03.2020
622 Clouds 4 1022 71 0 2.03 346 18:59 22.03.2020
623 Clouds 4 1022 71 0 2.03 346 18:41 22.03.2020
624 Clouds 4 1022 71 0 2.03 346 18:22 22.03.2020
625 Clouds 4 1022 71 0 2.03 346 18:22 22.03.2020
626 Clouds 4 1022 71 0 2.03 346 17:59 22.03.2020
627 Clouds 4 1022 71 0 2.03 346 17:39 22.03.2020
628 Clouds 4 1022 71 0 2.03 346 17:21 22.03.2020
629 Clouds 4 1022 71 0 2.03 346 17:21 22.03.2020
630 Rain 5 1020 76 0 2.46 22 16:59 22.03.2020
631 Rain 5 1020 76 0 2.46 22 16:41 22.03.2020
632 Rain 5 1020 76 0 2.46 22 16:22 22.03.2020
633 Rain 5 1020 76 0 2.46 22 15:58 22.03.2020
634 Rain 5 1020 76 0 2.46 22 15:39 22.03.2020
635 Rain 5 1020 76 0 2.46 22 14:47 22.03.2020
636 Rain 8 1016 77 0 0.87 110 14:20 22.03.2020
637 Rain 8 1016 77 0 0.87 110 13:58 22.03.2020
638 Rain 8 1016 77 0 0.87 110 13:40 22.03.2020
639 Rain 9 1016 73 0 0.84 204 13:19 22.03.2020
640 Rain 9 1016 73 0 0.84 204 12:44 22.03.2020
641 Rain 9 1016 73 0 0.84 204 12:22 22.03.2020
642 Rain 9 1016 73 0 0.84 204 12:22 22.03.2020
643 Rain 9 1016 73 0 0.84 204 11:58 22.03.2020
644 Rain 9 1016 73 0 0.84 204 11:39 22.03.2020
645 Rain 9 1016 73 0 0.84 204 11:20 22.03.2020
646 Rain 11 1015 65 0 2.44 230 10:43 22.03.2020
647 Rain 11 1015 65 0 2.44 230 10:24 22.03.2020
648 Rain 11 1015 65 0 2.44 230 09:59 22.03.2020
649 Rain 11 1015 65 0 2.44 230 09:40 22.03.2020
650 Rain 11 1015 65 0 2.44 230 09:19 22.03.2020
651 Rain 11 1015 65 0 2.44 230 08:42 22.03.2020
652 Rain 11 1015 65 0 2.44 230 08:23 22.03.2020
653 Clear 12 1019 48 0 2.73 196 07:50 22.03.2020
654 Clear 12 1019 48 0 2.73 196 07:22 22.03.2020
655 Clear 12 1019 48 0 2.73 196 05:57 22.03.2020
656 Clear 12 1019 48 0 2.73 196 05:31 22.03.2020
657 Clear 8 1021 54 0 0.62 252 03:25 22.03.2020
658 Clouds 3 1020 70 0 3.24 10 01:26 22.03.2020
659 Clouds 3 1020 70 0 2.99 0 00:47 22.03.2020
660 Clouds 3 1020 70 0 2.99 0 00:25 22.03.2020
661 Clouds 3 1020 70 0 2.99 0 23:43 21.03.2020
662 Snow 4 1019 78 0 2.47 5 23:19 21.03.2020
663 Snow 4 1019 78 0 2.47 5 22:55 21.03.2020
664 Snow 4 1019 78 0 2.47 5 22:36 21.03.2020
665 Snow 4 1019 78 0 2.47 5 22:18 21.03.2020
666 Snow 4 1019 78 0 2.47 5 21:41 21.03.2020
667 Snow 4 1019 78 0 2.47 5 21:23 21.03.2020
668 Snow 4 1019 78 0 2.47 5 20:59 21.03.2020
669 Snow 4 1019 78 0 2.47 5 20:41 21.03.2020
670 Rain 5 1020 83 0 2.52 24 20:19 21.03.2020
671 Rain 5 1020 76 0 1.6 41 19:44 21.03.2020
672 Rain 5 1020 76 0 1.6 41 19:25 21.03.2020
673 Rain 5 1020 76 0 1.6 41 18:57 21.03.2020
674 Rain 5 1020 76 0 1.6 41 18:38 21.03.2020
675 Rain 5 1020 76 0 1.6 41 18:20 21.03.2020
676 Rain 5 1020 76 0 1.6 41 18:20 21.03.2020
677 Rain 5 1020 76 0 1.6 41 17:55 21.03.2020
678 Rain 5 1020 76 0 1.6 41 17:37 21.03.2020
679 Rain 5 1019 80 0 2.46 17 17:18 21.03.2020
680 Rain 5 1019 80 0 2.46 17 17:18 21.03.2020
681 Rain 5 1019 80 0 2.46 17 16:41 21.03.2020
682 Rain 5 1019 80 0 2.46 17 16:20 21.03.2020
683 Rain 5 1019 80 0 2.46 17 16:20 21.03.2020
684 Rain 5 1019 80 0 2.46 17 15:56 21.03.2020
685 Rain 5 1019 80 0 2.46 17 15:37 21.03.2020
686 Rain 5 1019 80 0 2.46 17 15:19 21.03.2020
687 Rain 5 1019 80 0 2.46 17 14:54 21.03.2020
688 Rain 5 1019 80 0 2.46 17 14:36 21.03.2020
689 Rain 5 1019 80 0 2.46 17 14:36 21.03.2020
690 Rain 8 1015 74 0 0.63 84 14:18 21.03.2020
691 Rain 8 1015 74 0 0.63 84 13:57 21.03.2020
692 Rain 8 1015 74 0 0.63 84 13:38 21.03.2020
693 Rain 8 1015 74 0 0.63 84 13:19 21.03.2020
694 Rain 9 1015 68 0 0.58 152 12:40 21.03.2020
695 Rain 9 1015 68 0 0.58 152 12:20 21.03.2020
696 Rain 9 1015 68 0 0.58 152 11:59 21.03.2020
697 Rain 9 1015 68 0 0.58 152 11:39 21.03.2020
698 Rain 9 1014 63 0 1.17 136 11:19 21.03.2020
699 Rain 9 1014 63 0 1.17 136 11:19 21.03.2020
700 Rain 9 1014 63 0 1.17 136 10:57 21.03.2020
701 Rain 9 1014 63 0 1.17 136 10:57 21.03.2020
702 Rain 9 1014 63 0 1.17 136 10:39 21.03.2020
703 Rain 9 1014 63 0 1.17 136 10:21 21.03.2020
704 Rain 9 1014 63 0 1.17 136 10:20 21.03.2020
705 Rain 9 1014 63 0 1.17 136 09:58 21.03.2020
706 Rain 9 1014 63 0 1.17 136 09:38 21.03.2020
707 Rain 9 1014 63 0 1.17 136 09:20 21.03.2020
708 Rain 9 1014 63 0 1.17 136 08:55 21.03.2020
709 Rain 9 1014 63 0 1.17 136 08:37 21.03.2020
710 Clouds 11 1017 46 0 2.74 208 08:18 21.03.2020
711 Snow 10 1018 53 0 1.08 12 07:33 21.03.2020
712 Snow 10 1018 53 0 1.08 12 06:56 21.03.2020
713 Snow 10 1018 53 0 1.08 12 06:36 21.03.2020
714 Snow 10 1018 53 0 1.08 12 06:18 21.03.2020
715 Snow 10 1018 53 0 1.08 12 05:39 21.03.2020
716 Clouds 9 1020 49 0 1.61 301 03:39 21.03.2020
717 Clouds 9 1020 49 0 1.61 301 02:36 21.03.2020
718 Clouds 4 1019 56 0 3.09 4 01:44 21.03.2020
719 Clouds 4 1019 56 0 3.09 4 01:23 21.03.2020
720 Clouds 4 1019 57 0 3.36 359 00:39 21.03.2020
721 Clouds 4 1019 57 0 3.36 359 00:21 21.03.2020
722 Clouds 4 1019 57 0 3.36 359 23:42 20.03.2020
723 Clouds 4 1019 57 0 3.36 359 23:22 20.03.2020
724 Clouds 4 1019 64 0 3.14 2 22:44 20.03.2020
725 Clouds 4 1019 64 0 3.14 2 22:25 20.03.2020
726 Clouds 4 1019 64 0 3.14 2 21:58 20.03.2020
727 Clouds 4 1019 64 0 3.14 2 21:40 20.03.2020
728 Clouds 4 1019 64 0 3.14 2 21:20 20.03.2020
729 Clouds 4 1019 64 0 3.14 2 20:58 20.03.2020
730 Clouds 4 1019 64 0 3.14 2 20:40 20.03.2020
731 Clouds 4 1019 64 0 3.23 6 20:19 20.03.2020
732 Clouds 4 1019 64 0 3.23 6 19:48 20.03.2020
733 Clouds 4 1019 64 0 3.23 6 19:21 20.03.2020
734 Clouds 4 1019 64 0 3.23 6 18:58 20.03.2020
735 Clouds 4 1019 64 0 3.23 6 18:38 20.03.2020
736 Clouds 4 1019 64 0 3.23 6 18:20 20.03.2020
737 Clouds 4 1019 64 0 3.23 6 18:20 20.03.2020
738 Clouds 4 1019 64 0 3.23 6 17:56 20.03.2020
739 Clouds 4 1019 64 0 3.23 6 17:37 20.03.2020
740 Rain 5 1018 74 0 3.12 21 17:19 20.03.2020
741 Rain 5 1018 74 0 3.12 21 16:42 20.03.2020
742 Rain 5 1018 74 0 3.12 21 16:21 20.03.2020
743 Rain 5 1018 74 0 3.12 21 15:56 20.03.2020
744 Rain 5 1018 74 0 3.12 21 15:37 20.03.2020
745 Rain 5 1018 74 0 3.12 21 15:19 20.03.2020
746 Rain 5 1018 74 0 3.12 21 14:42 20.03.2020
747 Rain 5 1018 74 0 3.12 21 14:21 20.03.2020
748 Rain 8 1015 69 0 1.28 258 13:50 20.03.2020
749 Rain 8 1015 69 0 1.28 258 13:50 20.03.2020
750 Rain 8 1015 69 0 1.28 258 13:26 20.03.2020
751 Rain 9 1014 63 0 1.67 251 12:59 20.03.2020
752 Rain 9 1014 63 0 1.67 251 12:38 20.03.2020
753 Rain 9 1014 63 0 1.67 251 12:20 20.03.2020
754 Rain 9 1014 63 0 1.67 251 11:40 20.03.2020
755 Rain 9 1014 63 0 1.67 251 11:21 20.03.2020
756 Rain 12 1015 39 0 2.81 216 10:57 20.03.2020
757 Rain 12 1015 39 0 2.81 216 10:57 20.03.2020
758 Rain 12 1015 39 0 2.81 216 10:38 20.03.2020
759 Rain 12 1015 39 0 2.81 216 10:18 20.03.2020
760 Rain 12 1015 39 0 2.81 216 09:46 20.03.2020
761 Rain 12 1015 39 0 2.81 216 09:21 20.03.2020
762 Rain 12 1015 39 0 2.81 216 08:58 20.03.2020
763 Rain 12 1015 39 0 2.81 216 08:39 20.03.2020
764 Clouds 12 1018 35 0 3.12 211 08:19 20.03.2020
765 Clouds 12 1018 35 0 3.12 211 07:43 20.03.2020
766 Clouds 12 1018 35 0 3.12 211 07:25 20.03.2020
767 Clouds 12 1018 35 0 3.12 211 06:43 20.03.2020
768 Clouds 12 1018 35 0 3.12 211 06:22 20.03.2020
769 Clear 8 1020 44 0 0.65 35 04:48 20.03.2020
770 Clear 8 1020 44 0 0.65 35 03:18 20.03.2020
771 Clear 3 1020 55 0 3.41 12 01:51 20.03.2020
772 Clouds 3 1020 54 0 3.14 13 00:46 20.03.2020
773 Clouds 3 1020 54 0 3.14 13 00:24 20.03.2020
774 Clouds 3 1020 54 0 3.14 13 23:42 19.03.2020
775 Clouds 3 1020 54 0 3.14 13 23:23 19.03.2020
776 Clouds 3 1020 60 0 3.34 17 22:55 19.03.2020
777 Clouds 3 1020 60 0 3.34 17 22:37 19.03.2020
778 Clouds 3 1020 60 0 3.34 17 22:18 19.03.2020
779 Clouds 3 1020 60 0 3.34 17 21:40 19.03.2020
780 Clouds 3 1020 60 0 3.34 17 21:20 19.03.2020
781 Clouds 3 1020 60 0 3.34 17 20:55 19.03.2020
782 Clouds 3 1020 60 0 3.34 17 20:37 19.03.2020
783 Clouds 4 1020 62 0 3.14 17 20:19 19.03.2020
784 Clouds 4 1020 62 0 3.14 17 19:54 19.03.2020
785 Clouds 4 1020 62 0 3.14 17 19:36 19.03.2020
786 Clouds 4 1020 62 0 3.14 17 19:18 19.03.2020
787 Clouds 4 1020 62 0 3.14 17 18:41 19.03.2020
788 Clouds 4 1020 62 0 3.14 17 18:22 19.03.2020
789 Clouds 4 1020 62 0 3.14 17 17:56 19.03.2020
790 Clouds 4 1020 62 0 3.14 17 17:37 19.03.2020
791 Snow 4 1018 75 0 2.36 23 17:18 19.03.2020
792 Snow 4 1018 75 0 2.36 23 16:43 19.03.2020
793 Snow 4 1018 75 0 2.36 23 16:22 19.03.2020
794 Snow 4 1018 75 0 2.36 23 15:44 19.03.2020
795 Snow 4 1018 75 0 2.36 23 15:25 19.03.2020
796 Snow 4 1018 75 0 2.36 23 14:55 19.03.2020
797 Snow 4 1018 75 0 2.36 23 14:37 19.03.2020
798 Rain 8 1015 72 0 1.37 252 14:18 19.03.2020
799 Rain 8 1015 72 0 1.37 252 13:39 19.03.2020
800 Rain 8 1014 73 0 1.61 253 13:19 19.03.2020
801 Rain 8 1014 73 0 1.61 253 12:44 19.03.2020
802 Rain 8 1014 73 0 1.61 253 12:24 19.03.2020
803 Rain 8 1014 73 0 1.61 253 11:59 19.03.2020
804 Rain 8 1014 73 0 1.61 253 11:41 19.03.2020
805 Rain 8 1014 73 0 1.61 253 11:22 19.03.2020
806 Rain 11 1014 45 0 3.26 221 10:44 19.03.2020
807 Rain 11 1014 45 0 3.26 221 10:22 19.03.2020
808 Rain 11 1014 45 0 3.26 221 09:59 19.03.2020
809 Rain 11 1014 45 0 3.26 221 09:40 19.03.2020
810 Rain 11 1014 45 0 3.26 221 09:22 19.03.2020
811 Rain 11 1014 45 0 3.26 221 08:48 19.03.2020
812 Rain 12 1014 41 0 3.25 217 08:23 19.03.2020
813 Clear 11 1017 34 0 3.11 207 07:57 19.03.2020
814 Clear 11 1017 34 0 3.11 207 07:37 19.03.2020
815 Clear 11 1017 34 0 3.11 207 07:18 19.03.2020
816 Clear 11 1017 34 0 3.11 207 06:23 19.03.2020
817 Clear 11 1017 34 0 3.11 207 05:24 19.03.2020
818 Clear 8 1020 43 0 0.85 311 04:46 19.03.2020
819 Clear 8 1020 43 0 0.85 311 03:44 19.03.2020
820 Clear 3 1021 56 0 2.84 3 01:46 19.03.2020
821 Clouds 3 1020 55 0 2.95 1 00:42 19.03.2020
822 Clouds 3 1020 55 0 2.95 1 00:19 19.03.2020
823 Clouds 3 1020 55 0 2.95 1 23:42 18.03.2020
824 Clouds 3 1020 55 0 2.95 1 23:22 18.03.2020
825 Clouds 3 1021 60 0 2.84 5 22:43 18.03.2020
826 Clouds 3 1021 60 0 2.84 5 22:23 18.03.2020
827 Clouds 3 1021 60 0 2.84 5 21:55 18.03.2020
828 Clouds 3 1021 60 0 2.84 5 21:37 18.03.2020
829 Clouds 3 1021 60 0 2.84 5 21:19 18.03.2020
830 Clouds 3 1021 60 0 2.84 5 20:55 18.03.2020
831 Clouds 3 1021 60 0 2.84 5 20:37 18.03.2020
832 Clouds 4 1021 63 0 3.13 17 20:19 18.03.2020
833 Clouds 4 1021 63 0 3.13 17 19:41 18.03.2020
834 Clouds 4 1021 63 0 3.13 17 19:21 18.03.2020
835 Clouds 4 1021 63 0 3.13 17 18:58 18.03.2020
836 Clouds 4 1021 63 0 3.13 17 18:39 18.03.2020
837 Clouds 4 1021 63 0 3.13 17 18:19 18.03.2020
838 Clouds 4 1021 63 0 3.13 17 17:55 18.03.2020
839 Clouds 4 1021 63 0 3.13 17 17:37 18.03.2020
840 Rain 5 1021 76 0 2.34 21 17:19 18.03.2020
841 Rain 5 1021 76 0 2.34 21 16:42 18.03.2020
842 Rain 5 1021 76 0 2.34 21 16:20 18.03.2020
843 Rain 5 1021 76 0 2.34 21 15:57 18.03.2020
844 Rain 5 1021 76 0 2.34 21 15:38 18.03.2020
845 Rain 5 1021 76 0 2.34 21 15:20 18.03.2020
846 Rain 5 1021 76 0 2.34 21 14:42 18.03.2020
847 Rain 5 1021 76 0 2.34 21 14:21 18.03.2020
848 Rain 8 1017 71 0 1.67 246 13:42 18.03.2020
849 Rain 8 1017 70 0 1.57 244 13:19 18.03.2020
850 Rain 8 1017 70 0 1.57 244 12:55 18.03.2020
851 Rain 8 1017 70 0 1.57 244 12:37 18.03.2020
852 Rain 8 1017 70 0 1.57 244 12:18 18.03.2020
853 Rain 8 1017 70 0 1.57 244 11:38 18.03.2020
854 Rain 12 1017 50 0 3.07 220 11:19 18.03.2020
855 Rain 12 1017 50 0 3.07 220 10:57 18.03.2020
856 Rain 12 1017 50 0 3.07 220 10:37 18.03.2020
857 Rain 12 1017 50 0 3.07 220 10:19 18.03.2020
858 Rain 12 1017 50 0 3.07 220 09:43 18.03.2020
859 Rain 12 1017 50 0 3.07 220 09:23 18.03.2020
860 Rain 12 1017 50 0 3.07 220 08:55 18.03.2020
861 Rain 12 1017 50 0 3.07 220 08:37 18.03.2020
862 Clear 12 1020 38 0 3.1 215 08:19 18.03.2020
863 Clear 12 1020 38 0 3.1 215 07:43 18.03.2020
864 Clear 12 1020 38 0 3.1 215 07:25 18.03.2020
865 Clear 12 1020 38 0 3.1 215 06:44 18.03.2020
866 Clear 12 1020 38 0 3.1 215 06:18 18.03.2020
867 Clear 12 1020 38 0 3.1 215 05:34 18.03.2020
868 Clear 8 1024 41 0 1.03 298 04:24 18.03.2020
869 Clear 8 1024 41 0 1.03 298 02:43 18.03.2020
870 Clear 4 1025 50 0 2.67 353 01:48 18.03.2020
871 Clear 4 1024 47 0 2.65 358 01:26 18.03.2020
872 Clear 4 1024 52 0 2.69 357 00:24 18.03.2020
873 Clear 4 1024 52 0 2.69 357 23:47 17.03.2020
874 Clear 4 1024 47 0 2.65 358 23:27 17.03.2020
875 Clear 4 1024 54 0 2.41 356 22:55 17.03.2020
876 Clear 4 1024 51 0 2.6 356 22:37 17.03.2020
877 Clear 4 1024 54 0 2.41 356 22:18 17.03.2020
878 Clear 4 1024 54 0 2.41 356 21:39 17.03.2020
879 Clear 4 1024 51 0 2.6 356 21:21 17.03.2020
880 Clear 4 1024 51 0 2.6 356 21:21 17.03.2020
881 Clear 4 1024 54 0 2.41 356 20:40 17.03.2020
882 Clear 4 1024 51 0 2.6 356 20:21 17.03.2020
883 Clouds 5 1024 52 0 2.75 2 19:58 17.03.2020
884 Clouds 5 1024 52 0 2.75 2 19:39 17.03.2020
885 Clouds 5 1024 52 0 2.75 2 19:18 17.03.2020
886 Clouds 5 1024 52 0 2.75 2 18:56 17.03.2020
887 Clouds 5 1024 52 0 2.75 2 18:37 17.03.2020
888 Clouds 5 1024 52 0 2.75 2 18:19 17.03.2020
889 Clouds 5 1024 52 0 2.75 2 17:40 17.03.2020
890 Clouds 5 1024 52 0 2.75 2 17:21 17.03.2020
891 Clouds 5 1024 71 0 2.71 19 16:55 17.03.2020
892 Clouds 5 1024 71 0 2.71 19 16:37 17.03.2020
893 Clouds 5 1024 71 0 2.71 19 16:18 17.03.2020
894 Clouds 5 1024 71 0 2.71 19 15:43 17.03.2020
895 Clouds 5 1024 71 0 2.71 19 15:20 17.03.2020
896 Clouds 5 1024 71 0 2.71 19 14:42 17.03.2020
897 Clouds 5 1024 71 0 2.71 19 14:21 17.03.2020
898 Rain 9 1020 70 0 1.77 226 13:44 17.03.2020
899 Rain 9 1020 70 0 1.77 226 13:26 17.03.2020
900 Rain 9 1019 67 0 1.87 221 12:58 17.03.2020
901 Rain 9 1019 67 0 1.87 221 12:40 17.03.2020
902 Rain 9 1019 67 0 1.87 221 12:21 17.03.2020
903 Rain 9 1019 65 0 1.88 221 11:46 17.03.2020
904 Rain 9 1019 65 0 1.88 221 11:28 17.03.2020
905 Clear 12 1019 43 0 3.36 212 10:58 17.03.2020
906 Clear 12 1019 43 0 3.36 212 10:38 17.03.2020
907 Clear 12 1019 43 0 3.36 212 10:20 17.03.2020
908 Clear 12 1019 43 0 3.36 212 09:55 17.03.2020
909 Clear 12 1019 39 0 3.29 212 09:55 17.03.2020
910 Clear 12 1019 43 0 3.36 212 09:36 17.03.2020
911 Clear 12 1019 43 0 3.36 212 09:18 17.03.2020
912 Clear 12 1019 43 0 3.36 212 08:42 17.03.2020
913 Clear 12 1019 39 0 3.29 212 08:21 17.03.2020
914 Clouds 12 1021 29 0 2.85 212 07:50 17.03.2020
915 Clouds 12 1021 29 0 2.85 212 07:26 17.03.2020
916 Clouds 12 1021 29 0 2.85 212 06:58 17.03.2020
917 Clouds 12 1021 29 0 2.85 212 06:33 17.03.2020
918 Clouds 12 1021 29 0 2.85 212 05:46 17.03.2020
919 Clouds 8 1024 33 0 1.06 322 03:40 17.03.2020
920 Clouds 8 1024 33 0 1.06 322 02:45 17.03.2020
921 Clear 3 1024 38 0 3.14 2 01:43 17.03.2020
922 Clear 3 1024 36 0 3.21 1 01:24 17.03.2020
923 Clear 3 1024 36 0 3.21 1 00:31 17.03.2020
924 Clear 3 1024 36 0 3.21 1 23:45 16.03.2020
925 Clear 3 1024 36 0 3.21 1 23:25 16.03.2020
926 Clear 3 1024 44 0 2.96 0 22:41 16.03.2020
927 Clear 3 1024 44 0 2.96 0 22:41 16.03.2020
928 Clear 3 1024 44 0 2.96 0 22:23 16.03.2020
929 Clear 3 1024 44 0 2.96 0 21:57 16.03.2020
930 Clear 3 1024 44 0 2.96 0 21:39 16.03.2020
931 Clear 3 1024 44 0 2.96 0 21:21 16.03.2020
932 Clear 3 1024 44 0 2.96 0 20:55 16.03.2020
933 Clear 3 1024 44 0 2.96 0 20:37 16.03.2020
934 Clouds 4 1025 52 0 2.77 359 20:18 16.03.2020
935 Clouds 4 1025 52 0 2.9 5 19:40 16.03.2020
936 Clouds 4 1025 52 0 2.9 5 19:20 16.03.2020
937 Clouds 4 1025 52 0 2.9 5 18:43 16.03.2020
938 Clouds 4 1025 52 0 2.9 5 18:21 16.03.2020
939 Clouds 4 1025 52 0 2.9 5 17:55 16.03.2020
940 Clouds 4 1025 52 0 2.9 5 17:36 16.03.2020
941 Clouds 4 1024 59 0 2.75 14 17:18 16.03.2020
942 Clouds 4 1024 59 0 2.75 14 16:42 16.03.2020
943 Clouds 4 1024 59 0 2.75 14 16:24 16.03.2020
944 Clouds 4 1024 59 0 2.75 14 15:44 16.03.2020
945 Clouds 4 1024 59 0 2.75 14 15:26 16.03.2020
946 Clouds 4 1024 59 0 2.75 14 14:49 16.03.2020
947 Clouds 4 1024 59 0 2.75 14 14:27 16.03.2020
948 Clouds 8 1020 65 0 1.51 207 13:57 16.03.2020
949 Clouds 8 1020 65 0 1.51 207 13:38 16.03.2020
950 Clouds 8 1020 64 0 1.67 214 13:20 16.03.2020
951 Clouds 8 1020 64 0 1.67 214 12:44 16.03.2020
952 Clouds 8 1020 64 0 1.67 214 12:23 16.03.2020
953 Clouds 8 1020 64 0 1.67 214 11:46 16.03.2020
954 Clouds 8 1020 64 0 1.67 214 11:27 16.03.2020
955 Clouds 8 1020 64 0 1.67 214 11:27 16.03.2020
956 Clouds 11 1019 37 0 2.89 213 10:56 16.03.2020
957 Clouds 11 1019 37 0 2.89 213 10:37 16.03.2020
958 Clouds 11 1019 37 0 2.89 213 10:18 16.03.2020
959 Clouds 11 1019 37 0 2.89 213 09:42 16.03.2020
960 Clouds 11 1019 37 0 2.89 213 09:21 16.03.2020
961 Clouds 11 1019 37 0 2.89 213 08:52 16.03.2020
962 Clouds 11 1019 37 0 2.89 213 08:25 16.03.2020
963 Clouds 11 1023 27 0 2.33 205 07:48 16.03.2020
964 Clouds 11 1023 27 0 2.33 205 07:25 16.03.2020
965 Clouds 11 1023 27 0 2.33 205 06:52 16.03.2020
966 Clouds 11 1023 27 0 2.33 205 06:24 16.03.2020
967 Clouds 6 1026 38 0 1.34 300 04:54 16.03.2020
968 Clouds 6 1026 38 0 1.34 300 02:42 16.03.2020
969 Clear 2 1027 43 0 2.94 11 00:52 16.03.2020
970 Clear 2 1027 43 0 2.94 11 00:33 16.03.2020
971 Clear 2 1027 43 0 2.94 11 23:46 15.03.2020
972 Clear 2 1027 56 0 3 8 23:20 15.03.2020
973 Clear 2 1027 56 0 3 8 22:43 15.03.2020
974 Clear 2 1027 56 0 3 8 22:23 15.03.2020
975 Clear 2 1027 56 0 3 8 21:58 15.03.2020
976 Clear 2 1027 56 0 3 8 21:38 15.03.2020
977 Clear 2 1027 56 0 3 8 21:18 15.03.2020
978 Clear 2 1027 56 0 3 8 20:42 15.03.2020
979 Clear 2 1027 56 0 3 8 20:21 15.03.2020
980 Clouds 2 1026 56 0 3.09 20 19:58 15.03.2020
981 Clouds 2 1026 56 0 3.09 20 19:39 15.03.2020
982 Clouds 2 1026 56 0 3.09 20 19:39 15.03.2020
983 Clouds 2 1026 56 0 3.09 20 19:20 15.03.2020
984 Clouds 2 1026 56 0 3.09 20 19:20 15.03.2020
985 Clouds 2 1026 56 0 3.09 20 18:56 15.03.2020
986 Clouds 2 1026 56 0 3.09 20 18:37 15.03.2020
987 Clouds 2 1026 56 0 3.09 20 18:19 15.03.2020
988 Clouds 2 1026 56 0 3.09 20 17:41 15.03.2020
989 Clouds 2 1026 56 0 3.09 20 17:21 15.03.2020
990 Clouds 3 1024 85 0 1.55 34 16:58 15.03.2020
991 Clouds 3 1024 85 0 1.55 34 16:40 15.03.2020
992 Clouds 3 1024 85 0 1.55 34 16:21 15.03.2020
993 Clouds 3 1024 85 0 1.55 34 15:54 15.03.2020
994 Clouds 3 1024 85 0 1.55 34 15:36 15.03.2020
995 Clouds 3 1024 85 0 1.55 34 15:18 15.03.2020
996 Clouds 3 1024 85 0 1.55 34 14:39 15.03.2020
997 Clouds 3 1024 85 0 1.55 34 14:21 15.03.2020
998 Rain 5 1019 84 0 1.97 217 13:55 15.03.2020
999 Rain 5 1019 84 0 1.97 217 13:37 15.03.2020
1000 Rain 6 1019 81 0 1.88 219 13:18 15.03.2020
1001 Rain 6 1019 81 0 1.88 219 12:40 15.03.2020
1002 Rain 6 1019 81 0 1.88 219 12:22 15.03.2020
1003 Rain 6 1019 81 0 1.88 219 11:44 15.03.2020
1004 Rain 6 1019 81 0 1.88 219 11:25 15.03.2020
1005 Snow 8 1019 61 0 2.76 221 10:59 15.03.2020
1006 Snow 8 1019 61 0 2.76 221 10:40 15.03.2020
1007 Snow 8 1019 61 0 2.76 221 10:21 15.03.2020
1008 Snow 8 1019 61 0 2.76 221 09:59 15.03.2020
1009 Snow 8 1019 61 0 2.76 221 09:38 15.03.2020
1010 Snow 8 1019 61 0 2.76 221 09:19 15.03.2020
1011 Snow 8 1019 61 0 2.76 221 08:41 15.03.2020
1012 Clouds 8 1022 49 0 2.73 204 08:19 15.03.2020
1013 Clouds 8 1022 49 0 2.73 204 07:48 15.03.2020
1014 Clouds 8 1022 49 0 2.73 204 07:22 15.03.2020
1015 Clouds 8 1022 49 0 2.73 204 06:44 15.03.2020
1016 Clouds 8 1022 49 0 2.73 204 05:48 15.03.2020
1017 Clouds 5 1025 57 0 0.12 304 04:57 15.03.2020
1018 Clouds 5 1025 57 0 0.12 304 04:39 15.03.2020
1019 Clouds 5 1025 57 0 0.12 304 04:20 15.03.2020
1020 Clouds 5 1025 57 0 0.12 304 03:19 15.03.2020
1021 Clouds 5 1025 57 0 0.12 304 02:28 15.03.2020
1022 Clouds 0 1025 66 0 2.78 6 00:59 15.03.2020
1023 Clouds 0 1025 66 0 2.78 6 00:41 15.03.2020
1024 Clouds 0 1025 66 0 2.78 6 00:19 15.03.2020
1025 Clouds 0 1025 66 0 2.78 6 23:40 14.03.2020
1026 Clouds 1 1023 66 0 2.52 355 23:20 14.03.2020
1027 Clouds 1 1023 66 0 2.52 355 22:56 14.03.2020
1028 Clouds 1 1023 66 0 2.52 355 22:38 14.03.2020
1029 Clouds 1 1023 66 0 2.52 355 22:20 14.03.2020
1030 Clouds 1 1023 66 0 2.52 355 21:56 14.03.2020
1031 Clouds 1 1023 66 0 2.52 355 21:36 14.03.2020
1032 Clouds 1 1023 66 0 2.52 355 21:18 14.03.2020
1033 Clouds 1 1023 66 0 2.52 355 21:18 14.03.2020
1034 Clouds 1 1023 66 0 2.52 355 20:58 14.03.2020
1035 Clouds 1 1023 66 0 2.52 355 20:39 14.03.2020
1036 Clouds 2 1022 70 0 2.39 18 20:18 14.03.2020
1037 Clouds 2 1022 70 0 2.39 18 19:42 14.03.2020
1038 Clouds 2 1022 70 0 2.39 18 19:24 14.03.2020
1039 Clouds 2 1022 70 0 2.39 18 18:41 14.03.2020
1040 Clouds 2 1022 70 0 2.39 18 18:22 14.03.2020
1041 Clouds 2 1022 70 0 2.39 18 17:55 14.03.2020
1042 Clouds 2 1022 70 0 2.39 18 17:37 14.03.2020
1043 Snow 3 1019 76 0 2.3 12 17:19 14.03.2020
1044 Snow 3 1019 76 0 2.3 12 16:40 14.03.2020
1045 Snow 3 1019 76 0 2.3 12 16:22 14.03.2020
1046 Snow 3 1019 76 0 2.3 12 15:54 14.03.2020
1047 Snow 3 1019 76 0 2.3 12 15:26 14.03.2020
1048 Snow 3 1019 76 0 2.3 12 14:47 14.03.2020
1049 Snow 3 1019 76 0 2.3 12 14:24 14.03.2020
1050 Snow 3 1015 87 0 0.51 141 13:58 14.03.2020
1051 Snow 3 1015 87 0 0.51 141 13:39 14.03.2020
1052 Snow 4 1015 81 0 1.48 345 13:21 14.03.2020
1053 Snow 4 1015 81 0 1.48 345 12:47 14.03.2020
1054 Snow 4 1015 81 0 1.48 345 12:27 14.03.2020
1055 Snow 4 1015 81 0 1.48 345 11:56 14.03.2020
1056 Snow 4 1015 81 0 1.48 345 11:38 14.03.2020
1057 Snow 6 1015 74 0 1.75 213 11:19 14.03.2020
1058 Snow 6 1015 74 0 1.75 213 10:44 14.03.2020
1059 Snow 6 1015 74 0 1.75 213 10:25 14.03.2020
1060 Snow 6 1015 74 0 1.75 213 09:57 14.03.2020
1061 Snow 6 1015 74 0 1.75 213 09:39 14.03.2020
1062 Snow 6 1015 74 0 1.75 213 09:19 14.03.2020
1063 Snow 6 1015 74 0 1.75 213 08:42 14.03.2020
1064 Snow 5 1016 81 0 2.12 225 08:21 14.03.2020
1065 Snow 6 1019 76 0 1.98 196 07:39 14.03.2020
1066 Snow 6 1019 76 0 1.98 196 07:20 14.03.2020
1067 Snow 6 1019 76 0 1.98 196 06:41 14.03.2020
1068 Snow 6 1019 76 0 1.98 196 05:49 14.03.2020
1069 Snow 4 1022 76 0 0.56 316 04:43 14.03.2020
1070 Snow 4 1022 76 0 0.56 316 03:24 14.03.2020
1071 Snow 4 1022 76 0 0.56 316 02:28 14.03.2020
1072 Snow 1 1022 85 0 3.05 30 01:20 14.03.2020
1073 Snow 1 1022 85 0 3.05 30 00:20 14.03.2020
1074 Snow 1 1022 85 0 3.05 30 23:32 13.03.2020
1075 Snow 1 1021 78 0 3.1 358 22:57 13.03.2020
1076 Snow 1 1021 78 0 3.1 358 22:38 13.03.2020
1077 Snow 1 1021 78 0 3.1 358 22:19 13.03.2020
1078 Snow 1 1021 78 0 3.1 358 21:39 13.03.2020
1079 Snow 1 1021 78 0 3.1 358 21:18 13.03.2020
1080 Snow 1 1021 78 0 3.1 358 20:41 13.03.2020
1081 Snow 1 1021 78 0 2.83 11 20:22 13.03.2020
1082 Snow 2 1022 83 0 3.09 1 19:51 13.03.2020
1083 Snow 2 1022 83 0 3.09 1 19:31 13.03.2020
1084 Snow 2 1022 83 0 3.09 1 18:59 13.03.2020
1085 Snow 2 1022 83 0 3.09 1 18:39 13.03.2020
1086 Snow 2 1022 83 0 3.09 1 18:21 13.03.2020
1087 Snow 2 1022 83 0 3.09 1 17:42 13.03.2020
1088 Snow 2 1022 83 0 3.09 1 17:21 13.03.2020
1089 Snow 2 1020 95 0 0.7 37 16:56 13.03.2020
1090 Snow 2 1020 95 0 0.7 37 16:38 13.03.2020
1091 Snow 2 1020 95 0 0.7 37 16:19 13.03.2020
1092 Snow 2 1020 95 0 0.7 37 15:42 13.03.2020
1093 Snow 2 1020 95 0 0.7 37 15:21 13.03.2020
1094 Snow 2 1020 95 0 0.7 37 14:55 13.03.2020
1095 Snow 2 1020 95 0 0.7 37 14:36 13.03.2020
1096 Snow 4 1016 82 0 2.2 6 14:18 13.03.2020
1097 Snow 4 1016 82 0 2.2 6 13:42 13.03.2020
1098 Snow 4 1016 82 0 2.2 6 13:21 13.03.2020
1099 Snow 4 1016 86 0 0.89 170 12:57 13.03.2020
1100 Snow 4 1016 86 0 0.89 170 12:38 13.03.2020
1101 Snow 4 1016 86 0 0.89 170 12:19 13.03.2020
1102 Snow 4 1016 86 0 0.89 170 11:55 13.03.2020
1103 Snow 4 1016 86 0 0.89 170 11:36 13.03.2020
1104 Snow 6 1016 70 0 1.34 273 11:18 13.03.2020
1105 Snow 6 1016 70 0 1.34 273 10:42 13.03.2020
1106 Snow 6 1016 70 0 1.34 273 10:24 13.03.2020
1107 Snow 6 1016 70 0 1.34 273 09:46 13.03.2020
1108 Snow 6 1016 70 0 1.34 273 09:27 13.03.2020
1109 Snow 6 1016 70 0 1.34 273 08:57 13.03.2020
1110 Snow 6 1016 70 0 1.34 273 08:38 13.03.2020
1111 Snow 5 1019 75 0 3.1 16 08:19 13.03.2020
1112 Snow 5 1019 75 0 3.1 16 07:44 13.03.2020
1113 Snow 5 1019 75 0 3.1 16 07:23 13.03.2020
1114 Snow 5 1019 75 0 3.1 16 06:46 13.03.2020
1115 Snow 5 1019 75 0 3.1 16 06:21 13.03.2020
1116 Snow 5 1019 75 0 3.1 16 05:44 13.03.2020
1117 Snow 4 1021 74 0 2.69 22 04:39 13.03.2020
1118 Snow 4 1021 74 0 2.69 22 03:51 13.03.2020
1119 Snow 4 1021 74 0 2.69 22 02:42 13.03.2020
1120 Snow 1 1019 91 0 1 216 01:37 13.03.2020
1121 Snow 1 1019 91 0 1 216 01:18 13.03.2020
1122 Snow -1 1019 94 0 2.12 44 00:39 13.03.2020
1123 Snow -1 1019 94 0 2.12 44 00:19 13.03.2020
1124 Snow -1 1019 94 0 2.12 44 23:38 12.03.2020
1125 Snow 1 1020 79 0 3.7 8 23:19 12.03.2020
1126 Snow 1 1020 79 0 3.7 8 22:46 12.03.2020
1127 Snow 1 1020 79 0 3.7 8 22:27 12.03.2020
1128 Snow 1 1020 79 0 3.7 8 21:56 12.03.2020
1129 Snow 1 1020 79 0 3.7 8 21:38 12.03.2020
1130 Snow 1 1020 79 0 3.7 8 21:20 12.03.2020
1131 Snow 1 1020 79 0 3.7 8 20:42 12.03.2020
1132 Snow 2 1020 93 0 1.45 254 20:20 12.03.2020
1133 Snow 3 1019 91 0 0.74 79 19:56 12.03.2020
1134 Snow 3 1019 91 0 0.74 79 19:37 12.03.2020
1135 Snow 3 1019 91 0 0.74 79 19:18 12.03.2020
1136 Snow 3 1019 91 0 0.74 79 18:42 12.03.2020
1137 Snow 3 1019 91 0 0.74 79 18:22 12.03.2020
1138 Snow 3 1019 91 0 0.74 79 17:56 12.03.2020
1139 Snow 3 1019 91 0 0.74 79 17:37 12.03.2020
1140 Snow 3 1018 79 0 4.13 16 17:18 12.03.2020
1141 Snow 3 1018 79 0 4.13 16 16:41 12.03.2020
1142 Snow 3 1018 79 0 4.13 16 16:23 12.03.2020
1143 Snow 3 1018 79 0 4.13 16 15:49 12.03.2020
1144 Snow 3 1018 79 0 4.13 16 15:28 12.03.2020
1145 Snow 3 1018 79 0 4.13 16 14:58 12.03.2020
1146 Snow 3 1018 79 0 4.13 16 14:38 12.03.2020
1147 Snow 6 1015 79 0 1.02 248 14:19 12.03.2020
1148 Snow 6 1015 79 0 1.02 248 13:40 12.03.2020
1149 Snow 6 1015 79 0 1.02 248 13:21 12.03.2020
1150 Snow 7 1014 74 0 1.8 27 12:55 12.03.2020
1151 Snow 7 1014 74 0 1.8 27 12:37 12.03.2020
1152 Snow 7 1014 74 0 1.8 27 12:18 12.03.2020
1153 Snow 7 1014 74 0 1.8 27 11:56 12.03.2020
1154 Snow 7 1014 74 0 1.8 27 11:37 12.03.2020
1155 Snow 9 1014 70 0 1.15 237 11:18 12.03.2020
1156 Snow 9 1014 70 0 1.15 237 10:44 12.03.2020
1157 Snow 9 1014 70 0 1.15 237 10:26 12.03.2020
1158 Snow 9 1014 70 0 1.15 237 09:59 12.03.2020
1159 Snow 9 1014 70 0 1.15 237 09:41 12.03.2020
1160 Snow 9 1014 70 0 1.15 237 09:23 12.03.2020
1161 Snow 9 1014 70 0 1.15 237 08:39 12.03.2020
1162 Snow 8 1017 69 0 2.02 250 08:19 12.03.2020
1163 Snow 4 1017 93 0 1.09 339 07:48 12.03.2020
1164 Snow 4 1017 93 0 1.09 339 07:23 12.03.2020
1165 Snow 4 1017 93 0 1.09 339 06:33 12.03.2020
1166 Snow 4 1017 93 0 1.09 339 05:40 12.03.2020
1167 Snow 3 1017 86 0 1.73 13 03:54 12.03.2020
1168 Snow 3 1017 86 0 1.73 13 02:21 12.03.2020
1169 Snow 2 1015 90 0 1.8 292 01:29 12.03.2020
1170 Snow 2 1015 87 0 3.13 356 00:42 12.03.2020
1171 Snow 2 1015 87 0 3.13 356 23:59 11.03.2020
1172 Snow 2 1015 87 0 3.13 356 23:37 11.03.2020
1173 Snow 1 1015 97 0 0.97 334 23:18 11.03.2020
1174 Snow 1 1015 97 0 0.97 334 22:42 11.03.2020
1175 Snow 1 1015 97 0 0.97 334 22:23 11.03.2020
1176 Snow 1 1015 97 0 0.97 334 21:58 11.03.2020
1177 Snow 1 1015 97 0 0.97 334 21:40 11.03.2020
1178 Snow 1 1015 97 0 0.97 334 21:22 11.03.2020
1179 Snow 1 1015 97 0 0.97 334 20:57 11.03.2020
1180 Snow 1 1015 97 0 0.97 334 20:38 11.03.2020
1181 Snow 2 1014 94 0 1.47 38 20:19 11.03.2020
1182 Snow 2 1014 94 0 1.47 38 19:43 11.03.2020
1183 Snow 2 1014 94 0 1.47 38 19:25 11.03.2020
1184 Snow 2 1014 94 0 1.47 38 18:58 11.03.2020
1185 Snow 2 1014 94 0 1.47 38 18:38 11.03.2020
1186 Snow 2 1014 94 0 1.47 38 18:20 11.03.2020
1187 Snow 2 1014 94 0 1.47 38 17:56 11.03.2020
1188 Snow 2 1014 94 0 1.47 38 17:37 11.03.2020
1189 Snow 5 1014 74 0 2.99 354 17:19 11.03.2020
1190 Snow 5 1014 74 0 2.99 354 16:45 11.03.2020
1191 Snow 5 1014 74 0 2.99 354 16:22 11.03.2020
1192 Snow 5 1014 74 0 2.99 354 15:45 11.03.2020
1193 Snow 5 1014 74 0 2.99 354 15:24 11.03.2020
1194 Snow 5 1014 74 0 2.99 354 14:58 11.03.2020
1195 Snow 5 1014 74 0 2.99 354 14:40 11.03.2020
1196 Snow 5 1014 74 0 2.99 354 14:21 11.03.2020
1197 Snow 4 1012 90 0 1.83 5 13:44 11.03.2020
1198 Snow 4 1011 94 0 2.44 166 13:26 11.03.2020
1199 Snow 4 1011 94 0 2.44 166 12:58 11.03.2020
1200 Snow 4 1011 94 0 2.44 166 12:39 11.03.2020
1201 Snow 4 1011 94 0 2.44 166 12:19 11.03.2020
1202 Snow 4 1011 94 0 2.44 166 11:42 11.03.2020
1203 Snow 4 1011 94 0 2.44 166 11:24 11.03.2020
1204 Snow 9 1012 48 0 3.29 225 10:57 11.03.2020
1205 Snow 9 1012 48 0 3.29 225 10:39 11.03.2020
1206 Snow 9 1012 48 0 3.29 225 10:18 11.03.2020
1207 Snow 9 1012 48 0 3.29 225 09:43 11.03.2020
1208 Snow 9 1012 48 0 3.29 225 09:24 11.03.2020
1209 Snow 9 1012 48 0 3.29 225 08:45 11.03.2020
1210 Snow 9 1012 48 0 3.29 225 08:27 11.03.2020
1211 Clouds 10 1016 33 0 2.9 204 07:58 11.03.2020
1212 Clouds 10 1016 33 0 2.9 204 07:38 11.03.2020
1213 Clouds 10 1016 33 0 2.9 204 07:18 11.03.2020
1214 Clouds 10 1016 33 0 2.9 204 06:37 11.03.2020
1215 Clouds 10 1016 33 0 2.9 204 05:34 11.03.2020
1216 Clouds 7 1019 42 0 0.34 340 03:59 11.03.2020
1217 Snow 3 1019 56 0 3.66 15 01:59 11.03.2020
1218 Snow 3 1019 56 0 3.66 15 01:26 11.03.2020
1219 Clouds 3 1019 53 0 4.5 17 00:45 11.03.2020
1220 Clouds 3 1019 53 0 4.5 17 23:57 10.03.2020
1221 Clouds 3 1019 53 0 4.5 17 23:39 10.03.2020
1222 Clouds 3 1019 55 0 2.15 16 23:20 10.03.2020
1223 Clouds 3 1019 55 0 2.15 16 22:38 10.03.2020
1224 Clouds 3 1019 55 0 2.15 16 22:20 10.03.2020
1225 Clouds 3 1019 55 0 2.15 16 21:57 10.03.2020
1226 Clouds 3 1019 55 0 2.15 16 21:38 10.03.2020
1227 Clouds 3 1019 55 0 2.15 16 21:38 10.03.2020
1228 Clouds 3 1019 55 0 2.15 16 21:20 10.03.2020
1229 Clouds 3 1019 55 0 2.15 16 20:58 10.03.2020
1230 Clouds 3 1019 55 0 2.15 16 20:40 10.03.2020
1231 Rain 3 1020 61 0 1.94 8 20:18 10.03.2020
1232 Rain 3 1020 61 0 1.94 8 19:56 10.03.2020
1233 Rain 3 1020 61 0 1.94 8 19:37 10.03.2020
1234 Rain 3 1020 61 0 1.94 8 19:19 10.03.2020
1235 Rain 3 1020 61 0 1.94 8 18:44 10.03.2020
1236 Rain 3 1020 61 0 1.94 8 18:25 10.03.2020
1237 Rain 3 1020 61 0 1.94 8 17:57 10.03.2020
1238 Rain 3 1020 61 0 1.94 8 17:39 10.03.2020
1239 Rain 3 1020 61 0 1.94 8 17:21 10.03.2020
1240 Rain 4 1017 61 0 2.05 20 16:39 10.03.2020
1241 Rain 4 1017 61 0 2.05 20 16:19 10.03.2020
1242 Rain 4 1017 61 0 2.05 20 15:56 10.03.2020
1243 Rain 4 1017 61 0 2.05 20 15:37 10.03.2020
1244 Rain 4 1017 61 0 2.05 20 15:19 10.03.2020
1245 Rain 4 1017 61 0 2.05 20 14:41 10.03.2020
1246 Clear 8 1013 57 0 2.35 224 14:20 10.03.2020
1247 Clear 8 1013 57 0 2.35 224 13:58 10.03.2020
1248 Clear 8 1013 57 0 2.35 224 13:38 10.03.2020
1249 Clear 8 1014 55 0 2.51 225 13:20 10.03.2020
1250 Clear 8 1014 55 0 2.51 225 12:42 10.03.2020
1251 Clear 8 1014 55 0 2.51 225 12:19 10.03.2020
1252 Clear 8 1014 55 0 2.51 225 11:58 10.03.2020
1253 Clear 8 1014 55 0 2.51 225 11:58 10.03.2020
1254 Clear 8 1014 55 0 2.51 225 11:40 10.03.2020
1255 Clear 8 1014 55 0 2.51 225 11:40 10.03.2020
1256 Clear 8 1014 55 0 2.51 225 11:22 10.03.2020
1257 Clear 12 1014 27 0 3.23 219 10:43 10.03.2020
1258 Clear 12 1014 27 0 3.23 219 10:23 10.03.2020
1259 Clear 12 1014 27 0 3.23 219 09:58 10.03.2020
1260 Clear 12 1014 27 0 3.23 219 09:40 10.03.2020
1261 Clear 12 1014 27 0 3.23 219 09:19 10.03.2020
1262 Clear 12 1014 27 0 3.23 219 09:19 10.03.2020
1263 Clear 12 1014 27 0 3.23 219 08:51 10.03.2020
1264 Clear 12 1014 26 0 3.47 220 08:32 10.03.2020
1265 Clear 12 1018 20 0 3.04 206 07:51 10.03.2020
1266 Clear 12 1018 20 0 3.04 206 07:32 10.03.2020
1267 Clear 12 1018 20 0 3.04 206 06:48 10.03.2020
1268 Clear 12 1018 20 0 3.04 206 06:30 10.03.2020
1269 Clear 12 1018 20 0 3.04 206 06:30 10.03.2020
1270 Clear 12 1018 20 0 3.04 206 05:42 10.03.2020
1271 Clear 8 1021 25 0 1.03 24 04:49 10.03.2020
1272 Clear 8 1021 25 0 1.03 24 04:20 10.03.2020
1273 Clear 8 1021 25 0 1.03 24 02:44 10.03.2020
1274 Clear 3 1022 34 0 3.24 8 01:30 10.03.2020
1275 Clear 3 1022 34 0 3.27 10 00:47 10.03.2020
1276 Clear 3 1022 34 0 3.27 10 00:27 10.03.2020
1277 Clear 3 1022 34 0 3.27 10 23:41 09.03.2020
1278 Clear 3 1022 34 0 3.27 10 23:22 09.03.2020
1279 Clear 3 1022 36 0 2.88 2 22:55 09.03.2020
1280 Clear 3 1022 36 0 2.88 2 22:36 09.03.2020
1281 Clear 3 1022 36 0 2.88 2 22:18 09.03.2020
1282 Clear 3 1022 36 0 2.88 2 21:41 09.03.2020
1283 Clear 3 1022 36 0 2.88 2 21:21 09.03.2020
1284 Clear 3 1022 36 0 2.88 2 20:58 09.03.2020
1285 Clear 3 1022 36 0 2.88 2 20:58 09.03.2020
1286 Clear 3 1022 36 0 2.88 2 20:39 09.03.2020
1287 Clear 4 1022 32 0 2.72 8 20:20 09.03.2020
1288 Clear 4 1022 32 0 2.72 8 20:20 09.03.2020
1289 Clear 4 1022 32 0 2.72 8 19:45 09.03.2020
1290 Clear 4 1022 32 0 2.72 8 19:26 09.03.2020
1291 Clear 4 1022 32 0 2.72 8 18:59 09.03.2020
1292 Clear 4 1022 32 0 2.72 8 18:40 09.03.2020
1293 Clear 4 1022 32 0 2.72 8 18:20 09.03.2020
1294 Clear 4 1022 32 0 2.72 8 17:58 09.03.2020
1295 Clear 4 1022 32 0 2.72 8 17:38 09.03.2020
1296 Clear 5 1020 35 0 2.93 17 17:20 09.03.2020
1297 Clear 5 1020 35 0 2.93 17 16:59 09.03.2020
1298 Clear 5 1020 35 0 2.93 17 16:41 09.03.2020
1299 Clear 5 1020 35 0 2.93 17 16:22 09.03.2020
1300 Clear 5 1020 35 0 2.93 17 15:58 09.03.2020
1301 Clear 5 1020 35 0 2.93 17 15:39 09.03.2020
1302 Clear 5 1020 35 0 2.93 17 15:21 09.03.2020
1303 Clear 5 1020 35 0 2.93 17 15:21 09.03.2020
1304 Clear 5 1020 35 0 2.93 17 14:57 09.03.2020
1305 Clear 5 1020 35 0 2.93 17 14:38 09.03.2020
1306 Clear 9 1015 45 0 1.22 205 14:19 09.03.2020
1307 Clear 9 1015 45 0 1.22 205 13:58 09.03.2020
1308 Clear 9 1015 45 0 1.22 205 13:38 09.03.2020
1309 Clear 9 1015 48 0 1.3 207 13:19 09.03.2020
1310 Clear 9 1015 48 0 1.3 207 12:43 09.03.2020
1311 Clear 9 1015 48 0 1.3 207 12:23 09.03.2020
1312 Clear 9 1015 48 0 1.3 207 11:58 09.03.2020
1313 Clear 9 1015 48 0 1.3 207 11:38 09.03.2020
1314 Clear 12 1014 25 0 3.11 214 11:20 09.03.2020
1315 Clear 12 1014 25 0 3.11 214 10:55 09.03.2020
1316 Clear 12 1014 25 0 3.11 214 10:37 09.03.2020
1317 Clear 12 1014 25 0 3.11 214 10:18 09.03.2020
1318 Clear 12 1014 25 0 3.11 214 09:42 09.03.2020
1319 Clear 12 1014 25 0 3.11 214 09:23 09.03.2020
1320 Clear 12 1014 25 0 3.11 214 08:45 09.03.2020
1321 Clear 12 1014 28 0 3.07 215 08:27 09.03.2020
1322 Clouds 12 1019 23 0 2.26 201 07:43 09.03.2020
1323 Clouds 12 1019 23 0 2.26 201 07:22 09.03.2020
1324 Clouds 12 1019 23 0 2.26 201 06:59 09.03.2020
1325 Clouds 12 1019 23 0 2.26 201 06:38 09.03.2020
1326 Clouds 12 1019 23 0 2.26 201 06:20 09.03.2020
1327 Clouds 12 1019 23 0 2.26 201 05:41 09.03.2020
1328 Clouds 7 1021 28 0 1.03 352 04:48 09.03.2020
1329 Clouds 7 1021 28 0 1.03 352 04:23 09.03.2020
1330 Clouds 7 1021 28 0 1.03 352 03:46 09.03.2020
1331 Clouds 7 1021 28 0 1.03 352 02:37 09.03.2020
1332 Clouds 2 1022 29 0 3.05 7 00:42 09.03.2020
1333 Clouds 2 1022 29 0 3.05 7 00:24 09.03.2020
1334 Clouds 2 1022 29 0 3.05 7 23:55 08.03.2020
1335 Clouds 2 1022 29 0 3.05 7 23:29 08.03.2020
1336 Clouds 2 1023 39 0 2.84 2 22:59 08.03.2020
1337 Clouds 2 1023 39 0 2.84 2 22:40 08.03.2020
1338 Clouds 2 1023 39 0 2.84 2 22:21 08.03.2020
1339 Clouds 2 1023 39 0 2.84 2 21:57 08.03.2020
1340 Clouds 2 1023 39 0 2.84 2 21:39 08.03.2020
1341 Clouds 2 1023 39 0 2.84 2 21:19 08.03.2020
1342 Clouds 2 1023 39 0 2.84 2 20:56 08.03.2020
1343 Clouds 2 1023 39 0 2.84 2 20:37 08.03.2020
1344 Clouds 2 1025 45 0 3.03 7 20:19 08.03.2020
1345 Clouds 2 1025 48 0 2.99 7 19:38 08.03.2020
1346 Clouds 2 1025 48 0 2.99 7 19:19 08.03.2020
1347 Clouds 2 1025 48 0 2.99 7 18:43 08.03.2020
1348 Clouds 2 1025 48 0 2.99 7 18:24 08.03.2020
1349 Clouds 2 1025 48 0 2.99 7 18:24 08.03.2020
1350 Clouds 2 1025 48 0 2.99 7 17:58 08.03.2020
1351 Clouds 2 1025 48 0 2.99 7 17:39 08.03.2020
1352 Clouds 2 1023 67 0 3.25 21 17:20 08.03.2020
1353 Clouds 2 1023 67 0 3.25 21 16:55 08.03.2020
1354 Clouds 2 1023 67 0 3.25 21 16:36 08.03.2020
1355 Clouds 2 1023 67 0 3.25 21 16:18 08.03.2020
1356 Clouds 2 1023 67 0 3.25 21 15:41 08.03.2020
1357 Clouds 2 1023 67 0 3.25 21 15:21 08.03.2020
1358 Clouds 2 1023 67 0 3.25 21 14:56 08.03.2020
1359 Clouds 2 1023 67 0 3.25 21 14:37 08.03.2020
1360 Snow 6 1019 74 0 1.68 229 14:19 08.03.2020
1361 Snow 6 1019 74 0 1.68 229 13:41 08.03.2020
1362 Snow 6 1019 74 0 1.68 229 13:20 08.03.2020
1363 Snow 5 1018 79 0 1.28 234 12:43 08.03.2020
1364 Snow 5 1018 79 0 1.28 234 12:25 08.03.2020
1365 Snow 5 1018 79 0 1.28 234 11:58 08.03.2020
1366 Snow 5 1018 79 0 1.28 234 11:40 08.03.2020
1367 Snow 5 1018 79 0 1.28 234 11:21 08.03.2020
1368 Rain 7 1018 69 0 2.13 248 10:42 08.03.2020
1369 Rain 7 1018 69 0 2.13 248 10:24 08.03.2020
1370 Rain 7 1018 69 0 2.13 248 09:59 08.03.2020
1371 Rain 7 1018 69 0 2.13 248 09:37 08.03.2020
1372 Rain 7 1018 69 0 2.13 248 09:19 08.03.2020
1373 Rain 7 1018 69 0 2.13 248 08:42 08.03.2020
1374 Rain 7 1021 68 0 1.98 222 08:20 08.03.2020
1375 Rain 7 1021 68 0 1.98 222 07:45 08.03.2020
1376 Rain 7 1021 68 0 1.98 222 07:26 08.03.2020
1377 Rain 7 1021 68 0 1.98 222 06:43 08.03.2020
1378 Rain 7 1021 68 0 1.98 222 06:24 08.03.2020
1379 Rain 7 1021 68 0 1.98 222 05:43 08.03.2020
1380 Clouds 4 1024 71 0 0.68 17 03:52 08.03.2020
1381 Clouds 4 1024 71 0 0.68 17 02:40 08.03.2020
1382 Snow 0 1023 82 0 2.48 13 01:37 08.03.2020
1383 Snow 0 1022 81 0 3.2 7 01:18 08.03.2020
1384 Snow 0 1022 81 0 3.2 7 00:30 08.03.2020
1385 Snow 0 1022 81 0 3.2 7 23:49 07.03.2020
1386 Snow 0 1022 81 0 3.2 7 23:27 07.03.2020
1387 Snow 1 1021 92 0 0.83 50 22:58 07.03.2020
1388 Snow 1 1021 92 0 0.83 50 22:37 07.03.2020
1389 Snow 1 1021 92 0 0.83 50 22:19 07.03.2020
1390 Snow 1 1021 92 0 0.83 50 21:43 07.03.2020
1391 Snow 1 1021 92 0 0.83 50 21:43 07.03.2020
1392 Snow 1 1021 92 0 0.83 50 21:22 07.03.2020
1393 Snow 1 1021 92 0 0.83 50 20:41 07.03.2020
1394 Snow 1 1021 89 0 1.33 23 20:21 07.03.2020
1395 Snow 1 1021 91 0 0.43 328 19:42 07.03.2020
1396 Snow 1 1021 91 0 0.43 328 19:23 07.03.2020
1397 Snow 1 1021 91 0 0.43 328 18:59 07.03.2020
1398 Snow 1 1021 91 0 0.43 328 18:39 07.03.2020
1399 Snow 1 1021 91 0 0.43 328 18:21 07.03.2020
1400 Snow 1 1021 91 0 0.43 328 17:42 07.03.2020
1401 Snow 2 1019 89 0 1.18 10 17:20 07.03.2020
1402 Snow 2 1019 89 0 1.18 10 16:57 07.03.2020
1403 Snow 2 1019 89 0 1.18 10 16:39 07.03.2020
1404 Snow 2 1019 89 0 1.18 10 16:21 07.03.2020
1405 Snow 2 1019 89 0 1.18 10 15:55 07.03.2020
1406 Snow 2 1019 89 0 1.18 10 15:37 07.03.2020
1407 Snow 2 1019 89 0 1.18 10 15:37 07.03.2020
1408 Snow 2 1019 89 0 1.18 10 15:19 07.03.2020
1409 Snow 2 1019 89 0 1.18 10 14:44 07.03.2020
1410 Snow 2 1019 89 0 1.18 10 14:23 07.03.2020
1411 Snow 2 1014 92 0 0.4 301 13:57 07.03.2020
1412 Snow 2 1014 92 0 0.4 301 13:38 07.03.2020
1413 Snow 2 1014 92 0 0.4 301 13:18 07.03.2020
1414 Snow 2 1013 94 0 0.34 86 12:40 07.03.2020
1415 Snow 2 1013 94 0 0.34 86 12:20 07.03.2020
1416 Snow 2 1013 94 0 0.34 86 11:57 07.03.2020
1417 Snow 2 1013 94 0 0.34 86 11:38 07.03.2020
1418 Snow 3 1013 94 0 3.01 218 11:19 07.03.2020
1419 Snow 3 1013 94 0 3.01 218 10:40 07.03.2020
1420 Snow 3 1013 94 0 3.01 218 10:20 07.03.2020
1421 Snow 3 1013 94 0 3.01 218 09:56 07.03.2020
1422 Snow 3 1013 94 0 3.01 218 09:37 07.03.2020
1423 Snow 3 1013 94 0 3.01 218 09:18 07.03.2020
1424 Snow 3 1013 94 0 3.01 218 08:43 07.03.2020
1425 Snow 4 1014 86 0 2.16 226 08:21 07.03.2020
1426 Snow 3 1013 94 0 3.01 218 08:21 07.03.2020
1427 Snow 5 1015 68 0 2.63 210 07:49 07.03.2020
1428 Snow 5 1015 68 0 2.63 210 07:23 07.03.2020
1429 Snow 5 1015 68 0 2.63 210 06:55 07.03.2020
1430 Snow 5 1015 68 0 2.63 210 06:29 07.03.2020
1431 Snow 5 1015 68 0 2.63 210 05:50 07.03.2020
1432 Snow 1 1016 81 0 1.82 360 04:42 07.03.2020
1433 Snow 1 1016 81 0 1.82 360 02:47 07.03.2020
1434 Snow 1 1016 81 0 1.82 360 02:24 07.03.2020
1435 Snow 1 1014 97 0 2.05 195 01:26 07.03.2020
1436 Snow 1 1014 97 0 2.05 195 00:38 07.03.2020
1437 Snow 1 1014 97 0 2.05 195 00:20 07.03.2020
1438 Snow 1 1014 97 0 2.05 195 23:44 06.03.2020
1439 Snow 1 1014 97 0 2.05 195 23:25 06.03.2020
1440 Clouds 1 1014 79 0 0.71 339 22:48 06.03.2020
1441 Clouds 1 1014 79 0 0.71 339 22:21 06.03.2020
1442 Clouds 1 1014 79 0 0.71 339 21:56 06.03.2020
1443 Clouds 1 1014 79 0 0.71 339 21:38 06.03.2020
1444 Clouds 1 1014 79 0 0.71 339 21:18 06.03.2020
1445 Clouds 1 1014 79 0 0.71 339 21:18 06.03.2020
1446 Clouds 1 1014 79 0 0.71 339 20:38 06.03.2020
1447 Clouds 2 1013 69 0 0.93 199 20:20 06.03.2020
1448 Clouds 2 1013 69 0 0.93 199 19:47 06.03.2020
1449 Clouds 2 1013 69 0 0.93 199 19:28 06.03.2020
1450 Clouds 2 1013 69 0 0.93 199 18:57 06.03.2020
1451 Clouds 2 1013 69 0 0.93 199 18:38 06.03.2020
1452 Clouds 2 1013 69 0 0.93 199 18:19 06.03.2020
1453 Clouds 2 1013 69 0 0.93 199 17:42 06.03.2020
1454 Clouds 2 1013 69 0 0.93 199 17:42 06.03.2020
1455 Clouds 2 1013 69 0 0.93 199 17:23 06.03.2020
1456 Snow 3 1012 65 0 2.35 12 16:59 06.03.2020
1457 Snow 3 1012 65 0 2.35 12 16:40 06.03.2020
1458 Snow 3 1012 65 0 2.35 12 16:20 06.03.2020
1459 Snow 3 1012 65 0 2.35 12 15:45 06.03.2020
1460 Snow 3 1012 65 0 2.35 12 15:24 06.03.2020
1461 Snow 3 1012 65 0 2.35 12 14:55 06.03.2020
1462 Snow 3 1012 65 0 2.35 12 14:37 06.03.2020
1463 Snow 3 1010 95 0 1.56 152 14:18 06.03.2020
1464 Snow 3 1010 95 0 1.56 152 13:42 06.03.2020
1465 Snow 3 1010 95 0 1.56 152 13:21 06.03.2020
1466 Snow 3 1010 96 0 3.35 179 12:56 06.03.2020
1467 Snow 3 1010 96 0 3.35 179 12:37 06.03.2020
1468 Snow 3 1010 96 0 3.35 179 12:19 06.03.2020
1469 Snow 3 1010 96 0 3.35 179 11:56 06.03.2020
1470 Snow 3 1010 96 0 3.35 179 11:38 06.03.2020
1471 Snow 3 1010 96 0 3.35 179 11:38 06.03.2020
1472 Snow 7 1011 68 0 2.82 229 11:19 06.03.2020
1473 Snow 7 1011 68 0 2.82 229 10:38 06.03.2020
1474 Snow 7 1011 68 0 2.82 229 10:20 06.03.2020
1475 Snow 7 1011 68 0 2.82 229 09:55 06.03.2020
1476 Snow 7 1011 68 0 2.82 229 09:36 06.03.2020
1477 Snow 7 1011 68 0 2.82 229 09:18 06.03.2020
1478 Snow 7 1011 68 0 2.82 229 08:43 06.03.2020
1479 Snow 7 1011 68 0 2.82 229 08:25 06.03.2020
1480 Snow 7 1016 52 0 1.05 144 07:57 06.03.2020
1481 Snow 7 1016 52 0 1.05 144 07:37 06.03.2020
1482 Snow 7 1016 52 0 1.05 144 06:58 06.03.2020
1483 Snow 7 1016 52 0 1.05 144 06:39 06.03.2020
1484 Snow 7 1016 52 0 1.05 144 05:42 06.03.2020
1485 Snow 7 1016 52 0 1.05 144 05:24 06.03.2020
1486 Snow 4 1018 63 0 1.33 24 04:57 06.03.2020
1487 Snow 2 1017 63 0 1.7 36 01:59 06.03.2020
1488 Snow 2 1017 63 0 1.7 36 01:39 06.03.2020
1489 Snow 2 1016 75 0 1.23 88 01:20 06.03.2020
1490 Snow 2 1016 75 0 1.23 88 00:32 06.03.2020
1491 Snow 2 1016 75 0 1.23 88 23:56 05.03.2020
1492 Snow 2 1016 75 0 1.23 88 23:38 05.03.2020
1493 Snow 2 1017 68 0 3.09 24 23:19 05.03.2020
1494 Snow 2 1017 68 0 3.09 24 22:40 05.03.2020
1495 Snow 2 1017 68 0 3.09 24 22:21 05.03.2020
1496 Snow 2 1017 68 0 3.09 24 21:57 05.03.2020
1497 Snow 2 1017 68 0 3.09 24 21:38 05.03.2020
1498 Snow 2 1017 68 0 3.09 24 21:20 05.03.2020
1499 Snow 2 1017 68 0 3.09 24 20:57 05.03.2020
1500 Snow 2 1017 68 0 3.09 24 20:39 05.03.2020
1501 Clouds 3 1018 63 0 1.61 342 20:19 05.03.2020
1502 Clouds 3 1018 63 0 1.61 342 19:56 05.03.2020
1503 Clouds 3 1018 63 0 1.61 342 19:38 05.03.2020
1504 Clouds 3 1018 63 0 1.61 342 19:18 05.03.2020
1505 Clouds 3 1018 63 0 1.61 342 18:54 05.03.2020
1506 Clouds 3 1018 63 0 1.61 342 18:36 05.03.2020
1507 Clouds 3 1018 63 0 1.61 342 18:18 05.03.2020
1508 Clouds 3 1018 63 0 1.61 342 17:41 05.03.2020
1509 Clouds 3 1018 63 0 1.61 342 17:22 05.03.2020
1510 Clouds 2 1016 65 0 3.13 11 16:55 05.03.2020
1511 Clouds 2 1016 65 0 3.13 11 16:37 05.03.2020
1512 Clouds 2 1016 65 0 3.13 11 16:19 05.03.2020
1513 Clouds 2 1016 65 0 3.13 11 15:44 05.03.2020
1514 Clouds 2 1016 65 0 3.13 11 15:22 05.03.2020
1515 Clouds 2 1016 65 0 3.13 11 14:59 05.03.2020
1516 Clouds 2 1016 65 0 3.13 11 14:40 05.03.2020
1517 Clouds 2 1016 65 0 3.13 11 14:21 05.03.2020
1518 Snow 4 1013 86 0 1.66 35 13:56 05.03.2020
1519 Snow 4 1013 86 0 1.66 35 13:37 05.03.2020
1520 Snow 4 1012 83 0 2.13 34 13:19 05.03.2020
1521 Snow 4 1012 83 0 2.13 34 12:41 05.03.2020
1522 Snow 4 1012 83 0 2.13 34 12:20 05.03.2020
1523 Snow 4 1012 83 0 2.13 34 11:57 05.03.2020
1524 Snow 4 1012 83 0 2.13 34 11:37 05.03.2020
1525 Snow 4 1012 83 0 2.13 34 11:37 05.03.2020
1526 Snow 6 1013 64 0 3.05 232 11:19 05.03.2020
1527 Snow 6 1013 64 0 3.05 232 10:57 05.03.2020
1528 Snow 6 1013 64 0 3.05 232 10:39 05.03.2020
1529 Snow 6 1013 64 0 3.05 232 10:21 05.03.2020
1530 Snow 6 1013 64 0 3.05 232 09:46 05.03.2020
1531 Snow 6 1013 64 0 3.05 232 09:28 05.03.2020
1532 Snow 6 1013 64 0 3.05 232 08:49 05.03.2020
1533 Snow 6 1013 64 0 3.05 232 08:31 05.03.2020
1534 Clouds 9 1017 42 0 2.39 221 07:56 05.03.2020
1535 Clouds 9 1017 42 0 2.39 221 07:36 05.03.2020
1536 Clouds 9 1017 42 0 2.39 221 07:18 05.03.2020
1537 Clouds 9 1017 42 0 2.39 221 06:43 05.03.2020
1538 Clouds 9 1017 42 0 2.39 221 06:19 05.03.2020
1539 Clouds 9 1017 42 0 2.39 221 05:33 05.03.2020
1540 Clouds 9 1017 42 0 2.39 221 05:33 05.03.2020
1541 Clouds 5 1021 57 0 1.03 328 04:23 05.03.2020
1542 Clouds 5 1021 57 0 1.03 328 03:58 05.03.2020
1543 Clouds 5 1021 57 0 1.03 328 02:32 05.03.2020
1544 Clouds 2 1020 59 0 3.28 4 01:26 05.03.2020
1545 Clouds 2 1020 59 0 3.28 4 00:49 05.03.2020
1546 Clouds 2 1020 59 0 3.28 4 23:57 04.03.2020
1547 Clouds 2 1020 59 0 3.28 4 23:57 04.03.2020
1548 Clouds 2 1020 59 0 3.28 4 23:39 04.03.2020
1549 Clouds 2 1020 66 0 3.48 8 23:21 04.03.2020
1550 Clouds 2 1020 66 0 3.48 8 22:55 04.03.2020
1551 Clouds 2 1020 66 0 3.48 8 22:36 04.03.2020
1552 Clouds 2 1020 66 0 3.48 8 22:18 04.03.2020
1553 Clouds 2 1020 66 0 3.48 8 21:42 04.03.2020
1554 Clouds 2 1020 66 0 3.48 8 21:23 04.03.2020
1555 Clouds 2 1020 66 0 3.48 8 20:59 04.03.2020
1556 Clouds 2 1020 66 0 3.48 8 20:40 04.03.2020
1557 Clouds 2 1020 66 0 3.48 8 20:21 04.03.2020
1558 Clouds 1 1019 63 0 3.16 7 20:21 04.03.2020
1559 Rain 3 1019 69 0 3.17 16 19:56 04.03.2020
1560 Rain 3 1019 69 0 3.17 16 19:38 04.03.2020
1561 Rain 3 1019 69 0 3.17 16 19:20 04.03.2020
1562 Rain 3 1019 69 0 3.17 16 18:42 04.03.2020
1563 Rain 3 1019 69 0 3.17 16 18:23 04.03.2020
1564 Rain 3 1019 69 0 3.17 16 17:59 04.03.2020
1565 Rain 3 1019 69 0 3.17 16 17:39 04.03.2020
1566 Snow 3 1018 78 0 2.75 21 17:20 04.03.2020
1567 Snow 3 1018 78 0 2.75 21 16:56 04.03.2020
1568 Snow 3 1018 78 0 2.75 21 16:37 04.03.2020
1569 Snow 3 1018 78 0 2.75 21 16:19 04.03.2020
1570 Snow 3 1018 78 0 2.75 21 15:44 04.03.2020
1571 Snow 3 1018 78 0 2.75 21 15:26 04.03.2020
1572 Snow 3 1018 78 0 2.75 21 14:58 04.03.2020
1573 Snow 3 1018 78 0 2.75 21 14:39 04.03.2020
1574 Snow 5 1014 88 0 1.97 197 14:19 04.03.2020
1575 Snow 5 1014 88 0 1.97 197 13:58 04.03.2020
1576 Snow 5 1014 88 0 1.97 197 13:39 04.03.2020
1577 Snow 6 1014 77 0 2.23 205 13:20 04.03.2020
1578 Snow 6 1014 77 0 2.23 205 12:55 04.03.2020
1579 -273 0 0 0 0 0 12:37 04.03.2020
1580 Snow 6 1014 77 0 2.23 205 12:19 04.03.2020
1581 Snow 6 1014 77 0 2.23 205 11:42 04.03.2020
1582 Snow 6 1014 77 0 2.23 205 11:23 04.03.2020
1583 Snow 11 1013 44 0 3.53 218 10:58 04.03.2020
1584 Snow 11 1013 44 0 3.53 218 10:40 04.03.2020
1585 Snow 11 1013 44 0 3.53 218 10:21 04.03.2020
1586 Snow 11 1013 44 0 3.53 218 09:43 04.03.2020
1587 Snow 11 1013 44 0 3.53 218 09:21 04.03.2020
1588 Snow 11 1013 44 0 3.53 218 08:56 04.03.2020
1589 Snow 11 1013 44 0 3.53 218 08:37 04.03.2020
1590 Clear 10 1017 32 0 3.08 213 08:19 04.03.2020
1591 Clear 10 1017 32 0 3.08 213 07:39 04.03.2020
1592 Clear 10 1017 32 0 3.08 213 07:20 04.03.2020
1593 Clear 10 1017 32 0 3.08 213 06:47 04.03.2020
1594 Clear 10 1017 32 0 3.08 213 06:24 04.03.2020
1595 Clear 10 1017 32 0 3.08 213 05:54 04.03.2020
1596 Clear 6 1020 39 0 1.2 328 04:34 04.03.2020
1597 Clear 6 1020 39 0 1.2 328 03:46 04.03.2020
1598 Clear 6 1020 39 0 1.2 328 03:27 04.03.2020
1599 Clear 6 1020 39 0 1.2 328 02:58 04.03.2020
1600 Clear 6 1020 39 0 1.2 328 02:22 04.03.2020
1601 Clear 2 1020 50 0 3.04 4 01:56 04.03.2020
1602 Clear 2 1020 53 0 2.9 2 00:53 04.03.2020
1603 Clear 2 1020 53 0 2.9 2 00:53 04.03.2020
1604 Clear 2 1020 53 0 2.9 2 00:27 04.03.2020
1605 Clear 2 1020 53 0 2.9 2 23:59 03.03.2020
1606 Clear 2 1020 53 0 2.9 2 23:40 03.03.2020
1607 Clear 2 1020 53 0 2.9 2 23:22 03.03.2020
1608 Clear 3 1019 58 0 2.86 8 22:41 03.03.2020
1609 Clear 3 1019 58 0 2.86 8 22:20 03.03.2020
1610 Clear 3 1019 58 0 2.86 8 21:59 03.03.2020
1611 Clear 3 1019 58 0 2.86 8 21:40 03.03.2020
1612 Clear 3 1019 58 0 2.86 8 21:40 03.03.2020
1613 Clear 3 1019 58 0 2.86 8 21:21 03.03.2020
1614 Clear 3 1019 58 0 2.86 8 20:57 03.03.2020
1615 Clear 3 1019 58 0 2.86 8 20:38 03.03.2020
1616 Clouds 4 1019 56 0 2.84 3 20:18 03.03.2020
1617 Clear 4 1019 57 0 2.82 5 19:55 03.03.2020
1618 Clear 4 1019 57 0 2.82 5 19:37 03.03.2020
1619 Clear 4 1019 57 0 2.82 5 19:37 03.03.2020
1620 Clouds 4 1019 56 0 2.84 3 19:18 03.03.2020
1621 Clouds 4 1019 56 0 2.84 3 18:55 03.03.2020
1622 Clear 4 1019 57 0 2.82 5 18:37 03.03.2020
1623 Clear 4 1019 57 0 2.82 5 18:37 03.03.2020
1624 Clouds 4 1019 56 0 2.84 3 18:18 03.03.2020
1625 Clouds 4 1019 56 0 2.84 3 17:41 03.03.2020
1626 Clouds 4 1019 56 0 2.84 3 17:22 03.03.2020
1627 Clouds 4 1018 71 0 2.77 20 16:59 03.03.2020
1628 Clear 4 1018 70 0 2.83 18 16:38 03.03.2020
1629 Clear 4 1018 70 0 2.83 18 16:20 03.03.2020
1630 Clear 4 1018 70 0 2.83 18 16:20 03.03.2020
1631 Clear 4 1018 70 0 2.83 18 15:58 03.03.2020
1632 Clear 4 1018 70 0 2.83 18 15:40 03.03.2020
1633 Clouds 4 1018 71 0 2.77 20 15:20 03.03.2020
1634 Clouds 4 1018 71 0 2.77 20 14:43 03.03.2020
1635 Clear 4 1018 70 0 2.83 18 14:21 03.03.2020
1636 Rain 8 1014 64 0 2.02 221 13:59 03.03.2020
1637 Rain 8 1014 64 0 2 222 13:41 03.03.2020
1638 Rain 8 1014 64 0 2 222 13:22 03.03.2020
1639 Rain 8 1014 64 0 2 222 12:49 03.03.2020
1640 Rain 8 1014 64 0 2 222 12:27 03.03.2020
1641 Rain 8 1014 64 0 2 222 11:59 03.03.2020
1642 Rain 8 1014 64 0 2 222 11:38 03.03.2020
1643 Clear 12 1014 37 0 3.54 213 11:19 03.03.2020
1644 Clear 12 1014 37 0 3.54 213 10:57 03.03.2020
1645 Clear 12 1014 37 0 3.54 213 10:38 03.03.2020
1646 Clear 12 1014 37 0 3.54 213 10:19 03.03.2020
1647 Clear 12 1014 37 0 3.54 213 09:45 03.03.2020
1648 Clear 12 1014 37 0 3.54 213 09:23 03.03.2020
1649 Clear 12 1014 37 0 3.54 213 09:23 03.03.2020
1650 Clear 12 1014 37 0 3.54 213 08:59 03.03.2020
1651 Clear 12 1014 37 0 3.54 213 08:39 03.03.2020
1652 Clear 12 1014 37 0 3.54 213 08:21 03.03.2020
1653 Clear 11 1018 30 0 3.06 213 07:44 03.03.2020
1654 Clear 11 1018 30 0 3.06 213 07:23 03.03.2020
1655 Clear 11 1018 30 0 3.06 213 06:53 03.03.2020
1656 Clear 11 1018 30 0 3.06 213 06:27 03.03.2020
1657 Clear 11 1018 30 0 3.06 213 05:48 03.03.2020
1658 Clear 11 1018 30 0 3.06 213 05:30 03.03.2020
1659 Clear 7 1021 39 0 1.06 328 04:38 03.03.2020
1660 Clear 2 1021 51 0 2.6 356 01:41 03.03.2020
1661 Clear 2 1021 52 0 2.57 357 00:59 03.03.2020
1662 Clear 2 1021 52 0 2.57 357 00:37 03.03.2020
1663 Clear 2 1021 52 0 2.57 357 00:18 03.03.2020
1664 Clear 2 1021 52 0 2.57 357 23:42 02.03.2020
1665 Clear 2 1021 52 0 2.57 357 23:23 02.03.2020
1666 Clear 3 1022 58 0 2.71 2 22:56 02.03.2020
1667 Clear 3 1022 58 0 2.71 2 22:37 02.03.2020
1668 Clear 3 1022 58 0 2.71 2 22:19 02.03.2020
1669 Clear 3 1022 58 0 2.71 2 21:42 02.03.2020
1670 Clear 3 1022 58 0 2.71 2 21:24 02.03.2020
1671 Clear 3 1022 58 0 2.71 2 20:59 02.03.2020
1672 Clear 3 1022 58 0 2.71 2 20:41 02.03.2020
1673 Clear 3 1021 60 0 2.63 0 20:21 02.03.2020
1674 Clear 4 1022 58 0 2.88 1 19:57 02.03.2020
1675 Clear 4 1022 58 0 2.88 1 19:39 02.03.2020
1676 Clear 4 1022 58 0 2.88 1 19:20 02.03.2020
1677 Clear 4 1022 58 0 2.88 1 18:55 02.03.2020
1678 Clear 4 1022 58 0 2.88 1 18:37 02.03.2020
1679 Clear 4 1022 58 0 2.88 1 18:18 02.03.2020
1680 Clear 4 1022 58 0 2.88 1 17:55 02.03.2020
1681 Clear 4 1022 58 0 2.88 1 17:37 02.03.2020
1682 Clear 4 1021 69 0 2.51 17 17:19 02.03.2020
1683 Clear 4 1021 69 0 2.51 17 16:41 02.03.2020
1684 Clear 4 1021 69 0 2.51 17 16:23 02.03.2020
1685 Clear 4 1021 69 0 2.51 17 15:54 02.03.2020
1686 Clear 4 1021 69 0 2.51 17 15:36 02.03.2020
1687 Clear 4 1021 69 0 2.51 17 15:18 02.03.2020
1688 Clear 4 1021 69 0 2.51 17 14:37 02.03.2020
1689 Rain 8 1016 63 0 1.89 223 14:19 02.03.2020
1690 Rain 8 1016 63 0 1.89 223 14:19 02.03.2020
1691 Rain 8 1016 63 0 1.89 223 13:44 02.03.2020
1692 Rain 8 1016 63 0 1.89 223 13:20 02.03.2020
1693 Rain 8 1016 62 0 1.88 220 12:59 02.03.2020
1694 Rain 8 1016 62 0 1.88 220 12:41 02.03.2020
1695 Rain 8 1016 62 0 1.88 220 12:19 02.03.2020
1696 Rain 8 1016 62 0 1.88 220 11:39 02.03.2020
1697 Clear 11 1016 41 0 3.28 213 11:20 02.03.2020
1698 Clear 11 1016 41 0 3.28 213 10:57 02.03.2020
1699 Clear 11 1016 41 0 3.28 213 10:37 02.03.2020
1700 Clear 11 1016 41 0 3.28 213 10:19 02.03.2020
1701 Clear 11 1016 41 0 3.28 213 09:50 02.03.2020
1702 Clear 11 1016 41 0 3.28 213 09:31 02.03.2020
1703 Clear 11 1016 41 0 3.28 213 08:49 02.03.2020
1704 Clear 11 1016 41 0 3.28 213 08:23 02.03.2020
1705 Clear 11 1019 25 0 2.95 211 07:52 02.03.2020
1706 Clear 11 1019 25 0 2.95 211 07:33 02.03.2020
1707 Clear 11 1019 25 0 2.95 211 06:53 02.03.2020
1708 Clear 11 1019 25 0 2.95 211 06:26 02.03.2020
1709 Clear 11 1019 25 0 2.95 211 05:27 02.03.2020
1710 Clear 7 1023 34 0 1.22 339 03:59 02.03.2020
1711 Clear 7 1023 34 0 1.22 339 03:19 02.03.2020
1712 Clear 7 1023 34 0 1.22 339 02:32 02.03.2020
1713 Clear 3 1023 54 0 2.9 5 01:40 02.03.2020
1714 Clear 3 1023 54 0 2.9 5 01:22 02.03.2020
1715 Clear 3 1023 54 0 2.9 6 00:22 02.03.2020
1716 Clear 3 1023 54 0 2.9 6 23:56 01.03.2020
1717 Clear 3 1023 54 0 2.9 6 23:37 01.03.2020
1718 Clear 3 1022 62 0 2.52 352 23:18 01.03.2020
1719 Clear 3 1022 62 0 2.52 352 22:38 01.03.2020
1720 Clear 3 1022 62 0 2.52 352 22:19 01.03.2020
1721 Clear 3 1022 62 0 2.52 352 21:43 01.03.2020
1722 Clear 3 1022 62 0 2.52 352 21:25 01.03.2020
1723 Clear 3 1022 62 0 2.52 352 20:59 01.03.2020
1724 Clear 3 1022 62 0 2.52 352 20:41 01.03.2020
1725 Clear 3 1022 62 0 2.52 352 20:22 01.03.2020
1726 Clear 3 1022 49 0 2.38 357 19:43 01.03.2020
1727 Clear 3 1022 49 0 2.38 357 19:24 01.03.2020
1728 Clear 3 1022 49 0 2.38 357 18:59 01.03.2020
1729 Clear 3 1022 49 0 2.38 357 18:40 01.03.2020
1730 Clear 3 1022 49 0 2.38 357 18:19 01.03.2020
1731 Clear 3 1022 49 0 2.38 357 17:57 01.03.2020
1732 Clear 3 1022 49 0 2.38 357 17:39 01.03.2020
1733 Clear 4 1021 54 0 2.85 17 17:20 01.03.2020
1734 Clear 4 1021 54 0 2.85 17 16:57 01.03.2020
1735 Clear 4 1021 54 0 2.85 17 16:38 01.03.2020
1736 Clear 4 1021 54 0 2.85 17 16:18 01.03.2020
1737 Clear 4 1021 54 0 2.85 17 15:56 01.03.2020
1738 Clear 4 1021 54 0 2.85 17 15:37 01.03.2020
1739 Clear 4 1021 54 0 2.85 17 15:19 01.03.2020
1740 Clear 4 1021 54 0 2.85 17 14:56 01.03.2020
1741 Clear 4 1021 54 0 2.85 17 14:38 01.03.2020
1742 Snow 8 1017 51 0 1.99 219 14:19 01.03.2020
1743 Snow 8 1017 51 0 1.99 219 13:54 01.03.2020
1744 Snow 8 1017 51 0 1.99 219 13:54 01.03.2020
1745 Snow 8 1017 51 0 1.99 219 13:36 01.03.2020
1746 Rain 8 1016 67 0 2.09 232 13:18 01.03.2020
1747 Rain 8 1016 67 0 2.09 232 12:41 01.03.2020
1748 Rain 8 1017 56 0 2.04 228 12:21 01.03.2020
1749 Rain 8 1017 56 0 2.04 228 11:43 01.03.2020
1750 Rain 8 1017 56 0 2.04 228 11:25 01.03.2020
1751 Snow 11 1017 44 0 3.02 222 10:57 01.03.2020
1752 Rain 10 1017 52 0 3 231 10:57 01.03.2020
1753 Rain 10 1017 52 0 3 231 10:38 01.03.2020
1754 Rain 10 1017 52 0 3 231 10:20 01.03.2020
1755 Snow 11 1017 44 0 3.02 222 09:58 01.03.2020
1756 Snow 11 1017 44 0 3.02 222 09:40 01.03.2020
1757 Snow 11 1017 44 0 3.02 222 09:21 01.03.2020
1758 Snow 11 1017 44 0 3.02 222 08:42 01.03.2020
1759 Rain 10 1017 52 0 3 231 08:21 01.03.2020
1760 Clouds 10 1020 45 0 2.92 213 07:43 01.03.2020
1761 Clouds 10 1020 45 0 2.92 213 07:24 01.03.2020
1762 Clouds 10 1020 45 0 2.92 213 06:58 01.03.2020
1763 Clouds 10 1020 45 0 2.92 213 06:38 01.03.2020
1764 Clouds 7 1022 54 0 1.22 4 04:27 01.03.2020
1765 Clouds 7 1022 54 0 1.22 4 02:55 01.03.2020
1766 Snow 3 1021 63 0 2.67 5 01:54 01.03.2020
1767 Snow 3 1021 63 0 2.67 5 01:33 01.03.2020
1768 Clouds 4 1021 61 0 1.94 5 00:46 01.03.2020
1769 Clouds 4 1021 61 0 1.94 5 00:22 01.03.2020
1770 Clouds 4 1021 61 0 1.94 5 23:54 29.02.2020
1771 Clouds 4 1021 61 0 1.94 5 23:34 29.02.2020
1772 Clouds 5 1021 57 0 2.21 10 22:45 29.02.2020
1773 Clouds 5 1021 57 0 2.21 10 22:26 29.02.2020
1774 Clouds 5 1021 57 0 2.21 10 21:47 29.02.2020
1775 Clouds 5 1021 57 0 2.21 10 21:26 29.02.2020
1776 Clouds 5 1021 57 0 2.21 10 20:59 29.02.2020
1777 Clouds 5 1021 57 0 2.21 10 20:40 29.02.2020
1778 Clouds 5 1022 63 0 2.72 344 20:20 29.02.2020
1779 Clouds 5 1022 63 0 2.72 344 19:41 29.02.2020
1780 Clouds 5 1022 63 0 2.72 344 19:22 29.02.2020
1781 Clouds 5 1022 63 0 2.72 344 18:59 29.02.2020
1782 Clouds 5 1022 63 0 2.72 344 18:39 29.02.2020
1783 Clouds 5 1022 63 0 2.72 344 18:19 29.02.2020
1784 Clouds 5 1022 63 0 2.72 344 17:55 29.02.2020
1785 Clouds 5 1022 63 0 2.72 344 17:37 29.02.2020
1786 Snow 5 1020 82 0 3.85 44 17:18 29.02.2020
1787 Snow 5 1020 82 0 3.85 44 16:43 29.02.2020
1788 Snow 5 1020 82 0 3.85 44 16:19 29.02.2020
1789 Snow 5 1020 82 0 3.85 44 15:54 29.02.2020
1790 Snow 5 1020 82 0 3.85 44 15:36 29.02.2020
1791 Snow 5 1020 82 0 3.85 44 15:18 29.02.2020
1792 Snow 5 1020 82 0 3.85 44 14:39 29.02.2020
1793 Snow 8 1016 55 0 2.47 306 14:21 29.02.2020
1794 Snow 8 1016 55 0 2.47 306 13:44 29.02.2020
1795 Snow 8 1016 58 0 1.29 66 13:26 29.02.2020
1796 Snow 8 1016 58 0 1.29 66 12:56 29.02.2020
1797 Snow 8 1016 58 0 1.29 66 12:37 29.02.2020
1798 Snow 8 1016 58 0 1.29 66 12:19 29.02.2020
1799 Snow 8 1016 58 0 1.29 66 11:44 29.02.2020
1800 Snow 8 1016 58 0 1.29 66 11:26 29.02.2020
1801 Snow 7 1017 65 0 2.22 344 10:51 29.02.2020
1802 Snow 7 1017 65 0 2.22 344 10:30 29.02.2020
1803 Snow 7 1017 65 0 2.22 344 09:55 29.02.2020
1804 Snow 7 1017 65 0 2.22 344 09:37 29.02.2020
1805 Snow 7 1017 65 0 2.22 344 09:18 29.02.2020
1806 Snow 7 1017 65 0 2.22 344 08:39 29.02.2020
1807 Clouds 12 1019 34 0 2.84 208 08:20 29.02.2020
1808 Clouds 12 1019 34 0 2.84 208 07:51 29.02.2020
1809 Clouds 12 1019 34 0 2.84 208 07:22 29.02.2020
1810 Clouds 12 1019 34 0 2.84 208 06:54 29.02.2020
1811 Clouds 12 1019 34 0 2.84 208 06:29 29.02.2020
1812 Clouds 12 1019 34 0 2.84 208 05:50 29.02.2020
1813 Clouds 12 1019 34 0 2.84 208 05:31 29.02.2020
1814 Clouds 8 1022 43 0 1.87 16 03:59 29.02.2020
1815 Clouds 8 1022 43 0 1.87 16 03:24 29.02.2020
1816 Clouds 8 1022 43 0 1.87 16 02:57 29.02.2020
1817 Snow 5 1021 54 0 2.16 20 01:58 29.02.2020
1818 Snow 5 1021 63 0 2.96 51 00:52 29.02.2020
1819 Snow 5 1021 63 0 2.96 51 00:28 29.02.2020
1820 Snow 5 1021 63 0 2.96 51 23:41 28.02.2020
1821 Snow 5 1021 63 0 2.96 51 23:23 28.02.2020
1822 Snow 5 1021 63 0 2.96 51 23:23 28.02.2020
1823 Snow 5 1021 57 0 2.94 12 22:43 28.02.2020
1824 Snow 5 1021 57 0 2.94 12 22:43 28.02.2020
1825 Snow 5 1021 57 0 2.94 12 22:23 28.02.2020
1826 Snow 5 1021 57 0 2.94 12 21:56 28.02.2020
1827 Snow 5 1021 57 0 2.94 12 21:38 28.02.2020
1828 Snow 5 1021 57 0 2.94 12 21:19 28.02.2020
1829 Snow 5 1021 57 0 2.94 12 20:39 28.02.2020
1830 Snow 4 1022 71 0 3.08 39 20:21 28.02.2020
1831 Snow 5 1022 65 0 3.24 16 19:57 28.02.2020
1832 Snow 5 1022 65 0 3.24 16 19:39 28.02.2020
1833 Snow 5 1022 65 0 3.24 16 19:39 28.02.2020
1834 Snow 5 1022 65 0 3.24 16 19:39 28.02.2020
1835 Snow 5 1022 65 0 3.24 16 19:20 28.02.2020
1836 Snow 5 1022 65 0 3.24 16 18:47 28.02.2020
1837 Snow 5 1022 65 0 3.24 16 18:29 28.02.2020
1838 Snow 5 1022 65 0 3.24 16 17:59 28.02.2020
1839 Snow 5 1022 65 0 3.24 16 17:40 28.02.2020
1840 Snow 5 1022 65 0 3.24 16 17:21 28.02.2020
1841 Rain 6 1021 60 0 3.1 7 16:44 28.02.2020
1842 Rain 6 1021 60 0 3.1 7 16:20 28.02.2020
1843 Rain 6 1021 60 0 3.1 7 15:58 28.02.2020
1844 Rain 6 1021 60 0 3.1 7 15:39 28.02.2020
1845 Rain 6 1021 60 0 3.1 7 15:19 28.02.2020
1846 Rain 6 1021 60 0 3.1 7 14:57 28.02.2020
1847 Rain 6 1021 60 0 3.1 7 14:38 28.02.2020
1848 Rain 10 1017 62 0 1.72 225 14:18 28.02.2020
1849 Rain 10 1017 62 0 1.72 225 13:41 28.02.2020
1850 Rain 10 1016 63 0 1.81 233 13:20 28.02.2020
1851 Rain 10 1016 63 0 1.81 233 12:58 28.02.2020
1852 Rain 10 1016 63 0 1.81 233 12:40 28.02.2020
1853 Rain 10 1016 63 0 1.81 233 12:22 28.02.2020
1854 Rain 10 1016 63 0 1.81 233 11:41 28.02.2020
1855 Rain 10 1016 63 0 1.81 233 11:23 28.02.2020
1856 Rain 13 1016 40 0 3.31 219 10:57 28.02.2020
1857 Rain 13 1016 40 0 3.31 219 10:37 28.02.2020
1858 Rain 13 1016 40 0 3.31 219 10:19 28.02.2020
1859 Rain 13 1016 40 0 3.31 219 09:44 28.02.2020
1860 Rain 13 1016 40 0 3.31 219 09:21 28.02.2020
1861 Rain 13 1016 40 0 3.31 219 08:56 28.02.2020
1862 Rain 13 1016 40 0 3.31 219 08:36 28.02.2020
1863 Rain 13 1019 33 0 2.76 208 08:18 28.02.2020
1864 Rain 13 1019 33 0 2.76 208 07:39 28.02.2020
1865 Rain 13 1019 33 0 2.76 208 07:19 28.02.2020
1866 Rain 13 1019 33 0 2.76 208 06:41 28.02.2020
1867 Rain 13 1019 33 0 2.76 208 05:50 28.02.2020
1868 Clouds 9 1021 42 0 1.41 349 04:34 28.02.2020
1869 Clouds 9 1021 42 0 1.41 349 03:43 28.02.2020
1870 Clouds 9 1021 42 0 1.41 349 02:45 28.02.2020
1871 Clouds 5 1020 45 0 2.99 359 02:20 28.02.2020
1872 Clouds 5 1020 47 0 2.87 355 00:39 28.02.2020
1873 Clouds 5 1020 47 0 2.87 355 00:21 28.02.2020
1874 Clouds 5 1020 47 0 2.87 355 23:41 27.02.2020
1875 Clear 5 1020 50 0 2.99 355 23:19 27.02.2020
1876 Clear 5 1020 50 0 2.99 355 22:43 27.02.2020
1877 Clear 5 1020 50 0 2.99 355 22:24 27.02.2020
1878 Clear 5 1020 50 0 2.99 355 21:56 27.02.2020
1879 Clear 5 1020 50 0 2.99 355 21:38 27.02.2020
1880 Clear 5 1020 50 0 2.99 355 21:18 27.02.2020
1881 Clear 5 1020 50 0 2.99 355 20:56 27.02.2020
1882 Clear 5 1020 50 0 2.99 355 20:37 27.02.2020
1883 Clear 5 1020 50 0 2.99 355 20:37 27.02.2020
1884 Clear 5 1021 54 0 2.58 358 20:19 27.02.2020
1885 Clear 5 1021 54 0 2.58 358 19:42 27.02.2020
1886 Clear 5 1021 54 0 2.58 358 19:23 27.02.2020
1887 Clear 5 1021 54 0 2.58 358 18:58 27.02.2020
1888 Clear 5 1021 54 0 2.58 358 18:40 27.02.2020
1889 Clear 5 1021 54 0 2.58 358 18:21 27.02.2020
1890 Clear 5 1021 54 0 2.58 358 17:57 27.02.2020
1891 Clear 5 1021 54 0 2.58 358 17:38 27.02.2020
1892 Clear 5 1020 57 0 2.03 2 17:19 27.02.2020
1893 Clear 5 1020 57 0 2.03 2 16:55 27.02.2020
1894 Clear 5 1020 57 0 2.03 2 16:36 27.02.2020
1895 Clear 5 1020 57 0 2.03 2 16:18 27.02.2020
1896 Clear 5 1020 57 0 2.03 2 15:54 27.02.2020
1897 Clear 5 1020 57 0 2.03 2 15:36 27.02.2020
1898 Clear 5 1020 57 0 2.03 2 15:18 27.02.2020
1899 Clear 5 1020 57 0 2.03 2 14:40 27.02.2020
1900 Clear 5 1020 57 0 2.03 2 14:21 27.02.2020
1901 Clouds 9 1017 66 0 1.14 190 13:56 27.02.2020
1902 Clouds 9 1017 66 0 1.14 190 13:37 27.02.2020
1903 Clouds 9 1017 66 0 1.14 190 13:19 27.02.2020
1904 Clouds 9 1017 63 0 1.23 202 12:44 27.02.2020
1905 Clouds 9 1017 63 0 1.23 202 12:20 27.02.2020
1906 Clouds 9 1017 63 0 1.23 202 11:46 27.02.2020
1907 Clouds 9 1017 63 0 1.23 202 11:23 27.02.2020
1908 Clouds 12 1017 39 0 3.02 206 10:58 27.02.2020
1909 Clouds 12 1017 39 0 3.02 206 10:40 27.02.2020
1910 Clouds 12 1017 39 0 3.02 206 10:20 27.02.2020
1911 Clouds 12 1017 39 0 3.02 206 09:42 27.02.2020
1912 Clouds 12 1017 39 0 3.02 206 09:23 27.02.2020
1913 Clouds 12 1017 39 0 3.02 206 08:55 27.02.2020
1914 Clouds 12 1017 39 0 3.02 206 08:37 27.02.2020
1915 Clouds 12 1021 29 0 2.71 198 08:18 27.02.2020
1916 Clouds 12 1021 29 0 2.71 198 07:41 27.02.2020
1917 Clouds 12 1021 29 0 2.71 198 07:20 27.02.2020
1918 Clouds 12 1021 29 0 2.71 198 06:23 27.02.2020
1919 Clouds 7 1023 34 0 1.55 294 05:19 27.02.2020
1920 Clouds 7 1023 34 0 1.55 294 02:58 27.02.2020
1921 Clouds 4 1023 39 0 2.97 350 01:34 27.02.2020
1922 Clouds 3 1023 36 0 3.14 345 00:41 27.02.2020
1923 Clouds 3 1023 36 0 3.14 345 23:56 26.02.2020
1924 Clouds 3 1023 36 0 3.14 345 23:37 26.02.2020
1925 Clouds 3 1024 44 0 2.99 360 23:18 26.02.2020
1926 Clouds 3 1024 44 0 2.99 360 22:55 26.02.2020
1927 Clouds 3 1024 44 0 2.99 360 22:37 26.02.2020
1928 Clouds 3 1024 44 0 2.99 360 22:18 26.02.2020
1929 Clouds 3 1024 44 0 2.99 360 21:39 26.02.2020
1930 Clouds 3 1024 44 0 2.99 360 21:20 26.02.2020
1931 Clouds 3 1024 44 0 2.99 360 20:56 26.02.2020
1932 Clouds 3 1024 44 0 2.99 360 20:38 26.02.2020
1933 Clouds 3 1026 43 0 3.27 357 20:19 26.02.2020
1934 Clouds 3 1026 43 0 3.27 357 19:56 26.02.2020
1935 Clouds 3 1026 43 0 3.27 357 19:37 26.02.2020
1936 Clouds 3 1026 43 0 3.27 357 19:19 26.02.2020
1937 Clouds 3 1026 43 0 3.27 357 18:56 26.02.2020
1938 Clouds 3 1026 43 0 3.27 357 18:37 26.02.2020
1939 Clouds 3 1026 43 0 3.27 357 18:19 26.02.2020
1940 Clouds 3 1026 43 0 3.27 357 17:41 26.02.2020
1941 Clouds 3 1025 44 0 2.59 15 17:19 26.02.2020
1942 Clouds 3 1025 44 0 2.59 15 16:56 26.02.2020
1943 Clouds 3 1025 44 0 2.59 15 16:56 26.02.2020
1944 Clouds 3 1025 44 0 2.59 15 16:38 26.02.2020
1945 Clouds 3 1025 44 0 2.59 15 16:38 26.02.2020
1946 Clouds 3 1025 44 0 2.59 15 16:20 26.02.2020
1947 Clouds 3 1025 44 0 2.59 15 15:44 26.02.2020
1948 Clouds 3 1025 44 0 2.59 15 15:44 26.02.2020
1949 Clouds 3 1025 44 0 2.59 15 15:26 26.02.2020
1950 Clouds 3 1025 44 0 2.59 15 14:43 26.02.2020
1951 Clouds 3 1025 44 0 2.59 15 14:24 26.02.2020
1952 Clouds 7 1020 61 0 1.36 197 13:58 26.02.2020
1953 Clouds 7 1020 61 0 1.36 197 13:39 26.02.2020
1954 Clouds 7 1020 62 0 1.41 208 13:18 26.02.2020
1955 Clouds 7 1020 62 0 1.41 208 12:39 26.02.2020
1956 Clouds 7 1020 62 0 1.41 208 12:19 26.02.2020
1957 Clouds 7 1020 62 0 1.41 208 11:55 26.02.2020
1958 Clouds 7 1020 62 0 1.41 208 11:55 26.02.2020
1959 Clouds 7 1020 62 0 1.41 208 11:37 26.02.2020
1960 Clear 10 1018 37 0 3.29 200 11:18 26.02.2020
1961 Clear 10 1018 37 0 3.29 200 10:41 26.02.2020
1962 Clear 10 1018 37 0 3.29 200 10:22 26.02.2020
1963 Clear 10 1018 37 0 3.29 200 09:55 26.02.2020
1964 Clear 10 1018 37 0 3.29 200 09:37 26.02.2020
1965 Clear 10 1018 37 0 3.29 200 09:18 26.02.2020
1966 Clear 10 1018 37 0 3.29 200 08:38 26.02.2020
1967 Clear 10 1022 25 0 2.48 211 08:19 26.02.2020
1968 Clear 10 1022 28 0 2.32 212 07:48 26.02.2020
1969 Clear 10 1022 28 0 2.32 212 07:29 26.02.2020
1970 Clear 10 1022 28 0 2.32 212 06:53 26.02.2020
1971 Clear 10 1022 28 0 2.32 212 06:35 26.02.2020
1972 Clear 10 1022 28 0 2.32 212 05:54 26.02.2020
1973 Clear 10 1022 28 0 2.32 212 05:28 26.02.2020
1974 Clear 4 1027 43 0 1.82 8 04:49 26.02.2020
1975 Clear 4 1027 43 0 1.82 8 02:51 26.02.2020
1976 Clear 1 1025 58 0 2.53 1 01:49 26.02.2020
1977 Clear 1 1025 60 0 2.53 5 00:51 26.02.2020
1978 Clear 1 1025 60 0 2.53 5 00:27 26.02.2020
1979 Clear 1 1025 60 0 2.53 5 00:27 26.02.2020
1980 Clear 1 1025 60 0 2.53 5 23:59 25.02.2020
1981 Clear 1 1025 60 0 2.53 5 23:38 25.02.2020
1982 Clear 1 1025 67 0 2.56 3 23:20 25.02.2020
1983 Clear 1 1025 67 0 2.56 3 22:43 25.02.2020
1984 Clear 1 1025 67 0 2.56 3 22:20 25.02.2020
1985 Clear 1 1025 67 0 2.56 3 21:58 25.02.2020
1986 Clear 1 1025 67 0 2.56 3 21:37 25.02.2020
1987 Clear 1 1025 67 0 2.56 3 21:18 25.02.2020
1988 Clear 1 1025 67 0 2.56 3 20:55 25.02.2020
1989 Clear 1 1025 67 0 2.56 3 20:36 25.02.2020
1990 Clouds 2 1023 63 0 2.9 0 20:18 25.02.2020
1991 Clouds 2 1023 63 0 2.9 0 19:42 25.02.2020
1992 Clouds 2 1023 63 0 2.9 0 19:22 25.02.2020
1993 Clouds 2 1023 63 0 2.9 0 18:58 25.02.2020
1994 Clouds 2 1023 63 0 2.9 0 18:38 25.02.2020
1995 Clouds 2 1023 63 0 2.9 0 18:19 25.02.2020
1996 Clouds 2 1023 63 0 2.9 0 17:55 25.02.2020
1997 Clouds 2 1023 63 0 2.9 0 17:36 25.02.2020
1998 Snow 2 1021 73 0 1.95 22 17:18 25.02.2020
1999 Snow 2 1021 73 0 1.95 22 16:42 25.02.2020
2000 Snow 2 1021 73 0 1.95 22 16:22 25.02.2020
2001 Snow 2 1021 73 0 1.95 22 16:22 25.02.2020
2002 Snow 2 1021 73 0 1.95 22 15:59 25.02.2020
2003 Snow 2 1021 73 0 1.95 22 15:41 25.02.2020
2004 Snow 2 1021 73 0 1.95 22 15:20 25.02.2020
2005 Snow 2 1021 73 0 1.95 22 14:58 25.02.2020
2006 Snow 2 1021 73 0 1.95 22 14:38 25.02.2020
2007 Snow 6 1016 71 0 1.42 230 14:18 25.02.2020
2008 Snow 6 1016 71 0 1.42 230 13:58 25.02.2020
2009 Snow 6 1016 71 0 1.42 230 13:39 25.02.2020
2010 Snow 6 1016 73 0 1.25 216 13:20 25.02.2020
2011 Snow 6 1016 73 0 1.25 216 12:55 25.02.2020
2012 Snow 6 1016 73 0 1.25 216 12:37 25.02.2020
2013 Snow 6 1016 73 0 1.25 216 12:18 25.02.2020
2014 Snow 6 1016 73 0 1.25 216 11:55 25.02.2020
2015 Snow 6 1016 73 0 1.25 216 11:37 25.02.2020
2016 Snow 9 1016 46 0 3.55 229 11:18 25.02.2020
2017 Snow 9 1016 46 0 3.55 229 10:41 25.02.2020
2018 Snow 9 1016 46 0 3.55 229 10:41 25.02.2020
2019 Snow 9 1016 46 0 3.55 229 10:23 25.02.2020
2020 Snow 9 1016 46 0 3.55 229 09:42 25.02.2020
2021 Snow 9 1016 46 0 3.55 229 09:23 25.02.2020
2022 Snow 9 1016 46 0 3.55 229 08:56 25.02.2020
2023 Snow 9 1016 46 0 3.55 229 08:38 25.02.2020
2024 Clouds 9 1020 35 0 3.18 215 08:20 25.02.2020
2025 Clouds 9 1020 35 0 3.18 215 07:48 25.02.2020
2026 Clouds 9 1020 35 0 3.18 215 07:20 25.02.2020
2027 Clouds 9 1020 35 0 3.18 215 06:51 25.02.2020
2028 Clouds 9 1020 35 0 3.18 215 05:43 25.02.2020
2029 Clear 5 1023 46 0 1.35 347 03:54 25.02.2020
2030 Clear 5 1023 46 0 1.35 347 02:32 25.02.2020
2031 Clear 2 1022 52 0 2.73 359 00:57 25.02.2020
2032 Clear 2 1022 52 0 2.73 359 00:30 25.02.2020
2033 Clear 2 1022 52 0 2.73 359 23:47 24.02.2020
2034 Clear 2 1022 52 0 2.73 359 23:28 24.02.2020
2035 Clear 2 1022 54 0 2.88 1 22:56 24.02.2020
2036 Clear 2 1022 54 0 2.88 1 22:36 24.02.2020
2037 Clear 2 1022 54 0 2.88 1 22:18 24.02.2020
2038 Clear 2 1022 54 0 2.88 1 21:54 24.02.2020
2039 Clear 2 1022 54 0 2.88 1 21:36 24.02.2020
2040 Clear 2 1022 54 0 2.88 1 21:18 24.02.2020
2041 Clear 2 1022 54 0 2.88 1 20:41 24.02.2020
2042 Clouds 2 1023 57 0 2.9 9 20:20 24.02.2020
2043 Clouds 2 1023 57 0 2.9 9 19:59 24.02.2020
2044 Clouds 2 1023 57 0 2.9 9 19:40 24.02.2020
2045 Clouds 2 1023 57 0 2.9 9 19:22 24.02.2020
2046 Clouds 2 1023 57 0 2.9 9 18:56 24.02.2020
2047 Clouds 2 1023 57 0 2.9 9 18:38 24.02.2020
2048 Clouds 2 1023 57 0 2.9 9 18:38 24.02.2020
2049 Clouds 2 1023 57 0 2.9 9 18:19 24.02.2020
2050 Clouds 2 1023 57 0 2.9 9 17:42 24.02.2020
2051 Clouds 2 1023 57 0 2.9 9 17:21 24.02.2020
2052 Snow 3 1021 67 0 2.77 15 16:59 24.02.2020
2053 Snow 3 1021 67 0 2.77 15 16:40 24.02.2020
2054 Snow 3 1021 67 0 2.77 15 16:21 24.02.2020
2055 Snow 3 1021 67 0 2.77 15 16:21 24.02.2020
2056 Snow 3 1021 67 0 2.77 15 15:59 24.02.2020
2057 Snow 3 1021 67 0 2.77 15 15:40 24.02.2020
2058 Snow 3 1021 67 0 2.77 15 15:22 24.02.2020
2059 Snow 3 1021 67 0 2.77 15 14:59 24.02.2020
2060 Snow 3 1021 67 0 2.77 15 14:40 24.02.2020
2061 Rain 7 1017 66 0 1.9 228 14:19 24.02.2020
2062 Rain 7 1017 66 0 1.9 228 13:57 24.02.2020
2063 Rain 7 1017 66 0 1.9 228 13:38 24.02.2020
2064 Clouds 7 1017 62 0 1.98 226 13:20 24.02.2020
2065 Clouds 7 1017 62 0 1.98 226 12:57 24.02.2020
2066 Clouds 7 1017 62 0 1.98 226 12:38 24.02.2020
2067 Clouds 7 1017 62 0 1.98 226 12:19 24.02.2020
2068 Clouds 7 1017 62 0 1.98 226 11:45 24.02.2020
2069 Clouds 7 1017 62 0 1.98 226 11:26 24.02.2020
2070 Clouds 10 1016 33 0 3.18 215 10:45 24.02.2020
2071 Clouds 10 1016 33 0 3.18 215 10:27 24.02.2020
2072 Clouds 10 1016 33 0 3.18 215 09:54 24.02.2020
2073 Clouds 10 1016 33 0 3.18 215 09:36 24.02.2020
2074 Clouds 10 1016 33 0 3.18 215 09:18 24.02.2020
2075 Clouds 10 1016 33 0 3.18 215 08:46 24.02.2020
2076 Clouds 10 1016 36 0 3.29 217 08:27 24.02.2020
2077 Clear 10 1021 28 0 2.94 208 07:46 24.02.2020
2078 Clear 10 1021 28 0 2.94 208 07:27 24.02.2020
2079 Clear 10 1021 28 0 2.94 208 06:37 24.02.2020
2080 Clear 10 1021 28 0 2.94 208 06:18 24.02.2020
2081 Clear 10 1021 28 0 2.94 208 05:30 24.02.2020
2082 Clear 5 1024 42 0 1.33 331 04:42 24.02.2020
2083 Clear 5 1024 42 0 1.33 331 02:56 24.02.2020
2084 Clear 2 1025 50 0 2.97 359 01:47 24.02.2020
2085 Clear 2 1025 49 0 2.89 1 01:18 24.02.2020
2086 Clear 2 1025 49 0 2.89 1 00:36 24.02.2020
2087 Clear 2 1025 49 0 2.89 1 00:18 24.02.2020
2088 Clear 2 1025 49 0 2.89 1 23:41 23.02.2020
2089 Clear 2 1026 51 0 2.93 2 23:20 23.02.2020
2090 Clear 2 1026 51 0 2.93 2 22:57 23.02.2020
2091 Clear 2 1026 51 0 2.93 2 22:39 23.02.2020
2092 Clear 2 1026 51 0 2.93 2 22:19 23.02.2020
2093 Clear 2 1026 51 0 2.93 2 21:46 23.02.2020
2094 Clear 2 1026 51 0 2.93 2 21:46 23.02.2020
2095 Clear 2 1026 51 0 2.93 2 21:20 23.02.2020
2096 Clear 2 1026 51 0 2.93 2 21:20 23.02.2020
2097 Clear 2 1026 51 0 2.93 2 20:57 23.02.2020
2098 Clear 2 1026 51 0 2.93 2 20:57 23.02.2020
2099 Clear 2 1026 51 0 2.93 2 20:57 23.02.2020
2100 Clear 2 1026 51 0 2.93 2 20:57 23.02.2020
2101 Clear 2 1026 51 0 2.93 2 20:39 23.02.2020
2102 Clear 3 1026 47 0 2.66 3 20:20 23.02.2020
2103 Clear 3 1026 47 0 2.66 3 19:57 23.02.2020
2104 Clear 3 1026 47 0 2.66 3 19:39 23.02.2020
2105 Clear 3 1026 47 0 2.66 3 19:19 23.02.2020
2106 Clear 3 1026 47 0 2.66 3 18:57 23.02.2020
2107 Clear 3 1026 47 0 2.66 3 18:37 23.02.2020
2108 Clear 3 1026 47 0 2.66 3 18:18 23.02.2020
2109 Clear 3 1026 47 0 2.66 3 17:57 23.02.2020
2110 Clear 3 1026 47 0 2.66 3 17:38 23.02.2020
2111 Clear 3 1025 54 0 2.9 14 17:19 23.02.2020
2112 Clear 3 1025 54 0 2.9 14 16:46 23.02.2020
2113 Clear 3 1025 54 0 2.9 14 16:27 23.02.2020
2114 Clear 3 1025 54 0 2.9 14 15:59 23.02.2020
2115 Clear 3 1025 54 0 2.9 14 15:39 23.02.2020
2116 Clear 3 1025 54 0 2.9 14 15:20 23.02.2020
2117 Clear 3 1025 54 0 2.9 14 14:58 23.02.2020
2118 Clear 3 1025 54 0 2.9 14 14:58 23.02.2020
2119 Clear 3 1025 54 0 2.9 14 14:40 23.02.2020
2120 Clear 3 1025 54 0 2.9 14 14:21 23.02.2020
2121 Rain 7 1021 54 0 1.92 225 13:57 23.02.2020
2122 Rain 7 1021 54 0 1.92 225 13:38 23.02.2020
2123 Rain 7 1021 54 0 1.92 225 13:20 23.02.2020
2124 Rain 7 1020 52 0 1.95 222 12:42 23.02.2020
2125 Rain 7 1020 52 0 1.95 222 12:22 23.02.2020
2126 Rain 7 1020 52 0 1.95 222 11:56 23.02.2020
2127 Rain 7 1020 52 0 1.95 222 11:37 23.02.2020
2128 Snow 10 1020 37 0 3.25 223 11:18 23.02.2020
2129 Snow 10 1020 37 0 3.25 223 11:18 23.02.2020
2130 Snow 10 1020 37 0 3.25 223 10:54 23.02.2020
2131 Snow 10 1020 37 0 3.25 223 10:36 23.02.2020
2132 Snow 10 1020 37 0 3.25 223 10:18 23.02.2020
2133 Snow 10 1020 37 0 3.25 223 09:40 23.02.2020
2134 Snow 10 1020 37 0 3.25 223 09:21 23.02.2020
2135 Snow 10 1020 37 0 3.25 223 08:56 23.02.2020
2136 Snow 10 1020 37 0 3.25 223 08:36 23.02.2020
2137 Clouds 10 1025 29 0 2.85 204 08:18 23.02.2020
2138 Clouds 10 1025 29 0 2.85 204 07:40 23.02.2020
2139 Clouds 10 1025 29 0 2.85 204 06:39 23.02.2020
2140 Clouds 10 1025 29 0 2.85 204 05:50 23.02.2020
2141 Clouds 5 1028 45 0 1.53 27 04:42 23.02.2020
2142 Clouds 5 1028 45 0 1.53 27 04:42 23.02.2020
2143 Clouds 5 1028 45 0 1.53 27 03:21 23.02.2020
2144 Clouds 5 1028 45 0 1.53 27 02:27 23.02.2020
2145 Clear 2 1027 58 0 3 4 01:25 23.02.2020
2146 Clear 2 1027 58 0 3.13 6 00:48 23.02.2020
2147 Clear 2 1027 58 0 3.13 6 00:26 23.02.2020
2148 Clear 2 1027 58 0 3.13 6 23:47 22.02.2020
2149 Clear 2 1027 58 0 3.13 6 23:29 22.02.2020
2150 Clear 2 1027 63 0 2.92 5 22:59 22.02.2020
2151 Clear 2 1027 63 0 2.92 5 22:39 22.02.2020
2152 Clear 2 1027 63 0 2.92 5 22:18 22.02.2020
2153 Clear 2 1027 63 0 2.92 5 21:41 22.02.2020
2154 Clear 2 1027 63 0 2.92 5 21:23 22.02.2020
2155 Clear 2 1027 63 0 2.92 5 20:46 22.02.2020
2156 Clear 2 1027 63 0 2.92 5 20:46 22.02.2020
2157 Clear 2 1027 63 0 2.92 5 20:25 22.02.2020
2158 Clouds 3 1028 59 0 3.05 11 19:59 22.02.2020
2159 Clouds 3 1028 59 0 3.05 11 19:41 22.02.2020
2160 Clouds 3 1028 59 0 3.05 11 19:21 22.02.2020
2161 Clouds 3 1028 59 0 3.05 11 18:40 22.02.2020
2162 Clouds 3 1028 59 0 3.05 11 18:22 22.02.2020
2163 Clouds 3 1028 59 0 3.05 11 17:58 22.02.2020
2164 Clouds 3 1028 59 0 3.05 11 17:39 22.02.2020
2165 Clouds 3 1028 59 0 3.05 11 17:21 22.02.2020
2166 Clouds 3 1027 77 0 2.4 26 16:57 22.02.2020
2167 Clouds 3 1027 77 0 2.4 26 16:39 22.02.2020
2168 Clouds 3 1027 77 0 2.4 26 16:20 22.02.2020
2169 Clouds 3 1027 77 0 2.4 26 15:44 22.02.2020
2170 Clouds 3 1027 77 0 2.4 26 15:44 22.02.2020
2171 Clouds 3 1027 77 0 2.4 26 15:25 22.02.2020
2172 Clouds 3 1027 77 0 2.4 26 14:56 22.02.2020
2173 Clouds 3 1027 77 0 2.4 26 14:38 22.02.2020
2174 Rain 7 1023 74 0 1.8 227 14:19 22.02.2020
2175 Rain 7 1023 74 0 1.8 227 13:41 22.02.2020
2176 Snow 6 1023 66 0 1.27 269 13:19 22.02.2020
2177 Snow 6 1023 66 0 1.27 269 12:47 22.02.2020
2178 Snow 6 1023 66 0 1.27 269 12:24 22.02.2020
2179 Snow 6 1023 66 0 1.27 269 11:56 22.02.2020
2180 Snow 6 1023 66 0 1.27 269 11:37 22.02.2020
2181 Rain 9 1023 55 0 3.16 220 11:18 22.02.2020
2182 Rain 9 1023 55 0 3.16 220 10:40 22.02.2020
2183 Rain 9 1023 55 0 3.16 220 10:20 22.02.2020
2184 Rain 9 1023 55 0 3.16 220 09:59 22.02.2020
2185 Rain 9 1023 55 0 3.16 220 09:39 22.02.2020
2186 Rain 9 1023 55 0 3.16 220 09:21 22.02.2020
2187 Rain 9 1023 55 0 3.16 220 08:50 22.02.2020
2188 Rain 9 1023 55 0 3.16 220 08:28 22.02.2020
2189 Clear 9 1026 48 0 2.8 212 07:52 22.02.2020
2190 Clear 9 1026 48 0 2.8 212 07:20 22.02.2020
2191 Clear 9 1026 48 0 2.8 212 06:50 22.02.2020
2192 Clear 9 1026 48 0 2.8 212 06:32 22.02.2020
2193 Clear 6 1030 53 0 1.61 343 04:38 22.02.2020
2194 Clear 6 1030 53 0 1.61 343 03:33 22.02.2020
2195 Clear 6 1030 53 0 1.61 343 02:33 22.02.2020
2196 Clear 2 1029 59 0 2.75 353 01:46 22.02.2020
2197 Clear 2 1029 59 0 2.75 353 01:27 22.02.2020
2198 Clear 2 1029 61 0 2.58 352 00:45 22.02.2020
2199 Clear 2 1029 61 0 2.58 352 00:27 22.02.2020
2200 Clear 2 1029 61 0 2.58 352 23:48 21.02.2020
2201 Clear 2 1029 61 0 2.58 352 23:24 21.02.2020
2202 Clouds 2 1029 63 0 2.92 10 22:57 21.02.2020
2203 Clouds 2 1029 63 0 2.92 10 22:39 21.02.2020
2204 Clouds 2 1029 63 0 2.92 10 22:20 21.02.2020
2205 Clouds 2 1029 63 0 2.92 10 21:42 21.02.2020
2206 Clouds 2 1029 63 0 2.92 10 21:42 21.02.2020
2207 Clouds 2 1029 63 0 2.92 10 21:24 21.02.2020
2208 Clouds 2 1029 63 0 2.92 10 21:24 21.02.2020
2209 Clouds 2 1029 63 0 2.92 10 20:50 21.02.2020
2210 Clouds 2 1029 63 0 2.92 10 20:31 21.02.2020
2211 Clouds 2 1030 72 0 2.68 13 19:59 21.02.2020
2212 Clouds 2 1030 72 0 2.68 13 19:59 21.02.2020
2213 Clouds 2 1030 72 0 2.68 13 19:38 21.02.2020
2214 Clouds 2 1030 72 0 2.68 13 19:18 21.02.2020
2215 Clouds 2 1030 72 0 2.68 13 18:40 21.02.2020
2216 Clouds 2 1030 72 0 2.68 13 18:22 21.02.2020
2217 Clouds 2 1030 72 0 2.68 13 17:55 21.02.2020
2218 Clouds 2 1030 72 0 2.68 13 17:36 21.02.2020
2219 Snow 4 1028 93 0 0.66 82 17:18 21.02.2020
2220 Snow 4 1028 93 0 0.66 82 16:41 21.02.2020
2221 Snow 4 1028 93 0 0.66 82 16:21 21.02.2020
2222 Snow 4 1028 93 0 0.66 82 15:57 21.02.2020
2223 Snow 4 1028 93 0 0.66 82 15:38 21.02.2020
2224 Snow 4 1028 93 0 0.66 82 15:18 21.02.2020
2225 Snow 4 1028 93 0 0.66 82 14:42 21.02.2020
2226 Snow 4 1028 93 0 0.66 82 14:21 21.02.2020
2227 Rain 5 1023 87 0 1.59 208 13:45 21.02.2020
2228 Rain 5 1023 87 0 1.59 208 13:24 21.02.2020
2229 Clouds 5 1023 84 0 2.18 210 12:59 21.02.2020
2230 Clouds 5 1023 84 0 2.18 210 12:40 21.02.2020
2231 Clouds 5 1023 84 0 2.18 210 12:22 21.02.2020
2232 Clouds 5 1023 84 0 2.18 210 11:55 21.02.2020
2233 Clouds 5 1023 84 0 2.18 210 11:36 21.02.2020
2234 Rain 7 1021 66 0 2.77 222 11:18 21.02.2020
2235 Rain 7 1021 66 0 2.77 222 10:41 21.02.2020
2236 Rain 7 1021 66 0 2.77 222 10:20 21.02.2020
2237 Rain 7 1021 66 0 2.77 222 09:58 21.02.2020
2238 Rain 7 1021 66 0 2.77 222 09:38 21.02.2020
2239 Rain 7 1021 66 0 2.77 222 09:20 21.02.2020
2240 Rain 7 1021 66 0 2.77 222 08:45 21.02.2020
2241 Rain 7 1021 66 0 2.77 222 08:23 21.02.2020
2242 Clouds 9 1024 39 0 2.74 218 07:59 21.02.2020
2243 Clouds 9 1024 39 0 2.74 218 07:41 21.02.2020
2244 Clouds 9 1024 39 0 2.74 218 07:20 21.02.2020
2245 Clouds 9 1024 39 0 2.74 218 06:55 21.02.2020
2246 Clouds 9 1024 39 0 2.74 218 06:31 21.02.2020
2247 Clouds 9 1024 39 0 2.74 218 05:55 21.02.2020
2248 Clouds 3 1029 60 0 1.98 38 04:50 21.02.2020
2249 Clouds 3 1029 60 0 1.98 38 04:25 21.02.2020
2250 Clouds 3 1029 60 0 1.98 38 03:46 21.02.2020
2251 Clouds 3 1029 60 0 1.98 38 02:58 21.02.2020
2252 Snow 2 1026 60 0 3.34 13 01:32 21.02.2020
2253 Snow 3 1026 56 0 3.31 20 00:46 21.02.2020
2254 Snow 3 1026 56 0 3.31 20 00:24 21.02.2020
2255 Snow 3 1026 56 0 3.31 20 23:58 20.02.2020
2256 Snow 3 1026 56 0 3.31 20 23:39 20.02.2020
2257 Snow 3 1026 56 0 3.31 20 23:21 20.02.2020
2258 Snow 3 1026 56 0 3.31 20 23:21 20.02.2020
2259 Snow 3 1026 81 0 1.7 348 22:40 20.02.2020
2260 Snow 3 1026 81 0 1.7 348 22:21 20.02.2020
2261 Snow 3 1026 81 0 1.7 348 21:57 20.02.2020
2262 Snow 3 1026 81 0 1.7 348 21:39 20.02.2020
2263 Snow 3 1026 81 0 1.7 348 21:39 20.02.2020
2264 Snow 3 1026 81 0 1.7 348 21:39 20.02.2020
2265 Snow 3 1026 81 0 1.7 348 21:19 20.02.2020
2266 Snow 3 1026 81 0 1.7 348 21:19 20.02.2020
2267 Snow 3 1026 81 0 1.7 348 20:56 20.02.2020
2268 Snow 3 1026 81 0 1.7 348 20:38 20.02.2020
2269 Snow 4 1026 49 0 2.39 14 20:19 20.02.2020
2270 Snow 4 1026 49 0 2.39 14 20:19 20.02.2020
2271 Snow 4 1026 49 0 2.39 14 20:19 20.02.2020
2272 Snow 4 1026 49 0 2.39 14 19:58 20.02.2020
2273 Snow 4 1026 49 0 2.39 14 19:40 20.02.2020
2274 Snow 4 1026 49 0 2.39 14 19:22 20.02.2020
2275 Snow 4 1026 49 0 2.39 14 18:55 20.02.2020
2276 Snow 4 1026 49 0 2.39 14 18:37 20.02.2020
2277 Snow 4 1026 49 0 2.39 14 18:18 20.02.2020
2278 Snow 4 1026 49 0 2.39 14 17:39 20.02.2020
2279 Snow 4 1023 57 0 3.51 17 17:19 20.02.2020
2280 Snow 4 1023 57 0 3.51 17 16:58 20.02.2020
2281 Snow 4 1023 57 0 3.51 17 16:39 20.02.2020
2282 Snow 4 1023 57 0 3.51 17 16:19 20.02.2020
2283 Snow 4 1023 57 0 3.51 17 15:43 20.02.2020
2284 Snow 4 1023 57 0 3.51 17 15:24 20.02.2020
2285 Snow 4 1023 57 0 3.51 17 14:59 20.02.2020
2286 Snow 4 1023 57 0 3.51 17 14:41 20.02.2020
2287 Snow 4 1023 57 0 3.51 17 14:22 20.02.2020
2288 Snow 4 1023 57 0 3.51 17 14:22 20.02.2020
2289 Snow 8 1019 54 0 1.77 235 13:56 20.02.2020
2290 Snow 8 1019 54 0 1.77 235 13:38 20.02.2020
2291 Snow 8 1019 52 0 1.61 226 13:19 20.02.2020
2292 Snow 8 1019 52 0 1.61 226 12:42 20.02.2020
2293 Snow 8 1019 52 0 1.61 226 12:21 20.02.2020
2294 Snow 8 1019 52 0 1.61 226 11:59 20.02.2020
2295 Snow 8 1019 52 0 1.61 226 11:41 20.02.2020
2296 Snow 8 1019 52 0 1.61 226 11:22 20.02.2020
2297 Clouds 12 1018 25 0 2.95 211 10:56 20.02.2020
2298 Clouds 12 1018 25 0 2.95 211 10:38 20.02.2020
2299 Clouds 12 1018 25 0 2.95 211 10:19 20.02.2020
2300 Clouds 12 1018 25 0 2.95 211 09:39 20.02.2020
2301 Clouds 12 1018 25 0 2.95 211 09:21 20.02.2020
2302 Clouds 12 1018 25 0 2.95 211 08:44 20.02.2020
2303 Clouds 12 1018 25 0 3.04 214 08:25 20.02.2020
2304 Clouds 12 1022 22 0 1.77 190 07:56 20.02.2020
2305 Clouds 12 1022 22 0 1.77 190 07:38 20.02.2020
2306 Clouds 12 1022 22 0 1.77 190 07:19 20.02.2020
2307 Clouds 12 1022 22 0 1.77 190 06:43 20.02.2020
2308 Clouds 12 1022 22 0 1.77 190 06:19 20.02.2020
2309 Clouds 12 1022 22 0 1.77 190 05:42 20.02.2020
2310 Clouds 6 1026 37 0 3.04 18 04:49 20.02.2020
2311 Clouds 6 1026 37 0 3.04 18 03:47 20.02.2020
2312 Clouds 6 1026 37 0 3.04 18 02:48 20.02.2020
2313 Clouds 4 1024 46 0 4.33 9 01:34 20.02.2020
2314 Clouds 3 1024 50 0 4.09 17 00:54 20.02.2020
2315 Clouds 3 1024 50 0 4.09 17 00:25 20.02.2020
2316 Clouds 3 1024 50 0 4.09 17 23:49 19.02.2020
2317 Clouds 3 1024 50 0 4.09 17 23:22 19.02.2020
2318 Snow 3 1023 58 0 4.28 23 22:44 19.02.2020
2319 Snow 3 1023 58 0 4.28 23 22:26 19.02.2020
2320 Snow 3 1023 58 0 4.28 23 21:59 19.02.2020
2321 Snow 3 1023 58 0 4.28 23 21:40 19.02.2020
2322 Snow 3 1023 58 0 4.28 23 21:19 19.02.2020
2323 Snow 3 1023 58 0 4.28 23 20:58 19.02.2020
2324 Snow 3 1023 58 0 4.28 23 20:39 19.02.2020
2325 Snow 3 1022 69 0 4.32 35 20:20 19.02.2020
2326 Snow 3 1022 69 0 4.32 35 19:58 19.02.2020
2327 Snow 3 1022 69 0 4.32 35 19:38 19.02.2020
2328 Snow 3 1022 69 0 4.32 35 19:38 19.02.2020
2329 Snow 3 1022 69 0 4.32 35 19:20 19.02.2020
2330 Snow 3 1022 69 0 4.32 35 18:58 19.02.2020
2331 Snow 3 1022 69 0 4.32 35 18:40 19.02.2020
2332 Snow 3 1022 69 0 4.32 35 18:22 19.02.2020
2333 Snow 3 1022 69 0 4.32 35 17:57 19.02.2020
2334 Snow 3 1022 69 0 4.32 35 17:39 19.02.2020
2335 Snow 5 1020 45 0 2.88 18 17:18 19.02.2020
2336 Snow 5 1020 45 0 2.88 18 16:43 19.02.2020
2337 Snow 5 1020 45 0 2.88 18 16:43 19.02.2020
2338 Snow 5 1020 45 0 2.88 18 16:19 19.02.2020
2339 Snow 5 1020 45 0 2.88 18 15:57 19.02.2020
2340 Snow 5 1020 45 0 2.88 18 15:38 19.02.2020
2341 Snow 5 1020 45 0 2.88 18 15:19 19.02.2020
2342 Snow 5 1020 45 0 2.88 18 14:41 19.02.2020
2343 Snow 5 1020 45 0 2.88 18 14:23 19.02.2020
2344 Snow 5 1017 55 0 3.11 13 13:55 19.02.2020
2345 Snow 5 1017 55 0 3.11 13 13:37 19.02.2020
2346 Snow 5 1017 55 0 3.11 13 13:18 19.02.2020
2347 Snow 6 1017 51 0 2.57 10 12:39 19.02.2020
2348 Snow 6 1017 51 0 2.57 10 12:19 19.02.2020
2349 Snow 6 1017 51 0 2.57 10 11:55 19.02.2020
2350 Snow 6 1017 51 0 2.57 10 11:37 19.02.2020
2351 Snow 8 1016 33 0 2.45 180 11:18 19.02.2020
2352 Snow 8 1016 33 0 2.45 180 10:55 19.02.2020
2353 Snow 8 1016 33 0 2.45 180 10:36 19.02.2020
2354 Snow 8 1016 33 0 2.45 180 10:18 19.02.2020
2355 Snow 8 1016 33 0 2.45 180 09:41 19.02.2020
2356 Snow 8 1016 33 0 2.45 180 09:20 19.02.2020
2357 Snow 8 1016 33 0 2.45 180 09:20 19.02.2020
2358 Snow 8 1016 33 0 2.45 180 08:55 19.02.2020
2359 Snow 8 1016 33 0 2.45 180 08:37 19.02.2020
2360 Snow 8 1016 33 0 2.45 180 08:37 19.02.2020
2361 Clouds 10 1019 22 0 2.12 220 08:18 19.02.2020
2362 Clouds 10 1019 22 0 2.12 220 07:40 19.02.2020
2363 Clouds 10 1019 22 0 2.12 220 07:20 19.02.2020
2364 Clouds 10 1019 22 0 2.12 220 06:46 19.02.2020
2365 Clouds 10 1019 22 0 2.12 220 05:32 19.02.2020
2366 Clouds 7 1022 26 0 1.6 6 03:56 19.02.2020
2367 Clouds 7 1022 26 0 1.6 6 02:45 19.02.2020
2368 Clouds 4 1020 25 0 2.82 4 01:53 19.02.2020
2369 Clouds 4 1020 25 0 2.82 4 01:23 19.02.2020
2370 Clouds 4 1020 25 0 2.69 3 00:42 19.02.2020
2371 Clouds 4 1020 25 0 2.69 3 00:23 19.02.2020
2372 Clouds 4 1020 25 0 2.69 3 23:41 18.02.2020
2373 Clouds 5 1021 26 0 3.02 9 23:20 18.02.2020
2374 Clouds 5 1021 26 0 3.02 9 22:56 18.02.2020
2375 Clouds 5 1021 26 0 3.02 9 22:37 18.02.2020
2376 Clouds 5 1021 26 0 3.02 9 22:19 18.02.2020
2377 Clouds 5 1021 26 0 3.02 9 21:55 18.02.2020
2378 Clouds 5 1021 26 0 3.02 9 21:36 18.02.2020
2379 Clouds 5 1021 26 0 3.02 9 21:18 18.02.2020
2380 Clouds 5 1021 26 0 3.02 9 20:55 18.02.2020
2381 Clouds 5 1021 26 0 3.02 9 20:36 18.02.2020
2382 Clouds 5 1021 33 0 2.4 358 20:18 18.02.2020
2383 Clouds 5 1021 33 0 2.4 358 20:18 18.02.2020
2384 Clouds 5 1021 33 0 2.4 358 19:42 18.02.2020
2385 Clouds 5 1021 33 0 2.4 358 19:19 18.02.2020
2386 Clouds 5 1021 33 0 2.4 358 18:58 18.02.2020
2387 Clouds 5 1021 33 0 2.4 358 18:40 18.02.2020
2388 Clouds 5 1021 33 0 2.4 358 18:19 18.02.2020
2389 Clouds 5 1021 33 0 2.4 358 17:42 18.02.2020
2390 Clouds 5 1021 40 0 2.99 17 17:20 18.02.2020
2391 Clouds 5 1021 40 0 2.99 17 16:41 18.02.2020
2392 Clouds 5 1021 40 0 2.99 17 16:22 18.02.2020
2393 Clouds 5 1021 40 0 2.99 17 15:58 18.02.2020
2394 Clouds 5 1021 40 0 2.99 17 15:39 18.02.2020
2395 Clouds 5 1021 40 0 2.99 17 15:19 18.02.2020
2396 Clouds 5 1021 40 0 2.99 17 14:56 18.02.2020
2397 Clouds 5 1021 40 0 2.99 17 14:38 18.02.2020
2398 Clouds 8 1016 45 0 1.07 217 14:19 18.02.2020
2399 Clouds 8 1016 45 0 1.07 217 13:41 18.02.2020
2400 Clouds 9 1017 44 0 0.75 211 13:22 18.02.2020
2401 Clouds 9 1017 44 0 0.75 211 12:56 18.02.2020
2402 Clouds 9 1017 44 0 0.75 211 12:38 18.02.2020
2403 Clouds 9 1017 44 0 0.75 211 12:19 18.02.2020
2404 Clouds 9 1017 44 0 0.75 211 11:44 18.02.2020
2405 Clouds 9 1017 44 0 0.75 211 11:26 18.02.2020
2406 Clouds 13 1017 21 0 3.08 211 10:57 18.02.2020
2407 Clouds 13 1017 21 0 3.08 211 10:38 18.02.2020
2408 Clouds 13 1017 21 0 3.08 211 10:18 18.02.2020
2409 Clouds 13 1017 21 0 3.08 211 09:56 18.02.2020
2410 Clouds 13 1017 21 0 3.08 211 09:37 18.02.2020
2411 Clouds 13 1017 21 0 3.08 211 09:18 18.02.2020
2412 Clouds 13 1017 21 0 3.08 211 08:43 18.02.2020
2413 Clouds 13 1020 16 0 2.42 210 08:21 18.02.2020
2414 Clouds 12 1020 18 0 2.51 208 07:56 18.02.2020
2415 Clouds 12 1020 18 0 2.51 208 07:33 18.02.2020
2416 Clouds 12 1020 18 0 2.51 208 06:57 18.02.2020
2417 Clouds 12 1020 18 0 2.51 208 06:39 18.02.2020
2418 Clouds 12 1020 18 0 2.51 208 06:19 18.02.2020
2419 Clouds 12 1020 18 0 2.51 208 05:33 18.02.2020
2420 Clouds 8 1023 23 0 2.28 350 04:26 18.02.2020
2421 Clouds 8 1023 23 0 2.28 350 03:31 18.02.2020
2422 Clear 4 1023 24 0 3.25 0 01:59 18.02.2020
2423 Clouds 4 1023 25 0 2.98 1 00:56 18.02.2020
2424 Clouds 4 1023 25 0 2.98 1 00:22 18.02.2020
2425 Clouds 4 1023 25 0 2.98 1 23:56 17.02.2020
2426 Clouds 4 1023 25 0 2.98 1 23:37 17.02.2020
2427 Clear 4 1024 29 0 2.97 353 23:19 17.02.2020
2428 Clear 4 1024 29 0 2.97 353 22:41 17.02.2020
2429 Clear 4 1024 29 0 2.97 353 22:21 17.02.2020
2430 Clear 4 1024 29 0 2.97 353 21:59 17.02.2020
2431 Clear 4 1024 29 0 2.97 353 21:38 17.02.2020
2432 Clear 4 1024 29 0 2.97 353 21:18 17.02.2020
2433 Clear 4 1024 29 0 2.97 353 21:18 17.02.2020
2434 Clear 4 1024 29 0 2.97 353 20:42 17.02.2020
2435 Clouds 5 1024 28 0 2.75 356 20:21 17.02.2020
2436 Clear 4 1025 31 0 2.72 1 19:58 17.02.2020
2437 Clear 4 1025 31 0 2.72 1 19:40 17.02.2020
2438 Clear 4 1025 31 0 2.72 1 19:20 17.02.2020
2439 Clear 4 1025 31 0 2.72 1 18:38 17.02.2020
2440 Clear 4 1025 31 0 2.72 1 18:20 17.02.2020
2441 Clear 4 1025 31 0 2.72 1 17:58 17.02.2020
2442 Clear 4 1025 31 0 2.72 1 17:38 17.02.2020
2443 Clear 5 1025 35 0 3.47 17 17:19 17.02.2020
2444 Clear 5 1025 35 0 3.47 17 16:56 17.02.2020
2445 Clear 5 1025 35 0 3.47 17 16:38 17.02.2020
2446 Clear 5 1025 35 0 3.47 17 16:20 17.02.2020
2447 Clear 5 1025 35 0 3.47 17 15:45 17.02.2020
2448 Clear 5 1025 35 0 3.47 17 15:26 17.02.2020
2449 Clear 5 1025 35 0 3.47 17 14:56 17.02.2020
2450 Clear 5 1025 35 0 3.47 17 14:37 17.02.2020
2451 Clear 8 1021 47 0 1.08 212 14:19 17.02.2020
2452 Clear 8 1021 47 0 1.08 212 13:41 17.02.2020
2453 Clear 8 1021 47 0 1.08 212 13:20 17.02.2020
2454 Clear 8 1021 48 0 1.03 210 12:58 17.02.2020
2455 Clear 8 1021 48 0 1.03 210 12:39 17.02.2020
2456 Clear 8 1021 48 0 1.03 210 12:21 17.02.2020
2457 Clear 8 1021 48 0 1.03 210 11:46 17.02.2020
2458 Clear 8 1021 48 0 1.03 210 11:27 17.02.2020
2459 Clear 12 1020 23 0 3.05 210 10:58 17.02.2020
2460 Clear 12 1020 23 0 3.05 210 10:39 17.02.2020
2461 Clear 12 1020 23 0 3.05 210 10:20 17.02.2020
2462 Clear 12 1020 23 0 3.05 210 09:58 17.02.2020
2463 Clear 12 1020 23 0 3.05 210 09:39 17.02.2020
2464 Clear 12 1020 23 0 3.05 210 09:19 17.02.2020
2465 Clear 12 1020 23 0 3.05 210 08:45 17.02.2020
2466 Clear 12 1020 23 0 3.11 212 08:23 17.02.2020
2467 Clear 12 1023 15 0 2.03 215 07:59 17.02.2020
2468 Clear 12 1023 15 0 2.03 215 07:39 17.02.2020
2469 Clear 12 1023 15 0 2.03 215 07:21 17.02.2020
2470 Clear 12 1023 15 0 2.03 215 06:46 17.02.2020
2471 Clear 12 1023 15 0 2.03 215 06:27 17.02.2020
2472 Clear 12 1023 15 0 2.03 215 05:40 17.02.2020
2473 Clear 7 1027 21 0 1.88 9 04:39 17.02.2020
2474 Clear 7 1027 21 0 1.88 9 03:18 17.02.2020
2475 Clear 3 1026 20 0 2.76 10 01:25 17.02.2020
2476 Clear 3 1027 20 0 2.75 13 00:39 17.02.2020
2477 Clear 3 1027 20 0 2.75 13 00:19 17.02.2020
2478 Clear 3 1027 20 0 2.75 13 23:52 16.02.2020
2479 Clear 3 1027 20 0 2.75 13 23:28 16.02.2020
2480 Clear 4 1028 21 0 2.87 10 22:56 16.02.2020
2481 Clear 4 1028 21 0 2.87 10 22:38 16.02.2020
2482 Clear 4 1028 21 0 2.87 10 22:20 16.02.2020
2483 Clear 4 1028 21 0 2.87 10 21:55 16.02.2020
2484 Clear 4 1028 21 0 2.87 10 21:37 16.02.2020
2485 Clear 4 1028 21 0 2.87 10 21:18 16.02.2020
2486 Clear 4 1028 21 0 2.87 10 20:56 16.02.2020
2487 Clear 4 1028 21 0 2.87 10 20:38 16.02.2020
2488 Clouds 4 1027 20 0 3.15 13 20:19 16.02.2020
2489 Clouds 4 1027 20 0 3.15 13 19:56 16.02.2020
2490 Clouds 4 1027 20 0 3.15 13 19:36 16.02.2020
2491 Clouds 4 1027 20 0 3.15 13 19:18 16.02.2020
2492 Clouds 4 1027 20 0 3.15 13 18:41 16.02.2020
2493 Clouds 4 1027 20 0 3.15 13 18:23 16.02.2020
2494 Clouds 4 1027 20 0 3.15 13 17:45 16.02.2020
2495 Clouds 4 1026 28 0 3.68 18 17:21 16.02.2020
2496 Clouds 4 1026 28 0 3.68 18 16:58 16.02.2020
2497 Clouds 4 1026 28 0 3.68 18 16:39 16.02.2020
2498 Clouds 4 1026 28 0 3.68 18 16:21 16.02.2020
2499 Clouds 4 1026 28 0 3.68 18 16:21 16.02.2020
2500 Clouds 4 1026 28 0 3.68 18 16:21 16.02.2020
2501 Clouds 4 1026 28 0 3.68 18 15:59 16.02.2020
2502 Clouds 4 1026 28 0 3.68 18 15:39 16.02.2020
2503 Clouds 4 1026 28 0 3.68 18 15:21 16.02.2020
2504 Clouds 4 1026 28 0 3.68 18 14:41 16.02.2020
2505 Clouds 4 1026 28 0 3.68 18 14:23 16.02.2020
2506 Clouds 8 1021 42 0 1 220 13:48 16.02.2020
2507 Clouds 8 1021 42 0 1 220 13:48 16.02.2020
2508 Clouds 8 1021 42 0 1 220 13:25 16.02.2020
2509 Clouds 8 1021 42 0 1 220 13:25 16.02.2020
2510 Clouds 8 1020 41 0 0.94 223 12:58 16.02.2020
2511 Clouds 8 1020 41 0 0.94 223 12:39 16.02.2020
2512 Clouds 8 1020 41 0 0.94 223 12:19 16.02.2020
2513 Clouds 8 1020 41 0 0.94 223 11:40 16.02.2020
2514 Clouds 12 1020 20 0 3.02 207 11:19 16.02.2020
2515 Clouds 12 1020 20 0 3.02 207 10:58 16.02.2020
2516 Clouds 12 1020 20 0 3.02 207 10:39 16.02.2020
2517 Clouds 12 1020 20 0 3.02 207 10:21 16.02.2020
2518 Clouds 12 1020 20 0 3.02 207 10:21 16.02.2020
2519 Clouds 12 1020 20 0 3.02 207 10:21 16.02.2020
2520 Clouds 12 1020 20 0 3.02 207 09:59 16.02.2020
2521 Clouds 12 1020 20 0 3.02 207 09:38 16.02.2020
2522 Clouds 12 1020 20 0 3.02 207 09:20 16.02.2020
2523 Clouds 12 1020 20 0 3.02 207 08:50 16.02.2020
2524 Clouds 12 1020 20 0 3.02 207 08:22 16.02.2020
2525 Clouds 12 1022 16 0 2.34 202 07:59 16.02.2020
2526 Clouds 12 1022 16 0 2.34 202 07:39 16.02.2020
2527 Clouds 12 1022 16 0 2.34 202 06:39 16.02.2020
2528 Clouds 12 1022 16 0 2.34 202 05:43 16.02.2020
2529 Clouds 7 1024 24 0 2.06 3 04:35 16.02.2020
2530 Clouds 7 1024 24 0 2.06 3 03:18 16.02.2020
2531 Clouds 4 1023 23 0 3.15 7 01:57 16.02.2020
2532 Clouds 4 1023 23 0 3.15 7 01:37 16.02.2020
2533 Clouds 5 1023 23 0 3.26 9 01:19 16.02.2020
2534 Clouds 5 1023 23 0 3.26 9 00:41 16.02.2020
2535 Clouds 5 1023 23 0 3.26 9 00:21 16.02.2020
2536 Clouds 5 1023 23 0 3.26 9 23:43 15.02.2020
2537 Clouds 5 1023 23 0 3.26 9 23:24 15.02.2020
2538 Clouds 5 1024 24 0 3.1 5 22:57 15.02.2020
2539 Clouds 5 1024 24 0 3.1 5 22:39 15.02.2020
2540 Clouds 5 1024 24 0 3.1 5 22:19 15.02.2020
2541 Clouds 5 1024 24 0 3.1 5 21:44 15.02.2020
2542 Clouds 5 1024 24 0 3.1 5 21:24 15.02.2020
2543 Clouds 5 1024 24 0 3.1 5 20:58 15.02.2020
2544 Clouds 5 1024 24 0 3.1 5 20:37 15.02.2020
2545 Clear 5 1024 29 0 3.27 9 20:19 15.02.2020
2546 Clear 5 1023 28 0 3.28 13 19:42 15.02.2020
2547 Clear 5 1023 28 0 3.28 13 19:22 15.02.2020
2548 Clear 5 1023 28 0 3.28 13 18:42 15.02.2020
2549 Clear 5 1023 28 0 3.28 13 18:21 15.02.2020
2550 Clear 5 1023 28 0 3.28 13 17:57 15.02.2020
2551 Clear 5 1023 28 0 3.28 13 17:37 15.02.2020
2552 Clear 5 1023 38 0 3.73 16 17:19 15.02.2020
2553 Clear 5 1023 38 0 3.73 16 16:41 15.02.2020
2554 Clear 5 1023 38 0 3.73 16 16:23 15.02.2020
2555 Clear 5 1023 38 0 3.73 16 15:56 15.02.2020
2556 Clear 5 1023 38 0 3.73 16 15:38 15.02.2020
2557 Clear 5 1023 38 0 3.73 16 15:20 15.02.2020
2558 Clear 5 1023 38 0 3.73 16 14:43 15.02.2020
2559 Clear 8 1017 48 0 0.48 206 14:19 15.02.2020
2560 Clear 8 1017 48 0 0.48 206 13:43 15.02.2020
2561 Clear 8 1017 48 0 0.48 206 13:25 15.02.2020
2562 Clear 9 1017 48 0 0.44 209 12:59 15.02.2020
2563 Clear 9 1017 48 0 0.44 209 12:41 15.02.2020
2564 Clear 9 1017 48 0 0.44 209 12:22 15.02.2020
2565 Clear 9 1017 48 0 0.44 209 11:48 15.02.2020
2566 Clear 9 1017 48 0 0.44 209 11:29 15.02.2020
2567 Clear 13 1016 24 0 3.12 212 10:51 15.02.2020
2568 Clear 13 1016 24 0 3.12 212 10:30 15.02.2020
2569 Clear 13 1016 24 0 3.12 212 09:59 15.02.2020
2570 Clear 13 1016 24 0 3.12 212 09:41 15.02.2020
2571 Clear 13 1016 24 0 3.12 212 09:23 15.02.2020
2572 Clear 13 1016 24 0 3.12 212 08:43 15.02.2020
2573 Clear 13 1016 24 0 3.12 212 08:25 15.02.2020
2574 Clear 13 1019 17 0 2.43 214 07:56 15.02.2020
2575 Clear 13 1019 17 0 2.43 214 07:56 15.02.2020
2576 Clear 13 1019 17 0 2.43 214 07:34 15.02.2020
2577 Clear 13 1019 17 0 2.43 214 06:58 15.02.2020
2578 Clear 13 1019 17 0 2.43 214 06:36 15.02.2020
2579 Clear 13 1019 17 0 2.43 214 05:46 15.02.2020
2580 Clear 8 1022 21 0 2.65 357 04:46 15.02.2020
2581 Clear 8 1022 21 0 2.65 357 03:43 15.02.2020
2582 Clear 8 1022 21 0 2.65 357 02:52 15.02.2020
2583 Clear 8 1022 21 0 2.65 357 02:23 15.02.2020
2584 Clear 5 1021 20 0 3.7 2 01:40 15.02.2020
2585 Clear 5 1021 21 0 3.61 2 00:43 15.02.2020
2586 Clear 5 1021 21 0 3.61 2 00:21 15.02.2020
2587 Clear 5 1021 21 0 3.61 2 23:42 14.02.2020
2588 Clear 5 1022 29 0 3.4 359 23:20 14.02.2020
2589 Clear 5 1022 29 0 3.4 359 22:44 14.02.2020
2590 Clear 5 1022 29 0 3.4 359 22:24 14.02.2020
2591 Clear 5 1022 29 0 3.4 359 21:54 14.02.2020
2592 Clear 5 1022 29 0 3.4 359 21:36 14.02.2020
2593 Clear 5 1022 29 0 3.4 359 21:18 14.02.2020
2594 Clear 5 1022 29 0 3.4 359 20:42 14.02.2020
2595 Clear 5 1022 32 0 3 3 20:19 14.02.2020
2596 Clear 5 1022 30 0 3.09 6 19:56 14.02.2020
2597 Clear 5 1022 30 0 3.09 6 19:38 14.02.2020
2598 Clear 5 1022 30 0 3.09 6 19:18 14.02.2020
2599 Clear 5 1022 30 0 3.09 6 18:55 14.02.2020
2600 Clear 5 1022 30 0 3.09 6 18:37 14.02.2020
2601 Clear 5 1022 30 0 3.09 6 18:18 14.02.2020
2602 Clear 5 1022 30 0 3.09 6 17:41 14.02.2020
2603 Clear 5 1021 40 0 3.61 17 17:19 14.02.2020
2604 Clear 5 1021 40 0 3.61 17 16:57 14.02.2020
2605 Clear 5 1021 40 0 3.61 17 16:38 14.02.2020
2606 Clear 5 1021 40 0 3.61 17 16:19 14.02.2020
2607 Clear 5 1021 40 0 3.61 17 15:54 14.02.2020
2608 Clear 5 1021 40 0 3.61 17 15:36 14.02.2020
2609 Clear 5 1021 40 0 3.61 17 15:18 14.02.2020
2610 Clear 5 1021 40 0 3.61 17 14:42 14.02.2020
2611 Clear 5 1021 40 0 3.61 17 14:22 14.02.2020
2612 Clear 8 1016 68 0 0.91 218 13:59 14.02.2020
2613 Clear 8 1016 68 0 0.91 218 13:39 14.02.2020
2614 Clear 8 1016 71 0 0.94 215 13:20 14.02.2020
2615 Clear 8 1016 71 0 0.94 215 13:20 14.02.2020
2616 Clear 8 1016 71 0 0.94 215 12:57 14.02.2020
2617 Clear 8 1016 71 0 0.94 215 12:38 14.02.2020
2618 Clear 8 1016 71 0 0.94 215 12:20 14.02.2020
2619 Clear 8 1016 71 0 0.94 215 11:57 14.02.2020
2620 Clear 8 1016 71 0 0.94 215 11:39 14.02.2020
2621 Clear 12 1016 39 0 2.96 209 11:20 14.02.2020
2622 Clear 12 1016 39 0 2.96 209 10:44 14.02.2020
2623 Clear 12 1016 39 0 2.96 209 10:25 14.02.2020
2624 Clear 12 1016 39 0 2.96 209 09:56 14.02.2020
2625 Clear 12 1016 39 0 2.96 209 09:37 14.02.2020
2626 Clear 12 1016 39 0 2.96 209 09:19 14.02.2020
2627 Clear 12 1016 39 0 2.96 209 08:40 14.02.2020
2628 Clear 12 1015 37 0 2.94 209 08:22 14.02.2020
2629 Clear 12 1018 26 0 1.91 207 07:50 14.02.2020
2630 Clear 12 1018 26 0 1.91 207 07:31 14.02.2020
2631 Clear 12 1018 26 0 1.91 207 06:54 14.02.2020
2632 Clear 12 1018 26 0 1.91 207 06:22 14.02.2020
2633 Clear 12 1018 26 0 1.91 207 05:42 14.02.2020
2634 Clear 6 1023 45 0 2 9 03:52 14.02.2020
2635 Clear 6 1023 45 0 2 9 03:52 14.02.2020
2636 Clear 6 1023 45 0 2 9 03:24 14.02.2020
2637 Clouds 3 1023 57 0 4.28 13 02:19 14.02.2020
2638 Clouds 3 1023 57 0 4.28 13 01:21 14.02.2020
2639 Clear 3 1023 56 0 4.31 14 00:37 14.02.2020
2640 Clear 3 1023 56 0 4.31 14 00:18 14.02.2020
2641 Clear 3 1023 56 0 4.31 14 23:41 13.02.2020
2642 Clear 4 1023 62 0 4.09 12 23:19 13.02.2020
2643 Clear 4 1023 62 0 4.09 12 22:41 13.02.2020
2644 Clear 4 1023 62 0 4.09 12 22:20 13.02.2020
2645 Clear 4 1023 62 0 4.09 12 21:59 13.02.2020
2646 Clear 4 1023 62 0 4.09 12 21:40 13.02.2020
2647 Clear 4 1023 62 0 4.09 12 21:21 13.02.2020
2648 Clear 4 1023 62 0 4.09 12 20:43 13.02.2020
2649 Clear 4 1023 62 0 4.09 12 20:23 13.02.2020
2650 Clouds 5 1023 72 0 2.91 10 19:58 13.02.2020
2651 Clouds 5 1023 72 0 2.91 10 19:40 13.02.2020
2652 Clouds 5 1023 72 0 2.91 10 19:21 13.02.2020
2653 Clouds 5 1023 72 0 2.91 10 18:59 13.02.2020
2654 Clouds 5 1023 72 0 2.91 10 18:41 13.02.2020
2655 Clouds 5 1023 72 0 2.91 10 18:22 13.02.2020
2656 Clouds 5 1023 72 0 2.91 10 17:58 13.02.2020
2657 Clouds 5 1023 72 0 2.91 10 17:38 13.02.2020
2658 Rain 5 1021 80 0 2.44 19 17:20 13.02.2020
2659 Rain 5 1021 80 0 2.44 19 16:56 13.02.2020
2660 Rain 5 1021 80 0 2.44 19 16:36 13.02.2020
2661 Rain 5 1021 80 0 2.44 19 16:36 13.02.2020
2662 Rain 5 1021 80 0 2.44 19 16:18 13.02.2020
2663 Rain 5 1021 80 0 2.44 19 15:55 13.02.2020
2664 Rain 5 1021 80 0 2.44 19 15:36 13.02.2020
2665 Rain 5 1021 80 0 2.44 19 15:18 13.02.2020
2666 Rain 5 1021 80 0 2.44 19 14:55 13.02.2020
2667 Rain 5 1021 80 0 2.44 19 14:37 13.02.2020
2668 Rain 8 1017 79 0 0.89 259 14:18 13.02.2020
2669 Rain 8 1017 79 0 0.89 259 13:41 13.02.2020
2670 -273 0 0 0 0 0 13:18 13.02.2020
2671 Rain 9 1017 74 0 1.36 243 12:49 13.02.2020
2672 Rain 9 1017 74 0 1.36 243 12:48 13.02.2020
2673 Rain 9 1017 74 0 1.36 243 12:30 13.02.2020
2674 Rain 9 1017 74 0 1.36 243 11:58 13.02.2020
2675 Rain 9 1017 74 0 1.36 243 11:40 13.02.2020
2676 Rain 12 1017 55 0 2.37 229 11:19 13.02.2020
2677 Rain 12 1017 55 0 2.37 229 10:43 13.02.2020
2678 Rain 12 1017 55 0 2.37 229 10:25 13.02.2020
2679 Rain 12 1017 55 0 2.37 229 09:50 13.02.2020
2680 Rain 12 1017 55 0 2.37 229 09:26 13.02.2020
2681 Rain 12 1017 55 0 2.37 229 08:48 13.02.2020
2682 Rain 9 1021 67 0 2.01 16 08:20 13.02.2020
2683 Clouds 13 1021 48 0 2.12 230 07:57 13.02.2020
2684 Clouds 13 1021 48 0 2.12 230 07:38 13.02.2020
2685 Clouds 13 1021 48 0 2.12 230 07:19 13.02.2020
2686 Clouds 13 1021 48 0 2.12 230 06:44 13.02.2020
2687 Clouds 13 1021 48 0 2.12 230 06:18 13.02.2020
2688 Clouds 13 1021 48 0 2.12 230 05:25 13.02.2020
2689 Clouds 8 1023 60 0 2.27 358 04:25 13.02.2020
2690 Clouds 8 1023 60 0 2.27 358 03:47 13.02.2020
2691 Clouds 8 1023 60 0 2.27 358 03:18 13.02.2020
2692 Clouds 8 1023 60 0 2.27 358 02:48 13.02.2020
2693 Clouds 6 1023 66 0 3.56 11 02:19 13.02.2020
2694 Clouds 6 1023 66 0 3.56 11 01:28 13.02.2020
2695 Clouds 6 1023 59 0 3.41 8 00:32 13.02.2020
2696 Clouds 6 1023 59 0 3.41 8 23:58 12.02.2020
2697 Clouds 6 1023 59 0 3.41 8 23:38 12.02.2020
2698 Clouds 6 1025 55 0 3.26 5 23:19 12.02.2020
2699 Clouds 6 1025 55 0 3.26 5 22:44 12.02.2020
2700 Clouds 6 1025 55 0 3.26 5 22:24 12.02.2020
2701 Clouds 6 1025 55 0 3.26 5 21:58 12.02.2020
2702 Clouds 6 1025 55 0 3.26 5 21:39 12.02.2020
2703 Clouds 6 1025 55 0 3.26 5 21:19 12.02.2020
2704 Clouds 6 1025 55 0 3.26 5 20:56 12.02.2020
2705 Clouds 6 1025 55 0 3.26 5 20:56 12.02.2020
2706 Clouds 6 1025 55 0 3.26 5 20:37 12.02.2020
2707 Clouds 7 1025 54 0 3.18 4 20:19 12.02.2020
2708 Clouds 7 1025 54 0 3.18 4 19:45 12.02.2020
2709 Clouds 7 1025 58 0 3.14 6 19:24 12.02.2020
2710 Clouds 7 1025 54 0 3.18 4 18:56 12.02.2020
2711 Clouds 7 1025 54 0 3.18 4 18:37 12.02.2020
2712 Clouds 7 1025 54 0 3.18 4 18:18 12.02.2020
2713 Clouds 7 1025 58 0 3.14 6 17:42 12.02.2020
2714 Clouds 7 1024 59 0 2.98 9 17:20 12.02.2020
2715 Clouds 7 1024 59 0 2.34 11 16:59 12.02.2020
2716 Clouds 7 1024 59 0 2.98 9 16:39 12.02.2020
2717 Clouds 7 1024 59 0 2.98 9 16:39 12.02.2020
2718 Clouds 7 1024 59 0 2.98 9 16:19 12.02.2020
2719 Clouds 7 1024 59 0 2.98 9 15:43 12.02.2020
2720 Clouds 7 1024 59 0 2.98 9 15:23 12.02.2020
2721 Clouds 7 1024 59 0 2.98 9 14:57 12.02.2020
2722 Clouds 7 1024 59 0 2.34 11 14:39 12.02.2020
2723 Clouds 9 1021 68 0 0.31 130 14:19 12.02.2020
2724 Clouds 9 1021 68 0 0.31 130 13:57 12.02.2020
2725 Clouds 9 1022 66 0 0.51 56 13:38 12.02.2020
2726 Clouds 9 1021 68 0 0.31 130 13:19 12.02.2020
2727 Clouds 9 1021 68 0 0.31 130 12:57 12.02.2020
2728 Clouds 9 1021 68 0 0.31 130 12:37 12.02.2020
2729 Clouds 9 1021 68 0 0.31 130 12:18 12.02.2020
2730 Clouds 9 1021 68 0 0.31 130 11:56 12.02.2020
2731 Clouds 9 1021 68 0 0.31 130 11:37 12.02.2020
2732 Clouds 12 1021 47 0 2.85 208 11:19 12.02.2020
2733 Clouds 12 1021 47 0 2.85 208 10:55 12.02.2020
2734 Clouds 12 1021 47 0 2.85 208 10:36 12.02.2020
2735 Clouds 12 1021 47 0 2.85 208 10:18 12.02.2020
2736 Clouds 12 1021 47 0 2.85 208 09:41 12.02.2020
2737 Clouds 12 1021 47 0 2.85 208 09:22 12.02.2020
2738 Clouds 12 1021 47 0 2.85 208 08:57 12.02.2020
2739 Clouds 12 1021 47 0 2.85 208 08:38 12.02.2020
2740 Clouds 12 1024 38 0 2 215 08:19 12.02.2020
2741 Clouds 12 1024 37 0 1.92 222 07:44 12.02.2020
2742 Clouds 12 1024 37 0 1.92 222 07:44 12.02.2020
2743 Clouds 12 1024 37 0 1.92 222 07:23 12.02.2020
2744 Clouds 12 1024 37 0 1.92 222 06:56 12.02.2020
2745 Clouds 12 1024 37 0 1.92 222 06:24 12.02.2020
2746 Clouds 12 1024 37 0 1.92 222 05:39 12.02.2020
2747 Clouds 7 1026 47 0 2.4 10 04:58 12.02.2020
2748 Clouds 7 1026 47 0 2.4 10 04:40 12.02.2020
2749 Clouds 7 1026 47 0 2.4 10 03:37 12.02.2020
2750 Clouds 7 1026 47 0 2.4 10 03:19 12.02.2020
2751 Clouds 7 1026 47 0 2.4 10 02:30 12.02.2020
2752 Clouds 5 1026 43 0 3.43 5 01:58 12.02.2020
2753 Clouds 5 1026 41 0 3.36 6 00:46 12.02.2020
2754 Clouds 5 1026 41 0 3.36 6 00:26 12.02.2020
2755 Clouds 5 1026 41 0 3.36 6 23:58 11.02.2020
2756 Clouds 5 1026 41 0 3.36 6 23:40 11.02.2020
2757 Clouds 5 1026 41 0 3.36 6 23:22 11.02.2020
2758 Clouds 4 1026 32 0 3.12 8 22:56 11.02.2020
2759 Clouds 4 1026 32 0 3.12 8 22:38 11.02.2020
2760 Clouds 4 1026 32 0 3.12 8 22:19 11.02.2020
2761 Clouds 4 1026 32 0 3.12 8 21:56 11.02.2020
2762 Clouds 4 1026 32 0 3.12 8 21:56 11.02.2020
2763 Clouds 4 1026 32 0 3.12 8 21:37 11.02.2020
2764 Clouds 4 1026 32 0 3.12 8 21:18 11.02.2020
2765 Clouds 4 1026 32 0 3.12 8 21:18 11.02.2020
2766 Clouds 4 1026 32 0 3.12 8 21:18 11.02.2020
2767 Clouds 4 1026 32 0 3.12 8 20:56 11.02.2020
2768 Clouds 4 1026 32 0 3.12 8 20:37 11.02.2020
2769 Clouds 4 1027 30 0 2.72 358 20:18 11.02.2020
2770 Clouds 4 1027 30 0 2.72 358 19:43 11.02.2020
2771 Clouds 4 1027 30 0 2.72 358 19:43 11.02.2020
2772 Clouds 4 1027 30 0 2.72 358 19:24 11.02.2020
2773 Clouds 4 1027 30 0 2.72 358 18:57 11.02.2020
2774 Clouds 4 1027 30 0 2.72 358 18:57 11.02.2020
2775 Clouds 4 1027 30 0 2.72 358 18:39 11.02.2020
2776 Clouds 4 1027 30 0 2.72 358 18:20 11.02.2020
2777 Clouds 4 1027 30 0 2.72 358 17:55 11.02.2020
2778 Clouds 4 1027 30 0 2.72 358 17:36 11.02.2020
2779 Clouds 4 1025 34 0 3.15 12 17:18 11.02.2020
2780 Clouds 4 1025 34 0 3.15 12 16:57 11.02.2020
2781 Clouds 4 1025 34 0 3.15 12 16:37 11.02.2020
2782 Clouds 4 1025 34 0 3.15 12 16:19 11.02.2020
2783 Clouds 4 1025 34 0 3.15 12 15:45 11.02.2020
2784 Clouds 4 1025 34 0 3.15 12 15:26 11.02.2020
2785 Clouds 4 1025 34 0 3.15 12 14:57 11.02.2020
2786 Clouds 4 1025 34 0 3.15 12 14:38 11.02.2020
2787 Clouds 6 1022 57 0 0.23 277 14:18 11.02.2020
2788 Clouds 6 1022 57 0 0.23 277 13:42 11.02.2020
2789 Clouds 6 1022 56 0 0.26 310 13:21 11.02.2020
2790 Clouds 6 1022 56 0 0.26 310 12:59 11.02.2020
2791 Clouds 6 1022 56 0 0.26 310 12:40 11.02.2020
2792 Clouds 6 1022 56 0 0.26 310 12:21 11.02.2020
2793 Clouds 6 1022 56 0 0.26 310 11:55 11.02.2020
2794 Clouds 6 1022 56 0 0.26 310 11:36 11.02.2020
2795 Clouds 10 1021 28 0 2.17 185 11:18 11.02.2020
2796 Clouds 10 1021 28 0 2.17 185 10:39 11.02.2020
2797 Clouds 10 1021 28 0 2.17 185 10:20 11.02.2020
2798 Clouds 10 1021 28 0 2.17 185 09:57 11.02.2020
2799 Clouds 10 1021 28 0 2.17 185 09:38 11.02.2020
2800 Clouds 10 1021 28 0 2.17 185 09:20 11.02.2020
2801 Clouds 10 1021 28 0 2.17 185 08:48 11.02.2020
2802 Clouds 10 1021 28 0 2.17 185 08:24 11.02.2020
2803 Clouds 10 1023 20 0 2.44 216 07:49 11.02.2020
2804 Clouds 10 1023 20 0 2.44 216 07:28 11.02.2020
2805 Clouds 10 1023 20 0 2.44 216 06:57 11.02.2020
2806 Clouds 10 1023 20 0 2.44 216 06:38 11.02.2020
2807 Clouds 10 1023 20 0 2.44 216 06:20 11.02.2020
2808 Clouds 10 1023 20 0 2.44 216 05:26 11.02.2020
2809 Clear 5 1025 23 0 1.97 349 04:54 11.02.2020
2810 Clear 5 1025 23 0 1.97 349 03:27 11.02.2020
2811 Clear 5 1025 23 0 1.97 349 02:34 11.02.2020
2812 Clouds 2 1025 22 0 3.09 356 01:39 11.02.2020
2813 Clouds 2 1025 22 0 3.02 356 00:58 11.02.2020
2814 Clouds 2 1025 22 0 3.02 356 00:23 11.02.2020
2815 Clouds 2 1025 22 0 3.02 356 23:45 10.02.2020
2816 Clouds 2 1025 22 0 3.02 356 23:26 10.02.2020
2817 Clouds 2 1026 26 0 2.81 5 22:57 10.02.2020
2818 Clouds 2 1026 26 0 2.81 5 22:37 10.02.2020
2819 Clouds 2 1026 26 0 2.81 5 22:18 10.02.2020
2820 Clouds 2 1026 26 0 2.81 5 21:40 10.02.2020
2821 Clouds 2 1026 26 0 2.81 5 21:22 10.02.2020
2822 Clouds 2 1026 26 0 2.81 5 20:56 10.02.2020
2823 Clouds 2 1026 26 0 2.81 5 20:37 10.02.2020
2824 Clouds 2 1026 34 0 2.39 350 20:19 10.02.2020
2825 Clouds 2 1026 33 0 2.36 345 19:57 10.02.2020
2826 Clouds 2 1026 33 0 2.36 345 19:37 10.02.2020
2827 Clouds 2 1026 33 0 2.36 345 19:18 10.02.2020
2828 Clouds 2 1026 33 0 2.36 345 18:56 10.02.2020
2829 Clouds 2 1026 33 0 2.36 345 18:38 10.02.2020
2830 Clouds 2 1026 33 0 2.36 345 18:20 10.02.2020
2831 Clouds 2 1026 33 0 2.36 345 17:54 10.02.2020
2832 Clouds 2 1026 33 0 2.36 345 17:54 10.02.2020
2833 Clouds 2 1026 33 0 2.36 345 17:36 10.02.2020
2834 Clouds 2 1025 42 0 2.87 17 17:18 10.02.2020
2835 Clouds 2 1025 42 0 2.87 17 16:56 10.02.2020
2836 Clouds 2 1025 42 0 2.87 17 16:37 10.02.2020
2837 Clouds 2 1025 42 0 2.87 17 16:18 10.02.2020
2838 Clouds 2 1025 42 0 2.87 17 15:41 10.02.2020
2839 Clouds 2 1025 42 0 2.87 17 15:22 10.02.2020
2840 Clouds 2 1025 42 0 2.87 17 14:58 10.02.2020
2841 Clouds 2 1025 42 0 2.87 17 14:39 10.02.2020
2842 Clear 5 1020 63 0 1.25 238 14:19 10.02.2020
2843 Clear 5 1020 63 0 1.25 238 13:55 10.02.2020
2844 Clear 5 1020 63 0 1.25 238 13:37 10.02.2020
2845 Clear 5 1020 63 0 1.25 238 13:18 10.02.2020
2846 Clear 5 1020 61 0 1.23 240 12:42 10.02.2020
2847 Clear 5 1020 61 0 1.23 240 12:24 10.02.2020
2848 Clear 5 1020 61 0 1.23 240 11:54 10.02.2020
2849 Clear 5 1020 61 0 1.23 240 11:54 10.02.2020
2850 Clear 5 1020 61 0 1.23 240 11:36 10.02.2020
2851 Clear 9 1019 34 0 2.68 201 11:18 10.02.2020
2852 Clear 9 1019 34 0 2.68 201 10:42 10.02.2020
2853 Clear 9 1019 34 0 2.68 201 10:23 10.02.2020
2854 Clear 9 1019 34 0 2.68 201 09:44 10.02.2020
2855 Clear 9 1019 34 0 2.68 201 09:23 10.02.2020
2856 Clear 9 1019 34 0 2.68 201 08:43 10.02.2020
2857 Clear 9 1019 38 0 2.73 202 08:22 10.02.2020
2858 Clear 9 1022 23 0 2.15 203 07:57 10.02.2020
2859 Clear 9 1022 23 0 2.15 203 07:36 10.02.2020
2860 Clear 9 1022 23 0 2.15 203 06:58 10.02.2020
2861 Clear 9 1022 23 0 2.15 203 05:42 10.02.2020
2862 Clear 4 1026 27 0 1.92 349 04:26 10.02.2020
2863 Clear 4 1026 27 0 1.92 349 03:31 10.02.2020
2864 Clear 4 1026 27 0 1.92 349 02:53 10.02.2020
2865 Clear 1 1026 30 0 3 358 01:36 10.02.2020
2866 Clear 1 1026 30 0 3 358 01:36 10.02.2020
2867 Clear 1 1025 31 0 3.13 356 00:48 10.02.2020
2868 Clear 1 1025 31 0 3.13 356 00:28 10.02.2020
2869 Clear 1 1025 31 0 3.13 356 23:45 09.02.2020
2870 Clear 1 1025 31 0 3.13 356 23:45 09.02.2020
2871 Clear 1 1025 31 0 3.13 356 23:26 09.02.2020
2872 Clear 1 1026 33 0 2.8 345 22:59 09.02.2020
2873 Clear 1 1026 33 0 2.8 345 22:38 09.02.2020
2874 Clear 1 1026 33 0 2.8 345 22:19 09.02.2020
2875 Clear 1 1026 33 0 2.8 345 21:41 09.02.2020
2876 Clear 1 1026 33 0 2.8 345 21:23 09.02.2020
2877 Clear 1 1026 33 0 2.8 345 20:48 09.02.2020
2878 Clear 1 1026 33 0 2.95 352 20:23 09.02.2020
2879 Clear 1 1027 37 0 2.4 358 19:58 09.02.2020
2880 Clear 1 1027 37 0 2.4 358 19:39 09.02.2020
2881 Clear 1 1027 37 0 2.4 358 19:20 09.02.2020
2882 Clear 1 1027 37 0 2.4 358 18:56 09.02.2020
2883 Clear 1 1027 37 0 2.4 358 18:36 09.02.2020
2884 Clear 1 1027 37 0 2.4 358 18:18 09.02.2020
2885 Clear 1 1027 37 0 2.4 358 17:42 09.02.2020
2886 Clear 1 1027 37 0 2.4 358 17:22 09.02.2020
2887 Clear 1 1027 42 0 2.38 7 16:56 09.02.2020
2888 Clear 1 1027 42 0 2.38 7 16:37 09.02.2020
2889 Clear 1 1027 42 0 2.38 7 16:18 09.02.2020
2890 Clear 1 1027 42 0 2.38 7 15:54 09.02.2020
2891 Clear 1 1027 42 0 2.38 7 15:36 09.02.2020
2892 Clear 1 1027 42 0 2.38 7 15:18 09.02.2020
2893 Clear 1 1027 42 0 2.38 7 14:41 09.02.2020
2894 Clear 1 1027 42 0 2.38 7 14:22 09.02.2020
2895 Clear 4 1023 49 0 0.76 240 13:47 09.02.2020
2896 Clear 4 1023 49 0 0.76 240 13:28 09.02.2020
2897 Clear 4 1023 48 0 0.85 245 12:57 09.02.2020
2898 Clear 4 1023 48 0 0.85 245 12:39 09.02.2020
2899 Clear 4 1023 48 0 0.85 245 12:19 09.02.2020
2900 Clear 4 1023 48 0 0.85 245 11:55 09.02.2020
2901 Clear 4 1023 48 0 0.85 245 11:36 09.02.2020
2902 Clear 8 1022 24 0 2.75 203 11:18 09.02.2020
2903 Clear 8 1022 24 0 2.75 203 10:41 09.02.2020
2904 Clear 8 1022 24 0 2.75 203 10:22 09.02.2020
2905 Clear 8 1022 24 0 2.75 203 09:48 09.02.2020
2906 Clear 8 1022 24 0 2.75 203 09:28 09.02.2020
2907 Clear 8 1022 24 0 2.75 203 08:55 09.02.2020
2908 Clear 8 1022 24 0 2.75 203 08:37 09.02.2020
2909 Clear 8 1025 18 0 2.71 206 08:19 09.02.2020
2910 Clear 8 1025 21 0 2.73 209 07:49 09.02.2020
2911 Clear 8 1025 21 0 2.73 209 06:54 09.02.2020
2912 Clear 8 1025 21 0 2.73 209 06:36 09.02.2020
2913 Clear 8 1025 21 0 2.73 209 05:49 09.02.2020
2914 Clear 8 1025 21 0 2.73 209 05:31 09.02.2020
2915 Clear 3 1030 24 0 2.56 354 04:23 09.02.2020
2916 Clear 3 1030 24 0 2.56 354 02:49 09.02.2020
2917 Clear 3 1030 24 0 2.56 354 02:30 09.02.2020
2918 Clear -1 1030 23 0 3.77 0 01:36 09.02.2020
2919 Clear -1 1031 23 0 3.79 357 00:56 09.02.2020
2920 Clear -1 1031 23 0 3.79 357 00:29 09.02.2020
2921 Clear -1 1031 23 0 3.79 357 23:49 08.02.2020
2922 Clear -1 1031 23 0 3.79 357 23:24 08.02.2020
2923 Clear -1 1032 26 0 3.8 0 22:58 08.02.2020
2924 Clear -1 1032 26 0 3.8 0 22:39 08.02.2020
2925 Clear -1 1032 26 0 3.8 0 22:20 08.02.2020
2926 Clear -1 1032 26 0 3.8 0 21:45 08.02.2020
2927 Clear -1 1032 26 0 3.8 0 21:27 08.02.2020
2928 Clear -1 1032 26 0 3.8 0 20:59 08.02.2020
2929 Clear -1 1032 26 0 3.8 0 20:40 08.02.2020
2930 Clear 0 1034 31 0 3.5 6 20:19 08.02.2020
2931 Clear -1 1034 30 0 3.47 7 19:58 08.02.2020
2932 Clear -1 1034 30 0 3.47 7 19:38 08.02.2020
2933 Clear -1 1034 30 0 3.47 7 19:19 08.02.2020
2934 Clear -1 1034 30 0 3.47 7 19:19 08.02.2020
2935 Clear -1 1034 30 0 3.47 7 18:56 08.02.2020
2936 Clear -1 1034 30 0 3.47 7 18:37 08.02.2020
2937 Clear -1 1034 30 0 3.47 7 18:19 08.02.2020
2938 Clear -1 1034 30 0 3.47 7 17:41 08.02.2020
2939 Clear -1 1034 30 0 2.77 8 17:19 08.02.2020
2940 Clear -1 1034 30 0 2.77 8 16:42 08.02.2020
2941 Clear -1 1034 30 0 2.77 8 16:23 08.02.2020
2942 Clear -1 1034 30 0 2.77 8 15:59 08.02.2020
2943 Clear -1 1034 30 0 2.77 8 15:39 08.02.2020
2944 Clear -1 1034 30 0 2.77 8 15:18 08.02.2020
2945 Clear -1 1034 30 0 2.77 8 14:45 08.02.2020
2946 Clear -1 1034 30 0 2.77 8 14:22 08.02.2020
2947 Clear 2 1029 47 0 1.13 44 13:59 08.02.2020
2948 Clear 2 1029 47 0 1.13 44 13:40 08.02.2020
2949 Clear 2 1029 45 0 1.14 36 13:22 08.02.2020
2950 Clear 2 1029 45 0 1.14 36 12:41 08.02.2020
2951 Clear 2 1029 45 0 1.14 36 12:23 08.02.2020
2952 Clear 2 1029 45 0 1.14 36 11:58 08.02.2020
2953 Clear 2 1029 45 0 1.14 36 11:40 08.02.2020
2954 Clear 7 1026 26 0 1.87 191 11:20 08.02.2020
2955 Clear 7 1026 26 0 1.87 191 10:42 08.02.2020
2956 Clear 7 1026 26 0 1.87 191 10:22 08.02.2020
2957 Clear 7 1026 26 0 1.87 191 10:22 08.02.2020
2958 Clear 7 1026 26 0 1.87 191 10:22 08.02.2020
2959 Clear 7 1026 26 0 1.87 191 10:22 08.02.2020
2960 Clear 7 1026 26 0 1.87 191 09:53 08.02.2020
2961 Clear 7 1026 26 0 1.87 191 09:29 08.02.2020
2962 Clear 7 1026 26 0 1.87 191 08:56 08.02.2020
2963 Clear 7 1026 26 0 1.87 191 08:38 08.02.2020
2964 Clear 6 1030 21 0 0.65 213 08:20 08.02.2020
2965 Clear 6 1030 21 0 0.65 213 07:45 08.02.2020
2966 Clear 6 1030 21 0 0.65 213 07:23 08.02.2020
2967 Clear 6 1030 21 0 0.65 213 06:30 08.02.2020
2968 Clear 6 1030 21 0 0.65 213 06:30 08.02.2020
2969 Clear 6 1030 21 0 0.65 213 05:49 08.02.2020
2970 Clear 6 1030 21 0 0.65 213 05:30 08.02.2020
2971 Clear 0 1035 27 0 4.48 22 04:50 08.02.2020
2972 Clear 0 1035 27 0 4.48 22 03:55 08.02.2020
2973 Clear 0 1035 27 0 4.48 22 02:57 08.02.2020
2974 Clear 0 1035 27 0 4.48 22 02:24 08.02.2020
2975 Clear -3 1034 27 0 5.22 16 01:28 08.02.2020
2976 Clear -3 1035 27 0 5.48 16 00:45 08.02.2020
2977 Clear -3 1035 27 0 5.48 16 00:23 08.02.2020
2978 Clear -3 1035 27 0 5.48 16 23:56 07.02.2020
2979 Clear -3 1035 27 0 5.48 16 23:37 07.02.2020
2980 Clear -3 1034 32 0 4.55 18 23:19 07.02.2020
2981 Clear -3 1034 32 0 4.55 18 22:41 07.02.2020
2982 Clear -3 1034 32 0 4.55 18 22:41 07.02.2020
2983 Clear -3 1034 32 0 4.55 18 22:19 07.02.2020
2984 Clear -3 1034 32 0 4.55 18 21:44 07.02.2020
2985 Clear -3 1034 32 0 4.55 18 21:23 07.02.2020
2986 Clear -3 1034 32 0 4.55 18 20:59 07.02.2020
2987 Clear -3 1034 32 0 4.55 18 20:39 07.02.2020
2988 Clear -3 1033 40 0 3.61 15 20:18 07.02.2020
2989 Clear -3 1033 40 0 3.61 15 19:43 07.02.2020
2990 Clear -3 1033 40 0 3.61 15 19:22 07.02.2020
2991 Clear -3 1033 40 0 3.61 15 18:59 07.02.2020
2992 Clear -3 1033 40 0 3.61 15 18:41 07.02.2020
2993 Clear -3 1033 40 0 3.61 15 18:23 07.02.2020
2994 Clear -3 1033 40 0 3.61 15 17:44 07.02.2020
2995 Clear -3 1033 40 0 3.61 15 17:22 07.02.2020
2996 Clouds -3 1031 52 0 3.84 18 16:58 07.02.2020
2997 Clouds -3 1031 52 0 3.84 18 16:39 07.02.2020
2998 Clouds -3 1031 52 0 3.84 18 16:21 07.02.2020
2999 Clouds -3 1031 52 0 3.84 18 15:52 07.02.2020
3000 Clouds -3 1031 52 0 3.84 18 15:28 07.02.2020
3001 Clouds -3 1031 52 0 3.84 18 14:55 07.02.2020
3002 Clouds -3 1031 52 0 3.84 18 14:37 07.02.2020
3003 Snow 0 1025 86 0 0.81 208 14:19 07.02.2020
3004 Snow 0 1025 86 0 0.81 208 13:56 07.02.2020
3005 Snow 0 1025 86 0 0.81 208 13:37 07.02.2020
3006 Snow 1 1025 86 0 1.22 220 13:18 07.02.2020
3007 Snow 1 1025 86 0 1.22 220 12:41 07.02.2020
3008 Snow 1 1025 86 0 1.22 220 12:22 07.02.2020
3009 Snow 1 1025 86 0 1.22 220 11:45 07.02.2020
3010 Snow 1 1025 86 0 1.22 220 11:22 07.02.2020
3011 Snow 3 1022 67 0 2.66 210 10:57 07.02.2020
3012 Snow 3 1022 67 0 2.66 210 10:38 07.02.2020
3013 Snow 3 1022 67 0 2.66 210 10:19 07.02.2020
3014 Snow 3 1022 67 0 2.66 210 10:19 07.02.2020
3015 Snow 3 1022 67 0 2.66 210 09:41 07.02.2020
3016 Snow 3 1022 67 0 2.66 210 09:22 07.02.2020
3017 Snow 3 1022 67 0 2.66 210 08:45 07.02.2020
3018 Snow 3 1022 67 0 2.66 210 08:23 07.02.2020
3019 Clouds 3 1026 57 0 2.31 214 07:54 07.02.2020
3020 Clouds 3 1026 57 0 2.31 214 07:33 07.02.2020
3021 Clouds 3 1026 57 0 2.31 214 06:59 07.02.2020
3022 Clouds 3 1026 57 0 2.31 214 06:40 07.02.2020
3023 Clouds 3 1026 57 0 2.31 214 06:19 07.02.2020
3024 Clouds 3 1026 57 0 2.31 214 05:37 07.02.2020
3025 Clouds -1 1030 58 0 1.18 8 03:51 07.02.2020
3026 Clouds -1 1030 58 0 1.18 8 02:23 07.02.2020
3027 Snow -3 1027 62 0 2.34 3 01:21 07.02.2020
3028 Snow -3 1027 62 0 2.34 3 00:29 07.02.2020
3029 Snow -3 1027 62 0 2.34 3 23:39 06.02.2020
3030 Snow -2 1025 75 0 2.02 22 23:20 06.02.2020
3031 Snow -2 1025 75 0 2.02 22 22:57 06.02.2020
3032 Snow -2 1025 75 0 2.02 22 22:39 06.02.2020
3033 Snow -2 1025 75 0 2.02 22 22:20 06.02.2020
3034 Snow -2 1025 75 0 2.02 22 21:37 06.02.2020
3035 Snow -2 1025 75 0 2.02 22 21:19 06.02.2020
3036 Snow -2 1025 75 0 2.02 22 20:56 06.02.2020
3037 Snow -2 1025 75 0 2.02 22 20:37 06.02.2020
3038 Snow -2 1025 87 0 0.7 49 20:18 06.02.2020
3039 Snow -2 1025 87 0 0.7 49 19:57 06.02.2020
3040 Snow -2 1025 87 0 0.7 49 19:38 06.02.2020
3041 Snow -2 1025 87 0 0.7 49 19:20 06.02.2020
3042 Snow -2 1025 87 0 0.7 49 18:55 06.02.2020
3043 Snow -2 1025 87 0 0.7 49 18:37 06.02.2020
3044 Snow -2 1025 87 0 0.7 49 18:19 06.02.2020
3045 Snow -2 1025 87 0 0.7 49 17:42 06.02.2020
3046 Snow -2 1023 65 0 1.91 8 17:20 06.02.2020
3047 Snow -2 1023 65 0 1.91 8 16:45 06.02.2020
3048 Snow -2 1023 65 0 1.91 8 16:27 06.02.2020
3049 Snow -2 1023 65 0 1.91 8 15:58 06.02.2020
3050 Snow -2 1023 65 0 1.91 8 15:40 06.02.2020
3051 Snow -2 1023 65 0 1.91 8 15:20 06.02.2020
3052 Snow -2 1023 65 0 1.91 8 14:46 06.02.2020
3053 Snow -2 1023 65 0 1.91 8 14:25 06.02.2020
3054 Snow 1 1018 73 0 1.54 243 13:46 06.02.2020
3055 Clouds 1 1018 62 0 1.37 229 13:27 06.02.2020
3056 Clouds 1 1018 62 0 1.37 229 12:56 06.02.2020
3057 Clouds 1 1018 62 0 1.37 229 12:37 06.02.2020
3058 Clouds 1 1018 62 0 1.37 229 12:18 06.02.2020
3059 Clouds 1 1018 62 0 1.37 229 11:55 06.02.2020
3060 Clouds 1 1018 62 0 1.37 229 11:37 06.02.2020
3061 Clouds 5 1016 34 0 2.93 216 11:18 06.02.2020
3062 Clouds 5 1016 34 0 2.93 216 10:41 06.02.2020
3063 Clouds 5 1016 34 0 2.93 216 10:22 06.02.2020
3064 Clouds 5 1016 34 0 2.93 216 09:59 06.02.2020
3065 Clouds 5 1016 34 0 2.93 216 09:41 06.02.2020
3066 Clouds 5 1016 34 0 2.93 216 09:20 06.02.2020
3067 Clouds 5 1016 34 0 2.93 216 08:46 06.02.2020
3068 Clouds 5 1016 37 0 2.95 215 08:24 06.02.2020
3069 Clouds 5 1019 28 0 2.67 206 07:57 06.02.2020
3070 Clouds 5 1019 28 0 2.67 206 07:33 06.02.2020
3071 Clouds 5 1019 28 0 2.67 206 06:54 06.02.2020
3072 Clouds 5 1019 28 0 2.67 206 06:19 06.02.2020
3073 Clouds 5 1019 28 0 2.67 206 05:40 06.02.2020
3074 Clouds 1 1024 33 0 1.88 356 04:18 06.02.2020
3075 Clouds 1 1024 33 0 1.88 356 03:18 06.02.2020
3076 Clouds -2 1023 39 0 2.91 6 02:20 06.02.2020
3077 Clouds -2 1022 40 0 2.85 0 01:24 06.02.2020
3078 Clouds -2 1022 40 0 2.85 0 00:42 06.02.2020
3079 Clouds -2 1022 40 0 2.85 0 00:21 06.02.2020
3080 Clouds -2 1022 40 0 2.85 0 23:43 05.02.2020
3081 Clouds -2 1022 40 0 2.85 0 23:24 05.02.2020
3082 Clouds -2 1023 44 0 2.9 3 22:56 05.02.2020
3083 Clouds -2 1023 44 0 2.9 3 22:37 05.02.2020
3084 Clouds -2 1023 44 0 2.9 3 22:19 05.02.2020
3085 Clouds -2 1023 44 0 2.9 3 21:41 05.02.2020
3086 Clouds -2 1023 44 0 2.9 3 21:22 05.02.2020
3087 Clouds -2 1023 44 0 2.9 3 20:55 05.02.2020
3088 Clouds -2 1023 44 0 2.9 3 20:37 05.02.2020
3089 Clear -1 1024 48 0 2.7 6 20:18 05.02.2020
3090 Clear -1 1024 48 0 2.7 9 19:55 05.02.2020
3091 Clear -1 1024 48 0 2.7 9 19:36 05.02.2020
3092 Clear -1 1024 48 0 2.7 9 19:18 05.02.2020
3093 Clear -1 1024 48 0 2.7 9 18:43 05.02.2020
3094 Clear -1 1024 48 0 2.7 9 18:21 05.02.2020
3095 Clear -1 1024 48 0 2.7 9 18:21 05.02.2020
3096 Clear -1 1024 48 0 2.7 9 17:58 05.02.2020
3097 Clear -1 1024 48 0 2.7 9 17:37 05.02.2020
3098 Clear -1 1024 57 0 2.5 17 17:18 05.02.2020
3099 Clear -1 1024 57 0 2.5 17 16:43 05.02.2020
3100 Clear -1 1024 57 0 2.5 17 16:25 05.02.2020
3101 Clear -1 1024 57 0 2.5 17 15:59 05.02.2020
3102 Clear -1 1024 57 0 2.5 17 15:40 05.02.2020
3103 Clear -1 1024 57 0 2.5 17 15:18 05.02.2020
3104 Clear -1 1024 57 0 2.5 17 14:43 05.02.2020
3105 Clear -1 1024 57 0 2.5 17 14:25 05.02.2020
3106 Clear 1 1019 68 0 0.94 228 13:59 05.02.2020
3107 Clear 1 1019 68 0 0.94 228 13:39 05.02.2020
3108 Clear 1 1019 67 0 0.89 242 13:19 05.02.2020
3109 Clear 1 1019 67 0 0.89 242 12:43 05.02.2020
3110 Clear 1 1019 67 0 0.89 242 12:24 05.02.2020
3111 Clear 1 1019 67 0 0.89 242 11:57 05.02.2020
3112 Clear 1 1019 67 0 0.89 242 11:38 05.02.2020
3113 Clear 6 1017 37 0 2.67 203 11:19 05.02.2020
3114 Clear 6 1017 37 0 2.67 203 10:42 05.02.2020
3115 Clear 6 1017 37 0 2.67 203 10:24 05.02.2020
3116 Clear 6 1017 37 0 2.67 203 09:58 05.02.2020
3117 Clear 6 1017 37 0 2.67 203 09:37 05.02.2020
3118 Clear 6 1017 37 0 2.67 203 09:19 05.02.2020
3119 Clear 6 1017 37 0 2.67 203 08:43 05.02.2020
3120 Clear 6 1017 38 0 2.69 204 08:23 05.02.2020
3121 Clear 5 1023 29 0 1.89 215 07:54 05.02.2020
3122 Clear 5 1023 29 0 1.89 215 07:33 05.02.2020
3123 Clear 5 1023 29 0 1.89 215 06:50 05.02.2020
3124 Clear 5 1023 29 0 1.89 215 06:23 05.02.2020
3125 Clear 5 1023 29 0 1.89 215 05:54 05.02.2020
3126 Clear 0 1028 37 0 2.37 22 05:19 05.02.2020
3127 Clear 0 1028 37 0 2.37 22 04:45 05.02.2020
3128 Clear 0 1028 37 0 2.37 22 03:52 05.02.2020
3129 Clear 0 1028 37 0 2.37 22 02:26 05.02.2020
3130 Clouds -3 1028 44 0 3.23 17 01:46 05.02.2020
3131 Clouds -3 1028 42 0 3.64 16 00:43 05.02.2020
3132 Clouds -3 1028 42 0 3.64 16 23:57 04.02.2020
3133 Clouds -3 1028 42 0 3.64 16 23:38 04.02.2020
3134 Clouds -2 1027 53 0 3.37 15 23:18 04.02.2020
3135 Clouds -2 1027 53 0 3.37 15 22:55 04.02.2020
3136 Clouds -2 1027 53 0 3.37 15 22:37 04.02.2020
3137 Clouds -2 1027 53 0 3.37 15 22:19 04.02.2020
3138 Clouds -2 1027 53 0 3.37 15 21:54 04.02.2020
3139 Clouds -2 1027 53 0 3.37 15 21:54 04.02.2020
3140 Clouds -2 1027 53 0 3.37 15 21:36 04.02.2020
3141 Clouds -2 1027 53 0 3.37 15 21:18 04.02.2020
3142 Clouds -2 1027 53 0 3.37 15 20:41 04.02.2020
3143 Snow -1 1026 65 0 2.25 360 20:21 04.02.2020
3144 Snow -1 1026 65 0 2.25 360 19:58 04.02.2020
3145 Snow -1 1026 65 0 2.25 360 19:40 04.02.2020
3146 Snow -1 1026 65 0 2.25 360 19:22 04.02.2020
3147 Snow -1 1026 65 0 2.25 360 18:56 04.02.2020
3148 Snow -1 1026 65 0 2.25 360 18:37 04.02.2020
3149 Snow -1 1026 65 0 2.25 360 18:19 04.02.2020
3150 Snow -1 1026 65 0 2.25 360 17:43 04.02.2020
3151 Snow -1 1026 65 0 2.25 360 17:43 04.02.2020
3152 Snow -1 1025 67 0 2.12 25 17:21 04.02.2020
3153 Snow -1 1025 67 0 2.12 25 16:57 04.02.2020
3154 Snow -1 1025 67 0 2.12 25 16:38 04.02.2020
3155 Snow -1 1025 67 0 2.12 25 16:19 04.02.2020
3156 Snow -1 1025 67 0 2.12 25 15:56 04.02.2020
3157 Snow -1 1025 67 0 2.12 25 15:56 04.02.2020
3158 Snow -1 1025 67 0 2.12 25 15:38 04.02.2020
3159 Snow -1 1025 67 0 2.12 25 15:19 04.02.2020
3160 Snow -1 1025 67 0 2.12 25 14:42 04.02.2020
3161 Snow -1 1025 67 0 2.12 25 14:23 04.02.2020
3162 Clouds 1 1020 70 0 1.18 243 13:58 04.02.2020
3163 Clouds 1 1020 70 0 1.18 243 13:39 04.02.2020
3164 Snow 1 1020 70 0 1.25 250 13:20 04.02.2020
3165 Snow 1 1020 70 0 1.25 250 12:44 04.02.2020
3166 Snow 1 1020 70 0 1.25 250 12:26 04.02.2020
3167 Snow 1 1020 70 0 1.25 250 11:58 04.02.2020
3168 Snow 1 1020 70 0 1.25 250 11:39 04.02.2020
3169 Clouds 4 1018 42 0 2.47 222 11:21 04.02.2020
3170 Clouds 4 1018 42 0 2.47 222 10:59 04.02.2020
3171 Clouds 4 1018 42 0 2.47 222 10:40 04.02.2020
3172 Clouds 4 1018 42 0 2.47 222 10:22 04.02.2020
3173 Clouds 4 1018 42 0 2.47 222 09:41 04.02.2020
3174 Clouds 4 1018 42 0 2.47 222 09:23 04.02.2020
3175 Clouds 4 1018 42 0 2.47 222 08:56 04.02.2020
3176 Clouds 4 1018 42 0 2.47 222 08:38 04.02.2020
3177 Clouds 4 1022 31 0 2.28 207 08:20 04.02.2020
3178 Clouds 4 1022 31 0 2.28 207 07:43 04.02.2020
3179 Clouds 4 1022 31 0 2.28 207 07:22 04.02.2020
3180 Clouds 4 1022 31 0 2.28 207 06:43 04.02.2020
3181 Clouds 4 1022 31 0 2.28 207 05:58 04.02.2020
3182 Clouds 4 1022 31 0 2.28 207 05:28 04.02.2020
3183 Clear 0 1027 38 0 2.16 2 03:51 04.02.2020
3184 Clear 0 1027 38 0 2.16 2 03:31 04.02.2020
3185 Clear 0 1027 38 0 2.16 2 02:55 04.02.2020
3186 Clear 0 1027 38 0 2.16 2 02:31 04.02.2020
3187 Clear -2 1027 38 0 3.29 4 01:53 04.02.2020
3188 Clear -2 1027 38 0 3.29 4 01:35 04.02.2020
3189 Clear -2 1026 37 0 3.44 8 00:44 04.02.2020
3190 Clear -2 1026 37 0 3.44 8 00:21 04.02.2020
3191 Clear -2 1026 37 0 3.44 8 23:39 03.02.2020
3192 Clear -1 1027 39 0 3.35 360 23:19 03.02.2020
3193 Clear -1 1027 39 0 3.35 360 22:39 03.02.2020
3194 Clear -1 1027 39 0 3.35 360 22:20 03.02.2020
3195 Clear -1 1027 39 0 3.35 360 21:55 03.02.2020
3196 Clear -1 1027 39 0 3.35 360 21:55 03.02.2020
3197 Clear -1 1027 39 0 3.35 360 21:37 03.02.2020
3198 Clear -1 1027 39 0 3.35 360 21:18 03.02.2020
3199 Clear -1 1027 39 0 3.35 360 20:42 03.02.2020
3200 Clear -1 1027 38 0 3.37 12 20:19 03.02.2020
3201 Clear -1 1027 38 0 3.37 12 19:58 03.02.2020
3202 Clear -1 1027 38 0 3.37 12 19:39 03.02.2020
3203 Clear -1 1027 38 0 3.37 12 19:19 03.02.2020
3204 Clear -1 1027 38 0 3.37 12 18:56 03.02.2020
3205 Clear -1 1027 38 0 3.37 12 18:36 03.02.2020
3206 Clear -1 1027 38 0 3.37 12 18:36 03.02.2020
3207 Clear -1 1027 38 0 3.37 12 18:18 03.02.2020
3208 Clear -1 1027 38 0 3.37 12 17:40 03.02.2020
3209 Clear -1 1025 43 0 3.13 15 17:20 03.02.2020
3210 Clear -1 1025 43 0 3.13 15 16:59 03.02.2020
3211 Clear -1 1025 43 0 3.13 15 16:39 03.02.2020
3212 Clear -1 1025 43 0 3.13 15 16:20 03.02.2020
3213 Clear -1 1025 43 0 3.13 15 15:56 03.02.2020
3214 Clear -1 1025 43 0 3.13 15 15:37 03.02.2020
3215 Clear -1 1025 43 0 3.13 15 15:18 03.02.2020
3216 Clear -1 1025 43 0 3.13 15 14:42 03.02.2020
3217 Clear -1 1025 43 0 3.13 15 14:24 03.02.2020
3218 Clear -1 1025 43 0 3.13 15 14:24 03.02.2020
3219 Clear 2 1021 64 0 0.48 273 13:57 03.02.2020
3220 Clear 2 1021 64 0 0.48 273 13:39 03.02.2020
3221 Clear 2 1021 64 0 0.48 273 13:19 03.02.2020
3222 Clear 2 1020 63 0 0.52 284 12:56 03.02.2020
3223 Clear 2 1020 63 0 0.52 284 12:36 03.02.2020
3224 Clear 2 1020 63 0 0.52 284 12:18 03.02.2020
3225 Clear 2 1020 63 0 0.52 284 11:39 03.02.2020
3226 Clear 7 1018 36 0 2.47 208 11:19 03.02.2020
3227 Clear 7 1018 36 0 2.47 208 10:57 03.02.2020
3228 Clear 7 1018 36 0 2.47 208 10:38 03.02.2020
3229 Clear 7 1018 36 0 2.47 208 10:20 03.02.2020
3230 Clear 7 1018 36 0 2.47 208 09:39 03.02.2020
3231 Clear 7 1018 36 0 2.47 208 09:20 03.02.2020
3232 Clear 7 1018 36 0 2.47 208 08:41 03.02.2020
3233 Clear 7 1018 35 0 2.43 208 08:23 03.02.2020
3234 Clear 7 1022 26 0 2.09 212 07:57 03.02.2020
3235 Clear 7 1022 26 0 2.09 212 07:39 03.02.2020
3236 Clear 7 1022 26 0 2.09 212 07:20 03.02.2020
3237 Clear 7 1022 26 0 2.09 212 06:42 03.02.2020
3238 Clear 7 1022 26 0 2.09 212 06:24 03.02.2020
3239 Clear 7 1022 26 0 2.09 212 05:35 03.02.2020
3240 Clear 1 1028 30 0 2.66 3 04:50 03.02.2020
3241 Clear 1 1028 30 0 2.66 3 02:58 03.02.2020
3242 Clear 1 1028 30 0 2.66 3 02:33 03.02.2020
3243 Clear -2 1028 30 0 3.66 8 01:24 03.02.2020
3244 Clear -2 1028 30 0 3.66 8 00:37 03.02.2020
3245 Clear -2 1028 30 0 3.66 8 00:19 03.02.2020
3246 Clear -2 1028 30 0 3.66 8 23:37 02.02.2020
3247 Clear -1 1028 37 0 3.8 8 23:19 02.02.2020
3248 Clear -1 1028 37 0 3.8 8 22:40 02.02.2020
3249 Clear -1 1028 37 0 3.8 8 22:22 02.02.2020
3250 Clear -1 1028 37 0 3.8 8 22:22 02.02.2020
3251 Clear -1 1028 37 0 3.8 8 21:59 02.02.2020
3252 Clear -1 1028 37 0 3.8 8 21:39 02.02.2020
3253 Clear -1 1028 37 0 3.8 8 21:21 02.02.2020
3254 Clear -1 1028 37 0 3.8 8 20:58 02.02.2020
3255 Clear -1 1028 37 0 3.8 8 20:39 02.02.2020
3256 Clear -1 1029 42 0 3.53 7 20:21 02.02.2020
3257 Clear -1 1029 42 0 3.57 8 19:59 02.02.2020
3258 Clear -1 1029 42 0 3.57 8 19:41 02.02.2020
3259 Clear -1 1029 42 0 3.57 8 19:23 02.02.2020
3260 Clear -1 1029 42 0 3.57 8 18:57 02.02.2020
3261 Clear -1 1029 42 0 3.57 8 18:38 02.02.2020
3262 Clear -1 1029 42 0 3.57 8 18:38 02.02.2020
3263 Clear -1 1029 42 0 3.57 8 18:20 02.02.2020
3264 Clear -1 1029 42 0 3.57 8 17:58 02.02.2020
3265 Clear -1 1029 42 0 3.57 8 17:38 02.02.2020
3266 Clear -1 1028 49 0 3.5 15 17:18 02.02.2020
3267 Clear -1 1028 49 0 3.5 15 16:58 02.02.2020
3268 Clear -1 1028 49 0 3.5 15 16:38 02.02.2020
3269 Clear -1 1028 49 0 3.5 15 16:19 02.02.2020
3270 Clear -1 1028 49 0 3.5 15 15:57 02.02.2020
3271 Clear -1 1028 49 0 3.5 15 15:38 02.02.2020
3272 Clear -1 1028 49 0 3.5 15 15:19 02.02.2020
3273 Clear -1 1028 49 0 3.5 15 15:19 02.02.2020
3274 Clear -1 1028 49 0 3.5 15 14:44 02.02.2020
3275 Clear 0 1023 59 0 0.43 310 14:20 02.02.2020
3276 Clear 0 1023 59 0 0.43 310 13:59 02.02.2020
3277 Clear 0 1023 59 0 0.43 310 13:41 02.02.2020
3278 Clear 0 1023 58 0 0.4 325 13:22 02.02.2020
3279 Clear 0 1023 58 0 0.4 325 12:58 02.02.2020
3280 Clear 0 1023 58 0 0.4 325 12:40 02.02.2020
3281 Clear 0 1023 58 0 0.4 325 12:22 02.02.2020
3282 Clear 0 1023 58 0 0.4 325 11:54 02.02.2020
3283 Clear 0 1023 58 0 0.4 325 11:36 02.02.2020
3284 Clear 6 1022 33 0 2.42 203 11:18 02.02.2020
3285 Clear 6 1022 35 0 2.39 204 10:54 02.02.2020
3286 Clear 6 1022 33 0 2.42 203 10:36 02.02.2020
3287 Clear 6 1022 33 0 2.42 203 10:18 02.02.2020
3288 Clear 6 1022 33 0 2.42 203 09:40 02.02.2020
3289 Clear 6 1022 33 0 2.42 203 09:21 02.02.2020
3290 Clear 6 1022 33 0 2.42 203 08:56 02.02.2020
3291 Clear 6 1022 33 0 2.42 203 08:37 02.02.2020
3292 Clear 6 1022 35 0 2.39 204 08:37 02.02.2020
3293 Clear 5 1025 25 0 2.03 214 08:18 02.02.2020
3294 Clear 5 1025 25 0 2.03 214 07:42 02.02.2020
3295 Clear 5 1025 25 0 2.03 214 07:42 02.02.2020
3296 Clear 5 1025 25 0 2.03 214 07:24 02.02.2020
3297 Clear 5 1025 25 0 2.03 214 06:38 02.02.2020
3298 Clear 5 1025 25 0 2.03 214 06:18 02.02.2020
3299 Clear -1 1031 29 0 2.93 359 05:20 02.02.2020
3300 Clear -1 1031 29 0 2.93 359 04:30 02.02.2020
3301 Clear -1 1031 29 0 2.93 359 03:24 02.02.2020
3302 Clear -1 1031 29 0 2.93 359 02:22 02.02.2020
3303 Clear -4 1031 28 0 3.59 6 01:51 02.02.2020
3304 Clear -4 1031 28 0 3.55 5 00:56 02.02.2020
3305 Clear -4 1031 28 0 3.55 5 00:37 02.02.2020
3306 Clear -4 1031 28 0 3.55 5 00:18 02.02.2020
3307 Clear -4 1031 28 0 3.55 5 23:41 01.02.2020
3308 Clear -4 1031 34 0 3.33 7 23:21 01.02.2020
3309 Clear -4 1031 34 0 3.33 7 22:45 01.02.2020
3310 Clear -4 1031 34 0 3.33 7 22:19 01.02.2020
3311 Clear -4 1031 34 0 3.33 7 21:44 01.02.2020
3312 Clear -4 1031 34 0 3.33 7 21:19 01.02.2020
3313 Clear -4 1031 34 0 3.33 7 20:57 01.02.2020
3314 Clear -4 1031 34 0 3.33 7 20:38 01.02.2020
3315 Clouds -4 1031 39 0 3.11 13 20:19 01.02.2020
3316 Clouds -4 1031 39 0 3.11 13 19:56 01.02.2020
3317 Clouds -4 1031 39 0 3.11 13 19:37 01.02.2020
3318 Clouds -4 1031 39 0 3.11 13 19:19 01.02.2020
3319 Clouds -4 1031 39 0 3.11 13 19:19 01.02.2020
3320 Clouds -4 1031 39 0 3.11 13 18:56 01.02.2020
3321 Clouds -4 1031 39 0 3.11 13 18:37 01.02.2020
3322 Clouds -4 1031 39 0 3.11 13 18:19 01.02.2020
3323 Clouds -4 1031 39 0 3.11 13 17:55 01.02.2020
3324 Clouds -4 1031 39 0 3.11 13 17:37 01.02.2020
3325 Clouds -4 1029 59 0 3.26 19 17:18 01.02.2020
3326 Clouds -4 1029 59 0 3.26 19 16:42 01.02.2020
3327 Clouds -4 1029 59 0 3.26 19 16:23 01.02.2020
3328 Clouds -4 1029 59 0 3.26 19 15:56 01.02.2020
3329 Clouds -4 1029 59 0 3.26 19 15:38 01.02.2020
3330 Clouds -4 1029 59 0 3.26 19 15:18 01.02.2020
3331 Clouds -4 1029 59 0 3.26 19 15:18 01.02.2020
3332 Clouds -4 1029 59 0 3.26 19 14:40 01.02.2020
3333 Snow -1 1023 89 0 1.11 226 14:21 01.02.2020
3334 Snow -1 1023 89 0 1.11 226 13:45 01.02.2020
3335 Snow -1 1023 89 0 1.11 226 13:24 01.02.2020
3336 Snow -1 1022 88 0 1.08 216 12:57 01.02.2020
3337 Snow -1 1022 88 0 1.08 216 12:39 01.02.2020
3338 Snow -1 1022 88 0 1.08 216 12:21 01.02.2020
3339 Snow -1 1022 88 0 1.08 216 11:42 01.02.2020
3340 Snow -1 1022 88 0 1.08 216 11:23 01.02.2020
3341 Snow 2 1020 61 0 2.82 213 10:59 01.02.2020
3342 Snow 2 1020 61 0 2.82 213 10:40 01.02.2020
3343 Snow 2 1020 61 0 2.82 213 10:22 01.02.2020
3344 Snow 2 1020 61 0 2.82 213 09:59 01.02.2020
3345 Snow 2 1020 61 0 2.82 213 09:40 01.02.2020
3346 Snow 2 1020 61 0 2.82 213 09:21 01.02.2020
3347 Snow 2 1020 61 0 2.82 213 08:49 01.02.2020
3348 Clear 2 1023 51 0 2.63 203 07:51 01.02.2020
3349 Clear 2 1023 51 0 2.63 203 07:28 01.02.2020
3350 Clear 2 1023 51 0 2.63 203 07:28 01.02.2020
3351 Clear 2 1023 51 0 2.63 203 07:28 01.02.2020
3352 Clear 2 1023 51 0 2.63 203 06:59 01.02.2020
3353 Clear 2 1023 51 0 2.63 203 06:40 01.02.2020
3354 Clear 2 1023 51 0 2.63 203 05:53 01.02.2020
3355 Clouds -2 1026 46 0 1.8 9 04:22 01.02.2020
3356 Clouds -2 1026 46 0 1.8 9 03:25 01.02.2020
3357 Clouds -2 1026 46 0 1.8 9 02:50 01.02.2020
3358 Clouds -2 1026 46 0 1.8 9 02:30 01.02.2020
3359 Snow -5 1023 52 0 2.46 7 01:56 01.02.2020
3360 Snow -5 1023 52 0 2.46 7 01:37 01.02.2020
3361 Snow -4 1023 51 0 2.44 13 00:38 01.02.2020
3362 Snow -4 1023 51 0 2.44 13 00:19 01.02.2020
3363 Snow -4 1023 51 0 2.44 13 23:38 31.01.2020
3364 Snow -4 1023 57 0 2.22 12 23:18 31.01.2020
3365 Snow -4 1023 57 0 2.22 12 22:55 31.01.2020
3366 Snow -4 1023 57 0 2.22 12 22:37 31.01.2020
3367 Snow -4 1023 57 0 2.22 12 22:19 31.01.2020
3368 Snow -4 1023 57 0 2.22 12 21:39 31.01.2020
3369 Snow -4 1023 57 0 2.22 12 21:21 31.01.2020
3370 Snow -4 1023 57 0 2.22 12 21:21 31.01.2020
3371 Snow -4 1023 57 0 2.22 12 20:57 31.01.2020
3372 Snow -4 1023 57 0 2.22 12 20:39 31.01.2020
3373 Clear -4 1023 57 0 2.31 13 20:21 31.01.2020
3374 Clear -4 1023 57 0 2.31 13 19:57 31.01.2020
3375 Clear -4 1023 57 0 2.31 13 19:38 31.01.2020
3376 Clear -4 1023 57 0 2.31 13 19:38 31.01.2020
3377 Clear -4 1023 57 0 2.31 13 19:19 31.01.2020
3378 Clear -4 1023 57 0 2.31 13 18:54 31.01.2020
3379 Clear -4 1023 57 0 2.31 13 18:36 31.01.2020
3380 Clear -4 1023 57 0 2.31 13 18:18 31.01.2020
3381 Clear -4 1023 57 0 2.31 13 17:40 31.01.2020
3382 Clear -4 1023 57 0 2.31 13 17:40 31.01.2020
3383 Clear -3 1022 59 0 2.1 9 17:21 31.01.2020
3384 Clear -3 1022 59 0 2.1 9 16:56 31.01.2020
3385 Clear -3 1022 59 0 2.1 9 16:38 31.01.2020
3386 Clear -3 1022 59 0 2.1 9 16:19 31.01.2020
3387 Clear -3 1022 59 0 2.1 9 15:56 31.01.2020
3388 Clear -3 1022 59 0 2.1 9 15:38 31.01.2020
3389 Clear -3 1022 59 0 2.1 9 15:19 31.01.2020
3390 Clear -3 1022 59 0 2.1 9 14:42 31.01.2020
3391 Clear -3 1022 59 0 2.1 9 14:42 31.01.2020
3392 Clear -3 1022 59 0 2.1 9 14:23 31.01.2020
3393 Clear -1 1016 69 0 1.27 256 13:52 31.01.2020
3394 Clear -1 1017 65 0 1 261 13:32 31.01.2020
3395 Clear -1 1016 67 0 1.12 257 12:56 31.01.2020
3396 Clear -1 1016 67 0 1.12 257 12:56 31.01.2020
3397 Clear -1 1016 67 0 1.12 257 12:38 31.01.2020
3398 Clear -1 1016 67 0 1.12 257 12:20 31.01.2020
3399 Clear -1 1017 65 0 1 261 11:42 31.01.2020
3400 Clear -1 1016 67 0 1.12 257 11:23 31.01.2020
3401 Clear 5 1014 35 0 2.42 213 10:59 31.01.2020
3402 Clear 5 1015 36 0 2.44 212 10:41 31.01.2020
3403 Clear 5 1014 35 0 2.42 213 10:21 31.01.2020
3404 Clear 5 1014 35 0 2.42 213 09:56 31.01.2020
3405 Clear 5 1014 35 0 2.42 213 09:38 31.01.2020
3406 Clear 5 1015 36 0 2.44 212 09:38 31.01.2020
3407 Clear 5 1014 35 0 2.42 213 09:18 31.01.2020
3408 Clear 5 1015 36 0 2.44 212 08:50 31.01.2020
3409 Clear 5 1015 36 0 2.44 212 08:25 31.01.2020
3410 Clear 5 1015 36 0 2.44 212 08:25 31.01.2020
3411 Clear 4 1019 28 0 2.18 197 07:52 31.01.2020
3412 Clear 4 1019 28 0 2.18 197 07:24 31.01.2020
3413 Clear 4 1019 28 0 2.18 197 06:43 31.01.2020
3414 Clear 4 1019 28 0 2.18 197 06:18 31.01.2020
3415 Clear 4 1019 28 0 2.18 197 05:43 31.01.2020
3416 Clear -1 1024 30 0 2.84 358 04:54 31.01.2020
3417 Clear -1 1024 30 0 2.84 358 02:58 31.01.2020
3418 Clear -3 1024 30 0 3.8 4 01:38 31.01.2020
3419 Clear -3 1024 29 0 3.86 3 00:45 31.01.2020
3420 Clear -3 1024 29 0 3.86 3 00:26 31.01.2020
3421 Clear -3 1024 29 0 3.86 3 23:53 30.01.2020
3422 Clear -3 1024 29 0 3.86 3 23:24 30.01.2020
3423 Clear -3 1026 36 0 3.66 5 22:56 30.01.2020
3424 Clear -3 1026 36 0 3.66 5 22:36 30.01.2020
3425 Clear -3 1026 36 0 3.66 5 22:18 30.01.2020
3426 Clear -3 1026 36 0 3.66 5 22:18 30.01.2020
3427 Clear -3 1026 36 0 3.66 5 21:55 30.01.2020
3428 Clear -3 1026 36 0 3.66 5 21:36 30.01.2020
3429 Clear -3 1026 36 0 3.66 5 21:18 30.01.2020
3430 Clear -3 1026 36 0 3.66 5 20:40 30.01.2020
3431 Clear -3 1026 43 0 3.35 6 20:21 30.01.2020
3432 Clear -3 1026 45 0 3.46 5 19:56 30.01.2020
3433 Clear -3 1026 45 0 3.46 5 19:38 30.01.2020
3434 Clear -3 1026 45 0 3.46 5 19:18 30.01.2020
3435 Clear -3 1026 45 0 3.46 5 18:41 30.01.2020
3436 Clear -3 1026 45 0 3.46 5 18:21 30.01.2020
3437 Clear -3 1026 45 0 3.46 5 17:56 30.01.2020
3438 Clear -3 1026 45 0 3.46 5 17:37 30.01.2020
3439 Clear -3 1027 48 0 3.52 16 17:18 30.01.2020
3440 Clear -3 1027 48 0 3.52 16 16:56 30.01.2020
3441 Clear -3 1027 48 0 3.52 16 16:38 30.01.2020
3442 Clear -3 1027 48 0 3.52 16 16:19 30.01.2020
3443 Clear -3 1027 48 0 3.52 16 15:43 30.01.2020
3444 Clear -3 1027 48 0 3.52 16 15:20 30.01.2020
3445 Clear -3 1027 48 0 3.52 16 14:50 30.01.2020
3446 Clear -3 1027 48 0 3.52 16 14:50 30.01.2020
3447 Clear -3 1027 48 0 3.52 16 14:27 30.01.2020
3448 Clouds 0 1021 81 0 0.69 229 13:57 30.01.2020
3449 Clouds 0 1021 81 0 0.69 229 13:38 30.01.2020
3450 Clouds 0 1021 83 0 0.86 230 13:19 30.01.2020
3451 Clouds 0 1021 83 0 0.86 230 12:43 30.01.2020
3452 Clouds 0 1021 83 0 0.86 230 12:24 30.01.2020
3453 Clouds 0 1021 83 0 0.86 230 11:58 30.01.2020
3454 Clouds 0 1021 83 0 0.86 230 11:40 30.01.2020
3455 Clear 4 1020 48 0 2.6 208 11:21 30.01.2020
3456 Clear 4 1020 48 0 2.6 208 10:42 30.01.2020
3457 Clear 4 1020 48 0 2.6 208 10:24 30.01.2020
3458 Clear 4 1020 48 0 2.6 208 09:56 30.01.2020
3459 Clear 4 1020 48 0 2.6 208 09:37 30.01.2020
3460 Clear 4 1020 48 0 2.6 208 09:19 30.01.2020
3461 Clear 4 1020 48 0 2.6 208 08:42 30.01.2020
3462 Clouds 3 1020 64 0 2.13 214 08:22 30.01.2020
3463 Clear 3 1024 52 0 1.53 230 07:52 30.01.2020
3464 Clear 3 1024 52 0 1.53 230 07:32 30.01.2020
3465 Clear 3 1024 52 0 1.53 230 06:47 30.01.2020
3466 Clear 3 1024 52 0 1.53 230 06:29 30.01.2020
3467 Clear 3 1024 52 0 1.53 230 05:47 30.01.2020
3468 Clear 3 1024 52 0 1.53 230 05:25 30.01.2020
3469 Clear -3 1029 63 0 2.7 2 04:23 30.01.2020
3470 Clear -3 1029 63 0 2.7 2 03:46 30.01.2020
3471 Clear -3 1029 63 0 2.7 2 02:52 30.01.2020
3472 Clear -5 1028 62 0 3.87 2 00:54 30.01.2020
3473 Clear -5 1028 62 0 3.87 2 00:23 30.01.2020
3474 Clear -5 1028 62 0 3.87 2 23:49 29.01.2020
3475 Clear -5 1028 62 0 3.87 2 23:23 29.01.2020
3476 Clear -5 1029 67 0 3.7 358 22:59 29.01.2020
3477 Clear -5 1029 67 0 3.7 358 22:59 29.01.2020
3478 Clear -5 1029 67 0 3.7 358 22:39 29.01.2020
3479 Clear -5 1029 67 0 3.7 358 22:19 29.01.2020
3480 Clear -5 1029 67 0 3.7 358 21:59 29.01.2020
3481 Clear -5 1029 67 0 3.7 358 21:40 29.01.2020
3482 Clear -5 1029 67 0 3.7 358 21:20 29.01.2020
3483 Clear -5 1029 67 0 3.7 358 20:59 29.01.2020
3484 Clear -5 1029 67 0 3.7 358 20:39 29.01.2020
3485 Clouds -5 1027 70 0 3.21 355 20:21 29.01.2020
3486 Clouds -5 1027 70 0 3.21 355 19:57 29.01.2020
3487 Clouds -5 1027 70 0 3.21 355 19:38 29.01.2020
3488 Clouds -5 1027 70 0 3.21 355 19:20 29.01.2020
3489 Clouds -5 1027 70 0 3.21 355 18:55 29.01.2020
3490 Clouds -5 1027 70 0 3.21 355 18:37 29.01.2020
3491 Clouds -5 1027 70 0 3.21 355 18:37 29.01.2020
3492 Clouds -5 1027 70 0 3.21 355 18:18 29.01.2020
3493 Clouds -5 1027 70 0 3.21 355 18:18 29.01.2020
3494 Clouds -5 1027 70 0 3.21 355 17:40 29.01.2020
3495 Clouds -5 1027 70 0 3.21 355 17:22 29.01.2020
3496 Clouds -5 1027 70 0 3.21 355 17:22 29.01.2020
3497 Clouds -4 1026 73 0 3.15 7 16:42 29.01.2020
3498 Clouds -4 1026 73 0 3.15 7 16:23 29.01.2020
3499 Clouds -4 1026 73 0 3.15 7 15:59 29.01.2020
3500 Clouds -4 1026 73 0 3.15 7 15:38 29.01.2020
3501 Clouds -4 1026 73 0 3.15 7 15:20 29.01.2020
3502 Clouds -4 1026 73 0 3.15 7 14:45 29.01.2020
3503 Clouds -4 1026 73 0 3.15 7 14:22 29.01.2020
3504 Clouds -1 1020 91 0 0.68 271 13:57 29.01.2020
3505 Clouds -1 1020 91 0 0.68 271 13:38 29.01.2020
3506 Clouds -1 1020 91 0 0.68 271 13:20 29.01.2020
3507 Clouds -1 1019 90 0 0.81 249 12:56 29.01.2020
3508 Clouds -1 1019 90 0 0.81 249 12:37 29.01.2020
3509 Clouds -1 1019 90 0 0.81 249 12:19 29.01.2020
3510 Clouds -1 1019 90 0 0.81 249 11:45 29.01.2020
3511 Clouds -1 1019 90 0 0.81 249 11:22 29.01.2020
3512 Clouds 3 1017 67 0 0.65 184 10:47 29.01.2020
3513 Clouds 3 1017 67 0 0.65 184 10:27 29.01.2020
3514 Clouds 3 1017 67 0 0.65 184 09:59 29.01.2020
3515 Clouds 3 1017 67 0 0.65 184 09:40 29.01.2020
3516 Clouds 3 1017 67 0 0.65 184 09:20 29.01.2020
3517 Clouds 3 1017 67 0 0.65 184 08:56 29.01.2020
3518 Clouds 3 1017 67 0 0.65 184 08:56 29.01.2020
3519 Clouds 3 1017 67 0 0.65 184 08:38 29.01.2020
3520 Clouds 3 1017 67 0 0.65 184 08:38 29.01.2020
3521 Snow 0 1019 92 0 1.38 262 08:18 29.01.2020
3522 Snow 0 1019 92 0 1.38 262 07:43 29.01.2020
3523 Snow 0 1019 92 0 1.38 262 07:23 29.01.2020
3524 Snow 0 1019 92 0 1.38 262 07:23 29.01.2020
3525 Snow 0 1019 92 0 1.38 262 06:39 29.01.2020
3526 Snow 0 1019 92 0 1.38 262 06:21 29.01.2020
3527 Snow 0 1019 92 0 1.38 262 05:55 29.01.2020
3528 Snow 0 1019 92 0 1.38 262 05:36 29.01.2020
3529 Snow -1 1021 98 0 2.05 248 04:49 29.01.2020
3530 Snow -1 1021 98 0 2.05 248 04:25 29.01.2020
3531 Snow -1 1021 98 0 2.05 248 02:41 29.01.2020
3532 Snow -2 1018 97 0 1.55 305 01:44 29.01.2020
3533 Snow -2 1018 98 0 1.22 333 00:41 29.01.2020
3534 Snow -2 1018 98 0 1.22 333 00:23 29.01.2020
3535 Snow -2 1018 98 0 1.22 333 23:44 28.01.2020
3536 Snow -1 1018 98 0 1.4 14 23:21 28.01.2020
3537 Snow -1 1018 98 0 1.4 14 22:57 28.01.2020
3538 Snow -1 1018 98 0 1.4 14 22:39 28.01.2020
3539 Snow -1 1018 98 0 1.4 14 22:20 28.01.2020
3540 Snow -1 1018 98 0 1.4 14 21:42 28.01.2020
3541 Snow -1 1018 98 0 1.4 14 21:22 28.01.2020
3542 Snow -1 1018 98 0 1.4 14 20:57 28.01.2020
3543 Snow -1 1018 98 0 1.4 14 20:39 28.01.2020
3544 Snow -1 1018 98 0 1.4 14 20:39 28.01.2020
3545 Snow 0 1016 90 0 1.67 6 20:21 28.01.2020
3546 Snow 0 1016 90 0 1.67 6 19:39 28.01.2020
3547 Snow 0 1016 90 0 1.67 6 19:20 28.01.2020
3548 Snow 0 1016 90 0 1.67 6 18:58 28.01.2020
3549 Snow 0 1016 90 0 1.67 6 18:58 28.01.2020
3550 Snow 0 1016 90 0 1.67 6 18:39 28.01.2020
3551 Snow 0 1016 90 0 1.67 6 18:21 28.01.2020
3552 Snow 0 1016 90 0 1.67 6 17:57 28.01.2020
3553 Snow 0 1016 90 0 1.67 6 17:37 28.01.2020
3554 Snow 0 1016 94 0 2.42 331 17:19 28.01.2020
3555 Snow 0 1016 94 0 2.42 331 16:54 28.01.2020
3556 Snow 0 1016 94 0 2.42 331 16:36 28.01.2020
3557 Snow 0 1016 94 0 2.42 331 16:18 28.01.2020
3558 Snow 0 1016 94 0 2.42 331 15:41 28.01.2020
3559 Snow 0 1016 94 0 2.42 331 15:19 28.01.2020
3560 Snow 0 1016 94 0 2.42 331 14:46 28.01.2020
3561 Snow 2 1012 86 0 1.71 9 14:20 28.01.2020
3562 Snow 2 1012 86 0 1.71 9 13:58 28.01.2020
3563 Snow 2 1012 86 0 1.71 9 13:39 28.01.2020
3564 Snow 2 1012 86 0 1.71 9 13:39 28.01.2020
3565 Snow 1 1012 95 0 0.52 88 13:20 28.01.2020
3566 Snow 1 1012 95 0 0.52 88 12:42 28.01.2020
3567 Snow 1 1012 95 0 0.52 88 12:23 28.01.2020
3568 Snow 1 1012 95 0 0.52 88 11:48 28.01.2020
3569 Snow 1 1012 95 0 0.52 88 11:23 28.01.2020
3570 Snow 1 1012 91 0 1.01 244 10:59 28.01.2020
3571 Snow 1 1012 91 0 1.01 244 10:40 28.01.2020
3572 Snow 1 1012 91 0 1.01 244 10:20 28.01.2020
3573 Snow 1 1012 91 0 1.01 244 09:43 28.01.2020
3574 Snow 1 1012 91 0 1.01 244 09:21 28.01.2020
3575 Snow 1 1012 91 0 1.01 244 08:58 28.01.2020
3576 Snow 1 1012 91 0 1.01 244 08:39 28.01.2020
3577 Snow 1 1016 73 0 3.09 171 08:19 28.01.2020
3578 Snow 1 1016 73 0 3.09 171 07:37 28.01.2020
3579 Snow 1 1016 73 0 3.09 171 06:51 28.01.2020
3580 Snow 1 1016 73 0 3.09 171 06:28 28.01.2020
3581 Snow 1 1016 73 0 3.09 171 05:55 28.01.2020
3582 Snow 1 1016 73 0 3.09 171 05:33 28.01.2020
3583 Clouds 1 1019 66 0 1.69 52 04:38 28.01.2020
3584 Clouds 1 1019 66 0 1.69 52 03:33 28.01.2020
3585 Clouds 1 1019 66 0 1.69 52 02:25 28.01.2020
3586 Clouds 1 1019 66 0 1.69 52 02:25 28.01.2020
3587 Snow 0 1017 67 0 1.54 15 01:58 28.01.2020
3588 Snow 0 1017 67 0 1.54 15 01:40 28.01.2020
3589 Clouds 0 1017 62 0 2.25 4 00:51 28.01.2020
3590 Clouds 0 1017 62 0 2.25 4 00:29 28.01.2020
3591 Clouds 0 1017 62 0 2.25 4 23:53 27.01.2020
3592 Clouds 0 1017 62 0 2.25 4 23:30 27.01.2020
3593 Snow 0 1018 75 0 3.67 28 22:59 27.01.2020
3594 Snow 0 1018 75 0 3.67 28 22:41 27.01.2020
3595 Snow 0 1018 75 0 3.67 28 22:20 27.01.2020
3596 Snow 0 1018 75 0 3.67 28 21:57 27.01.2020
3597 Snow 0 1018 75 0 3.67 28 21:38 27.01.2020
3598 Snow 0 1018 75 0 3.67 28 21:18 27.01.2020
3599 Snow 0 1018 75 0 3.67 28 21:18 27.01.2020
3600 Snow 0 1018 75 0 3.67 28 20:55 27.01.2020
3601 Snow 0 1018 75 0 3.67 28 20:37 27.01.2020
3602 Snow 0 1019 67 0 3.38 19 20:18 27.01.2020
3603 Snow 0 1019 67 0 3.38 19 19:41 27.01.2020
3604 Snow 0 1019 67 0 3.38 19 19:23 27.01.2020
3605 Snow 0 1019 67 0 3.38 19 18:57 27.01.2020
3606 Snow 0 1019 67 0 3.38 19 18:39 27.01.2020
3607 Snow 0 1019 67 0 3.38 19 18:39 27.01.2020
3608 Snow 0 1019 67 0 3.38 19 18:20 27.01.2020
3609 Snow 0 1019 67 0 3.38 19 17:55 27.01.2020
3610 Snow 0 1019 67 0 3.38 19 17:37 27.01.2020
3611 Snow 0 1019 67 0 3.38 19 17:37 27.01.2020
3612 Snow 1 1018 69 0 2.55 26 17:18 27.01.2020
3613 Snow 1 1018 69 0 2.55 26 16:42 27.01.2020
3614 Snow 1 1018 69 0 2.55 26 16:24 27.01.2020
3615 Snow 1 1018 69 0 2.55 26 16:24 27.01.2020
3616 Snow 1 1018 69 0 2.55 26 15:55 27.01.2020
3617 Snow 1 1018 69 0 2.55 26 15:37 27.01.2020
3618 Snow 1 1018 69 0 2.55 26 15:19 27.01.2020
3619 Snow 1 1018 69 0 2.55 26 14:55 27.01.2020
3620 Snow 1 1018 69 0 2.55 26 14:36 27.01.2020
3621 Clouds 2 1015 71 0 1.12 257 14:18 27.01.2020
3622 Clouds 2 1015 71 0 1.12 257 13:42 27.01.2020
3623 Clouds 2 1015 71 0 1.12 257 13:21 27.01.2020
3624 Clouds 2 1015 71 0 1.12 257 13:21 27.01.2020
3625 Clouds 2 1015 70 0 0.94 265 12:56 27.01.2020
3626 Clouds 2 1015 70 0 0.94 265 12:37 27.01.2020
3627 Clouds 2 1015 70 0 0.94 265 12:19 27.01.2020
3628 Clouds 2 1015 70 0 0.94 265 12:19 27.01.2020
3629 Clouds 2 1015 70 0 0.94 265 11:42 27.01.2020
3630 Clouds 2 1015 70 0 0.94 265 11:42 27.01.2020
3631 Clouds 6 1015 37 0 2.9 220 11:21 27.01.2020
3632 Clouds 6 1015 37 0 2.9 220 11:21 27.01.2020
3633 Clouds 6 1015 37 0 2.9 220 10:55 27.01.2020
3634 Clouds 6 1015 37 0 2.9 220 10:36 27.01.2020
3635 Clouds 6 1015 37 0 2.9 220 10:18 27.01.2020
3636 Clouds 6 1015 37 0 2.9 220 09:39 27.01.2020
3637 Clouds 6 1015 37 0 2.9 220 09:19 27.01.2020
3638 Clouds 6 1015 37 0 2.9 220 08:47 27.01.2020
3639 Clouds 5 1015 35 0 2.62 214 08:23 27.01.2020
3640 Clouds 6 1018 27 0 2.11 197 07:55 27.01.2020
3641 Clouds 6 1018 27 0 2.11 197 07:36 27.01.2020
3642 Clouds 6 1018 27 0 2.11 197 07:18 27.01.2020
3643 Clouds 6 1018 27 0 2.11 197 06:32 27.01.2020
3644 Clouds 6 1018 27 0 2.11 197 05:37 27.01.2020
3645 Clouds 0 1023 38 0 2.47 350 04:20 27.01.2020
3646 Clouds 0 1023 38 0 2.47 350 03:27 27.01.2020
3647 Clear -2 1022 40 0 3.58 1 01:42 27.01.2020
3648 Clear -2 1022 39 0 3.61 7 01:22 27.01.2020
3649 Clear -2 1022 39 0 3.61 7 00:40 27.01.2020
3650 Clear -2 1022 39 0 3.61 7 00:19 27.01.2020
3651 Clear -2 1022 39 0 3.61 7 23:42 26.01.2020
3652 Clear -2 1022 46 0 3.18 9 23:20 26.01.2020
3653 Clear -2 1022 46 0 3.18 9 22:57 26.01.2020
3654 Clear -2 1022 46 0 3.18 9 22:37 26.01.2020
3655 Clear -2 1022 46 0 3.18 9 22:19 26.01.2020
3656 Clear -2 1022 46 0 3.18 9 22:19 26.01.2020
3657 Clear -2 1022 46 0 3.18 9 21:57 26.01.2020
3658 Clear -2 1022 46 0 3.18 9 21:38 26.01.2020
3659 Clear -2 1022 46 0 3.18 9 21:20 26.01.2020
3660 Clear -2 1022 46 0 3.18 9 20:57 26.01.2020
3661 Clear -2 1022 46 0 3.18 9 20:38 26.01.2020
3662 Clear -1 1023 46 0 3.67 17 20:18 26.01.2020
3663 Clear -1 1023 46 0 3.67 17 19:57 26.01.2020
3664 Clear -1 1023 46 0 3.67 17 19:38 26.01.2020
3665 Clear -1 1023 46 0 3.67 17 19:18 26.01.2020
3666 Clear -1 1023 46 0 3.67 17 18:54 26.01.2020
3667 Clear -1 1023 46 0 3.67 17 18:54 26.01.2020
3668 Clear -1 1023 46 0 3.67 17 18:36 26.01.2020
3669 Clear -1 1023 46 0 3.67 17 18:18 26.01.2020
3670 Clear -1 1023 46 0 3.67 17 18:18 26.01.2020
3671 Clear -1 1023 46 0 3.67 17 17:55 26.01.2020
3672 Clear -1 1023 46 0 3.67 17 17:36 26.01.2020
3673 Clouds 0 1022 64 0 3.42 22 17:18 26.01.2020
3674 Clouds 0 1022 64 0 3.42 22 16:55 26.01.2020
3675 Clouds 0 1022 64 0 3.42 22 16:37 26.01.2020
3676 Clouds 0 1022 64 0 3.42 22 16:18 26.01.2020
3677 Clouds 0 1022 64 0 3.42 22 15:42 26.01.2020
3678 Clouds 0 1022 64 0 3.42 22 15:19 26.01.2020
3679 Clouds 0 1022 64 0 3.42 22 14:55 26.01.2020
3680 Clouds 0 1022 64 0 3.42 22 14:37 26.01.2020
3681 Snow 2 1017 82 0 0.86 246 14:18 26.01.2020
3682 Snow 2 1017 82 0 0.86 246 13:39 26.01.2020
3683 Snow 2 1017 82 0 0.86 246 13:18 26.01.2020
3684 Snow 2 1017 83 0 0.78 259 12:54 26.01.2020
3685 Snow 2 1017 83 0 0.78 259 12:36 26.01.2020
3686 Snow 2 1017 83 0 0.78 259 12:18 26.01.2020
3687 Snow 2 1017 83 0 0.78 259 11:56 26.01.2020
3688 Snow 2 1017 83 0 0.78 259 11:36 26.01.2020
3689 Snow 6 1015 63 0 2.67 210 11:18 26.01.2020
3690 Snow 6 1015 63 0 2.67 210 10:39 26.01.2020
3691 Snow 6 1015 63 0 2.67 210 10:21 26.01.2020
3692 Snow 6 1015 63 0 2.67 210 09:59 26.01.2020
3693 Snow 6 1015 63 0 2.67 210 09:41 26.01.2020
3694 Snow 6 1015 63 0 2.67 210 09:22 26.01.2020
3695 Snow 6 1015 63 0 2.67 210 08:55 26.01.2020
3696 Snow 6 1015 63 0 2.67 210 08:37 26.01.2020
3697 Clear 6 1019 51 0 2.21 205 08:18 26.01.2020
3698 Clear 6 1019 51 0 2.21 205 07:45 26.01.2020
3699 Clear 6 1019 51 0 2.21 205 07:22 26.01.2020
3700 Clear 6 1019 51 0 2.21 205 06:32 26.01.2020
3701 Clear 6 1019 51 0 2.21 205 05:37 26.01.2020
3702 Clouds 1 1023 62 0 2.36 13 04:58 26.01.2020
3703 Clouds 1 1023 62 0 2.36 13 03:22 26.01.2020
3704 Clouds -1 1021 74 0 2.67 16 01:59 26.01.2020
3705 Clouds -1 1021 74 0 2.67 16 01:39 26.01.2020
3706 Snow -1 1021 81 0 1.82 14 01:19 26.01.2020
3707 Snow -1 1021 81 0 1.82 14 00:39 26.01.2020
3708 Snow -1 1021 81 0 1.82 14 00:20 26.01.2020
3709 Snow -1 1021 81 0 1.82 14 23:38 25.01.2020
3710 Snow 0 1020 94 0 1.37 46 23:20 25.01.2020
3711 Snow 0 1020 94 0 1.37 46 22:43 25.01.2020
3712 Snow 0 1020 94 0 1.37 46 22:21 25.01.2020
3713 Snow 0 1020 94 0 1.37 46 21:59 25.01.2020
3714 Snow 0 1020 94 0 1.37 46 21:41 25.01.2020
3715 Snow 0 1020 94 0 1.37 46 21:22 25.01.2020
3716 Snow 0 1020 94 0 1.37 46 20:54 25.01.2020
3717 Snow 0 1020 94 0 1.37 46 20:36 25.01.2020
3718 Snow 1 1020 94 0 1.35 70 20:18 25.01.2020
3719 Snow 1 1020 94 0 1.2 51 19:41 25.01.2020
3720 Snow 1 1020 94 0 1.2 51 19:19 25.01.2020
3721 Snow 1 1020 94 0 1.2 51 18:56 25.01.2020
3722 Snow 1 1020 94 0 1.2 51 18:38 25.01.2020
3723 Snow 1 1020 94 0 1.2 51 18:20 25.01.2020
3724 Snow 1 1020 94 0 1.35 70 18:20 25.01.2020
3725 Snow 1 1020 94 0 1.2 51 17:40 25.01.2020
3726 Clouds 0 1019 79 0 1.56 32 17:19 25.01.2020
3727 Clouds 0 1019 79 0 1.56 32 16:57 25.01.2020
3728 Clouds 0 1019 79 0 1.56 32 16:38 25.01.2020
3729 Clouds 0 1019 79 0 1.56 32 16:19 25.01.2020
3730 Clouds 0 1019 79 0 1.56 32 15:46 25.01.2020
3731 Clouds 0 1019 79 0 1.56 32 15:25 25.01.2020
3732 Clouds 0 1019 79 0 1.56 32 14:57 25.01.2020
3733 Clouds 0 1019 79 0 1.56 32 14:39 25.01.2020
3734 Snow 3 1016 72 0 1.2 68 14:18 25.01.2020
3735 Snow 3 1016 72 0 1.2 68 13:41 25.01.2020
3736 Snow 3 1016 72 0 1.2 68 13:22 25.01.2020
3737 Snow 3 1016 72 0 1.2 68 13:22 25.01.2020
3738 Snow 2 1016 73 0 1.67 29 12:45 25.01.2020
3739 Snow 2 1016 73 0 1.67 29 12:25 25.01.2020
3740 Snow 2 1016 73 0 1.67 29 11:45 25.01.2020
3741 Snow 2 1016 73 0 1.67 29 11:22 25.01.2020
3742 Snow 2 1016 73 0 1.67 29 11:22 25.01.2020
3743 Snow 2 1016 73 0 1.67 29 11:22 25.01.2020
3744 Snow 6 1016 54 0 1.14 205 10:58 25.01.2020
3745 Snow 6 1016 54 0 1.14 205 10:40 25.01.2020
3746 Snow 6 1016 54 0 1.14 205 10:20 25.01.2020
3747 Snow 6 1016 54 0 1.14 205 09:41 25.01.2020
3748 Snow 6 1016 54 0 1.14 205 09:22 25.01.2020
3749 Snow 6 1016 54 0 1.14 205 08:44 25.01.2020
3750 Snow 6 1016 54 0 1.14 205 08:26 25.01.2020
3751 Snow 4 1019 64 0 2.61 8 07:50 25.01.2020
3752 Snow 4 1019 64 0 2.61 8 06:53 25.01.2020
3753 Snow 4 1019 64 0 2.61 8 06:28 25.01.2020
3754 Snow 4 1019 64 0 2.61 8 05:48 25.01.2020
3755 Clouds 4 1022 45 0 2.1 12 05:18 25.01.2020
3756 Clouds 4 1022 45 0 2.1 12 03:52 25.01.2020
3757 Clouds 4 1022 45 0 2.1 12 03:22 25.01.2020
3758 Clouds 4 1022 45 0 2.1 12 02:22 25.01.2020
3759 Clouds 2 1020 40 0 2.99 10 01:52 25.01.2020
3760 Clouds 1 1020 40 0 2.73 342 00:44 25.01.2020
3761 Clouds 1 1020 40 0 2.73 342 00:26 25.01.2020
3762 Clouds 1 1020 40 0 2.73 342 23:59 24.01.2020
3763 Clouds 1 1020 40 0 2.73 342 23:40 24.01.2020
3764 Clouds 1 1020 40 0 2.73 342 23:22 24.01.2020
3765 Clouds 2 1021 39 0 2.69 347 22:45 24.01.2020
3766 Clouds 2 1021 39 0 2.69 347 22:25 24.01.2020
3767 Clouds 2 1021 39 0 2.69 347 21:56 24.01.2020
3768 Clouds 2 1021 39 0 2.69 347 21:38 24.01.2020
3769 Clouds 2 1021 39 0 2.69 347 21:18 24.01.2020
3770 Clouds 2 1021 39 0 2.69 347 20:42 24.01.2020
3771 Clouds 3 1021 43 0 3.24 1 20:21 24.01.2020
3772 Clouds 3 1021 43 0 3.24 1 19:57 24.01.2020
3773 Clouds 3 1021 43 0 3.24 1 19:39 24.01.2020
3774 Clouds 3 1021 43 0 3.24 1 19:21 24.01.2020
3775 Clouds 3 1021 43 0 3.24 1 18:43 24.01.2020
3776 Clouds 3 1021 43 0 3.24 1 18:25 24.01.2020
3777 Clouds 3 1021 43 0 3.24 1 17:56 24.01.2020
3778 Clouds 3 1021 43 0 3.24 1 17:56 24.01.2020
3779 Clouds 3 1021 43 0 3.24 1 17:38 24.01.2020
3780 Clouds 3 1021 48 0 3.15 12 17:20 24.01.2020
3781 Clouds 3 1021 48 0 3.15 12 16:39 24.01.2020
3782 Clouds 3 1021 48 0 3.15 12 16:21 24.01.2020
3783 Clouds 3 1021 48 0 3.15 12 15:56 24.01.2020
3784 Clouds 3 1021 48 0 3.15 12 15:38 24.01.2020
3785 Clouds 3 1021 48 0 3.15 12 15:19 24.01.2020
3786 Clouds 3 1021 48 0 3.15 12 14:41 24.01.2020
3787 Clouds 3 1021 48 0 3.15 12 14:22 24.01.2020
3788 Clouds 4 1017 57 0 1.16 14 13:45 24.01.2020
3789 Clouds 4 1017 56 0 1.3 25 13:24 24.01.2020
3790 Clouds 4 1017 56 0 1.3 25 12:55 24.01.2020
3791 Clouds 4 1017 56 0 1.3 25 12:36 24.01.2020
3792 Clouds 4 1017 56 0 1.3 25 12:18 24.01.2020
3793 Clouds 4 1017 56 0 1.3 25 11:42 24.01.2020
3794 Clear 9 1016 34 0 1.96 190 11:19 24.01.2020
3795 Clear 9 1016 34 0 1.96 190 10:43 24.01.2020
3796 Clear 9 1016 34 0 1.96 190 10:22 24.01.2020
3797 Clear 9 1016 34 0 1.96 190 09:56 24.01.2020
3798 Clear 9 1016 34 0 1.96 190 09:38 24.01.2020
3799 Clear 9 1016 34 0 1.96 190 09:20 24.01.2020
3800 Clear 9 1016 34 0 1.96 190 08:40 24.01.2020
3801 Clear 8 1021 27 0 1.22 231 08:19 24.01.2020
3802 Clear 8 1021 27 0 1.22 231 07:50 24.01.2020
3803 Clear 8 1021 27 0 1.22 231 07:28 24.01.2020
3804 Clear 8 1021 27 0 1.22 231 06:48 24.01.2020
3805 Clear 8 1021 27 0 1.22 231 06:28 24.01.2020
3806 Clear 8 1021 27 0 1.22 231 05:58 24.01.2020
3807 Clear 2 1026 27 0 2.95 358 04:54 24.01.2020
3808 Clear 2 1026 27 0 2.95 358 02:53 24.01.2020
3809 Clear 2 1026 27 0 2.95 358 02:24 24.01.2020
3810 Clear -1 1026 22 0 3.47 355 01:42 24.01.2020
3811 Clear -1 1026 22 0 3.47 355 01:24 24.01.2020
3812 Clear -1 1026 22 0 3.44 355 00:23 24.01.2020
3813 Clear -1 1026 22 0 3.44 355 23:49 23.01.2020
3814 Clear -1 1026 22 0 3.44 355 23:31 23.01.2020
3815 Clear -1 1027 26 0 3.94 3 22:59 23.01.2020
3816 Clear -1 1027 26 0 3.94 3 22:38 23.01.2020
3817 Clear -1 1027 26 0 3.94 3 22:19 23.01.2020
3818 Clear -1 1027 26 0 3.94 3 21:57 23.01.2020
3819 Clear -1 1027 26 0 3.94 3 21:39 23.01.2020
3820 Clear -1 1027 26 0 3.94 3 21:20 23.01.2020
3821 Clear -1 1027 26 0 3.94 3 20:58 23.01.2020
3822 Clear -1 1027 26 0 3.94 3 20:38 23.01.2020
3823 Clear -2 1028 29 0 2.94 1 20:19 23.01.2020
3824 Clear -2 1028 28 0 2.9 10 19:56 23.01.2020
3825 Clear -2 1028 28 0 2.9 10 19:38 23.01.2020
3826 Clear -2 1028 28 0 2.9 10 19:19 23.01.2020
3827 Clear -2 1028 28 0 2.9 10 18:42 23.01.2020
3828 Clear -2 1028 28 0 2.9 10 18:21 23.01.2020
3829 Clear -2 1028 28 0 2.9 10 17:58 23.01.2020
3830 Clear -2 1028 28 0 2.9 10 17:40 23.01.2020
3831 Clear -2 1028 40 0 4.13 19 17:20 23.01.2020
3832 Clear -2 1028 40 0 4.13 19 16:56 23.01.2020
3833 Clear -2 1028 40 0 4.13 19 16:36 23.01.2020
3834 Clear -2 1028 40 0 4.13 19 16:18 23.01.2020
3835 Clear -2 1028 40 0 4.13 19 15:54 23.01.2020
3836 Clear -2 1028 40 0 4.13 19 15:36 23.01.2020
3837 Clear -2 1028 40 0 4.13 19 15:18 23.01.2020
3838 Clear -2 1028 40 0 4.13 19 15:18 23.01.2020
3839 Clear -2 1028 40 0 4.13 19 14:54 23.01.2020
3840 Clear -2 1028 40 0 4.13 19 14:36 23.01.2020
3841 Clear 0 1023 68 0 1.27 37 14:18 23.01.2020
3842 Clear 0 1023 68 0 1.27 37 13:39 23.01.2020
3843 Clear 0 1023 67 0 0.97 35 13:20 23.01.2020
3844 Clear 0 1022 66 0 1.15 22 12:47 23.01.2020
3845 Clear 0 1023 67 0 0.97 35 12:25 23.01.2020
3846 Clear 0 1022 66 0 1.15 22 11:59 23.01.2020
3847 Clear 0 1022 66 0 1.15 22 11:39 23.01.2020
3848 Clear 5 1020 40 0 2.5 211 11:19 23.01.2020
3849 Clear 5 1020 41 0 2.58 209 10:45 23.01.2020
3850 Clear 5 1020 41 0 2.58 209 10:23 23.01.2020
3851 Clear 5 1020 40 0 2.5 211 09:59 23.01.2020
3852 Clear 5 1020 41 0 2.58 209 09:39 23.01.2020
3853 Clear 5 1020 40 0 2.5 211 09:20 23.01.2020
3854 Clear 5 1020 41 0 2.58 209 08:43 23.01.2020
3855 Clear 5 1020 40 0 2.5 211 08:24 23.01.2020
3856 Clear 5 1024 30 0 1.29 213 07:49 23.01.2020
3857 Clear 5 1024 30 0 1.29 213 07:27 23.01.2020
3858 Clear 5 1024 30 0 1.29 213 06:54 23.01.2020
3859 Clear 5 1024 30 0 1.29 213 06:24 23.01.2020
3860 Clear 5 1024 30 0 1.29 213 05:58 23.01.2020
3861 Clear -1 1030 42 0 2.19 11 04:24 23.01.2020
3862 Clear -1 1030 42 0 2.19 11 02:45 23.01.2020
3863 Clear -3 1028 47 0 3.27 6 01:50 23.01.2020
3864 Clear -3 1028 47 0 3.19 8 00:29 23.01.2020
3865 Clear -3 1028 47 0 3.19 8 23:57 22.01.2020
3866 Clear -3 1028 47 0 3.19 8 23:39 22.01.2020
3867 Clear -3 1029 52 0 3.25 8 23:20 22.01.2020
3868 Clear -3 1029 52 0 3.25 8 22:42 22.01.2020
3869 Clear -3 1029 52 0 3.25 8 22:23 22.01.2020
3870 Clear -3 1029 52 0 3.25 8 21:58 22.01.2020
3871 Clear -3 1029 52 0 3.25 8 21:36 22.01.2020
3872 Clear -3 1029 52 0 3.25 8 21:18 22.01.2020
3873 Clear -3 1029 52 0 3.25 8 20:41 22.01.2020
3874 Clear -3 1029 51 0 3.25 6 20:23 22.01.2020
3875 Clear -2 1029 55 0 3.63 11 19:58 22.01.2020
3876 Clear -2 1029 55 0 3.63 11 19:58 22.01.2020
3877 Clear -2 1029 55 0 3.63 11 19:40 22.01.2020
3878 Clear -2 1029 55 0 3.63 11 19:20 22.01.2020
3879 Clear -2 1029 55 0 3.63 11 18:58 22.01.2020
3880 Clear -2 1029 55 0 3.63 11 18:39 22.01.2020
3881 Clear -2 1029 55 0 3.63 11 18:20 22.01.2020
3882 Clear -2 1029 55 0 3.63 11 17:56 22.01.2020
3883 Clear -2 1029 55 0 3.63 11 17:38 22.01.2020
3884 Clear -2 1028 61 0 3.63 15 17:19 22.01.2020
3885 Clear -2 1028 61 0 3.63 15 16:54 22.01.2020
3886 Clear -2 1028 61 0 3.63 15 16:36 22.01.2020
3887 Clear -2 1028 61 0 3.63 15 16:18 22.01.2020
3888 Clear -2 1028 61 0 3.63 15 15:41 22.01.2020
3889 Clear -2 1028 61 0 3.63 15 15:23 22.01.2020
3890 Clear -2 1028 61 0 3.63 15 14:58 22.01.2020
3891 Clear -2 1028 61 0 3.63 15 14:37 22.01.2020
3892 Snow 0 1023 79 0 0.95 300 14:19 22.01.2020
3893 Snow 0 1023 79 0 0.95 300 13:56 22.01.2020
3894 Snow 0 1023 79 0 0.95 300 13:37 22.01.2020
3895 Snow 0 1023 79 0 0.7 275 13:19 22.01.2020
3896 Snow 0 1023 79 0 0.7 275 12:56 22.01.2020
3897 Snow 0 1023 79 0 0.7 275 12:38 22.01.2020
3898 Snow 0 1023 79 0 0.7 275 12:18 22.01.2020
3899 Snow 0 1023 79 0 0.7 275 11:56 22.01.2020
3900 Snow 0 1023 79 0 0.7 275 11:38 22.01.2020
3901 Snow 4 1021 55 0 2.36 213 11:19 22.01.2020
3902 Snow 4 1021 55 0 2.36 213 10:45 22.01.2020
3903 Snow 4 1021 55 0 2.36 213 10:21 22.01.2020
3904 Snow 4 1021 55 0 2.36 213 09:57 22.01.2020
3905 Snow 4 1021 55 0 2.36 213 09:39 22.01.2020
3906 Snow 4 1021 55 0 2.36 213 09:20 22.01.2020
3907 Snow 4 1021 55 0 2.36 213 08:54 22.01.2020
3908 Snow 4 1021 55 0 2.36 213 08:36 22.01.2020
3909 Clouds 2 1026 76 0 0.81 186 08:18 22.01.2020
3910 Clouds 2 1026 76 0 0.81 186 07:40 22.01.2020
3911 Clouds 2 1026 76 0 0.81 186 07:21 22.01.2020
3912 Clouds 2 1026 76 0 0.81 186 07:21 22.01.2020
3913 Clouds 2 1026 76 0 0.81 186 06:33 22.01.2020
3914 Clouds 2 1026 76 0 0.81 186 05:42 22.01.2020
3915 Clouds -2 1031 76 0 3.36 11 04:25 22.01.2020
3916 Clouds -2 1031 76 0 3.36 11 03:26 22.01.2020
3917 Clouds -2 1031 76 0 3.36 11 02:39 22.01.2020
3918 Clouds -4 1028 79 0 3.71 17 00:47 22.01.2020
3919 Clouds -4 1028 79 0 3.71 17 00:47 22.01.2020
3920 Clouds -4 1028 79 0 3.71 17 00:27 22.01.2020
3921 Clouds -4 1028 79 0 3.71 17 23:55 21.01.2020
3922 Clouds -4 1028 79 0 3.71 17 23:37 21.01.2020
3923 Snow -3 1028 84 0 3.02 14 23:18 21.01.2020
3924 Snow -3 1028 84 0 3.02 14 22:40 21.01.2020
3925 Snow -3 1028 84 0 3.02 14 22:21 21.01.2020
3926 Snow -3 1028 84 0 3.02 14 21:58 21.01.2020
3927 Snow -3 1028 84 0 3.02 14 21:38 21.01.2020
3928 Snow -3 1028 84 0 3.02 14 21:20 21.01.2020
3929 Snow -3 1028 84 0 3.02 14 20:57 21.01.2020
3930 Snow -3 1028 84 0 3.02 14 20:38 21.01.2020
3931 Snow -1 1026 96 0 0.83 328 20:20 21.01.2020
3932 Snow -1 1026 96 0 0.83 328 19:57 21.01.2020
3933 Snow -1 1026 96 0 0.83 328 19:39 21.01.2020
3934 Snow -1 1026 96 0 0.83 328 19:20 21.01.2020
3935 Snow -1 1026 96 0 0.83 328 19:20 21.01.2020
3936 Snow -1 1026 96 0 0.83 328 18:55 21.01.2020
3937 Snow -1 1026 96 0 0.83 328 18:37 21.01.2020
3938 Snow -1 1026 96 0 0.83 328 18:18 21.01.2020
3939 Snow -1 1026 96 0 0.83 328 17:45 21.01.2020
3940 Snow -2 1024 94 0 1.14 344 17:20 21.01.2020
3941 Snow -2 1024 94 0 1.14 344 16:59 21.01.2020
3942 Snow -2 1024 94 0 1.14 344 16:37 21.01.2020
3943 Snow -2 1024 94 0 1.14 344 16:19 21.01.2020
3944 Snow -2 1024 94 0 1.14 344 15:56 21.01.2020
3945 Snow -2 1024 94 0 1.14 344 15:37 21.01.2020
3946 Snow -2 1024 94 0 1.14 344 15:18 21.01.2020
3947 Snow -2 1024 94 0 1.14 344 14:38 21.01.2020
3948 Snow -2 1019 97 0 1.57 296 14:20 21.01.2020
3949 Snow -2 1019 97 0 1.57 296 13:41 21.01.2020
3950 Snow -2 1019 98 0 1.3 257 13:19 21.01.2020
3951 Snow -2 1019 98 0 1.3 257 12:56 21.01.2020
3952 Snow -2 1019 98 0 1.3 257 12:38 21.01.2020
3953 Snow -2 1019 98 0 1.3 257 12:19 21.01.2020
3954 Snow -2 1019 98 0 1.3 257 11:40 21.01.2020
3955 Snow -1 1017 96 0 1.1 243 11:21 21.01.2020
3956 Snow -1 1017 96 0 1.1 243 10:59 21.01.2020
3957 Snow -1 1017 96 0 1.1 243 10:40 21.01.2020
3958 Snow -1 1017 96 0 1.1 243 10:21 21.01.2020
3959 Snow -1 1017 96 0 1.1 243 09:42 21.01.2020
3960 Snow -1 1017 96 0 1.1 243 09:23 21.01.2020
3961 Snow -1 1017 96 0 1.1 243 08:56 21.01.2020
3962 Snow -1 1017 96 0 1.1 243 08:38 21.01.2020
3963 Snow 0 1020 95 0 1.31 207 08:19 21.01.2020
3964 Snow 0 1020 95 0 1.31 207 07:41 21.01.2020
3965 Snow 0 1020 95 0 1.31 207 07:22 21.01.2020
3966 Snow 0 1020 95 0 1.31 207 06:55 21.01.2020
3967 Snow 0 1020 95 0 1.31 207 06:37 21.01.2020
3968 Snow 0 1020 95 0 1.31 207 05:50 21.01.2020
3969 Snow -2 1022 97 0 0.73 188 04:41 21.01.2020
3970 Snow -2 1022 97 0 0.73 188 03:40 21.01.2020
3971 Snow -2 1022 97 0 0.73 188 02:26 21.01.2020
3972 Snow -2 1021 98 0 0.8 200 01:31 21.01.2020
3973 Snow -2 1021 98 0 0.8 200 00:41 21.01.2020
3974 Snow -2 1021 98 0 0.8 200 00:21 21.01.2020
3975 Snow -2 1021 98 0 0.8 200 23:41 20.01.2020
3976 Snow -2 1021 97 0 0.79 120 23:19 20.01.2020
3977 Snow -2 1021 97 0 0.79 120 22:59 20.01.2020
3978 Snow -2 1021 97 0 0.79 120 22:39 20.01.2020
3979 Snow -2 1021 97 0 0.79 120 22:21 20.01.2020
3980 Snow -2 1021 97 0 0.79 120 21:58 20.01.2020
3981 Snow -2 1021 97 0 0.79 120 21:38 20.01.2020
3982 Snow -2 1021 97 0 0.79 120 21:20 20.01.2020
3983 Snow -2 1021 97 0 0.79 120 20:58 20.01.2020
3984 Snow -2 1021 97 0 0.79 120 20:39 20.01.2020
3985 Snow -1 1022 82 0 1.09 70 20:19 20.01.2020
3986 Snow -1 1022 82 0 1.09 70 20:19 20.01.2020
3987 Snow -1 1022 82 0 1.09 70 19:57 20.01.2020
3988 Snow -1 1022 82 0 1.09 70 19:38 20.01.2020
3989 Snow -1 1022 82 0 1.09 70 19:19 20.01.2020
3990 Snow -1 1022 82 0 1.09 70 18:45 20.01.2020
3991 Snow -1 1022 82 0 1.09 70 18:24 20.01.2020
3992 Snow -1 1022 82 0 1.09 70 17:59 20.01.2020
3993 Snow -1 1022 82 0 1.09 70 17:37 20.01.2020
3994 Clouds -1 1021 66 0 1.37 25 17:18 20.01.2020
3995 -273 0 0 0 0 0 16:44 20.01.2020
3996 Clouds -1 1021 66 0 1.37 25 16:25 20.01.2020
3997 Clouds -1 1021 66 0 1.37 25 15:58 20.01.2020
3998 Clouds -1 1021 66 0 1.37 25 15:58 20.01.2020
3999 Clouds -1 1021 66 0 1.37 25 15:40 20.01.2020
4000 Clouds -1 1021 66 0 1.37 25 15:21 20.01.2020
4001 Clouds -1 1021 66 0 1.37 25 14:56 20.01.2020
4002 Clouds -1 1021 66 0 1.37 25 14:37 20.01.2020
4003 Clouds 0 1018 63 0 0.47 281 14:19 20.01.2020
4004 Clouds 0 1018 63 0 0.47 281 13:42 20.01.2020
4005 Clouds 0 1018 65 0 0.32 293 13:23 20.01.2020
4006 Clouds 0 1018 65 0 0.32 293 12:56 20.01.2020
4007 Clouds 0 1018 65 0 0.32 293 12:38 20.01.2020
4008 Clouds 0 1018 65 0 0.32 293 12:19 20.01.2020
4009 Clouds 0 1018 65 0 0.32 293 11:43 20.01.2020
4010 Clouds 0 1018 65 0 0.32 293 11:24 20.01.2020
4011 Clouds 4 1016 41 0 1.92 205 10:57 20.01.2020
4012 Clouds 4 1016 41 0 1.92 205 10:39 20.01.2020
4013 Clouds 4 1016 41 0 1.92 205 10:20 20.01.2020
4014 Clouds 4 1016 41 0 1.92 205 09:41 20.01.2020
4015 Clouds 4 1016 41 0 1.92 205 09:22 20.01.2020
4016 Clouds 4 1016 41 0 1.92 205 08:51 20.01.2020
4017 Clouds 4 1016 39 0 2.47 212 08:31 20.01.2020
4018 Clouds 4 1020 34 0 1.61 156 07:54 20.01.2020
4019 Clouds 4 1020 34 0 1.61 156 07:30 20.01.2020
4020 Clouds 4 1020 34 0 1.61 156 06:59 20.01.2020
4021 Clouds 4 1020 34 0 1.61 156 06:59 20.01.2020
4022 Clouds 4 1020 34 0 1.61 156 06:34 20.01.2020
4023 Clouds 4 1020 34 0 1.61 156 05:49 20.01.2020
4024 Clouds 4 1020 34 0 1.61 156 05:30 20.01.2020
4025 Clouds 4 1020 34 0 1.61 156 05:30 20.01.2020
4026 Clouds 0 1023 42 0 2.02 18 04:58 20.01.2020
4027 Clouds 0 1023 42 0 2.02 18 03:30 20.01.2020
4028 Clouds -2 1022 44 0 2.59 351 01:58 20.01.2020
4029 Clouds -2 1022 44 0 2.59 351 01:38 20.01.2020
4030 Clouds -2 1022 42 0 2.8 355 00:46 20.01.2020
4031 Clouds -2 1022 42 0 2.8 355 00:26 20.01.2020
4032 Clouds -2 1022 42 0 2.8 355 23:54 19.01.2020
4033 Clouds -2 1022 42 0 2.8 355 23:36 19.01.2020
4034 Clouds -2 1024 45 0 3.17 3 23:18 19.01.2020
4035 Clouds -2 1024 45 0 3.17 3 23:18 19.01.2020
4036 Clouds -2 1024 45 0 3.17 3 22:54 19.01.2020
4037 Clouds -2 1024 45 0 3.17 3 22:36 19.01.2020
4038 Clouds -2 1024 45 0 3.17 3 22:18 19.01.2020
4039 Clouds -2 1024 45 0 3.17 3 21:54 19.01.2020
4040 Clouds -2 1024 45 0 3.17 3 21:36 19.01.2020
4041 Clouds -2 1024 45 0 3.17 3 21:18 19.01.2020
4042 Clouds -2 1024 45 0 3.17 3 20:54 19.01.2020
4043 Clouds -2 1024 45 0 3.17 3 20:36 19.01.2020
4044 Clouds -3 1027 51 0 3.25 7 20:18 19.01.2020
4045 Clouds -3 1027 51 0 3.25 7 19:54 19.01.2020
4046 Clouds -3 1027 51 0 3.25 7 19:36 19.01.2020
4047 Clouds -3 1027 51 0 3.25 7 19:18 19.01.2020
4048 Clouds -3 1027 51 0 3.25 7 18:54 19.01.2020
4049 Clouds -3 1027 51 0 3.25 7 18:36 19.01.2020
4050 Clouds -3 1027 51 0 3.25 7 18:36 19.01.2020
4051 Clouds -3 1027 51 0 3.25 7 18:18 19.01.2020
4052 Clouds -3 1027 51 0 3.25 7 17:56 19.01.2020
4053 Clouds -3 1027 51 0 3.25 7 17:37 19.01.2020
4054 Clear -3 1026 54 0 3.12 17 17:18 19.01.2020
4055 Clear -3 1026 54 0 3.12 17 16:54 19.01.2020
4056 Clear -3 1026 54 0 3.12 17 16:36 19.01.2020
4057 Clear -3 1026 54 0 3.12 17 16:18 19.01.2020
4058 Clear -3 1026 54 0 3.12 17 15:41 19.01.2020
4059 Clear -3 1026 54 0 3.12 17 15:22 19.01.2020
4060 Clear -3 1026 54 0 3.12 17 14:59 19.01.2020
4061 Clear -3 1026 54 0 3.12 17 14:40 19.01.2020
4062 Clear -2 1022 74 0 0.42 274 14:19 19.01.2020
4063 Clear -2 1022 74 0 0.42 274 13:58 19.01.2020
4064 Clear -2 1022 74 0 0.42 274 13:39 19.01.2020
4065 Clear -2 1022 71 0 0.32 302 13:21 19.01.2020
4066 Clear -2 1022 71 0 0.32 302 12:59 19.01.2020
4067 Clear -2 1022 71 0 0.32 302 12:40 19.01.2020
4068 Clear -2 1022 71 0 0.32 302 12:21 19.01.2020
4069 Clear -2 1022 71 0 0.32 302 11:57 19.01.2020
4070 Clear -2 1022 71 0 0.32 302 11:37 19.01.2020
4071 Clear 4 1020 43 0 2.77 210 11:18 19.01.2020
4072 Clear 4 1020 43 0 2.77 210 10:40 19.01.2020
4073 Clear 4 1020 43 0 2.77 210 10:20 19.01.2020
4074 Clear 4 1020 43 0 2.77 210 09:57 19.01.2020
4075 Clear 4 1020 43 0 2.77 210 09:38 19.01.2020
4076 Clear 4 1020 43 0 2.77 210 09:20 19.01.2020
4077 Clear 4 1020 43 0 2.77 210 08:55 19.01.2020
4078 Clear 4 1020 46 0 2.8 210 08:33 19.01.2020
4079 Clear 4 1024 37 0 1.64 221 07:55 19.01.2020
4080 Clear 4 1024 37 0 1.64 221 07:29 19.01.2020
4081 Clear 4 1024 37 0 1.64 221 06:55 19.01.2020
4082 Clear 4 1024 37 0 1.64 221 06:22 19.01.2020
4083 Clear -2 1029 49 0 2.43 3 03:58 19.01.2020
4084 Clear -2 1029 49 0 2.43 3 02:34 19.01.2020
4085 Clear -4 1027 54 0 2.88 4 01:43 19.01.2020
4086 Clear -4 1027 51 0 2.82 5 01:20 19.01.2020
4087 Clear -4 1027 51 0 2.82 5 00:44 19.01.2020
4088 Clear -4 1027 51 0 2.82 5 00:24 19.01.2020
4089 Clear -4 1027 51 0 2.82 5 23:54 18.01.2020
4090 Clear -4 1027 51 0 2.82 5 23:36 18.01.2020
4091 Clear -4 1027 55 0 3.09 359 23:18 18.01.2020
4092 Clear -4 1027 55 0 3.09 359 22:41 18.01.2020
4093 Clear -4 1027 55 0 3.09 359 22:23 18.01.2020
4094 Clear -4 1027 55 0 3.09 359 21:58 18.01.2020
4095 Clear -4 1027 55 0 3.09 359 21:39 18.01.2020
4096 Clear -4 1027 55 0 3.09 359 21:20 18.01.2020
4097 Clear -4 1027 55 0 3.09 359 20:57 18.01.2020
4098 Clear -4 1027 55 0 3.09 359 20:39 18.01.2020
4099 Clouds -3 1026 57 0 3.15 11 20:19 18.01.2020
4100 Clouds -3 1025 59 0 2.82 4 19:43 18.01.2020
4101 Clouds -3 1025 59 0 2.82 4 19:24 18.01.2020
4102 Clouds -3 1025 59 0 2.82 4 18:54 18.01.2020
4103 Clouds -3 1025 59 0 2.82 4 18:36 18.01.2020
4104 Clouds -3 1025 59 0 2.82 4 18:18 18.01.2020
4105 Clouds -3 1025 59 0 2.82 4 17:41 18.01.2020
4106 Snow -2 1024 68 0 1.88 21 17:21 18.01.2020
4107 Snow -2 1024 68 0 1.88 21 16:57 18.01.2020
4108 Snow -2 1024 68 0 1.88 21 16:38 18.01.2020
4109 Snow -2 1024 68 0 1.88 21 16:20 18.01.2020
4110 Snow -2 1024 68 0 1.88 21 15:56 18.01.2020
4111 Snow -2 1024 68 0 1.88 21 15:38 18.01.2020
4112 Snow -2 1024 68 0 1.88 21 15:20 18.01.2020
4113 Snow -2 1024 68 0 1.88 21 14:41 18.01.2020
4114 Snow -1 1020 83 0 0.87 279 14:20 18.01.2020
4115 Snow -1 1020 83 0 0.87 279 13:58 18.01.2020
4116 Snow -1 1020 83 0 0.87 279 13:39 18.01.2020
4117 Snow 0 1019 81 0 1.07 275 13:20 18.01.2020
4118 Snow 0 1019 81 0 1.07 275 12:54 18.01.2020
4119 Snow 0 1019 81 0 1.07 275 12:54 18.01.2020
4120 Snow 0 1019 81 0 1.07 275 12:36 18.01.2020
4121 Snow 0 1019 81 0 1.07 275 12:18 18.01.2020
4122 Snow 0 1019 81 0 1.07 275 11:43 18.01.2020
4123 Clouds 3 1019 51 0 1.84 209 11:21 18.01.2020
4124 Clouds 3 1019 51 0 1.84 209 10:43 18.01.2020
4125 Clouds 3 1019 51 0 1.84 209 10:22 18.01.2020
4126 Clouds 3 1019 51 0 1.84 209 09:57 18.01.2020
4127 Clouds 3 1019 51 0 1.84 209 09:39 18.01.2020
4128 Clouds 3 1019 51 0 1.84 209 09:19 18.01.2020
4129 Clouds 3 1019 51 0 1.84 209 08:42 18.01.2020
4130 Clouds 3 1022 53 0 1.68 218 08:20 18.01.2020
4131 Clouds 3 1022 53 0 1.68 218 07:59 18.01.2020
4132 Clouds 3 1022 53 0 1.68 218 07:39 18.01.2020
4133 Clouds 3 1022 53 0 1.68 218 06:52 18.01.2020
4134 Clouds 3 1022 53 0 1.68 218 06:33 18.01.2020
4135 Clouds 3 1022 53 0 1.68 218 05:52 18.01.2020
4136 Clouds -1 1025 63 0 2.81 11 04:25 18.01.2020
4137 Clouds -1 1025 63 0 2.81 11 02:38 18.01.2020
4138 Clouds -2 1022 66 0 2.34 13 01:40 18.01.2020
4139 Clouds -3 1021 66 0 2.29 13 00:39 18.01.2020
4140 Clouds -3 1021 66 0 2.29 13 00:20 18.01.2020
4141 Clouds -3 1021 66 0 2.29 13 23:58 17.01.2020
4142 Clouds -3 1021 66 0 2.29 13 23:39 17.01.2020
4143 Clouds -2 1022 74 0 2.49 14 23:18 17.01.2020
4144 Clouds -2 1022 74 0 2.49 14 22:42 17.01.2020
4145 Clouds -2 1022 74 0 2.49 14 22:20 17.01.2020
4146 Clouds -2 1022 74 0 2.49 14 21:57 17.01.2020
4147 Clouds -2 1022 74 0 2.49 14 21:38 17.01.2020
4148 Clouds -2 1022 74 0 2.49 14 21:20 17.01.2020
4149 Clouds -2 1022 74 0 2.49 14 20:55 17.01.2020
4150 Clouds -2 1022 74 0 2.49 14 20:36 17.01.2020
4151 Snow -1 1022 88 0 1.72 23 20:18 17.01.2020
4152 Snow -1 1022 88 0 1.72 23 19:54 17.01.2020
4153 Snow -1 1022 88 0 1.72 23 19:36 17.01.2020
4154 Snow -1 1022 88 0 1.72 23 19:18 17.01.2020
4155 Snow -1 1022 88 0 1.72 23 18:44 17.01.2020
4156 Snow -1 1022 88 0 1.72 23 18:26 17.01.2020
4157 Snow -1 1022 88 0 1.72 23 17:56 17.01.2020
4158 Snow -1 1022 88 0 1.72 23 17:38 17.01.2020
4159 Snow -1 1021 91 0 1.08 31 17:19 17.01.2020
4160 Snow -1 1021 91 0 1.08 31 16:41 17.01.2020
4161 Snow -1 1021 91 0 1.08 31 16:20 17.01.2020
4162 Snow -1 1021 91 0 1.08 31 15:48 17.01.2020
4163 Snow -1 1021 91 0 1.08 31 15:27 17.01.2020
4164 Snow -1 1021 91 0 1.08 31 14:56 17.01.2020
4165 Snow -1 1021 91 0 1.08 31 14:37 17.01.2020
4166 Snow 0 1016 94 0 0.9 247 14:19 17.01.2020
4167 Snow 0 1016 94 0 0.9 247 13:39 17.01.2020
4168 Snow 0 1016 95 0 0.89 243 13:20 17.01.2020
4169 Snow 0 1016 95 0 0.89 243 12:45 17.01.2020
4170 Snow 0 1016 95 0 0.89 243 12:23 17.01.2020
4171 Snow 0 1016 95 0 0.89 243 11:41 17.01.2020
4172 Snow 2 1015 86 0 1.98 212 11:19 17.01.2020
4173 Snow 2 1015 86 0 1.98 212 10:54 17.01.2020
4174 Snow 2 1015 86 0 1.98 212 10:36 17.01.2020
4175 Snow 2 1015 86 0 1.98 212 10:18 17.01.2020
4176 Snow 2 1015 86 0 1.98 212 09:41 17.01.2020
4177 Snow 2 1015 86 0 1.98 212 09:20 17.01.2020
4178 Snow 2 1015 86 0 1.98 212 08:55 17.01.2020
4179 Snow 2 1015 86 0 1.98 212 08:37 17.01.2020
4180 Snow 2 1019 81 0 1.98 190 08:18 17.01.2020
4181 Snow 2 1019 81 0 1.98 190 07:43 17.01.2020
4182 Snow 2 1019 81 0 1.98 190 07:24 17.01.2020
4183 Snow 2 1019 81 0 1.98 190 06:47 17.01.2020
4184 Snow 2 1019 81 0 1.98 190 06:29 17.01.2020
4185 Snow -1 1022 84 0 1.54 52 04:26 17.01.2020
4186 Snow -1 1022 84 0 1.54 52 02:56 17.01.2020
4187 Snow -1 1022 84 0 1.54 52 02:32 17.01.2020
4188 Snow -1 1021 87 0 2.31 38 01:33 17.01.2020
4189 Snow -1 1020 88 0 2.61 40 00:59 17.01.2020
4190 Snow -1 1020 88 0 2.61 40 00:37 17.01.2020
4191 Snow -1 1020 88 0 2.61 40 23:59 16.01.2020
4192 Snow -1 1020 88 0 2.61 40 23:41 16.01.2020
4193 Snow -1 1020 88 0 2.61 40 23:22 16.01.2020
4194 Snow -1 1021 83 0 1.78 44 22:41 16.01.2020
4195 Snow -1 1021 83 0 1.78 44 22:21 16.01.2020
4196 Snow -1 1021 83 0 1.78 44 21:57 16.01.2020
4197 Snow -1 1021 83 0 1.78 44 21:57 16.01.2020
4198 Snow -1 1021 83 0 1.78 44 21:38 16.01.2020
4199 Snow -1 1021 83 0 1.78 44 21:19 16.01.2020
4200 Snow -1 1021 83 0 1.78 44 21:19 16.01.2020
4201 Snow -1 1021 83 0 1.78 44 20:57 16.01.2020
4202 Snow -1 1021 83 0 1.78 44 20:38 16.01.2020
4203 Snow 0 1020 74 0 1.82 30 20:19 16.01.2020
4204 Snow 0 1020 74 0 1.82 30 19:56 16.01.2020
4205 Snow 0 1020 74 0 1.82 30 19:37 16.01.2020
4206 Snow 0 1020 74 0 1.82 30 19:19 16.01.2020
4207 Snow 0 1020 74 0 1.82 30 18:55 16.01.2020
4208 Snow 0 1020 74 0 1.82 30 18:37 16.01.2020
4209 Snow 0 1020 74 0 1.82 30 18:18 16.01.2020
4210 Snow 0 1020 74 0 1.82 30 18:18 16.01.2020
4211 Snow 0 1020 74 0 1.82 30 17:42 16.01.2020
4212 Snow 0 1020 74 0 1.82 30 17:23 16.01.2020
4213 Snow 0 1021 87 0 0.43 140 16:57 16.01.2020
4214 Snow 0 1021 87 0 0.43 140 16:39 16.01.2020
4215 Snow 0 1021 87 0 0.43 140 16:19 16.01.2020
4216 Snow 0 1021 87 0 0.43 140 15:44 16.01.2020
4217 Snow 0 1021 87 0 0.43 140 15:23 16.01.2020
4218 Snow 0 1021 87 0 0.43 140 14:57 16.01.2020
4219 Snow 0 1021 87 0 0.43 140 14:39 16.01.2020
4220 Snow 1 1017 90 0 1.29 260 14:20 16.01.2020
4221 Snow 1 1017 90 0 1.29 260 13:45 16.01.2020
4222 Snow 1 1017 90 0 1.29 260 13:26 16.01.2020
4223 Snow 1 1017 90 0 0.98 230 12:47 16.01.2020
4224 Snow 1 1017 90 0 0.98 230 12:29 16.01.2020
4225 Snow 1 1017 90 0 0.98 230 12:29 16.01.2020
4226 Snow 1 1017 90 0 0.98 230 12:29 16.01.2020
4227 Snow 1 1017 90 0 0.98 230 11:59 16.01.2020
4228 Snow 1 1017 90 0 0.98 230 11:41 16.01.2020
4229 Snow 1 1017 90 0 0.98 230 11:41 16.01.2020
4230 Snow 1 1017 90 0 0.98 230 11:23 16.01.2020
4231 Snow 5 1017 55 0 2.22 220 10:55 16.01.2020
4232 Snow 5 1017 55 0 2.22 220 10:36 16.01.2020
4233 Snow 5 1017 55 0 2.22 220 10:18 16.01.2020
4234 Snow 5 1017 55 0 2.22 220 09:42 16.01.2020
4235 Snow 5 1017 55 0 2.22 220 09:24 16.01.2020
4236 Snow 5 1017 55 0 2.22 220 08:58 16.01.2020
4237 Snow 5 1017 55 0 2.22 220 08:39 16.01.2020
4238 Clouds 6 1020 38 0 1.81 217 08:18 16.01.2020
4239 Clouds 5 1020 41 0 1.83 212 07:42 16.01.2020
4240 Clouds 5 1020 41 0 1.83 212 07:23 16.01.2020
4241 Clouds 5 1020 41 0 1.83 212 06:50 16.01.2020
4242 Clouds 5 1020 41 0 1.83 212 06:32 16.01.2020
4243 Clouds 5 1020 41 0 1.83 212 05:49 16.01.2020
4244 Clouds 1 1025 43 0 2.21 5 04:46 16.01.2020
4245 Clouds 1 1025 43 0 2.21 5 04:46 16.01.2020
4246 Clouds 1 1025 43 0 2.21 5 03:56 16.01.2020
4247 Clouds 1 1025 43 0 2.21 5 02:46 16.01.2020
4248 Clouds -1 1023 43 0 2.73 10 01:32 16.01.2020
4249 Clouds -1 1023 43 0 2.67 10 00:43 16.01.2020
4250 Clouds -1 1023 43 0 2.67 10 00:23 16.01.2020
4251 Clouds -1 1023 43 0 2.67 10 23:44 15.01.2020
4252 Clouds -1 1023 45 0 3.15 15 23:22 15.01.2020
4253 Clouds -1 1023 45 0 3.15 15 23:22 15.01.2020
4254 Clouds -1 1023 45 0 3.15 15 23:21 15.01.2020
4255 Clouds -1 1023 45 0 3.15 15 22:56 15.01.2020
4256 Clouds -1 1023 45 0 3.15 15 22:38 15.01.2020
4257 Clouds -1 1023 45 0 3.15 15 22:18 15.01.2020
4258 Clouds -1 1023 45 0 3.15 15 21:56 15.01.2020
4259 Clouds -1 1023 45 0 3.15 15 21:56 15.01.2020
4260 Clouds -1 1023 45 0 3.15 15 21:37 15.01.2020
4261 Clouds -1 1023 45 0 3.15 15 21:18 15.01.2020
4262 Clouds -1 1023 45 0 3.15 15 20:55 15.01.2020
4263 Clouds -1 1023 45 0 3.15 15 20:37 15.01.2020
4264 Clouds 0 1023 53 0 2.52 17 20:18 15.01.2020
4265 Clouds 0 1023 53 0 2.52 17 19:54 15.01.2020
4266 Clouds 0 1023 53 0 2.52 17 19:36 15.01.2020
4267 Clouds 0 1023 53 0 2.52 17 19:18 15.01.2020
4268 Clouds 0 1023 53 0 2.52 17 19:18 15.01.2020
4269 Clouds 0 1023 53 0 2.52 17 18:55 15.01.2020
4270 Clouds 0 1023 53 0 2.52 17 18:37 15.01.2020
4271 Clouds 0 1023 53 0 2.52 17 18:19 15.01.2020
4272 Clouds 0 1023 53 0 2.52 17 17:41 15.01.2020
4273 Clouds 0 1023 53 0 2.52 17 17:22 15.01.2020
4274 Clouds 0 1022 60 0 2.4 24 16:59 15.01.2020
4275 Clouds 0 1022 60 0 2.4 24 16:38 15.01.2020
4276 Clouds 0 1022 60 0 2.4 24 16:20 15.01.2020
4277 Clouds 0 1022 60 0 2.4 24 15:43 15.01.2020
4278 Clouds 0 1022 60 0 2.4 24 15:21 15.01.2020
4279 Clouds 0 1022 60 0 2.4 24 15:21 15.01.2020
4280 Clouds 0 1022 60 0 2.4 24 14:58 15.01.2020
4281 Clouds 0 1022 60 0 2.4 24 14:39 15.01.2020
4282 Snow 1 1018 78 0 0.69 305 14:18 15.01.2020
4283 Snow 1 1018 78 0 0.69 305 13:45 15.01.2020
4284 Snow 1 1018 78 0 0.69 305 13:26 15.01.2020
4285 Snow 1 1018 75 0 0.64 313 12:58 15.01.2020
4286 Snow 1 1018 75 0 0.64 313 12:39 15.01.2020
4287 Snow 1 1018 75 0 0.64 313 12:19 15.01.2020
4288 Snow 1 1018 75 0 0.64 313 11:56 15.01.2020
4289 Snow 1 1018 75 0 0.64 313 11:37 15.01.2020
4290 Clear 6 1018 54 0 2.58 215 11:18 15.01.2020
4291 Clear 6 1018 54 0 2.58 215 10:42 15.01.2020
4292 Clear 6 1018 54 0 2.58 215 10:24 15.01.2020
4293 Clear 6 1018 54 0 2.58 215 09:42 15.01.2020
4294 Clear 6 1018 54 0 2.58 215 09:23 15.01.2020
4295 Clear 6 1018 54 0 2.58 215 08:56 15.01.2020
4296 Clear 6 1018 54 0 2.58 215 08:37 15.01.2020
4297 Clear 6 1022 46 0 1.89 204 08:19 15.01.2020
4298 Clear 6 1022 46 0 1.89 204 07:50 15.01.2020
4299 Clear 6 1022 46 0 1.89 204 07:30 15.01.2020
4300 Clear 6 1022 46 0 1.89 204 06:44 15.01.2020
4301 Clear 6 1022 46 0 1.89 204 06:18 15.01.2020
4302 Clear 0 1026 53 0 2.52 9 04:36 15.01.2020
4303 Clear 0 1026 53 0 2.52 9 02:32 15.01.2020
4304 Clear -2 1025 57 0 3.22 10 01:27 15.01.2020
4305 Clear -2 1025 57 0 3.22 10 00:45 15.01.2020
4306 Clear -2 1025 57 0 3.22 10 00:26 15.01.2020
4307 Clear -2 1025 57 0 3.22 10 23:55 14.01.2020
4308 Clear -2 1025 57 0 3.22 10 23:36 14.01.2020
4309 Clear -1 1025 58 0 2.96 7 23:18 14.01.2020
4310 Clear -1 1025 58 0 2.96 7 22:41 14.01.2020
4311 Clear -1 1025 58 0 2.96 7 22:19 14.01.2020
4312 Clear -1 1025 58 0 2.96 7 21:58 14.01.2020
4313 Clear -1 1025 58 0 2.96 7 21:39 14.01.2020
4314 Clear -1 1025 58 0 2.96 7 21:21 14.01.2020
4315 Clear -1 1025 58 0 2.96 7 21:21 14.01.2020
4316 Clear -1 1025 58 0 2.96 7 20:58 14.01.2020
4317 Clear -1 1025 58 0 2.96 7 20:40 14.01.2020
4318 Clouds -1 1024 62 0 2.79 4 20:19 14.01.2020
4319 Clouds -1 1024 62 0 2.79 4 19:56 14.01.2020
4320 Clouds -1 1024 62 0 2.79 4 19:37 14.01.2020
4321 Clouds -1 1024 62 0 2.79 4 19:18 14.01.2020
4322 Clouds -1 1024 62 0 2.79 4 18:55 14.01.2020
4323 Clouds -1 1024 62 0 2.79 4 18:37 14.01.2020
4324 Clouds -1 1024 62 0 2.79 4 18:18 14.01.2020
4325 Clouds -1 1024 62 0 2.79 4 17:38 14.01.2020
4326 Clouds -1 1022 63 0 3.05 12 17:19 14.01.2020
4327 Clouds -1 1022 63 0 3.05 12 16:55 14.01.2020
4328 Clouds -1 1022 63 0 3.05 12 16:37 14.01.2020
4329 Clouds -1 1022 63 0 3.05 12 16:19 14.01.2020
4330 Clouds -1 1022 63 0 3.05 12 15:43 14.01.2020
4331 Clouds -1 1022 63 0 3.05 12 15:19 14.01.2020
4332 Clouds -1 1022 63 0 3.05 12 14:47 14.01.2020
4333 Clouds -1 1022 63 0 3.05 12 14:23 14.01.2020
4334 Snow 1 1017 85 0 0.85 331 13:59 14.01.2020
4335 Snow 1 1017 85 0 0.85 331 13:41 14.01.2020
4336 Snow 1 1016 85 0 0.77 316 13:19 14.01.2020
4337 Snow 1 1016 85 0 0.77 316 12:43 14.01.2020
4338 Snow 1 1016 85 0 0.77 316 12:25 14.01.2020
4339 Snow 1 1016 85 0 0.77 316 11:59 14.01.2020
4340 Snow 1 1016 85 0 0.77 316 11:40 14.01.2020
4341 Snow 1 1016 85 0 0.77 316 11:22 14.01.2020
4342 Clouds 5 1015 65 0 1.79 216 10:56 14.01.2020
4343 Clouds 5 1015 65 0 1.79 216 10:37 14.01.2020
4344 Clouds 5 1015 65 0 1.79 216 10:19 14.01.2020
4345 Clouds 5 1015 65 0 1.79 216 09:55 14.01.2020
4346 Clouds 5 1015 65 0 1.79 216 09:37 14.01.2020
4347 Clouds 5 1015 65 0 1.79 216 09:19 14.01.2020
4348 Clouds 5 1015 65 0 1.79 216 08:41 14.01.2020
4349 Clouds 5 1015 65 0 1.79 216 08:41 14.01.2020
4350 Clouds 5 1015 65 0 1.79 216 08:41 14.01.2020
4351 Clouds 5 1015 65 0 1.79 216 08:22 14.01.2020
4352 Clouds 3 1019 82 0 1.07 224 07:53 14.01.2020
4353 Clouds 3 1019 82 0 1.07 224 07:25 14.01.2020
4354 Clouds 3 1019 82 0 1.07 224 06:44 14.01.2020
4355 Clouds 3 1019 82 0 1.07 224 06:18 14.01.2020
4356 Clouds -1 1024 75 0 2.83 4 04:56 14.01.2020
4357 Clouds -1 1024 75 0 2.83 4 03:48 14.01.2020
4358 Clouds -1 1024 75 0 2.83 4 02:40 14.01.2020
4359 Clouds -2 1021 71 0 4.05 2 01:34 14.01.2020
4360 Clouds -3 1022 67 0 4.04 4 00:49 14.01.2020
4361 Clouds -3 1022 67 0 4.04 4 00:26 14.01.2020
4362 Clouds -3 1022 67 0 4.04 4 23:47 13.01.2020
4363 Clouds -2 1019 83 0 3.07 2 23:19 13.01.2020
4364 Clouds -2 1019 83 0 3.07 2 22:59 13.01.2020
4365 Clouds -2 1019 83 0 3.07 2 22:40 13.01.2020
4366 Clouds -2 1019 83 0 3.07 2 22:20 13.01.2020
4367 Clouds -2 1019 83 0 3.07 2 21:56 13.01.2020
4368 Clouds -2 1019 83 0 3.07 2 21:37 13.01.2020
4369 Clouds -2 1019 83 0 3.07 2 21:37 13.01.2020
4370 Clouds -2 1019 83 0 3.07 2 21:18 13.01.2020
4371 Clouds -2 1019 83 0 3.07 2 20:57 13.01.2020
4372 Clouds -2 1019 83 0 3.07 2 20:57 13.01.2020
4373 Clouds -2 1019 83 0 3.07 2 20:38 13.01.2020
4374 Snow 0 1014 96 0 0.46 336 20:20 13.01.2020
4375 Snow 0 1014 96 0 0.46 336 19:58 13.01.2020
4376 Snow 0 1014 96 0 0.46 336 19:39 13.01.2020
4377 Snow 0 1014 96 0 0.46 336 19:19 13.01.2020
4378 Snow 0 1014 96 0 0.46 336 18:56 13.01.2020
4379 Snow 0 1014 96 0 0.46 336 18:37 13.01.2020
4380 Snow 0 1014 96 0 0.46 336 18:37 13.01.2020
4381 Snow 0 1014 96 0 0.46 336 18:18 13.01.2020
4382 -273 0 0 0 0 0 18:18 13.01.2020
4383 Snow 0 1014 96 0 0.46 336 17:40 13.01.2020
4384 Snow 0 1014 96 0 0.46 336 17:22 13.01.2020
4385 Snow 0 1014 96 0 0.46 336 17:22 13.01.2020
4386 Snow -1 1011 98 0 2.98 263 16:57 13.01.2020
4387 Snow -1 1011 98 0 2.98 263 16:38 13.01.2020
4388 Snow -1 1011 98 0 2.98 263 16:20 13.01.2020
4389 Snow -1 1011 98 0 2.98 263 15:44 13.01.2020
4390 Snow -1 1011 98 0 2.98 263 15:24 13.01.2020
4391 Snow -1 1011 98 0 2.98 263 14:58 13.01.2020
4392 Snow -1 1011 98 0 2.98 263 14:38 13.01.2020
4393 Snow 2 1006 99 0 3.26 222 14:20 13.01.2020
4394 Snow 2 1006 99 0 3.26 222 14:20 13.01.2020
4395 Snow 2 1006 99 0 3.26 222 13:55 13.01.2020
4396 Snow 2 1006 99 0 3.26 222 13:37 13.01.2020
4397 Snow 2 1006 99 0 3.26 222 13:19 13.01.2020
4398 Snow 2 1006 97 0 1.14 272 12:43 13.01.2020
4399 Snow 2 1006 97 0 1.14 272 12:23 13.01.2020
4400 Snow 2 1006 97 0 1.14 272 11:57 13.01.2020
4401 Snow 2 1006 97 0 1.14 272 11:37 13.01.2020
4402 Snow 2 1006 97 0 1.14 272 11:37 13.01.2020
4403 Snow 3 1007 96 0 1.02 251 11:19 13.01.2020
4404 Snow 3 1007 96 0 1.02 251 10:56 13.01.2020
4405 Snow 3 1007 96 0 1.02 251 10:37 13.01.2020
4406 Snow 3 1007 96 0 1.02 251 10:19 13.01.2020
4407 Snow 3 1007 96 0 1.02 251 09:44 13.01.2020
4408 Snow 3 1007 96 0 1.02 251 09:24 13.01.2020
4409 Snow 3 1007 96 0 1.02 251 08:57 13.01.2020
4410 Snow 3 1007 96 0 1.02 251 08:37 13.01.2020
4411 Snow 5 1012 77 0 1.84 25 08:18 13.01.2020
4412 Snow 5 1011 72 0 1.76 0 07:44 13.01.2020
4413 Snow 5 1011 72 0 1.76 0 07:26 13.01.2020
4414 Snow 5 1011 72 0 1.76 0 06:37 13.01.2020
4415 Snow 5 1011 72 0 1.76 0 05:42 13.01.2020
4416 Clouds 5 1014 62 0 3.19 353 05:19 13.01.2020
4417 Clouds 5 1014 62 0 3.19 353 03:44 13.01.2020
4418 Clouds 5 1014 62 0 3.19 353 02:51 13.01.2020
4419 Clouds 5 1014 62 0 3.19 353 02:30 13.01.2020
4420 Clouds 4 1014 59 0 3.32 1 01:33 13.01.2020
4421 Clouds 4 1014 59 0 3.32 1 00:55 13.01.2020
4422 Clouds 4 1014 59 0 3.32 1 00:36 13.01.2020
4423 Clouds 4 1014 59 0 3.32 1 00:18 13.01.2020
4424 Clouds 4 1014 59 0 3.32 1 23:40 12.01.2020
4425 Clouds 6 1016 56 0 3.78 19 23:22 12.01.2020
4426 Clouds 6 1016 56 0 3.78 19 22:57 12.01.2020
4427 Clouds 6 1016 56 0 3.78 19 22:39 12.01.2020
4428 Clouds 6 1016 56 0 3.78 19 22:19 12.01.2020
4429 Clouds 6 1016 56 0 3.78 19 21:54 12.01.2020
4430 Clouds 6 1016 56 0 3.78 19 21:54 12.01.2020
4431 Clouds 6 1016 56 0 3.78 19 21:36 12.01.2020
4432 Clouds 6 1016 56 0 3.78 19 21:18 12.01.2020
4433 Clouds 6 1016 56 0 3.78 19 20:54 12.01.2020
4434 Clouds 6 1016 56 0 3.78 19 20:36 12.01.2020
4435 Clouds 5 1018 57 0 4.85 4 20:18 12.01.2020
4436 Clouds 6 1018 53 0 4.32 1 19:54 12.01.2020
4437 Clouds 6 1018 53 0 4.32 1 19:36 12.01.2020
4438 Clouds 6 1018 53 0 4.32 1 19:18 12.01.2020
4439 Clouds 6 1018 53 0 4.32 1 18:54 12.01.2020
4440 Clouds 6 1018 53 0 4.32 1 18:36 12.01.2020
4441 Clouds 6 1018 53 0 4.32 1 18:18 12.01.2020
4442 Clouds 6 1018 53 0 4.32 1 17:42 12.01.2020
4443 Clouds 6 1020 54 0 4.22 9 17:20 12.01.2020
4444 Clouds 6 1020 54 0 4.22 9 16:57 12.01.2020
4445 Clouds 6 1020 54 0 4.22 9 16:38 12.01.2020
4446 Clouds 6 1020 54 0 4.22 9 16:19 12.01.2020
4447 Clouds 6 1020 54 0 4.22 9 15:55 12.01.2020
4448 Clouds 6 1020 54 0 4.22 9 15:36 12.01.2020
4449 Clouds 6 1020 54 0 4.22 9 15:18 12.01.2020
4450 Clouds 6 1020 54 0 4.22 9 14:42 12.01.2020
4451 Clouds 6 1020 54 0 4.22 9 14:22 12.01.2020
4452 Snow 6 1018 65 0 3.77 21 13:56 12.01.2020
4453 Snow 6 1018 65 0 3.77 21 13:38 12.01.2020
4454 Snow 6 1018 65 0 3.77 21 13:20 12.01.2020
4455 Rain 6 1018 66 0 3 24 12:44 12.01.2020
4456 Rain 6 1018 66 0 3 24 12:21 12.01.2020
4457 Rain 6 1018 66 0 3 24 11:59 12.01.2020
4458 Rain 6 1018 66 0 3 24 11:40 12.01.2020
4459 Rain 9 1018 66 0 1.72 32 11:22 12.01.2020
4460 Rain 9 1018 66 0 1.72 32 10:56 12.01.2020
4461 Rain 9 1018 66 0 1.72 32 10:37 12.01.2020
4462 Rain 9 1018 66 0 1.72 32 10:18 12.01.2020
4463 Rain 9 1018 66 0 1.72 32 09:41 12.01.2020
4464 -273 0 0 0 0 0 09:22 12.01.2020
4465 Rain 9 1018 66 0 1.72 32 08:48 12.01.2020
4466 Rain 9 1018 66 0 1.72 32 08:24 12.01.2020
4467 Rain 6 1021 79 0 2.75 43 07:49 12.01.2020
4468 Rain 6 1021 79 0 2.75 43 07:30 12.01.2020
4469 Rain 6 1021 79 0 2.75 43 06:59 12.01.2020
4470 Rain 6 1021 79 0 2.75 43 06:59 12.01.2020
4471 Rain 6 1021 79 0 2.75 43 06:59 12.01.2020
4472 Rain 6 1021 79 0 2.75 43 06:36 12.01.2020
4473 Rain 6 1021 79 0 2.75 43 05:55 12.01.2020
4474 Snow 3 1023 87 0 3.47 51 04:56 12.01.2020
4475 Snow 3 1023 87 0 3.47 51 03:43 12.01.2020
4476 Snow 3 1023 87 0 3.47 51 02:48 12.01.2020
4477 Snow 3 1023 87 0 3.47 51 02:24 12.01.2020
4478 Snow 3 1023 71 0 3.19 10 01:34 12.01.2020
4479 Snow 3 1023 71 0 3.19 10 00:46 12.01.2020
4480 Snow 3 1023 71 0 3.19 10 00:22 12.01.2020
4481 Snow 3 1023 71 0 3.19 10 00:22 12.01.2020
4482 Snow 3 1023 71 0 3.19 10 23:59 11.01.2020
4483 Snow 3 1023 71 0 3.19 10 23:41 11.01.2020
4484 Snow 4 1024 56 0 3.45 12 23:18 11.01.2020
4485 Snow 4 1024 56 0 3.45 12 22:56 11.01.2020
4486 Snow 4 1024 56 0 3.45 12 22:38 11.01.2020
4487 Snow 4 1024 56 0 3.45 12 22:19 11.01.2020
4488 Snow 4 1024 56 0 3.45 12 21:44 11.01.2020
4489 Snow 4 1024 56 0 3.45 12 21:20 11.01.2020
4490 Snow 4 1024 56 0 3.45 12 20:59 11.01.2020
4491 Snow 4 1024 56 0 3.45 12 20:39 11.01.2020
4492 Clouds 4 1025 45 0 2.58 355 20:20 11.01.2020
4493 Clouds 4 1024 42 0 2.27 347 19:57 11.01.2020
4494 Clouds 4 1024 42 0 2.27 347 19:38 11.01.2020
4495 Clouds 4 1024 42 0 2.27 347 19:38 11.01.2020
4496 Clouds 4 1024 42 0 2.27 347 19:20 11.01.2020
4497 Clouds 4 1024 42 0 2.27 347 18:56 11.01.2020
4498 Clouds 4 1024 42 0 2.27 347 18:37 11.01.2020
4499 Clouds 4 1024 42 0 2.27 347 18:19 11.01.2020
4500 Clouds 4 1024 42 0 2.27 347 18:19 11.01.2020
4501 Clouds 4 1024 42 0 2.27 347 17:57 11.01.2020
4502 Clouds 4 1024 42 0 2.27 347 17:39 11.01.2020
4503 Clouds 4 1024 40 0 2.53 6 17:18 11.01.2020
4504 Clouds 4 1024 40 0 2.53 6 16:44 11.01.2020
4505 Clouds 4 1024 40 0 2.53 6 16:25 11.01.2020
4506 Clouds 4 1024 40 0 2.53 6 15:57 11.01.2020
4507 Clouds 4 1024 40 0 2.53 6 15:39 11.01.2020
4508 Clouds 4 1024 40 0 2.53 6 15:20 11.01.2020
4509 Clouds 4 1024 40 0 2.53 6 14:47 11.01.2020
4510 Clouds 4 1024 40 0 2.53 6 14:26 11.01.2020
4511 Clouds 4 1022 51 0 1.8 17 13:59 11.01.2020
4512 Clouds 4 1022 51 0 1.8 17 13:38 11.01.2020
4513 Clouds 4 1022 51 0 1.8 17 13:20 11.01.2020
4514 Clouds 4 1021 50 0 1.81 23 12:56 11.01.2020
4515 Clouds 4 1021 50 0 1.81 23 12:38 11.01.2020
4516 Clouds 4 1021 50 0 1.81 23 12:20 11.01.2020
4517 Clouds 4 1021 50 0 1.81 23 11:45 11.01.2020
4518 Clouds 4 1021 50 0 1.81 23 11:24 11.01.2020
4519 Clouds 8 1020 35 0 1.71 204 10:50 11.01.2020
4520 Clouds 8 1020 35 0 1.71 204 10:30 11.01.2020
4521 Clouds 8 1020 35 0 1.71 204 09:55 11.01.2020
4522 Clouds 8 1020 35 0 1.71 204 09:37 11.01.2020
4523 Clouds 8 1020 35 0 1.71 204 09:18 11.01.2020
4524 Clouds 8 1020 35 0 1.71 204 08:41 11.01.2020
4525 Clouds 8 1024 27 0 1.07 205 08:21 11.01.2020
4526 Clouds 8 1024 29 0 1.42 232 07:43 11.01.2020
4527 Clouds 8 1024 29 0 1.42 232 07:25 11.01.2020
4528 Clouds 8 1024 29 0 1.42 232 06:45 11.01.2020
4529 Clouds 8 1024 29 0 1.42 232 05:34 11.01.2020
4530 Clouds 2 1027 28 0 3.25 8 04:46 11.01.2020
4531 Clouds 2 1027 28 0 3.25 8 04:27 11.01.2020
4532 Clouds 2 1027 28 0 3.25 8 02:49 11.01.2020
4533 Clouds 0 1027 24 0 3.69 1 01:57 11.01.2020
4534 Clouds 0 1027 24 0 3.69 1 01:38 11.01.2020
4535 Clouds 1 1027 25 0 3.51 358 01:18 11.01.2020
4536 Clouds 1 1027 25 0 3.51 358 00:38 11.01.2020
4537 Clouds 1 1027 25 0 3.51 358 23:59 10.01.2020
4538 Clouds 1 1027 25 0 3.51 358 23:40 10.01.2020
4539 Clouds 1 1027 25 0 3.51 358 23:40 10.01.2020
4540 Clouds 0 1028 30 0 3.94 8 23:21 10.01.2020
4541 Clouds 0 1028 30 0 3.94 8 22:56 10.01.2020
4542 Clouds 0 1028 30 0 3.94 8 22:38 10.01.2020
4543 Clouds 0 1028 30 0 3.94 8 22:19 10.01.2020
4544 Clouds 0 1028 30 0 3.94 8 21:55 10.01.2020
4545 Clouds 0 1028 30 0 3.94 8 21:36 10.01.2020
4546 Clouds 0 1028 30 0 3.94 8 21:18 10.01.2020
4547 Clouds 0 1028 30 0 3.94 8 20:42 10.01.2020
4548 Clouds 0 1027 28 0 3.88 9 20:24 10.01.2020
4549 Clouds 0 1028 33 0 3.85 0 19:56 10.01.2020
4550 Clouds 0 1028 33 0 3.85 0 19:37 10.01.2020
4551 Clouds 0 1028 33 0 3.85 0 19:19 10.01.2020
4552 Clouds 0 1028 33 0 3.85 0 19:19 10.01.2020
4553 Clouds 0 1028 33 0 3.85 0 18:42 10.01.2020
4554 Clouds 0 1028 33 0 3.85 0 18:19 10.01.2020
4555 Clouds 0 1028 33 0 3.85 0 17:57 10.01.2020
4556 Clouds 0 1028 33 0 3.85 0 17:39 10.01.2020
4557 Clouds 0 1027 41 0 3.99 21 17:20 10.01.2020
4558 Clouds 0 1027 41 0 3.99 21 16:57 10.01.2020
4559 Clouds 0 1027 41 0 3.99 21 16:38 10.01.2020
4560 Clouds 0 1027 41 0 3.99 21 16:19 10.01.2020
4561 Clouds 0 1027 41 0 3.99 21 15:56 10.01.2020
4562 Clouds 0 1027 41 0 3.99 21 15:37 10.01.2020
4563 Clouds 0 1027 41 0 3.99 21 15:18 10.01.2020
4564 Clouds 0 1027 41 0 3.99 21 14:55 10.01.2020
4565 Clouds 0 1027 41 0 3.99 21 14:37 10.01.2020
4566 Clear 0 1023 57 0 2.25 25 14:18 10.01.2020
4567 Clear 0 1023 57 0 2.25 25 13:44 10.01.2020
4568 Clear 0 1023 56 0 2.22 22 13:26 10.01.2020
4569 Clear 0 1023 56 0 2.22 22 12:59 10.01.2020
4570 Clear 0 1023 56 0 2.22 22 12:39 10.01.2020
4571 Clear 0 1023 56 0 2.22 22 12:21 10.01.2020
4572 Clear 0 1023 56 0 2.22 22 12:21 10.01.2020
4573 Clear 0 1023 56 0 2.22 22 11:56 10.01.2020
4574 Clear 0 1023 56 0 2.22 22 11:38 10.01.2020
4575 Clear 6 1020 38 0 2.05 206 11:19 10.01.2020
4576 Clear 6 1020 38 0 2.05 206 10:58 10.01.2020
4577 Clear 6 1020 38 0 2.05 206 10:58 10.01.2020
4578 Clear 6 1020 38 0 2.05 206 10:58 10.01.2020
4579 Clear 6 1020 38 0 2.05 206 10:37 10.01.2020
4580 Clear 6 1020 38 0 2.05 206 10:18 10.01.2020
4581 Clear 6 1020 38 0 2.05 206 10:18 10.01.2020
4582 Clear 6 1020 38 0 2.05 206 09:45 10.01.2020
4583 Clear 6 1020 38 0 2.05 206 09:25 10.01.2020
4584 Clear 6 1020 38 0 2.05 206 08:56 10.01.2020
4585 Clear 6 1020 38 0 2.05 206 08:37 10.01.2020
4586 Clear 6 1024 24 0 1.33 212 08:18 10.01.2020
4587 Clear 6 1024 25 0 1.52 216 07:41 10.01.2020
4588 Clear 6 1024 25 0 1.52 216 07:19 10.01.2020
4589 Clear 6 1024 25 0 1.52 216 06:37 10.01.2020
4590 Clear 6 1024 25 0 1.52 216 06:19 10.01.2020
4591 Clear -1 1028 25 0 3.16 357 05:19 10.01.2020
4592 Clear -1 1028 25 0 3.16 357 03:31 10.01.2020
4593 Clear -1 1028 25 0 3.16 357 02:52 10.01.2020
4594 Clear -1 1028 25 0 3.16 357 02:33 10.01.2020
4595 Clear -3 1027 25 0 3.75 358 01:32 10.01.2020
4596 Clear -3 1027 25 0 3.75 358 00:53 10.01.2020
4597 Clear -3 1027 25 0 3.75 358 00:34 10.01.2020
4598 Clear -3 1027 25 0 3.75 358 23:57 09.01.2020
4599 Clear -3 1027 25 0 3.75 358 23:37 09.01.2020
4600 Clear -3 1028 31 0 3.71 1 23:19 09.01.2020
4601 Clear -3 1028 31 0 3.71 1 22:56 09.01.2020
4602 Clear -3 1028 31 0 3.71 1 22:37 09.01.2020
4603 Clear -3 1028 31 0 3.71 1 22:18 09.01.2020
4604 Clear -3 1028 31 0 3.71 1 21:55 09.01.2020
4605 Clear -3 1028 31 0 3.71 1 21:37 09.01.2020
4606 Clear -3 1028 31 0 3.71 1 21:18 09.01.2020
4607 Clear -3 1028 31 0 3.71 1 20:55 09.01.2020
4608 Clear -3 1028 31 0 3.71 1 20:37 09.01.2020
4609 Clear -3 1030 34 0 3.58 1 20:18 09.01.2020
4610 Clear -3 1030 34 0 3.58 1 20:18 09.01.2020
4611 Clear -3 1030 33 0 3.68 360 19:39 09.01.2020
4612 Clear -3 1030 33 0 3.68 360 19:21 09.01.2020
4613 Clear -3 1030 33 0 3.68 360 18:59 09.01.2020
4614 Clear -3 1030 33 0 3.68 360 18:40 09.01.2020
4615 Clear -3 1030 33 0 3.68 360 18:21 09.01.2020
4616 Clear -3 1030 33 0 3.68 360 17:57 09.01.2020
4617 Clear -3 1030 33 0 3.68 360 17:39 09.01.2020
4618 Clear -4 1029 34 0 3.35 8 17:18 09.01.2020
4619 Clear -4 1029 34 0 3.35 8 16:42 09.01.2020
4620 Clear -4 1029 34 0 3.35 8 16:21 09.01.2020
4621 Clear -4 1029 34 0 3.35 8 15:43 09.01.2020
4622 Clear -4 1029 34 0 3.35 8 15:23 09.01.2020
4623 Clear -4 1029 34 0 3.35 8 14:59 09.01.2020
4624 Clear -4 1029 34 0 3.35 8 14:41 09.01.2020
4625 Clear -3 1025 66 0 1.38 17 14:19 09.01.2020
4626 Clear -3 1025 66 0 1.38 17 13:56 09.01.2020
4627 Clear -3 1025 66 0 1.38 17 13:38 09.01.2020
4628 Clear -3 1025 66 0 1.38 17 13:19 09.01.2020
4629 Clear -3 1024 65 0 1.32 11 12:56 09.01.2020
4630 Clear -3 1024 65 0 1.32 11 12:38 09.01.2020
4631 Clear -3 1024 65 0 1.32 11 12:18 09.01.2020
4632 Clear -3 1024 65 0 1.32 11 11:42 09.01.2020
4633 Clear -3 1024 65 0 1.32 11 11:24 09.01.2020
4634 Clear -3 1024 65 0 1.32 11 11:24 09.01.2020
4635 Clear -3 1024 65 0 1.32 11 11:24 09.01.2020
4636 Clear 3 1021 41 0 2.24 199 10:58 09.01.2020
4637 Clear 3 1021 41 0 2.24 199 10:40 09.01.2020
4638 Clear 3 1021 41 0 2.24 199 10:21 09.01.2020
4639 Clear 3 1021 41 0 2.24 199 09:47 09.01.2020
4640 Clear 3 1021 41 0 2.24 199 09:25 09.01.2020
4641 Clear 3 1021 41 0 2.24 199 08:59 09.01.2020
4642 Clear 3 1021 41 0 2.24 199 08:39 09.01.2020
4643 Clear 0 1025 71 0 0.9 248 08:21 09.01.2020
4644 Clear 0 1025 71 0 0.9 248 07:53 09.01.2020
4645 Clear 0 1025 71 0 0.9 248 07:33 09.01.2020
4646 Clear 0 1025 71 0 0.9 248 06:52 09.01.2020
4647 Clear 0 1025 71 0 0.9 248 06:32 09.01.2020
4648 Clear 0 1025 71 0 0.9 248 05:52 09.01.2020
4649 Clear 0 1025 71 0 0.9 248 05:28 09.01.2020
4650 Clear -6 1030 63 0 3.76 355 04:41 09.01.2020
4651 Clear -6 1030 63 0 3.76 355 03:28 09.01.2020
4652 Clear -6 1030 63 0 3.76 355 02:47 09.01.2020
4653 Clear -8 1028 61 0 3.72 357 01:53 09.01.2020
4654 Clear -8 1028 61 0 3.72 357 01:33 09.01.2020
4655 Clear -8 1028 60 0 3.87 357 00:39 09.01.2020
4656 Clear -8 1028 60 0 3.87 357 00:19 09.01.2020
4657 Clear -8 1028 60 0 3.87 357 23:41 08.01.2020
4658 Clear -8 1028 60 0 3.87 357 23:23 08.01.2020
4659 Clear -8 1026 65 0 4.22 2 22:56 08.01.2020
4660 Clear -8 1026 65 0 4.22 2 22:38 08.01.2020
4661 Clear -8 1026 65 0 4.22 2 22:19 08.01.2020
4662 Clear -8 1026 65 0 4.22 2 21:56 08.01.2020
4663 Clear -8 1026 65 0 4.22 2 21:37 08.01.2020
4664 Clear -8 1026 65 0 4.22 2 21:18 08.01.2020
4665 Clear -8 1026 65 0 4.22 2 20:57 08.01.2020
4666 Clear -8 1026 65 0 4.22 2 20:38 08.01.2020
4667 Clouds -7 1022 70 0 3.85 6 20:19 08.01.2020
4668 Clouds -7 1022 70 0 3.85 6 19:55 08.01.2020
4669 Clouds -7 1022 70 0 3.85 6 19:55 08.01.2020
4670 Clouds -7 1022 70 0 3.85 6 19:36 08.01.2020
4671 Clouds -7 1022 70 0 3.85 6 19:18 08.01.2020
4672 Clouds -7 1022 70 0 3.85 6 18:54 08.01.2020
4673 Clouds -7 1022 70 0 3.85 6 18:36 08.01.2020
4674 Clouds -7 1022 70 0 3.85 6 18:18 08.01.2020
4675 Clouds -7 1022 70 0 3.85 6 17:42 08.01.2020
4676 Clouds -7 1022 70 0 3.85 6 17:23 08.01.2020
4677 Clouds -5 1021 82 0 2.55 23 16:57 08.01.2020
4678 Clouds -5 1021 82 0 2.55 23 16:38 08.01.2020
4679 Clouds -5 1021 82 0 2.55 23 16:19 08.01.2020
4680 Clouds -5 1021 82 0 2.55 23 16:19 08.01.2020
4681 Clouds -5 1021 82 0 2.55 23 15:56 08.01.2020
4682 Clouds -5 1021 82 0 2.55 23 15:38 08.01.2020
4683 Clouds -5 1021 82 0 2.55 23 15:18 08.01.2020
4684 Clouds -5 1021 82 0 2.55 23 14:41 08.01.2020
4685 Snow -4 1016 95 0 0.73 79 14:21 08.01.2020
4686 Snow -4 1016 95 0 0.73 79 13:56 08.01.2020
4687 Snow -4 1016 95 0 0.73 79 13:37 08.01.2020
4688 Snow -3 1015 97 0 1.05 103 13:18 08.01.2020
4689 Snow -3 1015 97 0 1.05 103 12:41 08.01.2020
4690 Snow -3 1015 97 0 1.05 103 12:18 08.01.2020
4691 Snow -3 1015 97 0 1.05 103 11:55 08.01.2020
4692 Snow -3 1015 97 0 1.05 103 11:37 08.01.2020
4693 Snow -2 1013 97 0 1.95 140 11:18 08.01.2020
4694 Snow -2 1013 97 0 1.95 140 10:41 08.01.2020
4695 Snow -2 1013 97 0 1.95 140 10:22 08.01.2020
4696 Snow -2 1013 97 0 1.95 140 09:59 08.01.2020
4697 Snow -2 1013 97 0 1.95 140 09:41 08.01.2020
4698 Snow -2 1013 97 0 1.95 140 09:19 08.01.2020
4699 Snow -2 1013 97 0 1.95 140 08:43 08.01.2020
4700 Snow -2 1013 97 0 1.95 140 08:24 08.01.2020
4701 Snow -1 1017 87 0 0.48 115 07:59 08.01.2020
4702 Snow -1 1017 87 0 0.48 115 07:41 08.01.2020
4703 Snow -1 1017 87 0 0.48 115 07:23 08.01.2020
4704 Snow -1 1017 87 0 0.48 115 06:44 08.01.2020
4705 Snow -1 1017 87 0 0.48 115 05:59 08.01.2020
4706 Snow -1 1017 87 0 0.48 115 05:28 08.01.2020
4707 Snow -3 1020 85 0 1.77 346 04:46 08.01.2020
4708 Snow -3 1020 85 0 1.77 346 03:33 08.01.2020
4709 Snow -3 1020 85 0 1.77 346 02:44 08.01.2020
4710 Snow -2 1017 99 0 1.47 226 02:19 08.01.2020
4711 Snow -2 1017 99 0 1.47 226 01:40 08.01.2020
4712 Snow -3 1017 97 0 2.03 276 00:59 08.01.2020
4713 Snow -3 1017 97 0 2.03 276 00:27 08.01.2020
4714 Snow -3 1017 97 0 2.03 276 23:47 07.01.2020
4715 Snow -2 1016 99 0 2.25 202 23:22 07.01.2020
4716 Snow -2 1016 99 0 2.25 202 22:58 07.01.2020
4717 Snow -2 1016 99 0 2.25 202 22:39 07.01.2020
4718 Snow -2 1016 99 0 2.25 202 22:20 07.01.2020
4719 Snow -2 1016 99 0 2.25 202 21:55 07.01.2020
4720 Snow -2 1016 99 0 2.25 202 21:37 07.01.2020
4721 Snow -2 1016 99 0 2.25 202 21:19 07.01.2020
4722 Snow -2 1016 99 0 2.25 202 20:42 07.01.2020
4723 Snow -2 1016 99 0 1.21 190 20:24 07.01.2020
4724 Snow -2 1015 99 0 2.31 171 19:59 07.01.2020
4725 Snow -2 1015 99 0 2.31 171 19:38 07.01.2020
4726 Snow -2 1015 99 0 2.31 171 19:19 07.01.2020
4727 Snow -2 1015 99 0 2.31 171 18:58 07.01.2020
4728 Snow -2 1015 99 0 2.31 171 18:39 07.01.2020
4729 Snow -2 1015 99 0 2.31 171 18:18 07.01.2020
4730 Snow -2 1015 99 0 2.31 171 18:18 07.01.2020
4731 Snow -2 1015 99 0 2.31 171 17:58 07.01.2020
4732 Snow -2 1015 99 0 2.31 171 17:39 07.01.2020
4733 Snow -1 1015 99 0 1.21 226 17:20 07.01.2020
4734 Snow -1 1015 99 0 1.21 226 16:56 07.01.2020
4735 Snow -1 1015 99 0 1.21 226 16:37 07.01.2020
4736 Snow -1 1015 99 0 1.21 226 16:18 07.01.2020
4737 Snow -1 1015 99 0 1.21 226 15:55 07.01.2020
4738 Snow -1 1015 99 0 1.21 226 15:36 07.01.2020
4739 Snow -1 1015 99 0 1.21 226 15:18 07.01.2020
4740 Snow -1 1015 99 0 1.21 226 14:42 07.01.2020
4741 Snow -1 1015 99 0 1.21 226 14:23 07.01.2020
4742 Snow -1 1015 99 0 1.21 226 14:23 07.01.2020
4743 Snow -1 1013 99 0 2.33 185 13:56 07.01.2020
4744 Snow -1 1013 99 0 2.33 185 13:38 07.01.2020
4745 Snow 0 1013 99 0 1.79 180 13:18 07.01.2020
4746 Snow 0 1013 99 0 1.79 180 12:41 07.01.2020
4747 Snow 0 1013 99 0 1.79 180 12:19 07.01.2020
4748 Snow 0 1013 99 0 1.79 180 11:44 07.01.2020
4749 Snow 0 1013 99 0 1.79 180 11:23 07.01.2020
4750 Snow 2 1014 95 0 1.13 153 10:59 07.01.2020
4751 Snow 2 1014 95 0 1.13 153 10:40 07.01.2020
4752 Snow 2 1014 95 0 1.13 153 10:22 07.01.2020
4753 Snow 2 1014 95 0 1.13 153 09:56 07.01.2020
4754 Snow 2 1014 95 0 1.13 153 09:37 07.01.2020
4755 Snow 2 1014 95 0 1.13 153 09:19 07.01.2020
4756 Snow 2 1014 95 0 1.13 153 08:42 07.01.2020
4757 Snow 3 1018 92 0 2.47 195 08:21 07.01.2020
4758 Snow 1 1019 98 0 1.44 176 07:51 07.01.2020
4759 Snow 1 1019 98 0 1.44 176 07:26 07.01.2020
4760 Snow 1 1019 98 0 1.44 176 06:52 07.01.2020
4761 Snow 1 1019 98 0 1.44 176 06:32 07.01.2020
4762 Snow 1 1019 98 0 1.44 176 05:46 07.01.2020
4763 Snow 0 1022 89 0 1.03 19 04:31 07.01.2020
4764 Snow 0 1022 89 0 1.03 19 03:26 07.01.2020
4765 Snow -1 1019 97 0 1 22 02:21 07.01.2020
4766 Snow -1 1019 97 0 1 22 01:51 07.01.2020
4767 Snow -1 1019 97 0 1 22 01:26 07.01.2020
4768 Snow -1 1019 97 0 1.11 19 00:23 07.01.2020
4769 Snow -1 1019 97 0 1.11 19 23:59 06.01.2020
4770 Snow -1 1019 97 0 1.11 19 23:39 06.01.2020
4771 Snow -1 1019 98 0 1.15 36 23:21 06.01.2020
4772 Snow -1 1019 98 0 1.15 36 22:58 06.01.2020
4773 Snow -1 1019 98 0 1.15 36 22:37 06.01.2020
4774 Snow -1 1019 98 0 1.15 36 22:19 06.01.2020
4775 Snow -1 1019 98 0 1.15 36 21:55 06.01.2020
4776 Snow -1 1019 98 0 1.15 36 21:37 06.01.2020
4777 Snow -1 1019 98 0 1.15 36 21:18 06.01.2020
4778 Snow -1 1019 98 0 1.15 36 20:55 06.01.2020
4779 Snow -1 1019 98 0 1.15 36 20:37 06.01.2020
4780 Snow -1 1019 98 0 0.91 50 20:19 06.01.2020
4781 Snow -1 1019 98 0 0.91 50 20:19 06.01.2020
4782 Snow -1 1020 98 0 1.05 51 19:55 06.01.2020
4783 Snow -1 1020 98 0 1.05 51 19:36 06.01.2020
4784 Snow -1 1020 98 0 1.05 51 19:36 06.01.2020
4785 Snow -1 1020 98 0 1.05 51 19:18 06.01.2020
4786 Snow -1 1020 98 0 1.05 51 18:44 06.01.2020
4787 Snow -1 1020 98 0 1.05 51 18:20 06.01.2020
4788 Snow -1 1020 98 0 1.05 51 17:40 06.01.2020
4789 Snow -1 1020 98 0 0.53 54 17:20 06.01.2020
4790 Snow -1 1020 98 0 0.53 54 16:57 06.01.2020
4791 Snow -1 1020 98 0 0.53 54 16:39 06.01.2020
4792 Snow -1 1020 98 0 0.53 54 16:21 06.01.2020
4793 Snow -1 1020 98 0 0.53 54 15:59 06.01.2020
4794 Snow -1 1020 98 0 0.53 54 15:36 06.01.2020
4795 Snow -1 1020 98 0 0.53 54 15:18 06.01.2020
4796 Snow -1 1020 98 0 0.53 54 14:41 06.01.2020
4797 Snow -1 1020 98 0 0.53 54 14:41 06.01.2020
4798 Snow 0 1018 98 0 0.3 223 14:22 06.01.2020
4799 Snow 0 1018 98 0 0.3 223 13:59 06.01.2020
4800 Snow 0 1018 98 0 0.3 223 13:39 06.01.2020
4801 Snow 0 1019 98 0 0.47 169 13:21 06.01.2020
4802 Snow 0 1019 98 0 0.47 169 12:56 06.01.2020
4803 Snow 0 1019 98 0 0.47 169 12:37 06.01.2020
4804 Snow 0 1019 98 0 0.47 169 12:19 06.01.2020
4805 Snow 0 1019 98 0 0.47 169 12:19 06.01.2020
4806 Snow 0 1019 98 0 0.47 169 11:43 06.01.2020
4807 Snow 0 1019 98 0 0.47 169 11:43 06.01.2020
4808 Snow 0 1019 98 0 0.47 169 11:24 06.01.2020
4809 Snow 1 1018 95 0 1.19 200 10:59 06.01.2020
4810 Snow 1 1018 95 0 1.19 200 10:41 06.01.2020
4811 Snow 1 1018 95 0 1.19 200 10:21 06.01.2020
4812 Snow 1 1018 95 0 1.19 200 09:42 06.01.2020
4813 Snow 1 1018 95 0 1.19 200 09:23 06.01.2020
4814 Snow 1 1018 95 0 1.19 200 08:55 06.01.2020
4815 Snow 1 1018 95 0 1.19 200 08:37 06.01.2020
4816 Snow 2 1021 77 0 1.96 192 07:57 06.01.2020
4817 Snow 2 1021 77 0 1.96 192 07:38 06.01.2020
4818 Snow 2 1021 77 0 1.96 192 06:51 06.01.2020
4819 Snow 2 1021 77 0 1.96 192 06:32 06.01.2020
4820 Snow 2 1021 77 0 1.96 192 05:48 06.01.2020
4821 Snow 2 1021 77 0 1.96 192 05:23 06.01.2020
4822 Snow 1 1022 74 0 1.64 39 04:23 06.01.2020
4823 Snow 1 1022 74 0 1.64 39 03:30 06.01.2020
4824 Snow 1 1022 74 0 1.64 39 02:27 06.01.2020
4825 Snow 0 1021 78 0 2.57 30 01:53 06.01.2020
4826 Snow 0 1022 72 0 2.45 31 01:30 06.01.2020
4827 Snow 0 1022 72 0 2.45 31 00:46 06.01.2020
4828 Snow 0 1022 72 0 2.45 31 00:27 06.01.2020
4829 Snow 0 1022 72 0 2.45 31 23:57 05.01.2020
4830 Snow 0 1022 72 0 2.45 31 23:38 05.01.2020
4831 Snow 0 1023 63 0 2.65 29 23:19 05.01.2020
4832 Snow 0 1023 63 0 2.65 29 22:40 05.01.2020
4833 Snow 0 1023 63 0 2.65 29 22:20 05.01.2020
4834 Snow 0 1023 63 0 2.65 29 22:20 05.01.2020
4835 Snow 0 1023 63 0 2.65 29 21:57 05.01.2020
4836 Snow 0 1023 63 0 2.65 29 21:39 05.01.2020
4837 Snow 0 1023 63 0 2.65 29 21:20 05.01.2020
4838 Snow 0 1023 63 0 2.65 29 20:56 05.01.2020
4839 Snow 0 1023 63 0 2.65 29 20:38 05.01.2020
4840 Clouds 0 1024 42 0 2.01 16 20:19 05.01.2020
4841 Clouds 0 1024 42 0 2.01 16 19:58 05.01.2020
4842 Clouds 0 1024 42 0 2.01 16 19:38 05.01.2020
4843 Clouds 0 1024 42 0 2.01 16 19:20 05.01.2020
4844 Clouds 0 1024 42 0 2.01 16 19:20 05.01.2020
4845 Clouds 0 1024 42 0 2.01 16 18:55 05.01.2020
4846 Clouds 0 1024 42 0 2.01 16 18:37 05.01.2020
4847 Clouds 0 1024 42 0 2.01 16 18:19 05.01.2020
4848 Clouds 0 1024 42 0 2.01 16 17:57 05.01.2020
4849 Clouds 0 1024 42 0 2.01 16 17:38 05.01.2020
4850 Clouds 0 1024 42 0 2.01 16 17:38 05.01.2020
4851 Clouds 0 1024 42 0 2.01 16 17:38 05.01.2020
4852 Clouds 0 1024 42 0 2.01 16 17:38 05.01.2020
4853 Clouds -1 1024 44 0 1.36 37 17:19 05.01.2020
4854 Clouds -1 1024 44 0 1.36 37 16:56 05.01.2020
4855 Clouds -1 1024 44 0 1.36 37 16:38 05.01.2020
4856 Clouds -1 1024 44 0 1.36 37 16:19 05.01.2020
4857 Clouds -1 1024 44 0 1.36 37 15:38 05.01.2020
4858 Clouds -1 1024 44 0 1.36 37 15:38 05.01.2020
4859 Clouds -1 1024 44 0 1.36 37 15:20 05.01.2020
4860 Clouds -1 1024 44 0 1.36 37 14:56 05.01.2020
4861 Clouds -1 1024 44 0 1.36 37 14:37 05.01.2020
4862 Clouds -1 1021 53 0 0.86 34 14:19 05.01.2020
4863 Clouds -1 1021 53 0 0.86 34 13:56 05.01.2020
4864 Clouds -1 1021 53 0 0.86 34 13:37 05.01.2020
4865 Clouds -1 1021 54 0 0.87 37 13:18 05.01.2020
4866 Clouds -1 1021 53 0 0.86 34 13:18 05.01.2020
4867 Clouds -1 1021 54 0 0.87 37 12:55 05.01.2020
4868 Clouds -1 1021 54 0 0.87 37 12:37 05.01.2020
4869 Clouds -1 1021 54 0 0.87 37 12:18 05.01.2020
4870 Clouds -1 1021 54 0 0.87 37 12:18 05.01.2020
4871 Clouds -1 1021 54 0 0.87 37 11:43 05.01.2020
4872 Clouds 3 1019 33 0 2.54 212 11:20 05.01.2020
4873 Clouds 3 1019 33 0 2.54 212 10:58 05.01.2020
4874 Clouds 3 1019 33 0 2.54 212 10:39 05.01.2020
4875 Clouds 3 1019 33 0 2.54 212 10:39 05.01.2020
4876 Clouds 3 1019 33 0 2.54 212 10:19 05.01.2020
4877 Clouds 3 1019 33 0 2.54 212 09:42 05.01.2020
4878 Clouds 3 1019 33 0 2.54 212 09:22 05.01.2020
4879 Clouds 3 1019 33 0 2.54 212 08:51 05.01.2020
4880 Clouds 3 1019 33 0 2.54 212 08:32 05.01.2020
4881 Clouds 2 1024 30 0 1.37 238 07:59 05.01.2020
4882 Clouds 2 1024 30 0 1.37 238 07:39 05.01.2020
4883 Clouds 2 1024 30 0 1.37 238 07:20 05.01.2020
4884 Clouds 2 1024 30 0 1.37 238 06:40 05.01.2020
4885 Clouds 2 1024 30 0 1.37 238 05:34 05.01.2020
4886 Clouds -3 1029 47 0 1.9 15 04:49 05.01.2020
4887 Clouds -3 1029 47 0 1.9 15 04:18 05.01.2020
4888 Clouds -3 1029 47 0 1.9 15 03:18 05.01.2020
4889 Clouds -3 1029 47 0 1.9 15 02:32 05.01.2020
4890 Clear -5 1028 54 0 2.39 358 01:49 05.01.2020
4891 Clear -5 1028 57 0 2.42 359 01:20 05.01.2020
4892 Clear -5 1028 57 0 2.42 359 00:56 05.01.2020
4893 Clear -5 1028 57 0 2.42 359 00:37 05.01.2020
4894 Clear -5 1028 57 0 2.42 359 00:19 05.01.2020
4895 Clear -5 1028 57 0 2.42 359 23:41 04.01.2020
4896 Clear -5 1027 57 0 3.56 7 23:20 04.01.2020
4897 Clear -5 1027 57 0 3.56 7 22:55 04.01.2020
4898 Clear -5 1027 57 0 3.56 7 22:37 04.01.2020
4899 Clear -5 1027 57 0 3.56 7 22:19 04.01.2020
4900 Clear -5 1027 57 0 3.56 7 21:55 04.01.2020
4901 Clear -5 1027 57 0 3.56 7 21:36 04.01.2020
4902 Clear -5 1027 57 0 3.56 7 21:18 04.01.2020
4903 Clear -5 1027 57 0 3.56 7 20:41 04.01.2020
4904 Clear -5 1027 56 0 3.55 9 20:22 04.01.2020
4905 Snow -4 1026 68 0 2.91 0 19:57 04.01.2020
4906 Snow -4 1026 68 0 2.91 0 19:39 04.01.2020
4907 Snow -4 1026 68 0 2.91 0 19:21 04.01.2020
4908 Snow -4 1026 68 0 2.91 0 18:57 04.01.2020
4909 Snow -4 1026 68 0 2.91 0 18:38 04.01.2020
4910 Snow -4 1026 68 0 2.91 0 18:19 04.01.2020
4911 Snow -4 1026 68 0 2.91 0 17:55 04.01.2020
4912 Snow -4 1026 68 0 2.91 0 17:37 04.01.2020
4913 Clear -4 1024 78 0 2.41 8 17:18 04.01.2020
4914 Clear -4 1024 78 0 2.41 8 16:41 04.01.2020
4915 Clear -4 1024 78 0 2.41 8 16:23 04.01.2020
4916 Clear -4 1024 78 0 2.41 8 15:57 04.01.2020
4917 Clear -4 1024 78 0 2.41 8 15:38 04.01.2020
4918 Clear -4 1024 78 0 2.41 8 15:19 04.01.2020
4919 Clear -4 1024 78 0 2.41 8 14:56 04.01.2020
4920 Clear -4 1024 78 0 2.41 8 14:38 04.01.2020
4921 Snow -2 1019 89 0 0.69 234 14:19 04.01.2020
4922 Snow -2 1019 89 0 0.69 234 13:55 04.01.2020
4923 Snow -2 1019 89 0 0.69 234 13:36 04.01.2020
4924 Snow -2 1018 88 0 0.59 210 13:18 04.01.2020
4925 Snow -2 1018 88 0 0.59 210 12:41 04.01.2020
4926 Snow -2 1018 88 0 0.59 210 12:19 04.01.2020
4927 Snow -2 1018 88 0 0.59 210 11:58 04.01.2020
4928 Snow -2 1018 88 0 0.59 210 11:39 04.01.2020
4929 Snow 2 1017 68 0 2.52 231 11:19 04.01.2020
4930 Snow 2 1017 68 0 2.52 231 10:42 04.01.2020
4931 Snow 2 1017 68 0 2.52 231 10:23 04.01.2020
4932 Snow 2 1017 68 0 2.52 231 09:59 04.01.2020
4933 Snow 2 1017 68 0 2.52 231 09:41 04.01.2020
4934 Snow 2 1017 68 0 2.52 231 09:21 04.01.2020
4935 Snow 2 1017 68 0 2.52 231 08:41 04.01.2020
4936 Snow 2 1021 64 0 2.22 219 08:21 04.01.2020
4937 Snow 2 1021 60 0 2.31 214 07:44 04.01.2020
4938 Snow 2 1021 60 0 2.31 214 07:20 04.01.2020
4939 Snow 2 1021 60 0 2.31 214 06:33 04.01.2020
4940 Snow 2 1021 60 0 2.31 214 05:39 04.01.2020
4941 Snow -1 1024 77 0 1.25 56 04:44 04.01.2020
4942 Snow -1 1024 77 0 1.25 56 04:25 04.01.2020
4943 Snow -1 1024 77 0 1.25 56 03:18 04.01.2020
4944 Snow -1 1024 77 0 1.25 56 02:23 04.01.2020
4945 Clouds -1 1024 63 0 2.05 19 01:55 04.01.2020
4946 Clouds -1 1024 63 0 2.05 19 01:32 04.01.2020
4947 Clouds -2 1024 54 0 2.29 10 00:46 04.01.2020
4948 Clouds -2 1024 54 0 2.29 10 00:27 04.01.2020
4949 Clouds -2 1024 54 0 2.29 10 23:48 03.01.2020
4950 Clouds -2 1024 54 0 2.29 10 23:26 03.01.2020
4951 Clouds -1 1025 48 0 1.15 21 22:54 03.01.2020
4952 Clouds -1 1025 48 0 1.15 21 22:36 03.01.2020
4953 Clouds -1 1025 48 0 1.15 21 22:18 03.01.2020
4954 Clouds -1 1025 48 0 1.15 21 21:54 03.01.2020
4955 Clouds -1 1025 48 0 1.15 21 21:36 03.01.2020
4956 Clouds -1 1025 48 0 1.15 21 21:18 03.01.2020
4957 Clouds -1 1025 48 0 1.15 21 20:42 03.01.2020
4958 Clouds -1 1025 48 0 1.66 8 20:19 03.01.2020
4959 Clouds -1 1025 48 0 1.66 8 19:58 03.01.2020
4960 Clouds -1 1025 48 0 1.66 8 19:39 03.01.2020
4961 Clouds -1 1025 48 0 1.66 8 19:21 03.01.2020
4962 Clouds -1 1025 48 0 1.66 8 18:44 03.01.2020
4963 Clouds -1 1025 48 0 1.66 8 18:26 03.01.2020
4964 Clouds -1 1025 48 0 1.66 8 17:57 03.01.2020
4965 Clouds -1 1025 48 0 1.66 8 17:39 03.01.2020
4966 Clouds -1 1024 58 0 2.17 20 17:19 03.01.2020
4967 Clouds -1 1024 58 0 2.17 20 16:43 03.01.2020
4968 Clouds -1 1024 58 0 2.17 20 16:24 03.01.2020
4969 Clouds -1 1024 58 0 2.17 20 15:58 03.01.2020
4970 Clouds -1 1024 58 0 2.17 20 15:40 03.01.2020
4971 Clouds -1 1024 58 0 2.17 20 15:18 03.01.2020
4972 Clouds -1 1024 58 0 2.17 20 14:39 03.01.2020
4973 Clear 0 1021 75 0 1.03 266 14:20 03.01.2020
4974 Clear 0 1021 75 0 1.03 266 13:57 03.01.2020
4975 Clear 0 1021 75 0 1.03 266 13:38 03.01.2020
4976 Snow 0 1020 75 0 0.91 279 13:20 03.01.2020
4977 Snow 0 1020 75 0 0.91 279 12:40 03.01.2020
4978 Snow 0 1020 75 0 0.91 279 12:21 03.01.2020
4979 Snow 0 1020 75 0 0.91 279 11:49 03.01.2020
4980 Snow 0 1020 75 0 0.91 279 11:30 03.01.2020
4981 Snow 6 1019 38 0 2.74 213 10:57 03.01.2020
4982 Snow 6 1019 38 0 2.74 213 10:38 03.01.2020
4983 Snow 6 1019 38 0 2.74 213 10:20 03.01.2020
4984 Snow 6 1019 38 0 2.74 213 09:54 03.01.2020
4985 Snow 6 1019 38 0 2.74 213 09:36 03.01.2020
4986 Snow 6 1019 38 0 2.74 213 09:18 03.01.2020
4987 Snow 6 1019 38 0 2.74 213 08:44 03.01.2020
4988 Clouds 5 1025 33 0 2.1 219 08:21 03.01.2020
4989 Clouds 5 1025 33 0 2.1 219 07:42 03.01.2020
4990 Clouds 5 1025 33 0 2.1 219 07:19 03.01.2020
4991 Clouds 5 1025 33 0 2.1 219 06:57 03.01.2020
4992 Clouds 5 1025 33 0 2.1 219 06:39 03.01.2020
4993 Clouds 5 1025 33 0 2.1 219 06:20 03.01.2020
4994 Clouds 1 1030 41 0 1.76 3 04:43 03.01.2020
4995 Clouds 1 1030 41 0 1.76 3 03:37 03.01.2020
4996 Clouds 1 1030 41 0 1.76 3 02:50 03.01.2020
4997 Clouds -1 1029 45 0 2.08 1 01:50 03.01.2020
4998 Clouds -1 1030 42 0 2.04 360 01:18 03.01.2020
4999 Clouds -1 1030 42 0 2.04 360 00:34 03.01.2020
5000 Clouds -1 1030 42 0 2.04 360 23:59 02.01.2020
5001 Clouds -1 1030 42 0 2.04 360 23:39 02.01.2020
5002 Clouds 0 1030 40 0 1.77 4 23:20 02.01.2020
5003 Clouds 0 1030 40 0 1.77 4 22:58 02.01.2020
5004 Clouds 0 1030 40 0 1.77 4 22:40 02.01.2020
5005 Clouds 0 1030 40 0 1.77 4 22:19 02.01.2020
5006 Clouds 0 1030 40 0 1.77 4 21:56 02.01.2020
5007 Clouds 0 1030 40 0 1.77 4 21:38 02.01.2020
5008 Clouds 0 1030 40 0 1.77 4 21:19 02.01.2020
5009 Clouds 0 1030 40 0 1.77 4 20:56 02.01.2020
5010 Clouds 0 1030 40 0 1.77 4 20:37 02.01.2020
5011 Clouds 1 1030 39 0 2.39 7 20:18 02.01.2020
5012 Clouds 1 1030 39 0 2.39 7 19:54 02.01.2020
5013 Clouds 1 1030 39 0 2.39 7 19:36 02.01.2020
5014 Clouds 1 1030 39 0 2.39 7 19:18 02.01.2020
5015 Clouds 1 1030 39 0 2.39 7 18:43 02.01.2020
5016 Clouds 1 1030 39 0 2.39 7 18:24 02.01.2020
5017 Clouds 1 1030 39 0 2.39 7 17:58 02.01.2020
5018 Clouds 1 1030 39 0 2.39 7 17:39 02.01.2020
5019 Clouds 1 1029 40 0 2.01 13 17:20 02.01.2020
5020 Clouds 1 1029 40 0 2.01 13 16:58 02.01.2020
5021 Clouds 1 1029 40 0 2.01 13 16:58 02.01.2020
5022 Clouds 1 1029 40 0 2.01 13 16:40 02.01.2020
5023 Clouds 1 1029 40 0 2.01 13 16:20 02.01.2020
5024 Clouds 1 1029 40 0 2.01 13 15:58 02.01.2020
5025 Clouds 1 1029 40 0 2.01 13 15:40 02.01.2020
5026 Clouds 1 1029 40 0 2.01 13 15:21 02.01.2020
5027 Clouds 1 1029 40 0 2.01 13 14:57 02.01.2020
5028 Clouds 1 1029 40 0 2.01 13 14:36 02.01.2020
5029 Clouds 1 1029 40 0 2.01 13 14:36 02.01.2020
5030 Clouds 0 1027 50 0 0.48 327 14:18 02.01.2020
5031 Clouds 0 1027 50 0 0.48 327 13:49 02.01.2020
5032 Clouds 0 1027 50 0 0.48 327 13:31 02.01.2020
5033 Clouds 0 1027 47 0 0.63 338 12:46 02.01.2020
5034 Clouds 0 1027 47 0 0.63 338 12:26 02.01.2020
5035 Clouds 0 1027 47 0 0.63 338 11:59 02.01.2020
5036 Clouds 0 1027 47 0 0.63 338 11:40 02.01.2020
5037 Clouds 5 1025 29 0 2.31 214 11:20 02.01.2020
5038 Clouds 5 1025 29 0 2.31 214 10:44 02.01.2020
5039 Clouds 5 1025 29 0 2.31 214 10:26 02.01.2020
5040 Clouds 5 1025 29 0 2.31 214 09:51 02.01.2020
5041 Clouds 5 1025 29 0 2.31 214 09:33 02.01.2020
5042 Clouds 5 1025 29 0 2.31 214 08:47 02.01.2020
5043 Clouds 5 1025 29 0 2.31 214 08:27 02.01.2020
5044 Clouds 5 1030 30 0 1.74 227 07:54 02.01.2020
5045 Clouds 5 1030 30 0 1.74 227 07:31 02.01.2020
5046 Clouds 5 1030 30 0 1.74 227 06:55 02.01.2020
5047 Clouds 5 1030 30 0 1.74 227 06:36 02.01.2020
5048 Clouds 5 1030 30 0 1.74 227 05:36 02.01.2020
5049 Clouds 1 1034 37 0 1.54 17 04:33 02.01.2020
5050 Clouds 1 1034 37 0 1.54 17 02:55 02.01.2020
5051 Clouds 0 1033 39 0 2.29 18 02:20 02.01.2020
5052 Clouds 0 1033 39 0 2.29 18 01:47 02.01.2020
5053 Clouds 0 1033 39 0 2.29 18 01:19 02.01.2020
5054 Clouds 0 1033 41 0 3 17 00:36 02.01.2020
5055 Clouds 0 1033 41 0 3 17 00:18 02.01.2020
5056 Clouds 0 1033 41 0 3 17 23:40 01.01.2020
5057 Clouds 1 1034 36 0 2.86 15 23:20 01.01.2020
5058 Clouds 1 1034 36 0 2.86 15 22:38 01.01.2020
5059 Clouds 1 1034 36 0 2.86 15 22:20 01.01.2020
5060 Clouds 1 1034 36 0 2.86 15 21:57 01.01.2020
5061 Clouds 1 1034 36 0 2.86 15 21:38 01.01.2020
5062 Clouds 1 1034 36 0 2.86 15 21:20 01.01.2020
5063 Clouds 1 1034 36 0 2.86 15 20:56 01.01.2020
5064 Clouds 1 1034 36 0 2.86 15 20:38 01.01.2020
5065 Clouds 0 1033 30 0 2.57 12 20:19 01.01.2020
5066 Clouds 0 1033 30 0 2.4 14 19:55 01.01.2020
5067 Clouds 0 1033 30 0 2.4 14 19:55 01.01.2020
5068 Clouds 0 1033 30 0 2.4 14 19:55 01.01.2020
5069 Clouds 0 1033 30 0 2.4 14 19:55 01.01.2020
5070 Clouds 0 1033 30 0 2.4 14 19:37 01.01.2020
5071 Clouds 0 1033 30 0 2.4 14 19:37 01.01.2020
5072 Clouds 0 1033 30 0 2.4 14 19:19 01.01.2020
5073 Clouds 0 1033 30 0 2.4 14 18:56 01.01.2020
5074 Clouds 0 1033 30 0 2.4 14 18:36 01.01.2020
5075 Clouds 0 1033 30 0 2.4 14 18:18 01.01.2020
5076 Clouds 0 1033 30 0 2.4 14 17:56 01.01.2020
5077 Clouds 0 1033 30 0 2.4 14 17:38 01.01.2020
5078 Clouds 0 1032 32 0 2.8 18 17:19 01.01.2020
5079 Clouds 0 1032 32 0 2.8 18 16:42 01.01.2020
5080 Clouds 0 1032 32 0 2.8 18 16:24 01.01.2020
5081 Clouds 0 1032 32 0 2.8 18 15:58 01.01.2020
5082 Clouds 0 1032 32 0 2.8 18 15:40 01.01.2020
5083 Clouds 0 1032 32 0 2.8 18 15:22 01.01.2020
5084 Clouds 0 1032 32 0 2.8 18 14:59 01.01.2020
5085 Clouds 0 1032 32 0 2.8 18 14:40 01.01.2020
5086 Clouds 0 1028 45 0 0.78 315 14:22 01.01.2020
5087 Clouds 0 1028 45 0 0.78 315 13:56 01.01.2020
5088 Clouds 0 1028 45 0 0.78 315 13:37 01.01.2020
5089 Clouds 0 1028 44 0 0.74 317 13:19 01.01.2020
5090 Clouds 0 1028 44 0 0.74 317 12:57 01.01.2020
5091 Clouds 0 1028 44 0 0.74 317 12:39 01.01.2020
5092 Clouds 0 1028 44 0 0.74 317 12:19 01.01.2020
5093 Clouds 0 1028 44 0 0.74 317 11:55 01.01.2020
5094 Clouds 0 1028 44 0 0.74 317 11:36 01.01.2020
5095 Clouds 5 1026 23 0 1.96 204 11:18 01.01.2020
5096 Clouds 5 1026 23 0 1.96 204 10:41 01.01.2020
5097 Clouds 5 1026 23 0 1.96 204 10:21 01.01.2020
5098 Clouds 5 1026 23 0 1.96 204 09:59 01.01.2020
5099 Clouds 5 1026 23 0 1.96 204 09:38 01.01.2020
5100 Clouds 5 1026 23 0 1.96 204 09:38 01.01.2020
5101 Clouds 5 1026 23 0 1.96 204 09:19 01.01.2020
5102 Clouds 5 1026 23 0 1.96 204 08:55 01.01.2020
5103 Clouds 5 1026 23 0 1.96 204 08:37 01.01.2020
5104 Clouds 5 1029 19 0 2.16 201 08:18 01.01.2020
5105 Clouds 5 1029 19 0 2.16 201 07:54 01.01.2020
5106 Clouds 5 1029 19 0 2.16 201 07:36 01.01.2020
5107 Clouds 5 1029 19 0 2.16 201 06:45 01.01.2020
5108 Clouds 5 1029 19 0 2.16 201 06:21 01.01.2020
5109 Clouds 5 1029 19 0 2.16 201 05:22 01.01.2020
5110 Clouds 1 1032 27 0 1.78 13 03:46 01.01.2020
5111 Clouds 1 1032 27 0 1.78 13 03:23 01.01.2020
5112 Clouds 1 1032 27 0 1.78 13 03:23 01.01.2020
5113 Clouds 1 1032 27 0 1.78 13 02:57 01.01.2020
5114 Clouds 1 1032 27 0 1.78 13 02:36 01.01.2020
5115 Clouds -1 1031 29 0 2.48 9 01:59 01.01.2020
5116 Clouds -1 1031 29 0 2.48 9 01:38 01.01.2020
5117 Clouds -1 1031 32 0 2.57 11 01:20 01.01.2020
5118 Clouds -1 1031 32 0 2.57 11 00:44 01.01.2020
5119 Clouds -1 1031 32 0 2.57 11 00:25 01.01.2020
5120 Clouds -1 1031 32 0 2.57 11 23:41 31.12.2019
5121 Clouds -1 1031 36 0 2.67 8 23:22 31.12.2019
5122 Clouds -1 1031 36 0 2.67 8 22:58 31.12.2019
5123 Clouds -1 1031 36 0 2.67 8 22:39 31.12.2019
5124 Clouds -1 1031 36 0 2.67 8 22:20 31.12.2019
5125 Clouds -1 1031 36 0 2.67 8 21:59 31.12.2019
5126 Clouds -1 1031 36 0 2.67 8 21:40 31.12.2019
5127 Clouds -1 1031 36 0 2.67 8 21:22 31.12.2019
5128 Clouds -1 1031 36 0 2.67 8 20:57 31.12.2019
5129 Clouds -1 1031 36 0 2.67 8 20:37 31.12.2019
5130 Clouds -1 1030 39 0 2.39 7 20:19 31.12.2019
5131 Clouds -1 1030 39 0 2.39 7 19:55 31.12.2019
5132 Clouds -1 1030 39 0 2.39 7 19:37 31.12.2019
5133 Clouds -1 1030 39 0 2.39 7 19:18 31.12.2019
5134 Clouds -1 1030 39 0 2.39 7 18:54 31.12.2019
5135 Clouds -1 1030 39 0 2.39 7 18:36 31.12.2019
5136 Clouds -1 1030 39 0 2.39 7 18:18 31.12.2019
5137 Clouds -1 1030 39 0 2.39 7 17:55 31.12.2019
5138 Clouds -1 1030 39 0 2.39 7 17:36 31.12.2019
5139 Clouds -1 1030 39 0 2.39 7 17:36 31.12.2019
5140 Clear -1 1029 45 0 2.34 15 17:18 31.12.2019
5141 Clear -1 1029 45 0 2.34 15 16:55 31.12.2019
5142 Clear -1 1029 45 0 2.34 15 16:36 31.12.2019
5143 Clear -1 1029 45 0 2.34 15 16:18 31.12.2019
5144 Clear -1 1029 45 0 2.34 15 15:55 31.12.2019
5145 Clear -1 1029 45 0 2.34 15 15:37 31.12.2019
5146 Clear -1 1029 45 0 2.34 15 15:19 31.12.2019
5147 Clear -1 1029 45 0 2.34 15 14:55 31.12.2019
5148 Clear -1 1029 45 0 2.34 15 14:37 31.12.2019
5149 Clear -1 1029 45 0 2.34 15 14:37 31.12.2019
5150 Clouds 0 1024 59 0 1.01 293 14:18 31.12.2019
5151 Clouds 0 1024 59 0 1.01 293 13:55 31.12.2019
5152 Clouds 0 1024 59 0 1.01 293 13:37 31.12.2019
5153 Clouds 0 1024 60 0 0.95 285 13:19 31.12.2019
5154 Clouds 0 1024 60 0 0.95 285 12:55 31.12.2019
5155 Clouds 0 1024 60 0 0.95 285 12:37 31.12.2019
5156 Clouds 0 1024 60 0 0.95 285 12:18 31.12.2019
5157 Clouds 0 1024 60 0 0.95 285 11:54 31.12.2019
5158 Clouds 0 1024 60 0 0.95 285 11:36 31.12.2019
5159 Clouds 5 1021 31 0 2.74 222 11:18 31.12.2019
5160 Clouds 5 1021 31 0 2.74 222 10:54 31.12.2019
5161 Clouds 5 1021 31 0 2.74 222 10:36 31.12.2019
5162 Clouds 5 1021 31 0 2.74 222 10:18 31.12.2019
5163 Clouds 5 1021 31 0 2.74 222 09:55 31.12.2019
5164 Clouds 5 1021 31 0 2.74 222 09:37 31.12.2019
5165 Clouds 5 1021 31 0 2.74 222 09:37 31.12.2019
5166 Clouds 5 1021 31 0 2.74 222 09:18 31.12.2019
5167 Clouds 5 1021 31 0 2.74 222 08:42 31.12.2019
5168 Clouds 6 1025 23 0 2.79 208 08:22 31.12.2019
5169 Clouds 6 1025 24 0 2.78 210 07:56 31.12.2019
5170 Clouds 6 1025 24 0 2.78 210 07:37 31.12.2019
5171 Clouds 6 1025 24 0 2.78 210 07:18 31.12.2019
5172 Clouds 6 1025 24 0 2.78 210 06:29 31.12.2019
5173 Clouds 1 1029 33 0 1.49 14 04:58 31.12.2019
5174 Clouds 1 1029 33 0 1.49 14 04:25 31.12.2019
5175 Clouds 1 1029 33 0 1.49 14 02:58 31.12.2019
5176 Clouds 1 1029 33 0 1.49 14 02:34 31.12.2019
5177 Clouds -1 1027 33 0 2.28 357 01:51 31.12.2019
5178 Clouds -1 1027 33 0 2.18 0 01:32 31.12.2019
5179 Clouds -1 1027 33 0 2.28 357 01:32 31.12.2019
5180 Clouds -1 1027 33 0 2.18 0 00:54 31.12.2019
5181 Clouds -1 1027 33 0 2.18 0 00:36 31.12.2019
5182 Clouds -1 1027 33 0 2.18 0 00:18 31.12.2019
5183 Clouds -1 1027 33 0 2.18 0 23:54 30.12.2019
5184 Clouds -1 1027 33 0 2.18 0 23:36 30.12.2019
5185 Clouds 0 1027 33 0 2.72 354 23:18 30.12.2019
5186 Clouds 0 1027 33 0 2.72 354 22:54 30.12.2019
5187 Clouds 0 1027 33 0 2.72 354 22:36 30.12.2019
5188 Clouds 0 1027 33 0 2.72 354 22:18 30.12.2019
5189 Clouds 0 1027 33 0 2.72 354 21:55 30.12.2019
5190 Clouds 0 1027 33 0 2.72 354 21:36 30.12.2019
5191 Clouds 0 1027 33 0 2.72 354 21:18 30.12.2019
5192 Clouds 0 1027 33 0 2.72 354 20:41 30.12.2019
5193 Clouds 0 1026 34 0 2.47 354 20:20 30.12.2019
5194 Clouds 0 1026 34 0 2.47 354 19:59 30.12.2019
5195 Clouds 0 1026 34 0 2.47 354 19:40 30.12.2019
5196 Clouds 0 1026 34 0 2.47 354 19:20 30.12.2019
5197 Clouds 0 1026 34 0 2.47 354 18:59 30.12.2019
5198 Clouds 0 1026 34 0 2.47 354 18:41 30.12.2019
5199 Clouds 0 1026 34 0 2.47 354 18:21 30.12.2019
5200 Clouds 0 1026 34 0 2.47 354 17:58 30.12.2019
5201 Clouds 0 1026 34 0 2.47 354 17:40 30.12.2019
5202 Clear 0 1026 37 0 2.46 10 17:19 30.12.2019
5203 Clear 0 1026 37 0 2.46 10 16:59 30.12.2019
5204 Clear 0 1026 37 0 2.46 10 16:38 30.12.2019
5205 Clear 0 1026 37 0 2.46 10 16:20 30.12.2019
5206 Clear 0 1026 37 0 2.46 10 15:56 30.12.2019
5207 Clear 0 1026 37 0 2.46 10 15:38 30.12.2019
5208 Clear 0 1026 37 0 2.46 10 15:19 30.12.2019
5209 Clear 0 1026 37 0 2.46 10 14:43 30.12.2019
5210 Clouds 0 1022 59 0 1.02 350 14:21 30.12.2019
5211 Clouds 0 1022 59 0 1.02 350 13:59 30.12.2019
5212 Clouds 0 1022 59 0 1.02 350 13:41 30.12.2019
5213 Clouds 1 1021 56 0 1.1 356 13:22 30.12.2019
5214 Clouds 1 1021 56 0 1.1 356 12:57 30.12.2019
5215 Clouds 1 1021 56 0 1.1 356 12:38 30.12.2019
5216 Clouds 1 1021 56 0 1.1 356 12:19 30.12.2019
5217 Clouds 1 1021 56 0 1.1 356 11:56 30.12.2019
5218 Clouds 1 1021 56 0 1.1 356 11:37 30.12.2019
5219 Clouds 7 1018 29 0 2.44 214 11:18 30.12.2019
5220 Clouds 7 1018 29 0 2.44 214 10:40 30.12.2019
5221 Clouds 7 1018 29 0 2.44 214 10:20 30.12.2019
5222 Clouds 7 1018 29 0 2.44 214 09:44 30.12.2019
5223 Clouds 7 1018 29 0 2.44 214 09:21 30.12.2019
5224 Clouds 7 1018 29 0 2.44 214 08:57 30.12.2019
5225 Clouds 7 1018 29 0 2.44 214 08:39 30.12.2019
5226 Clouds 7 1021 20 0 2.01 219 08:20 30.12.2019
5227 Clouds 7 1021 20 0 2.01 219 07:48 30.12.2019
5228 Clouds 7 1021 20 0 2.01 219 07:25 30.12.2019
5229 Clouds 7 1021 20 0 2.01 219 06:39 30.12.2019
5230 Clouds 3 1024 21 0 2.66 353 04:31 30.12.2019
5231 Clouds 3 1024 21 0 2.66 353 03:50 30.12.2019
5232 Clouds 3 1024 21 0 2.66 353 02:47 30.12.2019
5233 Clouds 3 1024 21 0 2.66 353 02:27 30.12.2019
5234 Clear 1 1024 20 0 3.37 357 01:39 30.12.2019
5235 Clouds 1 1024 23 0 3.34 359 01:18 30.12.2019
5236 Clouds 1 1024 23 0 3.34 359 00:42 30.12.2019
5237 Clouds 1 1024 23 0 3.34 359 23:58 29.12.2019
5238 Clouds 1 1024 23 0 3.34 359 23:37 29.12.2019
5239 Clouds 1 1024 31 0 3.02 358 23:19 29.12.2019
5240 Clouds 1 1024 31 0 3.02 358 22:41 29.12.2019
5241 Clouds 1 1024 31 0 3.02 358 22:22 29.12.2019
5242 Clouds 1 1024 31 0 3.02 358 21:56 29.12.2019
5243 Clouds 1 1024 31 0 3.02 358 21:38 29.12.2019
5244 Clouds 1 1024 31 0 3.02 358 21:19 29.12.2019
5245 Clouds 1 1024 31 0 3.02 358 21:19 29.12.2019
5246 Clouds 1 1024 31 0 3.02 358 20:56 29.12.2019
5247 Clouds 1 1024 31 0 3.02 358 20:38 29.12.2019
5248 Clouds 2 1024 31 0 2.5 347 20:18 29.12.2019
5249 Clouds 2 1024 31 0 2.5 347 19:58 29.12.2019
5250 Clouds 2 1024 31 0 2.5 347 19:39 29.12.2019
5251 Clouds 2 1024 31 0 2.5 347 19:20 29.12.2019
5252 Clouds 2 1024 31 0 2.5 347 18:55 29.12.2019
5253 Clouds 2 1024 31 0 2.5 347 18:37 29.12.2019
5254 Clouds 2 1024 31 0 2.5 347 18:19 29.12.2019
5255 Clouds 2 1024 31 0 2.5 347 17:56 29.12.2019
5256 Clouds 2 1024 31 0 2.5 347 17:38 29.12.2019
5257 Clouds 3 1024 33 0 2.92 16 17:19 29.12.2019
5258 Clouds 3 1024 33 0 2.92 16 16:56 29.12.2019
5259 Clouds 3 1024 33 0 2.92 16 16:36 29.12.2019
5260 Clouds 3 1024 33 0 2.92 16 16:18 29.12.2019
5261 Clouds 3 1024 33 0 2.92 16 15:56 29.12.2019
5262 Clouds 3 1024 33 0 2.92 16 15:38 29.12.2019
5263 Clouds 3 1024 33 0 2.92 16 15:19 29.12.2019
5264 Clouds 3 1024 33 0 2.92 16 14:55 29.12.2019
5265 Clouds 3 1024 33 0 2.92 16 14:37 29.12.2019
5266 Clouds 3 1021 47 0 2.03 17 14:18 29.12.2019
5267 Clouds 3 1021 47 0 2.03 17 14:18 29.12.2019
5268 Clouds 3 1021 47 0 2.03 17 13:55 29.12.2019
5269 Clouds 3 1021 47 0 2.03 17 13:37 29.12.2019
5270 Clouds 3 1021 47 0 1.9 18 13:18 29.12.2019
5271 Clouds 3 1021 47 0 1.9 18 13:18 29.12.2019
5272 Clouds 3 1021 47 0 1.9 18 12:43 29.12.2019
5273 Clouds 3 1021 47 0 1.9 18 12:25 29.12.2019
5274 Clouds 3 1021 47 0 1.9 18 12:25 29.12.2019
5275 Clouds 3 1021 47 0 1.9 18 11:56 29.12.2019
5276 Clouds 3 1021 47 0 1.9 18 11:38 29.12.2019
5277 Clouds 3 1021 47 0 1.9 18 11:38 29.12.2019
5278 Clouds 9 1019 31 0 2.01 200 11:20 29.12.2019
5279 Clouds 9 1019 31 0 2.01 200 10:42 29.12.2019
5280 Clouds 9 1019 31 0 2.01 200 10:24 29.12.2019
5281 Clouds 9 1019 31 0 2.01 200 09:58 29.12.2019
5282 Clouds 9 1019 31 0 2.01 200 09:39 29.12.2019
5283 Clouds 9 1019 31 0 2.01 200 09:21 29.12.2019
5284 Clouds 9 1019 31 0 2.01 200 08:47 29.12.2019
5285 Clouds 8 1019 32 0 1.96 195 08:27 29.12.2019
5286 Clouds 9 1022 21 0 2.05 214 07:55 29.12.2019
5287 Clouds 9 1022 21 0 2.05 214 07:28 29.12.2019
5288 Clouds 9 1022 21 0 2.05 214 06:56 29.12.2019
5289 Clouds 9 1022 21 0 2.05 214 06:26 29.12.2019
5290 Clouds 9 1022 21 0 2.05 214 05:52 29.12.2019
5291 Clear 4 1025 22 0 2.78 345 04:36 29.12.2019
5292 Clear 4 1025 22 0 2.78 345 03:54 29.12.2019
5293 Clear 4 1025 22 0 2.78 345 03:20 29.12.2019
5294 Clear 2 1025 21 0 3.28 353 02:20 29.12.2019
5295 Clear 2 1025 21 0 3.28 353 01:38 29.12.2019
5296 Clear 2 1024 23 0 3.16 352 01:19 29.12.2019
5297 Clear 2 1024 23 0 3.16 352 00:40 29.12.2019
5298 Clear 2 1024 23 0 3.16 352 00:22 29.12.2019
5299 Clear 2 1024 23 0 3.16 352 23:43 28.12.2019
5300 Clear 2 1025 28 0 3.23 352 23:18 28.12.2019
5301 Clear 2 1025 28 0 3.23 352 22:39 28.12.2019
5302 Clear 2 1025 28 0 3.23 352 22:21 28.12.2019
5303 Clear 2 1025 28 0 3.23 352 21:58 28.12.2019
5304 Clear 2 1025 28 0 3.23 352 21:39 28.12.2019
5305 Clear 2 1025 28 0 3.23 352 21:21 28.12.2019
5306 Clear 2 1025 28 0 3.23 352 20:58 28.12.2019
5307 Clear 2 1025 28 0 3.23 352 20:38 28.12.2019
5308 Clear 2 1025 32 0 3.15 353 20:20 28.12.2019
5309 Clear 2 1025 32 0 3.15 353 19:58 28.12.2019
5310 Clear 2 1025 32 0 3.15 353 19:39 28.12.2019
5311 Clear 2 1025 32 0 3.15 353 19:20 28.12.2019
5312 Clear 2 1025 32 0 3.15 353 18:58 28.12.2019
5313 Clear 2 1025 32 0 3.15 353 18:40 28.12.2019
5314 Clear 2 1025 32 0 3.15 353 18:19 28.12.2019
5315 Clear 2 1025 32 0 3.15 353 17:55 28.12.2019
5316 Clear 2 1025 32 0 3.15 353 17:36 28.12.2019
5317 Clear 2 1024 37 0 2.86 13 17:18 28.12.2019
5318 Clear 2 1024 37 0 2.86 13 16:46 28.12.2019
5319 Clear 2 1024 37 0 2.86 13 16:26 28.12.2019
5320 Clear 2 1024 37 0 2.86 13 15:46 28.12.2019
5321 Clear 2 1024 37 0 2.86 13 15:24 28.12.2019
5322 Clear 2 1024 37 0 2.86 13 14:59 28.12.2019
5323 Clear 2 1024 37 0 2.86 13 14:39 28.12.2019
5324 Clear 3 1020 49 0 1.71 9 14:20 28.12.2019
5325 Clear 3 1020 49 0 1.71 9 13:56 28.12.2019
5326 Clear 3 1020 49 0 1.71 9 13:37 28.12.2019
5327 Clear 3 1020 51 0 1.6 7 13:18 28.12.2019
5328 Clear 3 1020 51 0 1.6 7 12:43 28.12.2019
5329 Clear 3 1020 51 0 1.6 7 12:43 28.12.2019
5330 Clear 3 1020 51 0 1.6 7 12:24 28.12.2019
5331 Clear 3 1020 51 0 1.6 7 11:56 28.12.2019
5332 Clear 3 1020 51 0 1.6 7 11:38 28.12.2019
5333 Clear 9 1018 29 0 2.32 206 11:19 28.12.2019
5334 Clear 9 1018 29 0 2.32 206 10:44 28.12.2019
5335 Clear 9 1018 29 0 2.32 206 10:22 28.12.2019
5336 Clear 9 1018 29 0 2.32 206 09:58 28.12.2019
5337 Clear 9 1018 29 0 2.32 206 09:40 28.12.2019
5338 Clear 9 1018 29 0 2.32 206 09:20 28.12.2019
5339 Clear 9 1018 29 0 2.32 206 08:44 28.12.2019
5340 Clear 9 1018 31 0 2.25 204 08:26 28.12.2019
5341 Clear 9 1021 22 0 2.12 211 07:55 28.12.2019
5342 Clear 9 1021 22 0 2.12 211 07:31 28.12.2019
5343 Clear 9 1021 22 0 2.12 211 06:41 28.12.2019
5344 Clear 4 1023 21 0 2.84 344 04:59 28.12.2019
5345 Clear 4 1023 21 0 2.84 344 03:47 28.12.2019
5346 Clear 4 1023 21 0 2.84 344 02:49 28.12.2019
5347 Clear 2 1022 20 0 3.58 353 01:59 28.12.2019
5348 Clear 2 1022 20 0 3.58 353 01:31 28.12.2019
5349 Clear 2 1022 21 0 3.55 354 00:58 28.12.2019
5350 Clear 2 1022 21 0 3.55 354 00:40 28.12.2019
5351 Clear 2 1022 21 0 3.55 354 00:20 28.12.2019
5352 Clear 2 1022 21 0 3.55 354 23:44 27.12.2019
5353 Clear 2 1022 21 0 3.55 354 23:44 27.12.2019
5354 Clear 1 1023 23 0 3.49 353 23:20 27.12.2019
5355 Clear 1 1023 23 0 3.49 353 22:58 27.12.2019
5356 Clear 1 1023 23 0 3.49 353 22:39 27.12.2019
5357 Clear 1 1023 23 0 3.49 353 22:20 27.12.2019
5358 Clear 1 1023 23 0 3.49 353 21:58 27.12.2019
5359 Clear 1 1023 23 0 3.49 353 21:37 27.12.2019
5360 Clear 1 1023 23 0 3.49 353 21:19 27.12.2019
5361 Clear 1 1023 23 0 3.49 353 20:42 27.12.2019
5362 Clear 1 1023 23 0 3.49 353 20:23 27.12.2019
5363 Clear 1 1024 29 0 3.36 355 19:54 27.12.2019
5364 Clear 1 1024 29 0 3.36 355 19:36 27.12.2019
5365 Clear 1 1024 29 0 3.36 355 19:18 27.12.2019
5366 Clear 1 1024 29 0 3.36 355 18:40 27.12.2019
5367 Clear 1 1024 29 0 3.36 355 18:22 27.12.2019
5368 Clear 1 1024 29 0 3.36 355 17:58 27.12.2019
5369 Clear 1 1024 29 0 3.36 355 17:40 27.12.2019
5370 Clear 1 1025 33 0 3.04 353 17:19 27.12.2019
5371 Clear 1 1025 33 0 3.04 353 16:59 27.12.2019
5372 Clear 1 1025 33 0 3.04 353 16:39 27.12.2019
5373 Clear 1 1025 33 0 3.04 353 16:20 27.12.2019
5374 Clear 1 1025 33 0 3.04 353 15:45 27.12.2019
5375 Clear 1 1025 33 0 3.04 353 15:23 27.12.2019
5376 Clear 1 1025 33 0 3.04 353 14:58 27.12.2019
5377 Clear 1 1025 33 0 3.04 353 14:40 27.12.2019
5378 Clear 1 1022 40 0 1.84 19 14:21 27.12.2019
5379 Clear 1 1022 40 0 1.84 19 13:58 27.12.2019
5380 Clear 1 1022 40 0 1.84 19 13:40 27.12.2019
5381 Clear 1 1022 40 0 1.75 17 13:21 27.12.2019
5382 Clear 1 1022 40 0 1.75 17 12:44 27.12.2019
5383 Clear 1 1022 40 0 1.75 17 12:26 27.12.2019
5384 Clear 1 1022 40 0 1.75 17 12:26 27.12.2019
5385 Clear 1 1022 40 0 1.75 17 11:56 27.12.2019
5386 Clear 1 1022 40 0 1.75 17 11:38 27.12.2019
5387 Clear 7 1020 21 0 2.37 191 11:19 27.12.2019
5388 Clear 7 1020 21 0 2.37 191 10:45 27.12.2019
5389 Clear 7 1020 21 0 2.37 191 10:23 27.12.2019
5390 Clear 7 1020 21 0 2.37 191 09:55 27.12.2019
5391 Clear 7 1020 21 0 2.37 191 09:37 27.12.2019
5392 Clear 7 1020 21 0 2.37 191 09:19 27.12.2019
5393 Clear 7 1020 21 0 2.37 191 08:43 27.12.2019
5394 Clear 7 1020 21 0 2.37 191 08:25 27.12.2019
5395 Clear 7 1024 15 0 1.54 232 07:38 27.12.2019
5396 Clear 7 1024 15 0 1.54 232 07:19 27.12.2019
5397 Clear 7 1024 15 0 1.54 232 06:25 27.12.2019
5398 Clear 1 1030 13 0 2.71 2 04:39 27.12.2019
5399 Clear 1 1030 13 0 2.71 2 02:29 27.12.2019
5400 Clear -2 1031 12 0 3.55 13 01:45 27.12.2019
5401 Clear -2 1031 12 0 3.55 13 01:23 27.12.2019
5402 Clear -3 1031 12 0 3.57 13 00:47 27.12.2019
5403 Clear -3 1031 12 0 3.57 13 00:27 27.12.2019
5404 Clear -3 1031 12 0 3.57 13 23:56 26.12.2019
5405 Clear -3 1031 12 0 3.57 13 23:38 26.12.2019
5406 Clear -3 1032 14 0 3.56 23 23:20 26.12.2019
5407 Clear -3 1032 14 0 3.56 23 22:41 26.12.2019
5408 Clear -3 1032 14 0 3.56 23 22:19 26.12.2019
5409 Clear -3 1032 14 0 3.56 23 21:55 26.12.2019
5410 Clear -3 1032 14 0 3.56 23 21:37 26.12.2019
5411 Clear -3 1032 14 0 3.56 23 21:19 26.12.2019
5412 Clear -3 1032 14 0 3.56 23 20:44 26.12.2019
5413 Clear -3 1033 18 0 3.4 23 20:22 26.12.2019
5414 Clear -3 1032 17 0 3.41 25 19:57 26.12.2019
5415 Clear -3 1032 17 0 3.41 25 19:38 26.12.2019
5416 Clear -3 1032 17 0 3.41 25 19:20 26.12.2019
5417 Clear -3 1032 17 0 3.41 25 18:57 26.12.2019
5418 Clear -3 1032 17 0 3.41 25 18:37 26.12.2019
5419 Clear -3 1032 17 0 3.41 25 18:19 26.12.2019
5420 Clear -3 1032 17 0 3.41 25 17:42 26.12.2019
5421 Clear -3 1031 18 0 3.96 21 17:22 26.12.2019
5422 Clear -3 1031 18 0 3.96 21 16:58 26.12.2019
5423 Clear -3 1031 18 0 3.96 21 16:39 26.12.2019
5424 Clear -3 1031 18 0 3.96 21 16:20 26.12.2019
5425 Clear -3 1031 18 0 3.96 21 15:41 26.12.2019
5426 Clear -3 1031 18 0 3.96 21 15:41 26.12.2019
5427 Clear -3 1031 18 0 3.96 21 15:20 26.12.2019
5428 Clear -3 1031 18 0 3.96 21 14:58 26.12.2019
5429 Clear -3 1031 18 0 3.96 21 14:38 26.12.2019
5430 Clear -1 1027 37 0 2.81 21 14:20 26.12.2019
5431 Clear -1 1027 37 0 2.81 21 13:43 26.12.2019
5432 Clear -1 1027 37 0 2.81 17 13:20 26.12.2019
5433 Clear -1 1027 37 0 2.81 17 12:56 26.12.2019
5434 Clear -1 1027 37 0 2.81 17 12:37 26.12.2019
5435 Clear -1 1027 37 0 2.81 17 12:19 26.12.2019
5436 Clear -1 1027 37 0 2.81 17 11:56 26.12.2019
5437 Clear -1 1027 37 0 2.81 17 11:37 26.12.2019
5438 Clear 5 1021 21 0 1.75 220 11:19 26.12.2019
5439 Clear 5 1021 21 0 1.75 220 10:42 26.12.2019
5440 Clear 5 1021 21 0 1.75 220 10:18 26.12.2019
5441 Clear 5 1021 21 0 1.75 220 09:45 26.12.2019
5442 Clear 5 1021 21 0 1.75 220 09:26 26.12.2019
5443 Clear 5 1021 21 0 1.75 220 08:42 26.12.2019
5444 Clear 5 1021 21 0 1.79 220 08:24 26.12.2019
5445 Clear 5 1025 16 0 0.97 234 07:53 26.12.2019
5446 Clear 5 1025 16 0 0.97 234 07:27 26.12.2019
5447 Clear 5 1025 16 0 0.97 234 06:53 26.12.2019
5448 Clear 5 1025 16 0 0.97 234 06:32 26.12.2019
5449 Clear 5 1025 16 0 0.97 234 05:45 26.12.2019
5450 Clear -1 1031 20 0 2.42 26 04:55 26.12.2019
5451 Clear -1 1031 20 0 2.42 26 04:29 26.12.2019
5452 Clear -1 1031 20 0 2.42 26 02:56 26.12.2019
5453 Clear -1 1031 20 0 2.42 26 02:34 26.12.2019
5454 Clear -1 1031 20 0 2.42 26 02:34 26.12.2019
5455 Clear -3 1030 22 0 2.7 20 01:50 26.12.2019
5456 Clear -3 1030 22 0 2.71 20 01:32 26.12.2019
5457 Clear -3 1030 22 0 2.71 20 00:49 26.12.2019
5458 Clear -3 1030 22 0 2.71 20 00:27 26.12.2019
5459 Clear -3 1030 22 0 2.71 20 23:58 25.12.2019
5460 Clear -3 1030 22 0 2.71 20 23:39 25.12.2019
5461 Clear -3 1029 25 0 2.7 19 23:21 25.12.2019
5462 Clear -3 1029 25 0 2.7 19 22:59 25.12.2019
5463 Clear -3 1029 25 0 2.7 19 22:39 25.12.2019
5464 Clear -3 1029 25 0 2.7 19 22:21 25.12.2019
5465 Clear -3 1029 25 0 2.7 19 21:58 25.12.2019
5466 Clear -3 1029 25 0 2.7 19 21:39 25.12.2019
5467 Clear -3 1029 25 0 2.7 19 21:20 25.12.2019
5468 Clear -3 1029 25 0 2.7 19 20:56 25.12.2019
5469 Clear -3 1029 25 0 2.7 19 20:38 25.12.2019
5470 Clear -2 1028 28 0 2.55 15 20:18 25.12.2019
5471 Clear -2 1028 28 0 2.55 15 20:18 25.12.2019
5472 Clear -2 1028 28 0 2.55 15 19:43 25.12.2019
5473 Clear -2 1028 28 0 2.55 15 19:24 25.12.2019
5474 Clear -2 1028 28 0 2.55 15 18:58 25.12.2019
5475 Clear -2 1028 28 0 2.55 15 18:37 25.12.2019
5476 Clear -2 1028 28 0 2.55 15 18:18 25.12.2019
5477 Clear -2 1028 28 0 2.55 15 17:41 25.12.2019
5478 Clear -2 1028 33 0 3.17 15 17:19 25.12.2019
5479 Clear -2 1028 33 0 3.17 15 16:58 25.12.2019
5480 Clear -2 1028 33 0 3.17 15 16:37 25.12.2019
5481 Clear -2 1028 33 0 3.17 15 16:18 25.12.2019
5482 Clear -2 1028 33 0 3.17 15 15:57 25.12.2019
5483 Clear -2 1028 33 0 3.17 15 15:57 25.12.2019
5484 Clear -2 1028 33 0 3.17 15 15:38 25.12.2019
5485 Clear -2 1028 33 0 3.17 15 15:20 25.12.2019
5486 Clear -2 1028 33 0 3.17 15 14:57 25.12.2019
5487 Clear -2 1028 33 0 3.17 15 14:39 25.12.2019
5488 Clear -2 1028 33 0 3.17 15 14:39 25.12.2019
5489 Clear -1 1023 50 0 1.58 6 14:20 25.12.2019
5490 Clear -1 1023 50 0 1.58 6 13:44 25.12.2019
5491 Clear -1 1023 50 0 1.58 6 13:21 25.12.2019
5492 Clear -1 1023 49 0 1.56 1 12:57 25.12.2019
5493 Clear -1 1023 49 0 1.56 1 12:38 25.12.2019
5494 Clear -1 1023 49 0 1.56 1 12:38 25.12.2019
5495 Clear -1 1023 49 0 1.56 1 12:19 25.12.2019
5496 Clear -1 1023 49 0 1.56 1 11:43 25.12.2019
5497 Clear -1 1023 49 0 1.56 1 11:22 25.12.2019
5498 Clear 6 1021 24 0 2.54 216 10:59 25.12.2019
5499 Clear 6 1021 24 0 2.54 216 10:59 25.12.2019
5500 Clear 6 1021 24 0 2.54 216 10:37 25.12.2019
5501 Clear 6 1021 24 0 2.54 216 10:19 25.12.2019
5502 Clear 6 1021 24 0 2.54 216 09:45 25.12.2019
5503 Clear 6 1021 24 0 2.54 216 09:27 25.12.2019
5504 Clear 6 1021 24 0 2.54 216 08:47 25.12.2019
5505 Clear 6 1021 24 0 2.54 216 08:28 25.12.2019
5506 Clear 6 1024 18 0 1.19 219 07:49 25.12.2019
5507 Clear 6 1024 18 0 1.19 219 07:31 25.12.2019
5508 Clear 6 1024 18 0 1.19 219 06:49 25.12.2019
5509 Clear 6 1024 18 0 1.19 219 06:22 25.12.2019
5510 Clear 0 1029 22 0 2.3 18 05:18 25.12.2019
5511 Clear 0 1029 22 0 2.3 18 04:39 25.12.2019
5512 Clear 0 1029 22 0 2.3 18 04:20 25.12.2019
5513 Clear 0 1029 22 0 2.3 18 03:41 25.12.2019
5514 Clear 0 1029 22 0 2.3 18 02:51 25.12.2019
5515 Clear -2 1028 23 0 3.04 15 02:20 25.12.2019
5516 Clear -2 1028 22 0 2.92 15 01:25 25.12.2019
5517 Clear -2 1028 22 0 2.92 15 00:53 25.12.2019
5518 Clear -2 1028 22 0 2.92 15 00:30 25.12.2019
5519 Clear -2 1028 22 0 2.92 15 23:57 24.12.2019
5520 Clear -2 1028 22 0 2.92 15 23:38 24.12.2019
5521 Clear -2 1030 27 0 3 14 23:20 24.12.2019
5522 Clear -2 1030 27 0 3 14 22:41 24.12.2019
5523 Clear -2 1030 27 0 3 14 22:21 24.12.2019
5524 Clear -2 1030 27 0 3 14 21:44 24.12.2019
5525 Clear -2 1030 27 0 3 14 21:23 24.12.2019
5526 Clear -2 1030 27 0 3 14 20:57 24.12.2019
5527 Clear -2 1030 27 0 3 14 20:39 24.12.2019
5528 Clear -1 1029 31 0 3.15 15 20:19 24.12.2019
5529 Clear -1 1029 29 0 3.04 16 19:45 24.12.2019
5530 Clear -1 1029 29 0 3.04 16 19:20 24.12.2019
5531 Clear -1 1029 29 0 3.04 16 18:57 24.12.2019
5532 Clear -1 1029 29 0 3.04 16 18:38 24.12.2019
5533 Clear -1 1029 29 0 3.04 16 18:18 24.12.2019
5534 Clear -1 1029 29 0 3.04 16 17:39 24.12.2019
5535 Clear -1 1028 34 0 3.61 17 17:21 24.12.2019
5536 Clear -1 1028 34 0 3.61 17 16:56 24.12.2019
5537 Clear -1 1028 34 0 3.61 17 16:38 24.12.2019
5538 Clear -1 1028 34 0 3.61 17 16:20 24.12.2019
5539 Clear -1 1028 34 0 3.61 17 15:56 24.12.2019
5540 Clear -1 1028 34 0 3.61 17 15:36 24.12.2019
5541 Clear -1 1028 34 0 3.61 17 15:18 24.12.2019
5542 Clear -1 1028 34 0 3.61 17 14:56 24.12.2019
5543 Clear -1 1028 34 0 3.61 17 14:38 24.12.2019
5544 Clear 0 1024 60 0 1.49 357 14:20 24.12.2019
5545 Clear 0 1024 60 0 1.49 357 13:55 24.12.2019
5546 Clear 0 1024 60 0 1.49 357 13:55 24.12.2019
5547 Clear 0 1024 60 0 1.49 357 13:37 24.12.2019
5548 Clear 0 1024 58 0 1.59 358 13:19 24.12.2019
5549 Clear 0 1024 58 0 1.59 358 12:55 24.12.2019
5550 Clear 0 1024 58 0 1.59 358 12:36 24.12.2019
5551 Clear 0 1024 58 0 1.59 358 12:18 24.12.2019
5552 Clear 0 1024 58 0 1.59 358 11:55 24.12.2019
5553 Clear 0 1024 58 0 1.59 358 11:55 24.12.2019
5554 Clear 0 1024 58 0 1.59 358 11:37 24.12.2019
5555 Clear 0 1024 58 0 1.59 358 11:37 24.12.2019
5556 Clear 6 1022 32 0 2.47 216 11:18 24.12.2019
5557 Clear 6 1022 32 0 2.47 216 10:56 24.12.2019
5558 Clear 6 1022 32 0 2.47 216 10:37 24.12.2019
5559 Clear 6 1022 32 0 2.47 216 10:19 24.12.2019
5560 Clear 6 1022 32 0 2.47 216 09:55 24.12.2019
5561 Clear 6 1022 32 0 2.47 216 09:36 24.12.2019
5562 Clear 6 1022 32 0 2.47 216 09:18 24.12.2019
5563 Clear 6 1022 32 0 2.47 216 08:44 24.12.2019
5564 Clear 6 1024 27 0 1.96 214 08:20 24.12.2019
5565 Clear 6 1024 27 0 1.96 214 07:46 24.12.2019
5566 Clear 6 1024 27 0 1.96 214 07:26 24.12.2019
5567 Clear 6 1024 27 0 1.96 214 06:58 24.12.2019
5568 Clear 6 1024 27 0 1.96 214 06:38 24.12.2019
5569 Clear 6 1024 27 0 1.96 214 06:19 24.12.2019
5570 Clear 1 1029 33 0 2.77 2 05:21 24.12.2019
5571 Clear 1 1029 33 0 2.77 2 04:59 24.12.2019
5572 Clear 1 1029 33 0 2.77 2 03:50 24.12.2019
5573 Clear 1 1029 33 0 2.77 2 03:23 24.12.2019
5574 Clear 1 1029 33 0 2.77 2 02:25 24.12.2019
5575 Clouds -1 1027 32 0 3.53 4 01:51 24.12.2019
5576 Clouds -1 1027 32 0 3.53 4 01:51 24.12.2019
5577 Clouds -1 1027 32 0 3.53 4 01:23 24.12.2019
5578 Clouds -1 1027 33 0 3.53 3 00:46 24.12.2019
5579 Clouds -1 1027 33 0 3.53 3 00:26 24.12.2019
5580 Clouds -1 1027 33 0 3.53 3 23:59 23.12.2019
5581 Clouds -1 1027 33 0 3.53 3 23:41 23.12.2019
5582 Clouds -1 1027 33 0 3.53 3 23:23 23.12.2019
5583 Clouds -1 1026 37 0 3.42 356 22:56 23.12.2019
5584 Clouds -1 1026 37 0 3.42 356 22:37 23.12.2019
5585 Clouds -1 1026 37 0 3.42 356 22:37 23.12.2019
5586 Clouds -1 1026 37 0 3.42 356 22:19 23.12.2019
5587 Clouds -1 1026 37 0 3.42 356 21:55 23.12.2019
5588 Clouds -1 1026 37 0 3.42 356 21:36 23.12.2019
5589 Clouds -1 1026 37 0 3.42 356 21:36 23.12.2019
5590 Clouds -1 1026 37 0 3.42 356 21:36 23.12.2019
5591 Clouds -1 1026 37 0 3.42 356 21:18 23.12.2019
5592 Clouds -1 1026 37 0 3.42 356 20:57 23.12.2019
5593 Clouds -1 1026 37 0 3.42 356 20:39 23.12.2019
5594 Clouds 0 1025 35 0 3.21 359 20:18 23.12.2019
5595 Clouds 0 1025 35 0 3.21 359 19:56 23.12.2019
5596 Clouds 0 1025 35 0 3.21 359 19:38 23.12.2019
5597 Clouds 0 1025 35 0 3.21 359 19:19 23.12.2019
5598 Clouds 0 1025 35 0 3.21 359 18:57 23.12.2019
5599 Clouds 0 1025 35 0 3.21 359 18:38 23.12.2019
5600 Clouds 0 1025 35 0 3.21 359 18:20 23.12.2019
5601 Clouds 0 1025 35 0 3.21 359 17:56 23.12.2019
5602 Clouds 0 1025 35 0 3.21 359 17:37 23.12.2019
5603 Clouds 1 1024 38 0 3.32 13 17:19 23.12.2019
5604 Clouds 1 1024 38 0 3.32 13 16:55 23.12.2019
5605 Clouds 1 1024 38 0 3.32 13 16:55 23.12.2019
5606 Clouds 1 1024 38 0 3.32 13 16:36 23.12.2019
5607 Clouds 1 1024 38 0 3.32 13 16:18 23.12.2019
5608 Clouds 1 1024 38 0 3.32 13 15:55 23.12.2019
5609 Clouds 1 1024 38 0 3.32 13 15:36 23.12.2019
5610 Clouds 1 1024 38 0 3.32 13 15:18 23.12.2019
5611 Clouds 1 1024 38 0 3.32 13 14:45 23.12.2019
5612 Clouds 1 1024 38 0 3.32 13 14:26 23.12.2019
5613 Clouds 1 1020 54 0 1.69 6 13:59 23.12.2019
5614 Clouds 1 1020 54 0 1.69 6 13:41 23.12.2019
5615 Clouds 1 1020 54 0 1.69 6 13:22 23.12.2019
5616 Clouds 1 1020 53 0 1.67 5 12:59 23.12.2019
5617 Clouds 1 1020 53 0 1.67 5 12:40 23.12.2019
5618 Clouds 1 1020 53 0 1.67 5 12:21 23.12.2019
5619 Clouds 1 1020 53 0 1.67 5 11:55 23.12.2019
5620 Clouds 1 1020 53 0 1.67 5 11:37 23.12.2019
5621 Clear 7 1018 34 0 2.26 217 11:18 23.12.2019
5622 Clear 7 1018 34 0 2.26 217 10:54 23.12.2019
5623 Clear 7 1018 34 0 2.26 217 10:36 23.12.2019
5624 Clear 7 1018 34 0 2.26 217 10:18 23.12.2019
5625 Clear 7 1018 34 0 2.26 217 09:40 23.12.2019
5626 Clear 7 1018 34 0 2.26 217 09:22 23.12.2019
5627 Clear 7 1018 34 0 2.26 217 08:58 23.12.2019
5628 Clear 7 1018 34 0 2.26 217 08:40 23.12.2019
5629 Clear 8 1021 25 0 1.74 217 08:22 23.12.2019
5630 Clear 8 1021 25 0 1.74 217 07:48 23.12.2019
5631 Clear 8 1021 25 0 1.74 217 07:21 23.12.2019
5632 Clear 8 1021 25 0 1.74 217 06:57 23.12.2019
5633 Clear 8 1021 25 0 1.74 217 06:30 23.12.2019
5634 Clear 8 1021 25 0 1.74 217 05:56 23.12.2019
5635 Clear 8 1021 25 0 1.74 217 05:33 23.12.2019
5636 Clear 2 1025 28 0 3.21 8 04:40 23.12.2019
5637 Clear 2 1025 28 0 3.21 8 03:36 23.12.2019
5638 Clear 2 1025 28 0 3.21 8 02:43 23.12.2019
5639 Clear 0 1024 25 0 3.87 3 02:19 23.12.2019
5640 Clear 0 1024 25 0 3.87 3 01:45 23.12.2019
5641 Clear 0 1024 25 0 3.87 3 01:27 23.12.2019
5642 Clear 0 1024 26 0 3.84 360 00:45 23.12.2019
5643 Clear 0 1024 26 0 3.84 360 00:25 23.12.2019
5644 Clear 0 1024 26 0 3.84 360 23:56 22.12.2019
5645 Clear 0 1024 26 0 3.84 360 23:37 22.12.2019
5646 Clear 0 1024 27 0 3.88 1 23:18 22.12.2019
5647 Clear 0 1024 27 0 3.88 1 22:41 22.12.2019
5648 Clear 0 1024 27 0 3.88 1 22:22 22.12.2019
5649 Clear 0 1024 27 0 3.88 1 21:59 22.12.2019
5650 Clear 0 1024 27 0 3.88 1 21:40 22.12.2019
5651 Clear 0 1024 27 0 3.88 1 21:21 22.12.2019
5652 Clear 0 1024 27 0 3.88 1 20:59 22.12.2019
5653 Clear 0 1024 27 0 3.88 1 20:40 22.12.2019
5654 Clear 0 1025 31 0 3.85 2 20:19 22.12.2019
5655 Clear 0 1025 31 0 3.85 2 19:57 22.12.2019
5656 Clear 0 1025 31 0 3.85 2 19:39 22.12.2019
5657 Clear 0 1025 31 0 3.85 2 19:20 22.12.2019
5658 Clear 0 1025 31 0 3.85 2 18:43 22.12.2019
5659 Clear 0 1025 31 0 3.85 2 18:25 22.12.2019
5660 Clear 0 1025 31 0 3.85 2 17:57 22.12.2019
5661 Clear 0 1025 31 0 3.85 2 17:39 22.12.2019
5662 Clear 0 1026 36 0 3.71 12 17:19 22.12.2019
5663 Clear 0 1026 36 0 3.71 12 16:59 22.12.2019
5664 Clear 0 1026 36 0 3.71 12 16:41 22.12.2019
5665 Clear 0 1026 36 0 3.71 12 16:22 22.12.2019
5666 Clear 0 1026 36 0 3.71 12 15:57 22.12.2019
5667 Clear 0 1026 36 0 3.71 12 15:39 22.12.2019
5668 Clear 0 1026 36 0 3.71 12 15:39 22.12.2019
5669 Clear 0 1026 36 0 3.71 12 15:21 22.12.2019
5670 Clear 0 1026 36 0 3.71 12 14:56 22.12.2019
5671 Clear 0 1026 36 0 3.71 12 14:38 22.12.2019
5672 Clear 1 1022 61 0 2.3 11 14:19 22.12.2019
5673 Clear 1 1022 61 0 2.3 11 14:19 22.12.2019
5674 Clear 1 1022 61 0 2.3 11 13:56 22.12.2019
5675 Clear 1 1022 61 0 2.3 11 13:38 22.12.2019
5676 Clear 1 1022 61 0 2.3 11 13:19 22.12.2019
5677 Clear 1 1022 63 0 2.13 7 13:19 22.12.2019
5678 Clear 1 1022 63 0 2.13 7 12:56 22.12.2019
5679 Clear 1 1022 63 0 2.13 7 12:38 22.12.2019
5680 Clear 1 1022 63 0 2.13 7 12:19 22.12.2019
5681 Clear 1 1022 63 0 2.13 7 11:56 22.12.2019
5682 Clear 1 1022 63 0 2.13 7 11:38 22.12.2019
5683 Clear 7 1020 43 0 2.13 208 11:19 22.12.2019
5684 Clear 7 1020 43 0 2.13 208 10:56 22.12.2019
5685 Clear 7 1020 43 0 2.13 208 10:38 22.12.2019
5686 Clear 7 1020 43 0 2.13 208 10:19 22.12.2019
5687 Clear 7 1020 43 0 2.13 208 10:19 22.12.2019
5688 Clear 7 1020 43 0 2.13 208 09:57 22.12.2019
5689 Clear 7 1020 43 0 2.13 208 09:39 22.12.2019
5690 Clear 7 1020 43 0 2.13 208 09:20 22.12.2019
5691 Clear 7 1020 43 0 2.13 208 08:42 22.12.2019
5692 Clear 6 1023 38 0 1.66 223 08:22 22.12.2019
5693 Clear 6 1023 38 0 1.66 223 07:44 22.12.2019
5694 Clear 6 1023 38 0 1.66 223 07:21 22.12.2019
5695 Clear 6 1023 38 0 1.66 223 06:53 22.12.2019
5696 Clear 6 1023 38 0 1.66 223 06:26 22.12.2019
5697 Clear 6 1023 38 0 1.66 223 05:33 22.12.2019
5698 Clear 1 1028 47 0 2.48 355 04:46 22.12.2019
5699 Clear 1 1028 47 0 2.48 355 04:25 22.12.2019
5700 Clear 1 1028 47 0 2.48 355 02:46 22.12.2019
5701 Clear 1 1028 47 0 2.48 355 02:46 22.12.2019
5702 Clear -1 1026 52 0 3.18 358 02:21 22.12.2019
5703 Clear -1 1026 55 0 3.16 1 01:31 22.12.2019
5704 Clear -1 1026 55 0 3.16 1 00:56 22.12.2019
5705 Clear -1 1026 55 0 3.16 1 00:36 22.12.2019
5706 Clear -1 1026 55 0 3.16 1 00:18 22.12.2019
5707 Clear -1 1026 55 0 3.16 1 23:41 21.12.2019
5708 Clear -1 1026 64 0 3.28 359 23:21 21.12.2019
5709 Clear -1 1026 64 0 3.28 359 22:57 21.12.2019
5710 Clear -1 1026 64 0 3.28 359 22:37 21.12.2019
5711 Clear -1 1026 64 0 3.28 359 22:18 21.12.2019
5712 Clear -1 1026 64 0 3.28 359 21:54 21.12.2019
5713 Clear -1 1026 64 0 3.28 359 21:36 21.12.2019
5714 Clear -1 1026 64 0 3.28 359 21:18 21.12.2019
5715 Clear -1 1026 64 0 3.28 359 20:56 21.12.2019
5716 Clear -1 1026 64 0 3.28 359 20:37 21.12.2019
5717 Clouds -1 1024 73 0 3.02 359 20:19 21.12.2019
5718 Clouds -1 1024 71 0 3.02 357 19:55 21.12.2019
5719 Clouds -1 1024 71 0 3.02 357 19:36 21.12.2019
5720 Clouds -1 1024 71 0 3.02 357 19:18 21.12.2019
5721 Clouds -1 1024 71 0 3.02 357 18:41 21.12.2019
5722 Clouds -1 1024 71 0 3.02 357 18:23 21.12.2019
5723 Clouds -1 1024 71 0 3.02 357 17:56 21.12.2019
5724 Clouds -1 1024 71 0 3.02 357 17:38 21.12.2019
5725 Clouds 0 1023 81 0 1.83 18 17:19 21.12.2019
5726 Clouds 0 1023 81 0 1.83 18 16:57 21.12.2019
5727 Clouds 0 1023 81 0 1.83 18 16:38 21.12.2019
5728 Clouds 0 1023 81 0 1.83 18 16:18 21.12.2019
5729 Clouds 0 1023 81 0 1.83 18 15:55 21.12.2019
5730 Clouds 0 1023 81 0 1.83 18 15:37 21.12.2019
5731 Clouds 0 1023 81 0 1.83 18 15:18 21.12.2019
5732 Clouds 0 1023 81 0 1.83 18 14:41 21.12.2019
5733 Clouds 0 1023 81 0 1.83 18 14:23 21.12.2019
5734 Snow 2 1019 91 0 0.57 240 13:58 21.12.2019
5735 Snow 2 1019 91 0 0.57 240 13:39 21.12.2019
5736 Snow 1 1019 94 0 0.32 271 13:19 21.12.2019
5737 Snow 1 1019 94 0 0.32 271 12:56 21.12.2019
5738 Snow 1 1019 94 0 0.32 271 12:38 21.12.2019
5739 Snow 1 1019 94 0 0.32 271 12:20 21.12.2019
5740 Snow 1 1019 94 0 0.32 271 11:48 21.12.2019
5741 Snow 1 1019 94 0 0.32 271 11:27 21.12.2019
5742 Snow 5 1017 74 0 2.42 228 10:59 21.12.2019
5743 Snow 5 1017 74 0 2.42 228 10:41 21.12.2019
5744 Snow 5 1017 74 0 2.42 228 10:22 21.12.2019
5745 Snow 5 1017 74 0 2.42 228 09:58 21.12.2019
5746 Snow 5 1017 74 0 2.42 228 09:39 21.12.2019
5747 Snow 5 1017 74 0 2.42 228 09:20 21.12.2019
5748 Snow 5 1017 74 0 2.42 228 08:52 21.12.2019
5749 Clouds 6 1018 61 0 2.11 229 08:27 21.12.2019
5750 Clouds 5 1021 59 0 1.56 231 07:58 21.12.2019
5751 Clouds 5 1021 59 0 1.56 231 07:40 21.12.2019
5752 Clouds 5 1021 59 0 1.56 231 07:21 21.12.2019
5753 Clouds 5 1021 59 0 1.56 231 06:41 21.12.2019
5754 Clouds 5 1021 59 0 1.56 231 06:23 21.12.2019
5755 Clouds 5 1021 59 0 1.56 231 05:37 21.12.2019
5756 Clear 1 1026 68 0 2.62 1 04:55 21.12.2019
5757 Clear 1 1026 68 0 2.62 1 03:56 21.12.2019
5758 Clear 1 1026 68 0 2.62 1 02:26 21.12.2019
5759 Snow -1 1024 77 0 3.61 16 01:53 21.12.2019
5760 Snow -1 1024 77 0 3.61 16 01:26 21.12.2019
5761 Snow 0 1024 76 0 2.68 13 00:49 21.12.2019
5762 Snow 0 1024 76 0 2.68 13 00:28 21.12.2019
5763 Snow 0 1024 76 0 2.68 13 23:41 20.12.2019
5764 Snow 1 1023 70 0 3.13 22 23:22 20.12.2019
5765 Snow 1 1023 70 0 3.13 22 22:59 20.12.2019
5766 Snow 1 1023 70 0 3.13 22 22:40 20.12.2019
5767 Snow 1 1023 70 0 3.13 22 22:20 20.12.2019
5768 Snow 1 1023 70 0 3.13 22 21:57 20.12.2019
5769 Snow 1 1023 70 0 3.13 22 21:39 20.12.2019
5770 Snow 1 1023 70 0 3.13 22 21:18 20.12.2019
5771 Snow 1 1023 70 0 3.13 22 20:39 20.12.2019
5772 Snow 0 1021 75 0 3.14 4 20:19 20.12.2019
5773 Snow 0 1021 75 0 3.14 4 19:57 20.12.2019
5774 Snow 0 1021 75 0 3.14 4 19:39 20.12.2019
5775 Snow 0 1021 75 0 3.14 4 19:19 20.12.2019
5776 Snow 0 1021 75 0 3.14 4 18:42 20.12.2019
5777 Snow 0 1021 75 0 3.14 4 18:24 20.12.2019
5778 Snow 0 1021 75 0 3.14 4 17:59 20.12.2019
5779 Snow 0 1021 75 0 3.14 4 17:41 20.12.2019
5780 Snow 1 1020 85 0 2.56 16 17:21 20.12.2019
5781 Snow 1 1020 85 0 2.56 16 17:21 20.12.2019
5782 Snow 1 1020 85 0 2.56 16 16:59 20.12.2019
5783 Snow 1 1020 85 0 2.56 16 16:39 20.12.2019
5784 Snow 1 1020 85 0 2.56 16 16:20 20.12.2019
5785 Snow 1 1020 85 0 2.56 16 15:56 20.12.2019
5786 Snow 1 1020 85 0 2.56 16 15:38 20.12.2019
5787 Snow 1 1020 85 0 2.56 16 15:19 20.12.2019
5788 Snow 1 1020 85 0 2.56 16 14:54 20.12.2019
5789 Snow 1 1020 85 0 2.56 16 14:36 20.12.2019
5790 Snow 2 1015 87 0 2.62 3 14:18 20.12.2019
5791 Snow 2 1015 87 0 2.62 3 13:41 20.12.2019
5792 Snow 2 1015 87 0 2.62 3 13:20 20.12.2019
5793 Snow 1 1015 85 0 2.36 9 12:58 20.12.2019
5794 Snow 1 1015 85 0 2.36 9 12:38 20.12.2019
5795 Snow 1 1015 85 0 2.36 9 12:19 20.12.2019
5796 Snow 1 1015 85 0 2.36 9 11:59 20.12.2019
5797 Snow 1 1015 85 0 2.36 9 11:59 20.12.2019
5798 Snow 1 1015 85 0 2.36 9 11:39 20.12.2019
5799 Snow 4 1014 85 0 0.63 247 11:19 20.12.2019
5800 Snow 4 1014 85 0 0.63 247 10:58 20.12.2019
5801 Snow 4 1014 85 0 0.63 247 10:58 20.12.2019
5802 Snow 4 1014 85 0 0.63 247 10:40 20.12.2019
5803 Snow 4 1014 85 0 0.63 247 10:20 20.12.2019
5804 Snow 4 1014 85 0 0.63 247 09:55 20.12.2019
5805 Snow 4 1014 85 0 0.63 247 09:37 20.12.2019
5806 Snow 4 1014 85 0 0.63 247 09:19 20.12.2019
5807 Snow 4 1014 85 0 0.63 247 08:42 20.12.2019
5808 Snow 4 1016 78 0 0.93 194 08:22 20.12.2019
5809 Snow 7 1016 56 0 1.05 307 07:58 20.12.2019
5810 Snow 7 1016 56 0 1.05 307 07:40 20.12.2019
5811 Snow 7 1016 56 0 1.05 307 07:19 20.12.2019
5812 Snow 7 1016 56 0 1.05 307 07:19 20.12.2019
5813 Snow 7 1016 56 0 1.05 307 06:50 20.12.2019
5814 Snow 7 1016 56 0 1.05 307 06:31 20.12.2019
5815 Snow 7 1016 56 0 1.05 307 05:53 20.12.2019
5816 Snow 7 1016 56 0 1.05 307 05:34 20.12.2019
5817 Snow 4 1018 65 0 2.1 13 04:30 20.12.2019
5818 Snow 4 1018 65 0 2.1 13 03:30 20.12.2019
5819 Snow 4 1018 65 0 2.1 13 02:42 20.12.2019
5820 Clouds 2 1017 68 0 2.49 4 01:49 20.12.2019
5821 Snow 2 1016 78 0 2.61 19 01:30 20.12.2019
5822 Snow 2 1016 78 0 2.61 19 00:43 20.12.2019
5823 Snow 2 1016 78 0 2.61 19 00:23 20.12.2019
5824 Snow 2 1016 78 0 2.61 19 23:44 19.12.2019
5825 Snow 2 1016 78 0 2.61 19 23:25 19.12.2019
5826 Snow 3 1018 67 0 2.73 14 22:59 19.12.2019
5827 Snow 3 1018 67 0 2.73 14 22:59 19.12.2019
5828 Snow 3 1018 67 0 2.73 14 22:37 19.12.2019
5829 Snow 3 1018 67 0 2.73 14 22:18 19.12.2019
5830 Snow 3 1018 67 0 2.73 14 21:55 19.12.2019
5831 Snow 3 1018 67 0 2.73 14 21:37 19.12.2019
5832 Snow 3 1018 67 0 2.73 14 21:18 19.12.2019
5833 Snow 3 1018 67 0 2.73 14 20:55 19.12.2019
5834 Snow 3 1018 67 0 2.73 14 20:36 19.12.2019
5835 Snow 2 1018 79 0 3.27 31 20:18 19.12.2019
5836 Snow 2 1018 79 0 3.27 31 19:54 19.12.2019
5837 Snow 2 1018 79 0 3.27 31 19:36 19.12.2019
5838 Snow 2 1018 79 0 3.27 31 19:18 19.12.2019
5839 Snow 2 1018 79 0 3.27 31 18:41 19.12.2019
5840 Snow 2 1018 79 0 3.27 31 18:22 19.12.2019
5841 Snow 2 1018 79 0 3.27 31 17:57 19.12.2019
5842 Snow 2 1018 79 0 3.27 31 17:39 19.12.2019
5843 Snow 4 1019 60 0 1.57 27 17:19 19.12.2019
5844 Snow 4 1019 60 0 1.57 27 16:57 19.12.2019
5845 Snow 4 1019 60 0 1.57 27 16:39 19.12.2019
5846 Snow 4 1019 60 0 1.57 27 16:21 19.12.2019
5847 Snow 4 1019 60 0 1.57 27 15:59 19.12.2019
5848 Snow 4 1019 60 0 1.57 27 15:39 19.12.2019
5849 Snow 4 1019 60 0 1.57 27 15:20 19.12.2019
5850 Snow 4 1019 60 0 1.57 27 14:59 19.12.2019
5851 Snow 4 1019 60 0 1.57 27 14:40 19.12.2019
5852 Clouds 4 1017 61 0 1.66 48 14:19 19.12.2019
5853 Clouds 4 1017 61 0 1.66 48 13:57 19.12.2019
5854 Clouds 4 1017 61 0 1.66 48 13:37 19.12.2019
5855 Clouds 4 1017 61 0 1.66 48 13:18 19.12.2019
5856 Snow 5 1017 66 0 1.32 48 12:55 19.12.2019
5857 Snow 5 1017 66 0 1.32 48 12:36 19.12.2019
5858 Snow 5 1017 66 0 1.32 48 12:18 19.12.2019
5859 Snow 5 1017 66 0 1.32 48 11:56 19.12.2019
5860 Snow 5 1017 66 0 1.32 48 11:38 19.12.2019
5861 Clouds 8 1018 53 0 1.77 228 11:18 19.12.2019
5862 Clouds 8 1018 53 0 1.77 228 10:39 19.12.2019
5863 Clouds 8 1018 53 0 1.77 228 10:20 19.12.2019
5864 Clouds 8 1018 53 0 1.77 228 10:20 19.12.2019
5865 Clouds 8 1018 53 0 1.77 228 09:59 19.12.2019
5866 Clouds 8 1018 53 0 1.77 228 09:38 19.12.2019
5867 Clouds 8 1018 53 0 1.77 228 09:20 19.12.2019
5868 Clouds 8 1018 53 0 1.77 228 08:57 19.12.2019
5869 Clouds 8 1018 53 0 1.77 228 08:39 19.12.2019
5870 Clouds 9 1020 40 0 1.41 212 08:19 19.12.2019
5871 Clouds 9 1020 40 0 1.41 212 07:56 19.12.2019
5872 Clouds 9 1020 40 0 1.41 212 07:37 19.12.2019
5873 Clouds 9 1020 40 0 1.41 212 07:19 19.12.2019
5874 Clouds 9 1020 40 0 1.41 212 06:46 19.12.2019
5875 Clouds 9 1020 40 0 1.41 212 06:27 19.12.2019
5876 Clouds 9 1020 40 0 1.41 212 05:52 19.12.2019
5877 Clouds 9 1020 40 0 1.41 212 05:32 19.12.2019
5878 Clouds 6 1022 40 0 1.74 345 04:43 19.12.2019
5879 Clouds 6 1022 40 0 1.74 345 02:48 19.12.2019
5880 Clouds 4 1020 40 0 3.09 358 01:47 19.12.2019
5881 Clouds 4 1020 40 0 2.51 343 01:22 19.12.2019
5882 Clouds 4 1020 40 0 2.51 343 00:39 19.12.2019
5883 Clouds 4 1020 40 0 2.51 343 00:39 19.12.2019
5884 Clouds 4 1020 40 0 2.51 343 00:39 19.12.2019
5885 Clouds 4 1020 40 0 2.51 343 00:39 19.12.2019
5886 Clouds 4 1020 40 0 2.51 343 00:20 19.12.2019
5887 Clouds 4 1020 40 0 2.51 343 23:55 18.12.2019
5888 Clouds 4 1020 40 0 2.51 343 23:36 18.12.2019
5889 Clouds 4 1021 39 0 2.72 16 23:18 18.12.2019
5890 Clouds 4 1021 39 0 2.72 16 22:55 18.12.2019
5891 Clouds 4 1021 39 0 2.72 16 22:36 18.12.2019
5892 Clouds 4 1021 39 0 2.72 16 22:18 18.12.2019
5893 Clouds 4 1021 39 0 2.72 16 21:55 18.12.2019
5894 Clouds 4 1021 39 0 2.72 16 21:36 18.12.2019
5895 Clouds 4 1021 39 0 2.72 16 21:18 18.12.2019
5896 Clouds 4 1021 39 0 2.72 16 20:54 18.12.2019
5897 Clouds 4 1021 39 0 2.72 16 20:36 18.12.2019
5898 Clouds 4 1022 41 0 2.96 3 20:18 18.12.2019
5899 Clouds 4 1022 39 0 3.13 5 19:54 18.12.2019
5900 Clouds 4 1022 39 0 3.13 5 19:54 18.12.2019
5901 Clouds 4 1022 39 0 3.13 5 19:36 18.12.2019
5902 Clouds 4 1022 39 0 3.13 5 19:18 18.12.2019
5903 Clouds 4 1022 39 0 3.13 5 18:43 18.12.2019
5904 Clouds 4 1022 39 0 3.13 5 18:25 18.12.2019
5905 Clouds 4 1022 39 0 3.13 5 17:56 18.12.2019
5906 Clouds 4 1022 39 0 3.13 5 17:38 18.12.2019
5907 Clouds 4 1022 44 0 3.44 23 17:19 18.12.2019
5908 Clouds 4 1022 44 0 3.44 23 16:54 18.12.2019
5909 Clouds 4 1022 44 0 3.44 23 16:36 18.12.2019
5910 Clouds 4 1022 44 0 3.44 23 16:18 18.12.2019
5911 Clouds 4 1022 44 0 3.44 23 15:54 18.12.2019
5912 Clouds 4 1022 44 0 3.44 23 15:36 18.12.2019
5913 Clouds 4 1022 44 0 3.44 23 15:18 18.12.2019
5914 Clouds 4 1022 44 0 3.44 23 14:40 18.12.2019
5915 Clouds 3 1020 51 0 1.61 348 14:20 18.12.2019
5916 Clouds 3 1020 51 0 1.61 348 13:56 18.12.2019
5917 Clouds 3 1020 51 0 1.61 348 13:37 18.12.2019
5918 Clouds 3 1020 51 0 1.61 348 13:19 18.12.2019
5919 Clouds 4 1019 52 0 1.98 347 12:57 18.12.2019
5920 Clouds 4 1019 52 0 1.98 347 12:37 18.12.2019
5921 Clouds 4 1019 52 0 1.98 347 12:19 18.12.2019
5922 Clouds 4 1019 52 0 1.98 347 11:55 18.12.2019
5923 Clouds 4 1019 52 0 1.98 347 11:37 18.12.2019
5924 Clouds 9 1019 35 0 1.78 207 11:18 18.12.2019
5925 Clouds 9 1019 35 0 1.78 207 10:55 18.12.2019
5926 Clouds 9 1019 35 0 1.78 207 10:37 18.12.2019
5927 Clouds 9 1019 35 0 1.78 207 10:19 18.12.2019
5928 Clouds 9 1019 35 0 1.78 207 09:43 18.12.2019
5929 Clouds 9 1019 35 0 1.78 207 09:18 18.12.2019
5930 Clouds 9 1019 35 0 1.78 207 08:40 18.12.2019
5931 Clouds 9 1021 26 0 1.15 208 08:21 18.12.2019
5932 Clouds 9 1021 27 0 1.42 214 07:43 18.12.2019
5933 Clouds 9 1021 27 0 1.42 214 07:23 18.12.2019
5934 Clouds 9 1021 27 0 1.42 214 06:55 18.12.2019
5935 Clouds 9 1021 27 0 1.42 214 06:27 18.12.2019
5936 Clouds 9 1021 27 0 1.42 214 05:47 18.12.2019
5937 Clouds 5 1024 25 0 2.69 359 04:57 18.12.2019
5938 Clouds 5 1024 25 0 2.69 359 02:55 18.12.2019
5939 Clouds 5 1024 25 0 2.69 359 02:36 18.12.2019
5940 Clouds 2 1023 21 0 3.48 351 02:18 18.12.2019
5941 Clouds 2 1023 21 0 3.48 351 01:40 18.12.2019
5942 Clouds 2 1023 22 0 3.56 354 01:21 18.12.2019
5943 Clouds 2 1023 22 0 3.56 354 00:41 18.12.2019
5944 Clouds 2 1023 22 0 3.56 354 00:22 18.12.2019
5945 Clouds 2 1023 22 0 3.56 354 23:56 17.12.2019
5946 Clouds 2 1023 22 0 3.56 354 23:38 17.12.2019
5947 Clouds 1 1024 24 0 3.89 3 23:18 17.12.2019
5948 Clouds 1 1024 24 0 3.89 3 22:56 17.12.2019
5949 Clouds 1 1024 24 0 3.89 3 22:37 17.12.2019
5950 Clouds 1 1024 24 0 3.89 3 22:18 17.12.2019
5951 Clouds 1 1024 24 0 3.89 3 21:55 17.12.2019
5952 Clouds 1 1024 24 0 3.89 3 21:37 17.12.2019
5953 Clouds 1 1024 24 0 3.89 3 21:18 17.12.2019
5954 Clouds 1 1024 24 0 3.89 3 20:56 17.12.2019
5955 Clouds 1 1024 24 0 3.89 3 20:37 17.12.2019
5956 Clear 0 1025 31 0 3.7 11 20:18 17.12.2019
5957 Clear 1 1025 30 0 3.73 6 19:54 17.12.2019
5958 Clear 1 1025 30 0 3.73 6 19:36 17.12.2019
5959 Clear 1 1025 30 0 3.73 6 19:18 17.12.2019
5960 Clear 1 1025 30 0 3.73 6 18:41 17.12.2019
5961 Clear 1 1025 30 0 3.73 6 18:22 17.12.2019
5962 Clear 1 1025 30 0 3.73 6 17:59 17.12.2019
5963 Clear 1 1025 30 0 3.73 6 17:41 17.12.2019
5964 Clear 0 1026 38 0 3.21 354 17:19 17.12.2019
5965 Clear 0 1026 38 0 3.21 354 16:56 17.12.2019
5966 Clear 0 1026 38 0 3.21 354 16:37 17.12.2019
5967 Clear 0 1026 38 0 3.21 354 16:19 17.12.2019
5968 Clear 0 1026 38 0 3.21 354 15:56 17.12.2019
5969 Clear 0 1026 38 0 3.21 354 15:37 17.12.2019
5970 Clear 0 1026 38 0 3.21 354 15:37 17.12.2019
5971 Clear 0 1026 38 0 3.21 354 15:19 17.12.2019
5972 Clear 0 1026 38 0 3.21 354 15:19 17.12.2019
5973 Clear 0 1026 38 0 3.21 354 14:55 17.12.2019
5974 Clear 0 1026 38 0 3.21 354 14:36 17.12.2019
5975 Clear 0 1024 49 0 2.49 10 14:18 17.12.2019
5976 Clear 0 1024 49 0 2.49 10 13:55 17.12.2019
5977 Clear 0 1024 49 0 2.49 10 13:37 17.12.2019
5978 Clear 0 1024 49 0 2.33 11 13:18 17.12.2019
5979 Clear 0 1024 49 0 2.33 11 12:41 17.12.2019
5980 Clear 0 1024 49 0 2.33 11 12:19 17.12.2019
5981 Clear 0 1024 49 0 2.33 11 12:19 17.12.2019
5982 Clear 0 1024 49 0 2.33 11 12:19 17.12.2019
5983 Clear 0 1024 49 0 2.33 11 11:59 17.12.2019
5984 Clear 0 1024 49 0 2.33 11 11:37 17.12.2019
5985 Clear 6 1022 29 0 2.3 203 11:19 17.12.2019
5986 Clear 6 1022 29 0 2.3 203 10:59 17.12.2019
5987 Clear 6 1022 29 0 2.3 203 10:41 17.12.2019
5988 Clear 6 1022 29 0 2.3 203 10:41 17.12.2019
5989 Clear 6 1022 29 0 2.3 203 10:22 17.12.2019
5990 Clear 6 1022 29 0 2.3 203 09:59 17.12.2019
5991 Clear 6 1022 29 0 2.3 203 09:41 17.12.2019
5992 Clear 6 1022 29 0 2.3 203 09:20 17.12.2019
5993 Clear 6 1022 29 0 2.3 203 08:56 17.12.2019
5994 Clear 6 1022 29 0 2.3 203 08:38 17.12.2019
5995 Clear 7 1026 21 0 1.56 234 08:19 17.12.2019
5996 Clear 7 1026 21 0 1.56 234 07:47 17.12.2019
5997 Clear 7 1026 21 0 1.56 234 07:27 17.12.2019
5998 Clear 7 1026 21 0 1.56 234 06:59 17.12.2019
5999 Clear 7 1026 21 0 1.56 234 06:35 17.12.2019
6000 Clear 7 1026 21 0 1.56 234 05:54 17.12.2019
6001 Clear 7 1026 21 0 1.56 234 05:36 17.12.2019
6002 Clear 0 1031 25 0 3.22 7 04:31 17.12.2019
6003 Clear 0 1031 25 0 3.22 7 02:45 17.12.2019
6004 Clear -2 1030 22 0 3.59 7 01:56 17.12.2019
6005 Clear -2 1030 23 0 3.71 5 01:18 17.12.2019
6006 Clear -2 1030 23 0 3.71 5 00:38 17.12.2019
6007 Clear -2 1030 23 0 3.71 5 00:38 17.12.2019
6008 Clear -2 1030 23 0 3.71 5 00:19 17.12.2019
6009 Clear -2 1030 23 0 3.71 5 23:42 16.12.2019
6010 Clear -2 1031 27 0 3.45 359 23:19 16.12.2019
6011 Clear -2 1031 27 0 3.45 359 22:58 16.12.2019
6012 Clear -2 1031 27 0 3.45 359 22:37 16.12.2019
6013 Clear -2 1031 27 0 3.45 359 22:19 16.12.2019
6014 Clear -2 1031 27 0 3.45 359 21:56 16.12.2019
6015 Clear -2 1031 27 0 3.45 359 21:38 16.12.2019
6016 Clear -2 1031 27 0 3.45 359 21:38 16.12.2019
6017 Clear -2 1031 27 0 3.45 359 21:20 16.12.2019
6018 Clear -2 1031 27 0 3.45 359 20:57 16.12.2019
6019 Clear -2 1031 27 0 3.45 359 20:38 16.12.2019
6020 Clear -2 1030 37 0 3.36 3 20:19 16.12.2019
6021 Clear -2 1030 35 0 3.34 3 19:56 16.12.2019
6022 Clear -2 1030 35 0 3.34 3 19:37 16.12.2019
6023 Clear -2 1030 35 0 3.34 3 19:19 16.12.2019
6024 Clear -2 1030 35 0 3.34 3 18:56 16.12.2019
6025 Clear -2 1030 35 0 3.34 3 18:38 16.12.2019
6026 Clear -2 1030 35 0 3.34 3 18:19 16.12.2019
6027 Clear -2 1030 35 0 3.34 3 17:57 16.12.2019
6028 Clear -2 1030 35 0 3.34 3 17:38 16.12.2019
6029 Clear -1 1029 40 0 3.8 13 17:20 16.12.2019
6030 Clear -1 1029 40 0 3.8 13 16:57 16.12.2019
6031 Clear -1 1029 40 0 3.8 13 16:38 16.12.2019
6032 Clear -1 1029 40 0 3.8 13 16:19 16.12.2019
6033 Clear -1 1029 40 0 3.8 13 15:57 16.12.2019
6034 Clear -1 1029 40 0 3.8 13 15:38 16.12.2019
6035 Clear -1 1029 40 0 3.8 13 15:20 16.12.2019
6036 Clear -1 1029 40 0 3.8 13 14:55 16.12.2019
6037 Clear -1 1029 40 0 3.8 13 14:37 16.12.2019
6038 Clear -1 1025 65 0 1.97 4 14:18 16.12.2019
6039 Clear -1 1025 65 0 1.97 4 14:18 16.12.2019
6040 Clear -1 1025 65 0 1.97 4 13:56 16.12.2019
6041 Clear -1 1025 65 0 1.97 4 13:37 16.12.2019
6042 Clear -1 1025 66 0 1.85 360 13:19 16.12.2019
6043 Clear -1 1025 66 0 1.85 360 12:57 16.12.2019
6044 Clear -1 1025 67 0 1.83 359 12:39 16.12.2019
6045 Clear -1 1025 67 0 1.83 359 12:18 16.12.2019
6046 Clear -1 1025 66 0 1.85 360 11:57 16.12.2019
6047 Clear -1 1025 66 0 1.85 360 11:39 16.12.2019
6048 Clear 6 1022 36 0 2.29 218 11:19 16.12.2019
6049 Clear 6 1022 36 0 2.29 218 10:55 16.12.2019
6050 Clear 6 1022 36 0 2.29 218 10:36 16.12.2019
6051 Clear 6 1022 36 0 2.29 218 10:18 16.12.2019
6052 Clear 6 1022 36 0 2.29 218 09:44 16.12.2019
6053 Clear 6 1022 36 0 2.29 218 09:44 16.12.2019
6054 Clear 6 1022 36 0 2.29 218 09:26 16.12.2019
6055 Clear 6 1022 36 0 2.29 218 08:41 16.12.2019
6056 Clear 6 1025 29 0 1.62 212 08:21 16.12.2019
6057 Clear 6 1025 29 0 1.62 212 07:57 16.12.2019
6058 Clear 6 1025 29 0 1.62 212 07:38 16.12.2019
6059 Clear 6 1025 29 0 1.62 212 07:19 16.12.2019
6060 Clear 6 1025 29 0 1.62 212 06:40 16.12.2019
6061 Clear 6 1025 29 0 1.62 212 06:21 16.12.2019
6062 Clear 6 1025 29 0 1.62 212 06:21 16.12.2019
6063 Clear 6 1025 29 0 1.62 212 05:44 16.12.2019
6064 Clear 6 1025 29 0 1.62 212 05:26 16.12.2019
6065 Clear 0 1029 41 0 2.47 5 03:33 16.12.2019
6066 Clear -3 1028 45 0 3.16 4 01:57 16.12.2019
6067 Clear -3 1028 45 0 3.16 4 01:39 16.12.2019
6068 Clear -3 1028 44 0 3.12 4 00:41 16.12.2019
6069 Clear -3 1028 44 0 3.12 4 00:23 16.12.2019
6070 Clear -3 1028 44 0 3.12 4 23:58 15.12.2019
6071 Clear -3 1028 44 0 3.12 4 23:37 15.12.2019
6072 Clear -2 1029 47 0 3.05 9 23:19 15.12.2019
6073 Clear -2 1029 47 0 3.05 9 22:54 15.12.2019
6074 Clear -2 1029 47 0 3.05 9 22:36 15.12.2019
6075 Clear -2 1029 47 0 3.05 9 22:18 15.12.2019
6076 Clear -2 1029 47 0 3.05 9 21:55 15.12.2019
6077 Clear -2 1029 47 0 3.05 9 21:37 15.12.2019
6078 Clear -2 1029 47 0 3.05 9 21:37 15.12.2019
6079 Clear -2 1029 47 0 3.05 9 21:18 15.12.2019
6080 Clear -2 1029 47 0 3.05 9 20:54 15.12.2019
6081 Clear -2 1029 47 0 3.05 9 20:36 15.12.2019
6082 Clear -2 1029 47 0 3.05 9 20:36 15.12.2019
6083 Clear -2 1029 52 0 3.39 16 20:18 15.12.2019
6084 Clear -2 1029 51 0 3.29 12 19:54 15.12.2019
6085 Clear -2 1029 51 0 3.29 12 19:36 15.12.2019
6086 Clear -2 1029 51 0 3.29 12 19:18 15.12.2019
6087 Clear -2 1029 51 0 3.29 12 18:54 15.12.2019
6088 Clear -2 1029 51 0 3.29 12 18:36 15.12.2019
6089 Clear -2 1029 51 0 3.29 12 18:18 15.12.2019
6090 Clear -2 1029 51 0 3.29 12 17:55 15.12.2019
6091 Clear -2 1029 51 0 3.29 12 17:36 15.12.2019
6092 Clear -2 1027 54 0 3.07 16 17:18 15.12.2019
6093 Clear -2 1027 54 0 3.07 16 16:42 15.12.2019
6094 Clear -2 1028 55 0 3.1 16 16:22 15.12.2019
6095 Clear -2 1028 55 0 3.1 16 15:57 15.12.2019
6096 Clear -2 1027 54 0 3.07 16 15:39 15.12.2019
6097 Clear -2 1028 55 0 3.1 16 15:19 15.12.2019
6098 Clear -2 1027 54 0 3.07 16 14:56 15.12.2019
6099 Clear -2 1028 55 0 3.1 16 14:37 15.12.2019
6100 Clouds -1 1024 70 0 1.74 357 14:19 15.12.2019
6101 Clouds -1 1024 69 0 1.91 353 13:58 15.12.2019
6102 Clouds -1 1024 70 0 1.74 357 13:39 15.12.2019
6103 Clouds -1 1024 69 0 1.91 353 13:20 15.12.2019
6104 Clouds -1 1024 69 0 1.91 353 12:57 15.12.2019
6105 Clouds -1 1024 69 0 1.91 353 12:57 15.12.2019
6106 Clouds -1 1024 69 0 1.91 353 12:39 15.12.2019
6107 Clouds -1 1024 69 0 1.91 353 12:21 15.12.2019
6108 Clouds -1 1024 69 0 1.91 353 11:59 15.12.2019
6109 Clouds -1 1024 69 0 1.91 353 11:38 15.12.2019
6110 Clouds 4 1021 46 0 2.37 227 11:19 15.12.2019
6111 Clouds 4 1021 46 0 2.37 227 11:19 15.12.2019
6112 Clouds 4 1021 46 0 2.37 227 10:55 15.12.2019
6113 Clouds 4 1021 46 0 2.37 227 10:37 15.12.2019
6114 Clouds 4 1021 46 0 2.37 227 10:19 15.12.2019
6115 Clouds 4 1021 46 0 2.37 227 09:56 15.12.2019
6116 Clouds 4 1021 46 0 2.37 227 09:37 15.12.2019
6117 Clouds 4 1021 46 0 2.37 227 09:18 15.12.2019
6118 Clouds 4 1021 46 0 2.37 227 08:41 15.12.2019
6119 Clouds 5 1024 39 0 1.75 201 08:22 15.12.2019
6120 Clouds 5 1024 39 0 1.75 201 07:57 15.12.2019
6121 Clouds 5 1024 39 0 1.75 201 07:37 15.12.2019
6122 Clouds 5 1024 39 0 1.75 201 06:59 15.12.2019
6123 Clouds 5 1024 39 0 1.75 201 06:24 15.12.2019
6124 Clouds 5 1024 39 0 1.75 201 05:42 15.12.2019
6125 Clouds 0 1029 52 0 2.24 14 05:20 15.12.2019
6126 Clouds 0 1029 52 0 2.24 14 04:18 15.12.2019
6127 Clouds 0 1029 52 0 2.24 14 02:49 15.12.2019
6128 Clouds 0 1029 52 0 2.24 14 02:30 15.12.2019
6129 Clouds -2 1027 53 0 2.87 2 01:40 15.12.2019
6130 Clouds -2 1027 53 0 2.87 2 01:18 15.12.2019
6131 Clouds -1 1027 54 0 2.37 8 00:44 15.12.2019
6132 Clouds -1 1027 54 0 2.37 8 00:44 15.12.2019
6133 Clouds -1 1027 54 0 2.37 8 00:25 15.12.2019
6134 Clouds -1 1027 54 0 2.37 8 23:41 14.12.2019
6135 Clouds -1 1028 55 0 2.88 358 23:22 14.12.2019
6136 Clouds -1 1028 55 0 2.88 358 22:59 14.12.2019
6137 Clouds -1 1028 55 0 2.88 358 22:41 14.12.2019
6138 Clouds -1 1028 55 0 2.88 358 22:22 14.12.2019
6139 Clouds -1 1028 55 0 2.88 358 21:56 14.12.2019
6140 Clouds -1 1028 55 0 2.88 358 21:38 14.12.2019
6141 Clouds -1 1028 55 0 2.88 358 21:19 14.12.2019
6142 Clouds -1 1028 55 0 2.88 358 20:58 14.12.2019
6143 Clouds -1 1028 55 0 2.88 358 20:39 14.12.2019
6144 Clouds -1 1028 58 0 2.61 359 20:20 14.12.2019
6145 Clouds -1 1028 58 0 2.61 359 19:57 14.12.2019
6146 Clouds -1 1028 58 0 2.61 359 19:57 14.12.2019
6147 Clouds -1 1028 58 0 2.61 359 19:37 14.12.2019
6148 Clouds -1 1028 58 0 2.61 359 19:19 14.12.2019
6149 Clouds -1 1028 58 0 2.61 359 18:56 14.12.2019
6150 Clouds -1 1028 58 0 2.61 359 18:37 14.12.2019
6151 Clouds -1 1028 58 0 2.61 359 18:19 14.12.2019
6152 Clouds -1 1028 58 0 2.61 359 17:44 14.12.2019
6153 Clouds -1 1028 58 0 2.61 359 17:24 14.12.2019
6154 Clouds -2 1028 63 0 2.91 15 16:58 14.12.2019
6155 Clouds -2 1028 63 0 2.91 15 16:39 14.12.2019
6156 Clouds -2 1028 63 0 2.91 15 16:18 14.12.2019
6157 Clouds -2 1028 63 0 2.91 15 15:43 14.12.2019
6158 Clouds -2 1028 63 0 2.91 15 15:22 14.12.2019
6159 Clouds -2 1028 63 0 2.91 15 14:59 14.12.2019
6160 Clouds -2 1028 63 0 2.91 15 14:39 14.12.2019
6161 Snow -1 1024 91 0 1.02 346 14:20 14.12.2019
6162 Snow -1 1024 91 0 1.02 346 13:57 14.12.2019
6163 Snow -1 1024 91 0 1.02 346 13:38 14.12.2019
6164 Snow -1 1024 91 0 1.02 346 13:18 14.12.2019
6165 Snow -1 1024 91 0 0.77 336 12:55 14.12.2019
6166 Snow -1 1024 91 0 0.77 336 12:37 14.12.2019
6167 Snow -1 1024 91 0 0.77 336 12:18 14.12.2019
6168 Snow -1 1024 91 0 0.77 336 11:55 14.12.2019
6169 Snow -1 1024 91 0 0.77 336 11:36 14.12.2019
6170 Snow 4 1022 70 0 2.59 227 11:18 14.12.2019
6171 Snow 2 1022 88 0 1.5 230 10:55 14.12.2019
6172 Snow 4 1022 70 0 2.59 227 10:37 14.12.2019
6173 Snow 2 1022 88 0 1.5 230 10:18 14.12.2019
6174 Snow 4 1022 70 0 2.59 227 09:40 14.12.2019
6175 Snow 4 1022 70 0 2.59 227 09:40 14.12.2019
6176 Snow 4 1022 70 0 2.59 227 09:20 14.12.2019
6177 Snow 4 1022 70 0 2.59 227 09:20 14.12.2019
6178 Snow 2 1022 88 0 1.5 230 08:44 14.12.2019
6179 Clouds 2 1025 83 0 1.03 185 08:20 14.12.2019
6180 Clouds 2 1025 83 0 1.03 185 07:57 14.12.2019
6181 Clouds 2 1025 83 0 1.03 185 07:38 14.12.2019
6182 Clouds 2 1025 83 0 1.03 185 07:19 14.12.2019
6183 Clouds 2 1025 83 0 1.03 185 06:41 14.12.2019
6184 Clouds 2 1025 83 0 1.03 185 06:22 14.12.2019
6185 Snow -2 1026 83 0 2.58 18 05:22 14.12.2019
6186 Snow -2 1026 83 0 2.58 18 02:50 14.12.2019
6187 Snow -2 1022 95 0 1.49 11 02:22 14.12.2019
6188 Snow -2 1022 95 0 1.49 11 01:43 14.12.2019
6189 Snow -1 1021 98 0 0.25 70 00:55 14.12.2019
6190 Snow -1 1021 98 0 0.25 70 00:37 14.12.2019
6191 Snow -1 1021 98 0 0.25 70 00:18 14.12.2019
6192 Snow -1 1021 98 0 0.25 70 23:41 13.12.2019
6193 Snow -1 1020 99 0 1.01 181 23:19 13.12.2019
6194 Snow -1 1020 99 0 1.01 181 22:56 13.12.2019
6195 Snow -1 1020 99 0 1.01 181 22:37 13.12.2019
6196 Snow -1 1020 99 0 1.01 181 22:18 13.12.2019
6197 Snow -1 1020 99 0 1.01 181 21:42 13.12.2019
6198 Snow -1 1020 99 0 1.01 181 21:21 13.12.2019
6199 Snow -1 1020 99 0 1.01 181 20:59 13.12.2019
6200 Snow -1 1020 99 0 1.01 181 20:39 13.12.2019
6201 Snow -1 1018 99 0 1.25 173 20:20 13.12.2019
6202 Snow -1 1018 99 0 1.25 173 19:56 13.12.2019
6203 Snow -1 1018 99 0 1.25 173 19:38 13.12.2019
6204 Snow -1 1018 99 0 1.25 173 19:19 13.12.2019
6205 Snow -1 1018 99 0 1.25 173 18:54 13.12.2019
6206 Snow -1 1018 99 0 1.25 173 18:36 13.12.2019
6207 Snow -1 1018 99 0 1.25 173 18:18 13.12.2019
6208 Snow -1 1018 99 0 1.25 173 18:18 13.12.2019
6209 Snow -1 1018 99 0 1.25 173 17:40 13.12.2019
6210 Snow -1 1017 99 0 1.72 187 17:18 13.12.2019
6211 Snow -1 1017 99 0 1.72 187 16:56 13.12.2019
6212 Snow -1 1017 99 0 1.72 187 16:38 13.12.2019
6213 Snow -1 1017 99 0 1.72 187 16:20 13.12.2019
6214 Snow -1 1017 99 0 1.72 187 15:43 13.12.2019
6215 Snow -1 1017 99 0 1.72 187 15:22 13.12.2019
6216 Snow -1 1017 99 0 1.72 187 14:57 13.12.2019
6217 Snow -1 1017 99 0 1.72 187 14:38 13.12.2019
6218 Snow 0 1013 98 0 0.35 135 14:19 13.12.2019
6219 Snow 0 1013 98 0 0.35 135 13:44 13.12.2019
6220 Snow 0 1013 98 0 0.35 135 13:44 13.12.2019
6221 Snow 0 1012 98 0 1.69 185 13:26 13.12.2019
6222 Snow 0 1012 98 0 1.69 185 12:59 13.12.2019
6223 Snow 0 1012 98 0 1.69 185 12:40 13.12.2019
6224 Snow 0 1012 98 0 1.69 185 12:19 13.12.2019
6225 Snow 0 1012 98 0 1.69 185 12:19 13.12.2019
6226 Snow 0 1012 98 0 1.69 185 11:45 13.12.2019
6227 Snow 0 1012 98 0 1.69 185 11:45 13.12.2019
6228 Snow 0 1012 98 0 1.69 185 11:26 13.12.2019
6229 Snow 2 1011 86 0 0.37 276 10:58 13.12.2019
6230 Snow 2 1011 86 0 0.37 276 10:40 13.12.2019
6231 Snow 2 1011 86 0 0.37 276 10:21 13.12.2019
6232 Snow 2 1011 86 0 0.37 276 09:43 13.12.2019
6233 Snow 2 1011 86 0 0.37 276 09:22 13.12.2019
6234 Snow 2 1011 86 0 0.37 276 08:55 13.12.2019
6235 Snow 2 1011 86 0 0.37 276 08:37 13.12.2019
6236 Snow 1 1014 97 0 0.64 193 08:19 13.12.2019
6237 Snow 1 1014 97 0 0.64 193 07:43 13.12.2019
6238 Snow 1 1014 97 0 0.64 193 07:19 13.12.2019
6239 Snow 1 1014 97 0 0.64 193 06:46 13.12.2019
6240 Snow 1 1014 97 0 0.64 193 06:27 13.12.2019
6241 Snow 1 1014 97 0 0.64 193 05:41 13.12.2019
6242 Snow 1 1015 93 0 0.99 353 05:20 13.12.2019
6243 Snow 1 1015 93 0 0.99 353 04:29 13.12.2019
6244 Snow 1 1015 93 0 0.99 353 02:57 13.12.2019
6245 Snow 1 1015 93 0 0.99 353 02:31 13.12.2019
6246 Snow 0 1012 96 0 0.56 54 01:39 13.12.2019
6247 Snow 0 1013 97 0 0.77 26 00:51 13.12.2019
6248 Snow 0 1013 97 0 0.77 26 00:29 13.12.2019
6249 Snow 0 1013 97 0 0.77 26 23:46 12.12.2019
6250 Snow 0 1013 97 0 0.77 26 23:27 12.12.2019
6251 Snow 0 1014 96 0 0.62 268 22:57 12.12.2019
6252 Snow 0 1014 96 0 0.62 268 22:39 12.12.2019
6253 Snow 0 1014 96 0 0.62 268 22:21 12.12.2019
6254 Snow 0 1014 96 0 0.62 268 21:56 12.12.2019
6255 Snow 0 1014 96 0 0.62 268 21:38 12.12.2019
6256 Snow 0 1014 96 0 0.62 268 21:20 12.12.2019
6257 Snow 0 1014 96 0 0.62 268 21:20 12.12.2019
6258 Snow 0 1014 96 0 0.62 268 20:59 12.12.2019
6259 Snow 0 1014 96 0 0.62 268 20:41 12.12.2019
6260 Snow 0 1014 98 0 0.88 108 20:23 12.12.2019
6261 Snow 0 1015 95 0 1.14 63 19:59 12.12.2019
6262 Snow 0 1015 95 0 1.14 63 19:59 12.12.2019
6263 Snow 0 1015 95 0 1.14 63 19:40 12.12.2019
6264 Snow 0 1015 95 0 1.14 63 19:21 12.12.2019
6265 Snow 0 1015 95 0 1.14 63 18:57 12.12.2019
6266 Snow 0 1015 95 0 1.14 63 18:57 12.12.2019
6267 Snow 0 1015 95 0 1.14 63 18:38 12.12.2019
6268 Snow 0 1015 95 0 1.14 63 18:20 12.12.2019
6269 Snow 0 1015 95 0 1.14 63 17:57 12.12.2019
6270 Snow 0 1015 95 0 1.14 63 17:38 12.12.2019
6271 Snow 1 1015 96 0 1.6 271 17:19 12.12.2019
6272 Snow 1 1015 96 0 1.6 271 16:56 12.12.2019
6273 Snow 1 1015 96 0 1.6 271 16:37 12.12.2019
6274 Snow 1 1015 96 0 1.6 271 16:19 12.12.2019
6275 Snow 1 1015 96 0 1.6 271 15:54 12.12.2019
6276 Snow 1 1015 96 0 1.6 271 15:36 12.12.2019
6277 Snow 1 1015 96 0 1.6 271 15:18 12.12.2019
6278 Snow 1 1015 96 0 1.6 271 14:38 12.12.2019
6279 Snow 1 1012 94 0 0.52 193 14:20 12.12.2019
6280 Snow 1 1012 94 0 0.52 193 13:57 12.12.2019
6281 Snow 1 1012 94 0 0.52 193 13:39 12.12.2019
6282 Snow 1 1011 95 0 0.61 264 13:21 12.12.2019
6283 Snow 1 1011 95 0 0.61 264 12:57 12.12.2019
6284 Snow 1 1011 95 0 0.61 264 12:39 12.12.2019
6285 Snow 1 1011 95 0 0.61 264 12:20 12.12.2019
6286 Snow 1 1011 95 0 0.61 264 11:56 12.12.2019
6287 Snow 1 1011 95 0 0.61 264 11:37 12.12.2019
6288 Snow 2 1012 95 0 0.91 238 11:19 12.12.2019
6289 Snow 2 1012 95 0 0.91 238 10:55 12.12.2019
6290 Snow 2 1012 95 0 0.91 238 10:37 12.12.2019
6291 Snow 2 1012 95 0 0.91 238 10:19 12.12.2019
6292 Snow 2 1012 95 0 0.91 238 09:42 12.12.2019
6293 Snow 2 1012 95 0 0.91 238 09:24 12.12.2019
6294 Snow 2 1012 95 0 0.91 238 08:58 12.12.2019
6295 Snow 2 1012 95 0 0.91 238 08:38 12.12.2019
6296 Snow 2 1012 95 0 0.91 238 08:38 12.12.2019
6297 Snow 2 1016 91 0 1.32 157 08:20 12.12.2019
6298 Snow 2 1016 91 0 1.32 157 07:46 12.12.2019
6299 Snow 2 1016 91 0 1.32 157 07:25 12.12.2019
6300 Snow 2 1016 91 0 1.32 157 06:54 12.12.2019
6301 Snow 2 1016 91 0 1.32 157 06:33 12.12.2019
6302 Snow 2 1016 91 0 1.32 157 05:40 12.12.2019
6303 Snow 2 1019 87 0 0.73 104 04:54 12.12.2019
6304 Snow 2 1019 87 0 0.73 104 03:37 12.12.2019
6305 Snow 2 1019 87 0 0.73 104 02:39 12.12.2019
6306 Snow 2 1017 79 0 0.85 54 02:20 12.12.2019
6307 Snow 2 1017 79 0 0.85 54 01:43 12.12.2019
6308 Snow 2 1017 78 0 1.49 52 01:24 12.12.2019
6309 Snow 2 1017 78 0 1.49 52 00:47 12.12.2019
6310 Snow 2 1017 78 0 1.49 52 00:20 12.12.2019
6311 Snow 2 1017 78 0 1.49 52 23:44 11.12.2019
6312 Snow 2 1019 70 0 2.09 47 23:21 11.12.2019
6313 Snow 2 1019 70 0 2.09 47 22:58 11.12.2019
6314 Snow 2 1019 70 0 2.09 47 22:39 11.12.2019
6315 Snow 2 1019 70 0 2.09 47 22:20 11.12.2019
6316 Snow 2 1019 70 0 2.09 47 21:57 11.12.2019
6317 Snow 2 1019 70 0 2.09 47 21:39 11.12.2019
6318 Snow 2 1019 70 0 2.09 47 21:20 11.12.2019
6319 Snow 2 1019 70 0 2.09 47 20:56 11.12.2019
6320 Snow 2 1019 70 0 2.09 47 20:56 11.12.2019
6321 Snow 2 1019 70 0 2.09 47 20:38 11.12.2019
6322 Clouds 4 1019 48 0 1.41 343 20:19 11.12.2019
6323 Clouds 3 1019 49 0 0.78 328 19:58 11.12.2019
6324 Clouds 3 1019 49 0 0.78 328 19:40 11.12.2019
6325 Clouds 3 1019 49 0 0.78 328 19:19 11.12.2019
6326 Clouds 3 1019 49 0 0.78 328 18:55 11.12.2019
6327 Clouds 3 1019 49 0 0.78 328 18:37 11.12.2019
6328 Clouds 3 1019 49 0 0.78 328 18:37 11.12.2019
6329 Clouds 3 1019 49 0 0.78 328 18:18 11.12.2019
6330 Clouds 3 1019 49 0 0.78 328 17:54 11.12.2019
6331 Clouds 3 1019 49 0 0.78 328 17:36 11.12.2019
6332 Clouds 3 1019 52 0 2.23 26 17:18 11.12.2019
6333 Clouds 3 1019 52 0 2.23 26 16:55 11.12.2019
6334 Clouds 3 1019 52 0 2.23 26 16:36 11.12.2019
6335 Clouds 3 1019 52 0 2.23 26 16:18 11.12.2019
6336 Clouds 3 1019 52 0 2.23 26 15:41 11.12.2019
6337 Clouds 3 1019 52 0 2.23 26 15:23 11.12.2019
6338 Clouds 3 1019 52 0 2.23 26 15:23 11.12.2019
6339 Clouds 3 1019 52 0 2.23 26 14:57 11.12.2019
6340 Clouds 3 1019 52 0 2.23 26 14:39 11.12.2019
6341 Clouds 3 1017 64 0 0.92 296 14:20 11.12.2019
6342 Clouds 3 1017 64 0 0.92 296 13:58 11.12.2019
6343 Clouds 3 1017 64 0 0.92 296 13:39 11.12.2019
6344 Clouds 3 1017 64 0 0.93 326 13:20 11.12.2019
6345 Clouds 3 1017 64 0 0.93 326 13:20 11.12.2019
6346 Clouds 3 1017 64 0 0.93 326 12:57 11.12.2019
6347 Clouds 3 1017 64 0 0.93 326 12:38 11.12.2019
6348 Clouds 3 1017 64 0 0.93 326 12:20 11.12.2019
6349 Clouds 3 1017 64 0 0.93 326 11:57 11.12.2019
6350 Clouds 3 1017 64 0 0.93 326 11:38 11.12.2019
6351 Clouds 8 1015 38 0 2.33 210 11:18 11.12.2019
6352 Clouds 8 1015 38 0 2.33 210 10:56 11.12.2019
6353 Clouds 8 1015 38 0 2.33 210 10:38 11.12.2019
6354 Clouds 8 1015 38 0 2.33 210 10:19 11.12.2019
6355 Clouds 8 1015 38 0 2.33 210 09:43 11.12.2019
6356 Clouds 8 1015 38 0 2.33 210 09:21 11.12.2019
6357 Clouds 8 1015 38 0 2.33 210 08:58 11.12.2019
6358 Clouds 8 1015 38 0 2.33 210 08:38 11.12.2019
6359 Clouds 9 1018 33 0 2.84 217 08:19 11.12.2019
6360 Clouds 9 1018 33 0 2.84 217 07:57 11.12.2019
6361 Clouds 9 1018 33 0 2.84 217 07:39 11.12.2019
6362 Clouds 9 1018 33 0 2.84 217 07:21 11.12.2019
6363 Clouds 9 1018 33 0 2.84 217 06:44 11.12.2019
6364 Clouds 9 1018 33 0 2.84 217 06:22 11.12.2019
6365 Clouds 9 1018 33 0 2.84 217 05:45 11.12.2019
6366 Clouds 5 1022 43 0 1.74 3 05:21 11.12.2019
6367 Clouds 5 1022 43 0 1.74 3 04:38 11.12.2019
6368 Clouds 5 1022 43 0 1.74 3 02:49 11.12.2019
6369 Clouds 2 1019 44 0 2.12 3 01:26 11.12.2019
6370 Clouds 2 1019 44 0 2.12 3 00:49 11.12.2019
6371 Clouds 2 1019 44 0 2.12 3 00:23 11.12.2019
6372 Clouds 2 1019 44 0 2.12 3 23:58 10.12.2019
6373 Clouds 2 1019 44 0 2.12 3 23:39 10.12.2019
6374 Clouds 3 1019 44 0 2.54 10 23:21 10.12.2019
6375 Clouds 3 1019 44 0 2.54 10 22:41 10.12.2019
6376 Clouds 3 1019 44 0 2.54 10 22:22 10.12.2019
6377 Clouds 3 1019 44 0 2.54 10 21:57 10.12.2019
6378 Clouds 3 1019 44 0 2.54 10 21:39 10.12.2019
6379 Clouds 3 1019 44 0 2.54 10 21:21 10.12.2019
6380 Clouds 3 1019 44 0 2.54 10 20:57 10.12.2019
6381 Clouds 3 1019 44 0 2.54 10 20:38 10.12.2019
6382 Clouds 3 1019 49 0 1.89 10 20:19 10.12.2019
6383 Clouds 3 1019 49 0 1.89 10 20:19 10.12.2019
6384 Clouds 3 1019 49 0 1.89 10 20:19 10.12.2019
6385 Clouds 3 1019 49 0 1.89 10 19:55 10.12.2019
6386 Clouds 3 1019 49 0 1.89 10 19:37 10.12.2019
6387 Clouds 3 1019 49 0 1.89 10 19:19 10.12.2019
6388 Clouds 3 1019 49 0 1.89 10 18:42 10.12.2019
6389 Clouds 3 1019 49 0 1.89 10 18:21 10.12.2019
6390 Clouds 3 1019 49 0 1.89 10 17:58 10.12.2019
6391 Clouds 3 1019 49 0 1.89 10 17:40 10.12.2019
6392 Clouds 4 1018 49 0 1.07 9 17:22 10.12.2019
6393 Clouds 4 1018 49 0 1.07 9 16:55 10.12.2019
6394 Clouds 4 1018 49 0 1.07 9 16:36 10.12.2019
6395 Clouds 4 1018 49 0 1.07 9 16:18 10.12.2019
6396 Clouds 4 1018 49 0 1.07 9 15:38 10.12.2019
6397 Clouds 4 1018 49 0 1.07 9 15:18 10.12.2019
6398 Clouds 4 1018 49 0 1.07 9 14:56 10.12.2019
6399 Clouds 4 1018 49 0 1.07 9 14:38 10.12.2019
6400 Clouds 4 1016 53 0 1.26 7 14:19 10.12.2019
6401 Clouds 4 1016 53 0 1.26 7 13:57 10.12.2019
6402 Clouds 4 1016 53 0 1.26 7 13:39 10.12.2019
6403 Clouds 4 1016 54 0 1.03 8 13:20 10.12.2019
6404 Clouds 4 1016 54 0 1.03 8 12:48 10.12.2019
6405 Clouds 4 1016 54 0 1.03 8 12:28 10.12.2019
6406 Clouds 4 1016 54 0 1.03 8 11:56 10.12.2019
6407 Clouds 4 1016 54 0 1.03 8 11:38 10.12.2019
6408 Clouds 10 1016 34 0 2.51 212 11:19 10.12.2019
6409 Clouds 10 1016 34 0 2.51 212 10:43 10.12.2019
6410 Clouds 10 1016 34 0 2.51 212 10:24 10.12.2019
6411 Clouds 10 1016 34 0 2.51 212 09:57 10.12.2019
6412 Clouds 10 1016 34 0 2.51 212 09:39 10.12.2019
6413 Clouds 10 1016 34 0 2.51 212 09:20 10.12.2019
6414 Clouds 10 1016 34 0 2.51 212 08:58 10.12.2019
6415 Clouds 10 1016 34 0 2.51 212 08:39 10.12.2019
6416 Clouds 11 1019 26 0 1.88 195 08:20 10.12.2019
6417 Clouds 11 1019 26 0 1.88 195 07:45 10.12.2019
6418 Clouds 11 1019 26 0 1.88 195 07:27 10.12.2019
6419 Clouds 11 1019 26 0 1.88 195 06:55 10.12.2019
6420 Clouds 11 1019 26 0 1.88 195 06:37 10.12.2019
6421 Clouds 11 1019 26 0 1.88 195 06:19 10.12.2019
6422 Clouds 11 1019 26 0 1.88 195 05:47 10.12.2019
6423 Clouds 7 1022 29 0 2.15 7 04:23 10.12.2019
6424 Clouds 7 1022 29 0 2.15 7 03:25 10.12.2019
6425 Clouds 4 1021 31 0 2.91 1 01:57 10.12.2019
6426 Clouds 4 1021 31 0 2.91 1 01:38 10.12.2019
6427 Clouds 4 1021 31 0 2.91 1 01:18 10.12.2019
6428 Clouds 4 1021 28 0 2.87 9 00:29 10.12.2019
6429 Clouds 4 1021 28 0 2.87 9 23:59 09.12.2019
6430 Clouds 4 1021 28 0 2.87 9 23:39 09.12.2019
6431 Clear 4 1023 24 0 2.9 348 23:20 09.12.2019
6432 Clear 4 1023 24 0 2.9 348 22:56 09.12.2019
6433 Clear 4 1023 24 0 2.9 348 22:38 09.12.2019
6434 Clear 4 1023 24 0 2.9 348 22:38 09.12.2019
6435 Clear 4 1023 24 0 2.9 348 22:18 09.12.2019
6436 Clear 4 1023 24 0 2.9 348 22:18 09.12.2019
6437 Clear 4 1023 24 0 2.9 348 21:55 09.12.2019
6438 Clear 4 1023 24 0 2.9 348 21:37 09.12.2019
6439 Clear 4 1023 24 0 2.9 348 21:18 09.12.2019
6440 Clear 4 1023 24 0 2.9 348 20:55 09.12.2019
6441 Clear 4 1023 24 0 2.9 348 20:37 09.12.2019
6442 Clear 4 1023 29 0 3.12 0 20:19 09.12.2019
6443 Clear 4 1023 29 0 3.12 0 19:55 09.12.2019
6444 Clear 4 1023 29 0 3.12 0 19:55 09.12.2019
6445 Clear 4 1023 29 0 3.12 0 19:37 09.12.2019
6446 Clear 4 1023 29 0 3.12 0 19:18 09.12.2019
6447 Clear 4 1023 29 0 3.12 0 18:55 09.12.2019
6448 Clear 4 1023 29 0 3.12 0 18:36 09.12.2019
6449 Clear 4 1023 29 0 3.12 0 18:18 09.12.2019
6450 Clear 4 1023 29 0 3.12 0 18:18 09.12.2019
6451 Clear 4 1023 29 0 3.12 0 17:56 09.12.2019
6452 Clear 4 1023 29 0 3.12 0 17:37 09.12.2019
6453 Clear 4 1023 31 0 2.94 356 17:18 09.12.2019
6454 Clear 4 1023 31 0 2.94 356 16:54 09.12.2019
6455 Clear 4 1023 31 0 2.94 356 16:36 09.12.2019
6456 Clear 4 1023 31 0 2.94 356 16:18 09.12.2019
6457 Clear 4 1023 31 0 2.94 356 15:55 09.12.2019
6458 Clear 4 1023 31 0 2.94 356 15:36 09.12.2019
6459 Clear 4 1023 31 0 2.94 356 15:18 09.12.2019
6460 Clear 4 1023 31 0 2.94 356 14:42 09.12.2019
6461 Clouds 5 1021 45 0 1.96 17 14:19 09.12.2019
6462 Clouds 5 1021 45 0 1.96 17 13:57 09.12.2019
6463 Clouds 5 1021 45 0 1.96 17 13:38 09.12.2019
6464 Clouds 5 1021 45 0 1.96 17 13:38 09.12.2019
6465 Clouds 4 1021 45 0 2.02 14 13:19 09.12.2019
6466 Clouds 4 1021 45 0 2.02 14 12:56 09.12.2019
6467 Clouds 4 1021 45 0 2.02 14 12:37 09.12.2019
6468 Clouds 4 1021 45 0 2.02 14 12:19 09.12.2019
6469 Clouds 4 1021 45 0 2.02 14 11:55 09.12.2019
6470 Clouds 4 1021 45 0 2.02 14 11:37 09.12.2019
6471 Clouds 11 1020 27 0 1.81 192 11:18 09.12.2019
6472 Clouds 11 1020 27 0 1.81 192 10:40 09.12.2019
6473 Clouds 11 1020 27 0 1.81 192 10:20 09.12.2019
6474 Clouds 11 1020 27 0 1.81 192 09:59 09.12.2019
6475 Clouds 11 1020 27 0 1.81 192 09:40 09.12.2019
6476 Clouds 11 1020 27 0 1.81 192 09:21 09.12.2019
6477 Clouds 11 1020 27 0 1.81 192 08:44 09.12.2019
6478 Clouds 10 1020 28 0 1.21 189 08:26 09.12.2019
6479 Clouds 11 1020 27 0 1.81 192 08:26 09.12.2019
6480 Clouds 10 1022 20 0 1.84 217 07:57 09.12.2019
6481 Clouds 10 1022 20 0 1.84 217 07:38 09.12.2019
6482 Clouds 10 1022 20 0 1.84 217 07:20 09.12.2019
6483 Clouds 10 1022 20 0 1.84 217 06:43 09.12.2019
6484 Clouds 10 1022 20 0 1.84 217 06:24 09.12.2019
6485 Clouds 10 1022 20 0 1.84 217 05:28 09.12.2019
6486 Clouds 7 1024 20 0 1.86 354 04:46 09.12.2019
6487 Clouds 7 1024 20 0 1.86 354 03:21 09.12.2019
6488 Clouds 7 1024 20 0 1.86 354 02:24 09.12.2019
6489 Clouds 4 1022 15 0 3.28 2 01:42 09.12.2019
6490 Clouds 4 1022 16 0 3.36 2 00:51 09.12.2019
6491 Clouds 4 1022 16 0 3.36 2 00:31 09.12.2019
6492 Clouds 4 1022 16 0 3.36 2 23:43 08.12.2019
6493 Clouds 4 1022 16 0 3.36 2 23:24 08.12.2019
6494 Clouds 4 1024 19 0 3.37 355 22:58 08.12.2019
6495 Clouds 4 1024 19 0 3.37 355 22:39 08.12.2019
6496 Clouds 4 1024 19 0 3.37 355 22:20 08.12.2019
6497 Clouds 4 1024 19 0 3.37 355 21:58 08.12.2019
6498 Clouds 4 1024 19 0 3.37 355 21:40 08.12.2019
6499 Clouds 4 1024 19 0 3.37 355 21:22 08.12.2019
6500 Clouds 4 1024 19 0 3.37 355 20:57 08.12.2019
6501 Clouds 4 1024 19 0 3.37 355 20:38 08.12.2019
6502 Clear 4 1025 23 0 3.81 358 20:20 08.12.2019
6503 Clouds 4 1024 22 0 3.84 350 19:59 08.12.2019
6504 Clouds 4 1024 22 0 3.84 350 19:41 08.12.2019
6505 Clouds 4 1024 22 0 3.84 350 19:23 08.12.2019
6506 Clouds 4 1024 22 0 3.84 350 19:23 08.12.2019
6507 Clouds 4 1024 22 0 3.84 350 18:56 08.12.2019
6508 Clouds 4 1024 22 0 3.84 350 18:37 08.12.2019
6509 Clouds 4 1024 22 0 3.84 350 18:19 08.12.2019
6510 Clouds 4 1024 22 0 3.84 350 17:57 08.12.2019
6511 Clouds 4 1024 22 0 3.84 350 17:39 08.12.2019
6512 Clear 4 1026 27 0 3.39 3 17:20 08.12.2019
6513 Clear 4 1026 27 0 3.39 3 16:58 08.12.2019
6514 Clear 4 1026 27 0 3.39 3 16:40 08.12.2019
6515 Clear 4 1026 27 0 3.39 3 16:21 08.12.2019
6516 Clear 4 1026 27 0 3.39 3 15:57 08.12.2019
6517 Clear 4 1026 27 0 3.39 3 15:37 08.12.2019
6518 Clear 4 1026 27 0 3.39 3 15:18 08.12.2019
6519 Clear 4 1026 27 0 3.39 3 14:44 08.12.2019
6520 Clear 4 1026 27 0 3.39 3 14:25 08.12.2019
6521 Clear 4 1023 46 0 2.74 11 13:59 08.12.2019
6522 Clear 4 1023 46 0 2.74 11 13:40 08.12.2019
6523 Clear 4 1023 46 0 2.62 11 13:22 08.12.2019
6524 Clear 4 1023 46 0 2.62 11 12:59 08.12.2019
6525 Clear 4 1023 46 0 2.62 11 12:39 08.12.2019
6526 Clear 4 1023 46 0 2.62 11 12:19 08.12.2019
6527 Clear 4 1023 46 0 2.62 11 12:19 08.12.2019
6528 Clear 4 1023 46 0 2.62 11 11:58 08.12.2019
6529 Clear 4 1023 46 0 2.62 11 11:37 08.12.2019
6530 Clear 11 1021 30 0 2.36 207 11:19 08.12.2019
6531 Clear 11 1021 30 0 2.36 207 10:55 08.12.2019
6532 Clear 11 1021 30 0 2.36 207 10:37 08.12.2019
6533 Clear 11 1021 30 0 2.36 207 10:19 08.12.2019
6534 Clear 11 1021 30 0 2.36 207 09:55 08.12.2019
6535 Clear 11 1021 30 0 2.36 207 09:36 08.12.2019
6536 Clear 11 1021 30 0 2.36 207 09:18 08.12.2019
6537 Clear 11 1021 30 0 2.36 207 08:42 08.12.2019
6538 Clear 11 1021 30 0 2.36 207 08:23 08.12.2019
6539 Clear 11 1024 20 0 2.27 216 07:57 08.12.2019
6540 Clear 11 1024 20 0 2.27 216 07:39 08.12.2019
6541 Clear 11 1024 20 0 2.27 216 07:18 08.12.2019
6542 Clear 11 1024 20 0 2.27 216 06:41 08.12.2019
6543 Clear 11 1024 20 0 2.27 216 06:21 08.12.2019
6544 Clear 11 1024 20 0 2.27 216 05:26 08.12.2019
6545 Clear 6 1027 24 0 2.82 345 04:54 08.12.2019
6546 Clear 6 1027 24 0 2.82 345 03:41 08.12.2019
6547 Clear 6 1027 24 0 2.82 345 02:46 08.12.2019
6548 Clear 6 1027 24 0 2.82 345 02:27 08.12.2019
6549 Clear 3 1025 21 0 3.86 352 01:48 08.12.2019
6550 Clear 3 1025 20 0 3.8 352 00:56 08.12.2019
6551 Clear 3 1025 20 0 3.8 352 00:37 08.12.2019
6552 Clear 3 1025 20 0 3.8 352 00:18 08.12.2019
6553 Clear 3 1025 20 0 3.8 352 23:39 07.12.2019
6554 Clear 4 1026 24 0 3.8 359 23:20 07.12.2019
6555 Clear 4 1026 24 0 3.8 359 22:56 07.12.2019
6556 Clear 4 1026 24 0 3.8 359 22:38 07.12.2019
6557 Clear 4 1026 24 0 3.8 359 22:19 07.12.2019
6558 Clear 4 1026 24 0 3.8 359 22:19 07.12.2019
6559 Clear 4 1026 24 0 3.8 359 21:56 07.12.2019
6560 Clear 4 1026 24 0 3.8 359 21:38 07.12.2019
6561 Clear 4 1026 24 0 3.8 359 21:19 07.12.2019
6562 Clear 4 1026 24 0 3.8 359 20:54 07.12.2019
6563 Clear 4 1026 24 0 3.8 359 20:36 07.12.2019
6564 Clear 4 1026 27 0 3.51 353 20:18 07.12.2019
6565 Clear 4 1026 27 0 3.51 353 19:55 07.12.2019
6566 Clear 4 1026 27 0 3.51 353 19:36 07.12.2019
6567 Clear 4 1026 27 0 3.51 353 19:18 07.12.2019
6568 Clear 4 1026 27 0 3.51 353 18:43 07.12.2019
6569 Clear 4 1026 27 0 3.51 353 18:19 07.12.2019
6570 Clear 4 1026 27 0 3.51 353 17:57 07.12.2019
6571 Clear 4 1026 27 0 3.51 353 17:38 07.12.2019
6572 Clear 4 1027 31 0 3.24 0 17:20 07.12.2019
6573 Clear 4 1027 31 0 3.24 0 16:56 07.12.2019
6574 Clear 4 1027 31 0 3.24 0 16:37 07.12.2019
6575 Clear 4 1027 31 0 3.24 0 16:18 07.12.2019
6576 Clear 4 1027 31 0 3.24 0 15:42 07.12.2019
6577 Clear 4 1027 31 0 3.24 0 15:23 07.12.2019
6578 Clear 4 1027 31 0 3.24 0 14:57 07.12.2019
6579 Clear 4 1027 31 0 3.24 0 14:39 07.12.2019
6580 Clear 4 1024 44 0 2.56 8 14:18 07.12.2019
6581 Clear 4 1024 44 0 2.56 8 13:41 07.12.2019
6582 Clear 4 1024 45 0 2.36 8 13:21 07.12.2019
6583 Clear 4 1024 44 0 2.56 8 13:21 07.12.2019
6584 Clear 4 1024 45 0 2.36 8 12:58 07.12.2019
6585 Clear 4 1024 45 0 2.36 8 12:40 07.12.2019
6586 Clear 4 1024 45 0 2.36 8 12:22 07.12.2019
6587 Clear 4 1024 45 0 2.36 8 11:57 07.12.2019
6588 Clear 4 1024 45 0 2.36 8 11:39 07.12.2019
6589 Clear 11 1022 26 0 2.15 205 11:20 07.12.2019
6590 Clear 11 1022 26 0 2.15 205 10:38 07.12.2019
6591 Clear 11 1022 26 0 2.15 205 10:19 07.12.2019
6592 Clear 11 1022 26 0 2.15 205 09:56 07.12.2019
6593 Clear 11 1022 26 0 2.15 205 09:36 07.12.2019
6594 Clear 11 1022 26 0 2.15 205 09:18 07.12.2019
6595 Clear 11 1022 26 0 2.15 205 08:40 07.12.2019
6596 Clear 12 1025 19 0 2.11 220 08:21 07.12.2019
6597 Clear 12 1025 19 0 2.11 220 07:45 07.12.2019
6598 Clear 12 1025 19 0 2.11 220 07:26 07.12.2019
6599 Clear 12 1025 19 0 2.11 220 06:50 07.12.2019
6600 Clear 12 1025 19 0 2.11 220 06:25 07.12.2019
6601 Clear 12 1025 19 0 2.11 220 05:30 07.12.2019
6602 Clear 6 1028 22 0 2.67 355 03:59 07.12.2019
6603 Clear 6 1028 22 0 2.67 355 03:40 07.12.2019
6604 Clear 3 1027 18 0 3.81 353 02:21 07.12.2019
6605 Clear 3 1027 18 0 3.81 353 01:34 07.12.2019
6606 Clear 3 1027 18 0 3.81 353 01:34 07.12.2019
6607 Clear 3 1027 18 0 3.78 353 00:53 07.12.2019
6608 Clear 3 1027 18 0 3.78 353 00:20 07.12.2019
6609 Clear 3 1027 18 0 3.78 353 23:56 06.12.2019
6610 Clear 3 1027 18 0 3.78 353 23:36 06.12.2019
6611 Clear 3 1027 22 0 3.82 358 23:18 06.12.2019
6612 Clear 3 1027 22 0 3.82 358 22:38 06.12.2019
6613 Clear 3 1027 22 0 3.82 358 22:19 06.12.2019
6614 Clear 3 1027 22 0 3.82 358 21:57 06.12.2019
6615 Clear 3 1027 22 0 3.82 358 21:38 06.12.2019
6616 Clear 3 1027 22 0 3.82 358 21:19 06.12.2019
6617 Clear 3 1027 22 0 3.82 358 20:42 06.12.2019
6618 Clear 3 1027 22 0 3.82 358 20:42 06.12.2019
6619 Clear 3 1027 22 0 3.82 358 20:42 06.12.2019
6620 Clear 3 1027 23 0 3.83 357 20:24 06.12.2019
6621 Clear 3 1027 22 0 3.82 358 20:24 06.12.2019
6622 Clear 4 1027 30 0 3.55 357 19:59 06.12.2019
6623 Clear 4 1027 30 0 3.55 357 19:40 06.12.2019
6624 Clear 4 1027 30 0 3.55 357 19:22 06.12.2019
6625 Clear 4 1027 30 0 3.55 357 19:22 06.12.2019
6626 Clear 4 1027 30 0 3.55 357 19:22 06.12.2019
6627 Clear 4 1027 30 0 3.55 357 18:57 06.12.2019
6628 Clear 4 1027 30 0 3.55 357 18:39 06.12.2019
6629 Clear 4 1027 30 0 3.55 357 18:19 06.12.2019
6630 Clear 4 1027 30 0 3.55 357 18:19 06.12.2019
6631 Clear 4 1027 30 0 3.55 357 17:56 06.12.2019
6632 Clear 4 1027 30 0 3.55 357 17:37 06.12.2019
6633 Clear 4 1027 31 0 3.06 355 17:19 06.12.2019
6634 Clear 4 1027 31 0 3.06 355 16:43 06.12.2019
6635 Clear 4 1027 31 0 3.06 355 16:25 06.12.2019
6636 Clear 4 1027 31 0 3.06 355 15:59 06.12.2019
6637 Clear 4 1027 31 0 3.06 355 15:40 06.12.2019
6638 Clear 4 1027 31 0 3.06 355 15:19 06.12.2019
6639 Clear 4 1027 31 0 3.06 355 14:57 06.12.2019
6640 Clear 4 1027 31 0 3.06 355 14:38 06.12.2019
6641 Clear 4 1027 31 0 3.06 355 14:38 06.12.2019
6642 Clear 5 1025 41 0 3.23 16 14:19 06.12.2019
6643 Clear 5 1025 41 0 3.23 16 13:43 06.12.2019
6644 Clear 5 1025 41 0 3.23 16 13:43 06.12.2019
6645 Clear 5 1025 42 0 2.87 14 13:25 06.12.2019
6646 Clear 5 1025 42 0 2.87 14 12:43 06.12.2019
6647 Clear 5 1025 42 0 2.87 14 12:23 06.12.2019
6648 Clear 5 1025 42 0 2.87 14 12:23 06.12.2019
6649 Clear 5 1025 42 0 2.87 14 11:58 06.12.2019
6650 Clear 5 1025 42 0 2.87 14 11:40 06.12.2019
6651 Clear 11 1023 27 0 2.1 208 11:22 06.12.2019
6652 Clear 11 1023 27 0 2.1 208 10:44 06.12.2019
6653 Clear 11 1023 27 0 2.1 208 10:22 06.12.2019
6654 Clear 11 1023 27 0 2.1 208 09:59 06.12.2019
6655 Clear 11 1023 27 0 2.1 208 09:39 06.12.2019
6656 Clear 11 1023 27 0 2.1 208 09:20 06.12.2019
6657 Clear 11 1023 27 0 2.1 208 08:57 06.12.2019
6658 Clear 11 1023 27 0 2.1 208 08:38 06.12.2019
6659 Clear 11 1023 27 0 2.1 208 08:38 06.12.2019
6660 Clouds 12 1026 18 0 1.93 215 08:20 06.12.2019
6661 Clouds 12 1026 18 0 1.93 215 07:38 06.12.2019
6662 Clouds 12 1026 18 0 1.93 215 07:20 06.12.2019
6663 Clouds 12 1026 18 0 1.93 215 06:31 06.12.2019
6664 Clouds 12 1026 18 0 1.93 215 05:56 06.12.2019
6665 Clouds 12 1026 18 0 1.93 215 05:38 06.12.2019
6666 Clear 4 1028 17 0 3.56 2 02:20 06.12.2019
6667 Clear 4 1028 17 0 3.56 2 01:43 06.12.2019
6668 Clear 4 1028 19 0 3.46 3 00:49 06.12.2019
6669 Clear 4 1028 19 0 3.46 3 00:22 06.12.2019
6670 Clear 4 1028 19 0 3.46 3 23:51 05.12.2019
6671 Clear 4 1029 22 0 3.25 360 23:20 05.12.2019
6672 Clear 4 1029 22 0 3.25 360 22:58 05.12.2019
6673 Clear 4 1029 22 0 3.25 360 22:38 05.12.2019
6674 Clear 4 1029 22 0 3.25 360 22:19 05.12.2019
6675 Clear 4 1029 22 0 3.25 360 21:56 05.12.2019
6676 Clear 4 1029 22 0 3.25 360 21:37 05.12.2019
6677 Clear 4 1029 22 0 3.25 360 21:19 05.12.2019
6678 Clear 4 1029 22 0 3.25 360 20:55 05.12.2019
6679 Clear 4 1029 22 0 3.25 360 20:36 05.12.2019
6680 Clear 4 1029 26 0 3.18 358 20:18 05.12.2019
6681 Clear 4 1029 26 0 3.18 358 19:40 05.12.2019
6682 Clear 4 1029 26 0 3.18 358 19:22 05.12.2019
6683 Clear 4 1029 26 0 3.18 358 18:58 05.12.2019
6684 Clear 4 1029 26 0 3.18 358 18:38 05.12.2019
6685 Clear 4 1029 26 0 3.18 358 18:20 05.12.2019
6686 Clear 4 1029 26 0 3.18 358 18:20 05.12.2019
6687 Clear 4 1029 26 0 3.18 358 17:55 05.12.2019
6688 Clear 4 1029 26 0 3.18 358 17:36 05.12.2019
6689 Clear 4 1029 29 0 3.68 13 17:18 05.12.2019
6690 Clear 4 1029 29 0 3.68 13 16:40 05.12.2019
6691 Clear 4 1029 29 0 3.68 13 16:22 05.12.2019
6692 Clear 4 1029 29 0 3.68 13 15:58 05.12.2019
6693 Clear 4 1029 29 0 3.68 13 15:58 05.12.2019
6694 Clear 4 1029 29 0 3.68 13 15:40 05.12.2019
6695 Clear 4 1029 29 0 3.68 13 15:20 05.12.2019
6696 Clear 4 1029 29 0 3.68 13 14:56 05.12.2019
6697 Clear 4 1029 29 0 3.68 13 14:38 05.12.2019
6698 Clear 5 1026 50 0 2.61 12 14:20 05.12.2019
6699 Clear 5 1026 50 0 2.61 12 13:58 05.12.2019
6700 Clear 5 1026 50 0 2.61 12 13:39 05.12.2019
6701 Clear 5 1026 50 0 2.51 11 13:21 05.12.2019
6702 Clear 5 1026 50 0 2.51 11 12:58 05.12.2019
6703 Clear 5 1026 50 0 2.51 11 12:39 05.12.2019
6704 Clear 5 1026 50 0 2.51 11 12:21 05.12.2019
6705 Clear 5 1026 50 0 2.51 11 11:41 05.12.2019
6706 Clear 12 1024 30 0 2.03 206 11:22 05.12.2019
6707 Clear 12 1024 30 0 2.03 206 10:59 05.12.2019
6708 Clear 12 1024 30 0 2.03 206 10:41 05.12.2019
6709 Clear 12 1024 30 0 2.03 206 10:19 05.12.2019
6710 Clear 12 1024 30 0 2.03 206 10:19 05.12.2019
6711 Clear 12 1024 30 0 2.03 206 09:57 05.12.2019
6712 Clear 12 1024 30 0 2.03 206 09:39 05.12.2019
6713 Clear 12 1024 30 0 2.03 206 09:20 05.12.2019
6714 Clear 12 1024 30 0 2.03 206 09:20 05.12.2019
6715 Clear 12 1024 30 0 2.03 206 08:56 05.12.2019
6716 Clear 12 1024 30 0 2.03 206 08:37 05.12.2019
6717 Clear 12 1026 21 0 1.83 221 08:19 05.12.2019
6718 Clear 12 1026 21 0 1.84 220 08:19 05.12.2019
6719 Clear 12 1026 21 0 1.84 220 08:19 05.12.2019
6720 Clear 12 1026 21 0 1.84 220 07:41 05.12.2019
6721 Clear 12 1026 21 0 1.84 220 07:23 05.12.2019
6722 Clear 12 1026 21 0 1.84 220 06:48 05.12.2019
6723 Clear 12 1026 21 0 1.84 220 06:24 05.12.2019
6724 Clear 12 1026 21 0 1.84 220 05:56 05.12.2019
6725 Clear 12 1026 21 0 1.84 220 05:24 05.12.2019
6726 Clear 7 1028 25 0 2.65 351 04:59 05.12.2019
6727 Clear 7 1028 25 0 2.65 351 03:41 05.12.2019
6728 Clear 7 1028 25 0 2.65 351 02:42 05.12.2019
6729 Clear 4 1027 21 0 3.64 354 02:22 05.12.2019
6730 Clear 4 1027 21 0 3.64 354 01:51 05.12.2019
6731 Clear 4 1027 23 0 3.66 354 01:23 05.12.2019
6732 Clear 4 1027 23 0 3.66 354 00:44 05.12.2019
6733 Clear 4 1027 23 0 3.66 354 00:21 05.12.2019
6734 Clear 4 1027 23 0 3.66 354 00:21 05.12.2019
6735 Clear 4 1027 23 0 3.66 354 23:55 04.12.2019
6736 Clear 4 1027 23 0 3.66 354 23:37 04.12.2019
6737 Clear 4 1027 27 0 3.74 355 23:18 04.12.2019
6738 Clear 4 1027 27 0 3.74 355 22:39 04.12.2019
6739 Clear 4 1027 27 0 3.74 355 22:20 04.12.2019
6740 Clear 4 1027 27 0 3.74 355 21:58 04.12.2019
6741 Clear 4 1027 27 0 3.74 355 21:39 04.12.2019
6742 Clear 4 1027 27 0 3.74 355 21:20 04.12.2019
6743 Clear 4 1027 27 0 3.74 355 20:58 04.12.2019
6744 Clear 4 1027 27 0 3.74 355 20:40 04.12.2019
6745 Clouds 5 1027 32 0 3.42 354 20:21 04.12.2019
6746 Clouds 5 1027 32 0 3.42 354 19:58 04.12.2019
6747 Clouds 5 1027 32 0 3.42 354 19:38 04.12.2019
6748 Clouds 5 1027 32 0 3.42 354 19:20 04.12.2019
6749 Clouds 5 1027 32 0 3.42 354 18:56 04.12.2019
6750 Clouds 5 1027 32 0 3.42 354 18:38 04.12.2019
6751 Clouds 5 1027 32 0 3.42 354 18:20 04.12.2019
6752 Clouds 5 1027 32 0 3.42 354 17:40 04.12.2019
6753 Clouds 5 1027 34 0 2.99 1 17:21 04.12.2019
6754 Clouds 5 1027 34 0 2.99 1 16:59 04.12.2019
6755 Clouds 5 1027 34 0 2.99 1 16:39 04.12.2019
6756 Clouds 5 1027 34 0 2.99 1 16:19 04.12.2019
6757 Clouds 5 1027 34 0 2.99 1 15:55 04.12.2019
6758 Clouds 5 1027 34 0 2.99 1 15:37 04.12.2019
6759 Clouds 5 1027 34 0 2.99 1 15:19 04.12.2019
6760 Clouds 5 1027 34 0 2.99 1 14:44 04.12.2019
6761 Clouds 5 1027 34 0 2.99 1 14:23 04.12.2019
6762 Clouds 5 1024 50 0 2.5 14 13:59 04.12.2019
6763 Clouds 5 1024 50 0 2.5 14 13:38 04.12.2019
6764 Clouds 5 1024 50 0 2.5 14 13:20 04.12.2019
6765 Clear 5 1023 50 0 2.39 13 12:45 04.12.2019
6766 Clear 5 1023 50 0 2.39 13 12:25 04.12.2019
6767 Clear 5 1023 50 0 2.39 13 11:57 04.12.2019
6768 Clear 5 1023 50 0 2.39 13 11:39 04.12.2019
6769 Clear 12 1022 30 0 2.1 202 11:21 04.12.2019
6770 Clear 12 1022 30 0 2.1 202 11:21 04.12.2019
6771 Clear 12 1022 30 0 2.1 202 10:44 04.12.2019
6772 Clear 12 1022 30 0 2.1 202 10:24 04.12.2019
6773 Clear 12 1022 30 0 2.1 202 09:57 04.12.2019
6774 Clear 12 1022 30 0 2.1 202 09:39 04.12.2019
6775 Clear 12 1022 30 0 2.1 202 09:20 04.12.2019
6776 Clear 12 1022 30 0 2.1 202 08:41 04.12.2019
6777 Clear 12 1022 30 0 2.1 202 08:23 04.12.2019
6778 Clear 12 1024 22 0 1.83 213 07:51 04.12.2019
6779 Clear 12 1024 22 0 1.83 213 07:30 04.12.2019
6780 Clear 12 1024 22 0 1.83 213 06:51 04.12.2019
6781 Clear 12 1024 22 0 1.83 213 06:31 04.12.2019
6782 Clear 12 1024 22 0 1.83 213 05:43 04.12.2019
6783 Clear 12 1024 22 0 1.83 213 05:43 04.12.2019
6784 Clear 7 1027 25 0 2.73 349 04:31 04.12.2019
6785 Clear 7 1027 25 0 2.73 349 03:25 04.12.2019
6786 Clear 4 1025 21 0 3.87 357 01:21 04.12.2019
6787 Clear 4 1025 22 0 3.9 358 00:40 04.12.2019
6788 Clear 4 1025 22 0 3.9 358 00:40 04.12.2019
6789 Clear 4 1025 22 0 3.9 358 00:19 04.12.2019
6790 Clear 4 1025 22 0 3.9 358 23:41 03.12.2019
6791 Clear 4 1026 25 0 4.04 357 23:20 03.12.2019
6792 Clear 4 1026 25 0 4.04 357 22:57 03.12.2019
6793 Clear 4 1026 25 0 4.04 357 22:38 03.12.2019
6794 Clear 4 1026 25 0 4.04 357 22:18 03.12.2019
6795 Clear 4 1026 25 0 4.04 357 21:55 03.12.2019
6796 Clear 4 1026 25 0 4.04 357 21:36 03.12.2019
6797 Clear 4 1026 25 0 4.04 357 21:18 03.12.2019
6798 Clear 4 1026 25 0 4.04 357 20:41 03.12.2019
6799 Clear 4 1026 30 0 3.85 3 20:19 03.12.2019
6800 Clear 4 1026 32 0 3.86 2 19:57 03.12.2019
6801 Clear 4 1026 32 0 3.86 2 19:38 03.12.2019
6802 Clear 4 1026 32 0 3.86 2 19:20 03.12.2019
6803 Clear 4 1026 32 0 3.86 2 18:59 03.12.2019
6804 Clear 4 1026 32 0 3.86 2 18:40 03.12.2019
6805 Clear 4 1026 32 0 3.86 2 18:21 03.12.2019
6806 Clear 4 1026 32 0 3.86 2 17:58 03.12.2019
6807 Clear 4 1026 32 0 3.86 2 17:38 03.12.2019
6808 Clear 4 1026 39 0 3.58 355 17:18 03.12.2019
6809 Clear 4 1026 39 0 3.58 355 17:18 03.12.2019
6810 Clear 4 1026 39 0 3.58 355 16:58 03.12.2019
6811 Clear 4 1026 39 0 3.58 355 16:58 03.12.2019
6812 Clear 4 1026 39 0 3.58 355 16:39 03.12.2019
6813 Clear 4 1026 39 0 3.58 355 16:39 03.12.2019
6814 Clear 4 1026 39 0 3.58 355 16:20 03.12.2019
6815 Clear 4 1026 39 0 3.58 355 16:20 03.12.2019
6816 Clear 4 1026 39 0 3.58 355 15:57 03.12.2019
6817 Clear 4 1026 39 0 3.58 355 15:38 03.12.2019
6818 Clear 4 1026 39 0 3.58 355 15:19 03.12.2019
6819 Clear 4 1026 39 0 3.58 355 14:43 03.12.2019
6820 Clear 4 1023 42 0 2.82 9 14:20 03.12.2019
6821 Clear 4 1023 42 0 2.82 9 13:58 03.12.2019
6822 Clear 4 1023 42 0 2.82 9 13:37 03.12.2019
6823 Clear 4 1023 42 0 2.88 12 13:19 03.12.2019
6824 Clear 4 1023 42 0 2.88 12 12:56 03.12.2019
6825 Clear 4 1023 42 0 2.88 12 12:36 03.12.2019
6826 Clear 4 1023 42 0 2.88 12 12:18 03.12.2019
6827 Clear 4 1023 42 0 2.88 12 11:54 03.12.2019
6828 Clear 4 1023 42 0 2.88 12 11:36 03.12.2019
6829 Clear 11 1021 24 0 2.16 200 11:18 03.12.2019
6830 Clear 11 1021 24 0 2.16 200 10:42 03.12.2019
6831 Clear 11 1021 24 0 2.16 200 10:21 03.12.2019
6832 Clear 11 1021 24 0 2.16 200 09:58 03.12.2019
6833 Clear 11 1021 24 0 2.16 200 09:40 03.12.2019
6834 Clear 11 1021 24 0 2.16 200 09:21 03.12.2019
6835 Clear 11 1021 24 0 2.16 200 09:21 03.12.2019
6836 Clear 11 1021 24 0 2.16 200 08:55 03.12.2019
6837 Clear 11 1021 24 0 2.16 200 08:37 03.12.2019
6838 Clear 11 1024 18 0 1.84 224 08:18 03.12.2019
6839 Clear 10 1024 20 0 2 228 07:49 03.12.2019
6840 Clear 10 1024 20 0 2 228 07:24 03.12.2019
6841 Clear 10 1024 20 0 2 228 06:23 03.12.2019
6842 Clear 10 1024 20 0 2 228 05:59 03.12.2019
6843 Clear 5 1028 26 0 2.58 355 04:55 03.12.2019
6844 Clear 5 1028 26 0 2.58 355 03:40 03.12.2019
6845 Clear 5 1028 26 0 2.58 355 03:20 03.12.2019
6846 Clear 5 1028 26 0 2.58 355 02:49 03.12.2019
6847 Clear 5 1028 26 0 2.58 355 02:31 03.12.2019
6848 Clear 2 1028 29 0 3.21 1 01:46 03.12.2019
6849 Clear 2 1028 30 0 3.18 3 01:28 03.12.2019
6850 Clear 2 1028 30 0 3.18 3 00:56 03.12.2019
6851 Clear 2 1028 30 0 3.18 3 00:38 03.12.2019
6852 Clear 2 1028 30 0 3.18 3 00:20 03.12.2019
6853 Clear 2 1028 30 0 3.18 3 23:43 02.12.2019
6854 Clear 2 1028 32 0 2.92 5 23:20 02.12.2019
6855 Clear 2 1028 32 0 2.92 5 22:42 02.12.2019
6856 Clear 2 1028 32 0 2.92 5 22:23 02.12.2019
6857 Clear 2 1028 32 0 2.92 5 21:59 02.12.2019
6858 Clear 2 1028 32 0 2.92 5 21:59 02.12.2019
6859 Clear 2 1028 32 0 2.92 5 21:38 02.12.2019
6860 Clear 2 1028 32 0 2.92 5 21:19 02.12.2019
6861 Clear 2 1028 32 0 2.92 5 20:56 02.12.2019
6862 Clear 2 1028 32 0 2.92 5 20:56 02.12.2019
6863 Clear 2 1028 32 0 2.92 5 20:38 02.12.2019
6864 Clear 2 1028 34 0 2.68 14 20:20 02.12.2019
6865 Clear 2 1028 34 0 2.68 14 19:56 02.12.2019
6866 Clear 2 1028 34 0 2.68 14 19:38 02.12.2019
6867 Clear 2 1028 34 0 2.68 14 19:19 02.12.2019
6868 Clear 2 1028 34 0 2.68 14 18:46 02.12.2019
6869 Clear 2 1028 34 0 2.68 14 18:21 02.12.2019
6870 Clear